<?xml version="1.0" encoding="UTF-8" standalone="no" ?>
<gpx xmlns="http://www.topografix.com/GPX/1/1" xmlns:xsi="http://www.w3.org/2001/XMLSchema-instance" xsi:schemaLocation="http://www.topografix.com/GPX/1/1 http://www.topografix.com/GPX/1/1/gpx.xsd" version="1.1" creator="VisuGPX - https://www.visugpx.com">
  <metadata>
    <name>balade du coq 2011</name>
    <desc><![CDATA[balade du coq 2011]]></desc>
  </metadata>
  <trk>
    <name><![CDATA[balade du coq 2011_1]]></name>
    <trkseg>
      <trkpt lat="43.25076" lon="6.52773">
        <ele>25.6123046875</ele>
        <time>2011-10-02T05:39:14Z</time>
      </trkpt>
      <trkpt lat="43.2506" lon="6.52757">
        <ele>22.728271484375</ele>
        <time>2011-10-02T05:39:19Z</time>
      </trkpt>
      <trkpt lat="43.25029" lon="6.52733">
        <ele>10.711791992188</ele>
        <time>2011-10-02T05:39:28Z</time>
      </trkpt>
      <trkpt lat="43.25019" lon="6.52716">
        <ele>8.7891845703125</ele>
        <time>2011-10-02T05:39:33Z</time>
      </trkpt>
      <trkpt lat="43.25022" lon="6.52695">
        <ele>16.479736328125</ele>
        <time>2011-10-02T05:39:38Z</time>
      </trkpt>
      <trkpt lat="43.25034" lon="6.52672">
        <ele>24.651000976562</ele>
        <time>2011-10-02T05:39:44Z</time>
      </trkpt>
      <trkpt lat="43.25047" lon="6.52647">
        <ele>31.860717773438</ele>
        <time>2011-10-02T05:39:50Z</time>
      </trkpt>
      <trkpt lat="43.2505" lon="6.52625">
        <ele>13.115112304688</ele>
        <time>2011-10-02T05:39:55Z</time>
      </trkpt>
      <trkpt lat="43.25048" lon="6.52593">
        <ele>4.4632568359375</ele>
        <time>2011-10-02T05:40:02Z</time>
      </trkpt>
      <trkpt lat="43.25041" lon="6.52563">
        <ele>1.579345703125</ele>
        <time>2011-10-02T05:40:09Z</time>
      </trkpt>
      <trkpt lat="43.25036" lon="6.52541">
        <ele>-3.227294921875</ele>
        <time>2011-10-02T05:40:14Z</time>
      </trkpt>
      <trkpt lat="43.25032" lon="6.52504">
        <ele>6.866455078125</ele>
        <time>2011-10-02T05:40:22Z</time>
      </trkpt>
      <trkpt lat="43.25026" lon="6.52472">
        <ele>18.40234375</ele>
        <time>2011-10-02T05:40:29Z</time>
      </trkpt>
      <trkpt lat="43.25019" lon="6.52436">
        <ele>23.689575195312</ele>
        <time>2011-10-02T05:40:37Z</time>
      </trkpt>
      <trkpt lat="43.25013" lon="6.52405">
        <ele>26.092895507812</ele>
        <time>2011-10-02T05:40:44Z</time>
      </trkpt>
      <trkpt lat="43.25012" lon="6.52378">
        <ele>26.573608398438</ele>
        <time>2011-10-02T05:40:50Z</time>
      </trkpt>
      <trkpt lat="43.25022" lon="6.52352">
        <ele>26.092895507812</ele>
        <time>2011-10-02T05:40:56Z</time>
      </trkpt>
      <trkpt lat="43.25036" lon="6.52324">
        <ele>23.689575195312</ele>
        <time>2011-10-02T05:41:03Z</time>
      </trkpt>
      <trkpt lat="43.25053" lon="6.52286">
        <ele>25.6123046875</ele>
        <time>2011-10-02T05:41:12Z</time>
      </trkpt>
      <trkpt lat="43.25073" lon="6.52242">
        <ele>26.092895507812</ele>
        <time>2011-10-02T05:41:23Z</time>
      </trkpt>
      <trkpt lat="43.25089" lon="6.52203">
        <ele>24.651000976562</ele>
        <time>2011-10-02T05:41:32Z</time>
      </trkpt>
      <trkpt lat="43.25099" lon="6.5217">
        <ele>23.689575195312</ele>
        <time>2011-10-02T05:41:40Z</time>
      </trkpt>
      <trkpt lat="43.25114" lon="6.52128">
        <ele>26.092895507812</ele>
        <time>2011-10-02T05:41:50Z</time>
      </trkpt>
      <trkpt lat="43.25131" lon="6.52095">
        <ele>27.534912109375</ele>
        <time>2011-10-02T05:41:59Z</time>
      </trkpt>
      <trkpt lat="43.25147" lon="6.5206">
        <ele>30.418823242188</ele>
        <time>2011-10-02T05:42:09Z</time>
      </trkpt>
      <trkpt lat="43.25156" lon="6.52035">
        <ele>28.015502929688</ele>
        <time>2011-10-02T05:42:16Z</time>
      </trkpt>
      <trkpt lat="43.25169" lon="6.52004">
        <ele>28.976928710938</ele>
        <time>2011-10-02T05:42:25Z</time>
      </trkpt>
      <trkpt lat="43.25182" lon="6.51975">
        <ele>31.380126953125</ele>
        <time>2011-10-02T05:42:34Z</time>
      </trkpt>
      <trkpt lat="43.25196" lon="6.51948">
        <ele>33.302856445312</ele>
        <time>2011-10-02T05:42:42Z</time>
      </trkpt>
      <trkpt lat="43.25206" lon="6.51934">
        <ele>33.783447265625</ele>
        <time>2011-10-02T05:42:47Z</time>
      </trkpt>
      <trkpt lat="43.25209" lon="6.5193">
        <ele>33.783447265625</ele>
        <time>2011-10-02T05:42:48Z</time>
      </trkpt>
      <trkpt lat="43.25204" lon="6.51915">
        <ele>34.26416015625</ele>
        <time>2011-10-02T05:42:52Z</time>
      </trkpt>
      <trkpt lat="43.25196" lon="6.51919">
        <ele>35.225463867188</ele>
        <time>2011-10-02T05:42:56Z</time>
      </trkpt>
      <trkpt lat="43.25198" lon="6.51929">
        <ele>35.7060546875</ele>
        <time>2011-10-02T05:43:00Z</time>
      </trkpt>
      <trkpt lat="43.25208" lon="6.51925">
        <ele>36.186767578125</ele>
        <time>2011-10-02T05:43:03Z</time>
      </trkpt>
      <trkpt lat="43.25211" lon="6.51909">
        <ele>37.148071289062</ele>
        <time>2011-10-02T05:43:06Z</time>
      </trkpt>
      <trkpt lat="43.25216" lon="6.51864">
        <ele>38.109375</ele>
        <time>2011-10-02T05:43:13Z</time>
      </trkpt>
      <trkpt lat="43.25219" lon="6.5185">
        <ele>38.590087890625</ele>
        <time>2011-10-02T05:43:15Z</time>
      </trkpt>
      <trkpt lat="43.25235" lon="6.51799">
        <ele>41.473999023438</ele>
        <time>2011-10-02T05:43:24Z</time>
      </trkpt>
      <trkpt lat="43.25241" lon="6.51786">
        <ele>42.435424804688</ele>
        <time>2011-10-02T05:43:27Z</time>
      </trkpt>
      <trkpt lat="43.25263" lon="6.51745">
        <ele>42.916015625</ele>
        <time>2011-10-02T05:43:36Z</time>
      </trkpt>
      <trkpt lat="43.25269" lon="6.51733">
        <ele>43.396606445312</ele>
        <time>2011-10-02T05:43:38Z</time>
      </trkpt>
      <trkpt lat="43.25277" lon="6.51715">
        <ele>42.916015625</ele>
        <time>2011-10-02T05:43:41Z</time>
      </trkpt>
      <trkpt lat="43.25282" lon="6.51701">
        <ele>42.435424804688</ele>
        <time>2011-10-02T05:43:43Z</time>
      </trkpt>
      <trkpt lat="43.25296" lon="6.51636">
        <ele>39.55126953125</ele>
        <time>2011-10-02T05:43:51Z</time>
      </trkpt>
      <trkpt lat="43.25305" lon="6.51579">
        <ele>35.225463867188</ele>
        <time>2011-10-02T05:43:57Z</time>
      </trkpt>
      <trkpt lat="43.25314" lon="6.51513">
        <ele>33.302856445312</ele>
        <time>2011-10-02T05:44:03Z</time>
      </trkpt>
      <trkpt lat="43.25315" lon="6.51502">
        <ele>32.822265625</ele>
        <time>2011-10-02T05:44:04Z</time>
      </trkpt>
      <trkpt lat="43.25309" lon="6.51447">
        <ele>31.860717773438</ele>
        <time>2011-10-02T05:44:09Z</time>
      </trkpt>
      <trkpt lat="43.25304" lon="6.51413">
        <ele>32.341552734375</ele>
        <time>2011-10-02T05:44:12Z</time>
      </trkpt>
      <trkpt lat="43.2531" lon="6.5136">
        <ele>32.341552734375</ele>
        <time>2011-10-02T05:44:17Z</time>
      </trkpt>
      <trkpt lat="43.2531" lon="6.51319">
        <ele>30.418823242188</ele>
        <time>2011-10-02T05:44:21Z</time>
      </trkpt>
      <trkpt lat="43.25303" lon="6.51286">
        <ele>28.976928710938</ele>
        <time>2011-10-02T05:44:24Z</time>
      </trkpt>
      <trkpt lat="43.25301" lon="6.51221">
        <ele>25.131713867188</ele>
        <time>2011-10-02T05:44:29Z</time>
      </trkpt>
      <trkpt lat="43.253" lon="6.51172">
        <ele>22.728271484375</ele>
        <time>2011-10-02T05:44:33Z</time>
      </trkpt>
      <trkpt lat="43.25289" lon="6.51124">
        <ele>19.844360351562</ele>
        <time>2011-10-02T05:44:37Z</time>
      </trkpt>
      <trkpt lat="43.2528" lon="6.51075">
        <ele>17.921752929688</ele>
        <time>2011-10-02T05:44:41Z</time>
      </trkpt>
      <trkpt lat="43.25276" lon="6.50999">
        <ele>17.441162109375</ele>
        <time>2011-10-02T05:44:48Z</time>
      </trkpt>
      <trkpt lat="43.25267" lon="6.50951">
        <ele>17.441162109375</ele>
        <time>2011-10-02T05:44:53Z</time>
      </trkpt>
      <trkpt lat="43.25251" lon="6.50909">
        <ele>16.479736328125</ele>
        <time>2011-10-02T05:44:58Z</time>
      </trkpt>
      <trkpt lat="43.25218" lon="6.50844">
        <ele>14.076416015625</ele>
        <time>2011-10-02T05:45:07Z</time>
      </trkpt>
      <trkpt lat="43.25195" lon="6.50807">
        <ele>13.595825195312</ele>
        <time>2011-10-02T05:45:13Z</time>
      </trkpt>
      <trkpt lat="43.25164" lon="6.50766">
        <ele>13.595825195312</ele>
        <time>2011-10-02T05:45:21Z</time>
      </trkpt>
      <trkpt lat="43.25156" lon="6.50751">
        <ele>14.557006835938</ele>
        <time>2011-10-02T05:45:24Z</time>
      </trkpt>
      <trkpt lat="43.25155" lon="6.5073">
        <ele>15.037719726562</ele>
        <time>2011-10-02T05:45:28Z</time>
      </trkpt>
      <trkpt lat="43.25166" lon="6.50715">
        <ele>15.037719726562</ele>
        <time>2011-10-02T05:45:32Z</time>
      </trkpt>
      <trkpt lat="43.25175" lon="6.50704">
        <ele>15.037719726562</ele>
        <time>2011-10-02T05:45:35Z</time>
      </trkpt>
      <trkpt lat="43.25182" lon="6.50697">
        <ele>14.557006835938</ele>
        <time>2011-10-02T05:45:37Z</time>
      </trkpt>
      <trkpt lat="43.25188" lon="6.50688">
        <ele>14.557006835938</ele>
        <time>2011-10-02T05:45:39Z</time>
      </trkpt>
      <trkpt lat="43.25208" lon="6.50659">
        <ele>14.076416015625</ele>
        <time>2011-10-02T05:45:45Z</time>
      </trkpt>
      <trkpt lat="43.2521" lon="6.50638">
        <ele>13.115112304688</ele>
        <time>2011-10-02T05:45:48Z</time>
      </trkpt>
      <trkpt lat="43.25211" lon="6.50624">
        <ele>13.115112304688</ele>
        <time>2011-10-02T05:45:50Z</time>
      </trkpt>
      <trkpt lat="43.2521" lon="6.5061">
        <ele>11.192504882812</ele>
        <time>2011-10-02T05:45:52Z</time>
      </trkpt>
      <trkpt lat="43.25212" lon="6.50588">
        <ele>12.15380859375</ele>
        <time>2011-10-02T05:45:55Z</time>
      </trkpt>
      <trkpt lat="43.25212" lon="6.50566">
        <ele>14.076416015625</ele>
        <time>2011-10-02T05:45:58Z</time>
      </trkpt>
      <trkpt lat="43.25221" lon="6.50534">
        <ele>14.076416015625</ele>
        <time>2011-10-02T05:46:04Z</time>
      </trkpt>
      <trkpt lat="43.25225" lon="6.50523">
        <ele>14.076416015625</ele>
        <time>2011-10-02T05:46:06Z</time>
      </trkpt>
      <trkpt lat="43.25237" lon="6.50468">
        <ele>12.634399414062</ele>
        <time>2011-10-02T05:46:15Z</time>
      </trkpt>
      <trkpt lat="43.2524" lon="6.50456">
        <ele>13.115112304688</ele>
        <time>2011-10-02T05:46:17Z</time>
      </trkpt>
      <trkpt lat="43.25247" lon="6.50434">
        <ele>13.595825195312</ele>
        <time>2011-10-02T05:46:21Z</time>
      </trkpt>
      <trkpt lat="43.25255" lon="6.50387">
        <ele>14.557006835938</ele>
        <time>2011-10-02T05:46:29Z</time>
      </trkpt>
      <trkpt lat="43.25262" lon="6.50338">
        <ele>14.076416015625</ele>
        <time>2011-10-02T05:46:36Z</time>
      </trkpt>
      <trkpt lat="43.2527" lon="6.50298">
        <ele>15.037719726562</ele>
        <time>2011-10-02T05:46:42Z</time>
      </trkpt>
      <trkpt lat="43.25276" lon="6.50272">
        <ele>13.595825195312</ele>
        <time>2011-10-02T05:46:46Z</time>
      </trkpt>
      <trkpt lat="43.25286" lon="6.50211">
        <ele>13.115112304688</ele>
        <time>2011-10-02T05:46:56Z</time>
      </trkpt>
      <trkpt lat="43.25295" lon="6.5015">
        <ele>14.557006835938</ele>
        <time>2011-10-02T05:47:06Z</time>
      </trkpt>
      <trkpt lat="43.25303" lon="6.50106">
        <ele>16.96044921875</ele>
        <time>2011-10-02T05:47:14Z</time>
      </trkpt>
      <trkpt lat="43.25316" lon="6.5006">
        <ele>18.883056640625</ele>
        <time>2011-10-02T05:47:23Z</time>
      </trkpt>
      <trkpt lat="43.25329" lon="6.50016">
        <ele>17.921752929688</ele>
        <time>2011-10-02T05:47:32Z</time>
      </trkpt>
      <trkpt lat="43.25349" lon="6.49973">
        <ele>17.441162109375</ele>
        <time>2011-10-02T05:47:41Z</time>
      </trkpt>
      <trkpt lat="43.25359" lon="6.49955">
        <ele>17.921752929688</ele>
        <time>2011-10-02T05:47:45Z</time>
      </trkpt>
      <trkpt lat="43.25365" lon="6.49947">
        <ele>17.921752929688</ele>
        <time>2011-10-02T05:47:47Z</time>
      </trkpt>
      <trkpt lat="43.25378" lon="6.49945">
        <ele>17.441162109375</ele>
        <time>2011-10-02T05:47:51Z</time>
      </trkpt>
      <trkpt lat="43.25388" lon="6.4996">
        <ele>18.40234375</ele>
        <time>2011-10-02T05:47:55Z</time>
      </trkpt>
      <trkpt lat="43.25402" lon="6.49971">
        <ele>19.36376953125</ele>
        <time>2011-10-02T05:48:00Z</time>
      </trkpt>
      <trkpt lat="43.25426" lon="6.49979">
        <ele>21.286376953125</ele>
        <time>2011-10-02T05:48:09Z</time>
      </trkpt>
      <trkpt lat="43.25447" lon="6.49984">
        <ele>22.728271484375</ele>
        <time>2011-10-02T05:48:17Z</time>
      </trkpt>
      <trkpt lat="43.25469" lon="6.4998">
        <ele>24.651000976562</ele>
        <time>2011-10-02T05:48:26Z</time>
      </trkpt>
      <trkpt lat="43.25486" lon="6.49975">
        <ele>25.131713867188</ele>
        <time>2011-10-02T05:48:32Z</time>
      </trkpt>
      <trkpt lat="43.25496" lon="6.49976">
        <ele>25.131713867188</ele>
        <time>2011-10-02T05:48:37Z</time>
      </trkpt>
      <trkpt lat="43.25497" lon="6.49976">
        <ele>25.131713867188</ele>
        <time>2011-10-02T05:48:38Z</time>
      </trkpt>
      <trkpt lat="43.25497" lon="6.49976">
        <ele>26.092895507812</ele>
        <time>2011-10-02T05:48:50Z</time>
      </trkpt>
      <trkpt lat="43.25496" lon="6.49977">
        <ele>27.534912109375</ele>
        <time>2011-10-02T05:49:13Z</time>
      </trkpt>
      <trkpt lat="43.25496" lon="6.49979">
        <ele>27.054321289062</ele>
        <time>2011-10-02T05:49:25Z</time>
      </trkpt>
      <trkpt lat="43.25498" lon="6.4998">
        <ele>26.573608398438</ele>
        <time>2011-10-02T05:50:02Z</time>
      </trkpt>
      <trkpt lat="43.25497" lon="6.49978">
        <ele>29.938110351562</ele>
        <time>2011-10-02T05:50:30Z</time>
      </trkpt>
      <trkpt lat="43.25499" lon="6.49974">
        <ele>32.822265625</ele>
        <time>2011-10-02T05:54:05Z</time>
      </trkpt>
      <trkpt lat="43.25499" lon="6.49974">
        <ele>32.822265625</ele>
        <time>2011-10-02T05:54:10Z</time>
      </trkpt>
      <trkpt lat="43.25501" lon="6.49962">
        <ele>33.302856445312</ele>
        <time>2011-10-02T05:54:15Z</time>
      </trkpt>
      <trkpt lat="43.25503" lon="6.49955">
        <ele>33.783447265625</ele>
        <time>2011-10-02T05:54:18Z</time>
      </trkpt>
      <trkpt lat="43.2551" lon="6.49935">
        <ele>36.186767578125</ele>
        <time>2011-10-02T05:54:27Z</time>
      </trkpt>
      <trkpt lat="43.25517" lon="6.49917">
        <ele>37.148071289062</ele>
        <time>2011-10-02T05:54:34Z</time>
      </trkpt>
      <trkpt lat="43.25526" lon="6.49896">
        <ele>38.590087890625</ele>
        <time>2011-10-02T05:54:42Z</time>
      </trkpt>
      <trkpt lat="43.25534" lon="6.49878">
        <ele>37.628662109375</ele>
        <time>2011-10-02T05:54:48Z</time>
      </trkpt>
      <trkpt lat="43.25538" lon="6.49874">
        <ele>37.148071289062</ele>
        <time>2011-10-02T05:54:50Z</time>
      </trkpt>
      <trkpt lat="43.25538" lon="6.49873">
        <ele>36.66748046875</ele>
        <time>2011-10-02T05:54:57Z</time>
      </trkpt>
      <trkpt lat="43.25538" lon="6.49875">
        <ele>37.148071289062</ele>
        <time>2011-10-02T05:55:06Z</time>
      </trkpt>
      <trkpt lat="43.25537" lon="6.49874">
        <ele>36.66748046875</ele>
        <time>2011-10-02T05:55:17Z</time>
      </trkpt>
      <trkpt lat="43.25539" lon="6.49871">
        <ele>37.148071289062</ele>
        <time>2011-10-02T05:55:20Z</time>
      </trkpt>
      <trkpt lat="43.2555" lon="6.49856">
        <ele>39.55126953125</ele>
        <time>2011-10-02T05:55:27Z</time>
      </trkpt>
      <trkpt lat="43.2556" lon="6.49856">
        <ele>40.993408203125</ele>
        <time>2011-10-02T05:55:32Z</time>
      </trkpt>
      <trkpt lat="43.25562" lon="6.49855">
        <ele>41.473999023438</ele>
        <time>2011-10-02T05:55:36Z</time>
      </trkpt>
      <trkpt lat="43.25562" lon="6.49855">
        <ele>42.435424804688</ele>
        <time>2011-10-02T05:55:45Z</time>
      </trkpt>
      <trkpt lat="43.25564" lon="6.49857">
        <ele>44.358032226562</ele>
        <time>2011-10-02T05:55:54Z</time>
      </trkpt>
      <trkpt lat="43.25565" lon="6.49858">
        <ele>43.877319335938</ele>
        <time>2011-10-02T05:55:59Z</time>
      </trkpt>
      <trkpt lat="43.25581" lon="6.49858">
        <ele>45.319213867188</ele>
        <time>2011-10-02T05:56:07Z</time>
      </trkpt>
      <trkpt lat="43.25594" lon="6.49855">
        <ele>45.799926757812</ele>
        <time>2011-10-02T05:56:13Z</time>
      </trkpt>
      <trkpt lat="43.256" lon="6.4986">
        <ele>47.241821289062</ele>
        <time>2011-10-02T05:56:17Z</time>
      </trkpt>
      <trkpt lat="43.25602" lon="6.49862">
        <ele>47.241821289062</ele>
        <time>2011-10-02T05:56:23Z</time>
      </trkpt>
      <trkpt lat="43.25601" lon="6.49862">
        <ele>45.799926757812</ele>
        <time>2011-10-02T05:56:35Z</time>
      </trkpt>
      <trkpt lat="43.25603" lon="6.49863">
        <ele>47.241821289062</ele>
        <time>2011-10-02T05:56:43Z</time>
      </trkpt>
      <trkpt lat="43.25603" lon="6.49864">
        <ele>47.241821289062</ele>
        <time>2011-10-02T05:56:44Z</time>
      </trkpt>
      <trkpt lat="43.25608" lon="6.49868">
        <ele>47.722534179688</ele>
        <time>2011-10-02T05:56:49Z</time>
      </trkpt>
      <trkpt lat="43.25616" lon="6.49874">
        <ele>49.645263671875</ele>
        <time>2011-10-02T05:56:57Z</time>
      </trkpt>
      <trkpt lat="43.25617" lon="6.49874">
        <ele>49.645263671875</ele>
        <time>2011-10-02T05:56:58Z</time>
      </trkpt>
      <trkpt lat="43.25619" lon="6.49875">
        <ele>49.645263671875</ele>
        <time>2011-10-02T05:57:03Z</time>
      </trkpt>
      <trkpt lat="43.25632" lon="6.49885">
        <ele>51.56787109375</ele>
        <time>2011-10-02T05:57:11Z</time>
      </trkpt>
      <trkpt lat="43.25647" lon="6.49892">
        <ele>52.048583984375</ele>
        <time>2011-10-02T05:57:18Z</time>
      </trkpt>
      <trkpt lat="43.2566" lon="6.49898">
        <ele>53.490478515625</ele>
        <time>2011-10-02T05:57:24Z</time>
      </trkpt>
      <trkpt lat="43.25671" lon="6.49908">
        <ele>57.335815429688</ele>
        <time>2011-10-02T05:57:31Z</time>
      </trkpt>
      <trkpt lat="43.25683" lon="6.49916">
        <ele>60.2197265625</ele>
        <time>2011-10-02T05:57:38Z</time>
      </trkpt>
      <trkpt lat="43.25687" lon="6.49916">
        <ele>61.661743164062</ele>
        <time>2011-10-02T05:57:40Z</time>
      </trkpt>
      <trkpt lat="43.25691" lon="6.49915">
        <ele>63.103637695312</ele>
        <time>2011-10-02T05:57:46Z</time>
      </trkpt>
      <trkpt lat="43.25698" lon="6.49906">
        <ele>65.507080078125</ele>
        <time>2011-10-02T05:57:55Z</time>
      </trkpt>
      <trkpt lat="43.25702" lon="6.499">
        <ele>66.46826171875</ele>
        <time>2011-10-02T05:58:00Z</time>
      </trkpt>
      <trkpt lat="43.25705" lon="6.49892">
        <ele>67.910278320312</ele>
        <time>2011-10-02T05:58:09Z</time>
      </trkpt>
      <trkpt lat="43.25707" lon="6.4989">
        <ele>70.794189453125</ele>
        <time>2011-10-02T05:58:14Z</time>
      </trkpt>
      <trkpt lat="43.2571" lon="6.49879">
        <ele>72.716918945312</ele>
        <time>2011-10-02T05:58:21Z</time>
      </trkpt>
      <trkpt lat="43.2571" lon="6.49873">
        <ele>72.716918945312</ele>
        <time>2011-10-02T05:58:27Z</time>
      </trkpt>
      <trkpt lat="43.25708" lon="6.49872">
        <ele>69.832885742188</ele>
        <time>2011-10-02T05:58:40Z</time>
      </trkpt>
      <trkpt lat="43.25711" lon="6.49867">
        <ele>72.236206054688</ele>
        <time>2011-10-02T05:58:47Z</time>
      </trkpt>
      <trkpt lat="43.25711" lon="6.49865">
        <ele>73.197631835938</ele>
        <time>2011-10-02T05:58:48Z</time>
      </trkpt>
      <trkpt lat="43.2572" lon="6.49852">
        <ele>76.562133789062</ele>
        <time>2011-10-02T05:58:55Z</time>
      </trkpt>
      <trkpt lat="43.25729" lon="6.49831">
        <ele>78.484741210938</ele>
        <time>2011-10-02T05:59:02Z</time>
      </trkpt>
      <trkpt lat="43.25735" lon="6.49812">
        <ele>79.446044921875</ele>
        <time>2011-10-02T05:59:09Z</time>
      </trkpt>
      <trkpt lat="43.25742" lon="6.498">
        <ele>81.368774414062</ele>
        <time>2011-10-02T05:59:14Z</time>
      </trkpt>
      <trkpt lat="43.25751" lon="6.49787">
        <ele>83.77197265625</ele>
        <time>2011-10-02T05:59:20Z</time>
      </trkpt>
      <trkpt lat="43.2576" lon="6.49776">
        <ele>84.252685546875</ele>
        <time>2011-10-02T05:59:25Z</time>
      </trkpt>
      <trkpt lat="43.25772" lon="6.49766">
        <ele>85.694580078125</ele>
        <time>2011-10-02T05:59:31Z</time>
      </trkpt>
      <trkpt lat="43.25785" lon="6.49752">
        <ele>84.7333984375</ele>
        <time>2011-10-02T05:59:36Z</time>
      </trkpt>
      <trkpt lat="43.25806" lon="6.49733">
        <ele>83.77197265625</ele>
        <time>2011-10-02T05:59:42Z</time>
      </trkpt>
      <trkpt lat="43.25817" lon="6.49724">
        <ele>83.77197265625</ele>
        <time>2011-10-02T05:59:45Z</time>
      </trkpt>
      <trkpt lat="43.25832" lon="6.4971">
        <ele>84.7333984375</ele>
        <time>2011-10-02T05:59:51Z</time>
      </trkpt>
      <trkpt lat="43.25847" lon="6.49696">
        <ele>86.656005859375</ele>
        <time>2011-10-02T05:59:58Z</time>
      </trkpt>
      <trkpt lat="43.25866" lon="6.49694">
        <ele>83.291381835938</ele>
        <time>2011-10-02T06:00:04Z</time>
      </trkpt>
      <trkpt lat="43.25879" lon="6.49689">
        <ele>79.926635742188</ele>
        <time>2011-10-02T06:00:09Z</time>
      </trkpt>
      <trkpt lat="43.25893" lon="6.49675">
        <ele>77.5234375</ele>
        <time>2011-10-02T06:00:15Z</time>
      </trkpt>
      <trkpt lat="43.25906" lon="6.49665">
        <ele>72.716918945312</ele>
        <time>2011-10-02T06:00:20Z</time>
      </trkpt>
      <trkpt lat="43.25918" lon="6.4966">
        <ele>73.197631835938</ele>
        <time>2011-10-02T06:00:25Z</time>
      </trkpt>
      <trkpt lat="43.25932" lon="6.49649">
        <ele>73.197631835938</ele>
        <time>2011-10-02T06:00:31Z</time>
      </trkpt>
      <trkpt lat="43.25939" lon="6.49645">
        <ele>72.236206054688</ele>
        <time>2011-10-02T06:00:35Z</time>
      </trkpt>
      <trkpt lat="43.25942" lon="6.49644">
        <ele>71.755493164062</ele>
        <time>2011-10-02T06:00:43Z</time>
      </trkpt>
      <trkpt lat="43.25941" lon="6.49643">
        <ele>75.120239257812</ele>
        <time>2011-10-02T06:00:52Z</time>
      </trkpt>
      <trkpt lat="43.25942" lon="6.49643">
        <ele>76.081420898438</ele>
        <time>2011-10-02T06:01:01Z</time>
      </trkpt>
      <trkpt lat="43.25943" lon="6.49642">
        <ele>76.081420898438</ele>
        <time>2011-10-02T06:01:19Z</time>
      </trkpt>
      <trkpt lat="43.25943" lon="6.49642">
        <ele>75.120239257812</ele>
        <time>2011-10-02T06:01:32Z</time>
      </trkpt>
      <trkpt lat="43.25945" lon="6.49641">
        <ele>75.600830078125</ele>
        <time>2011-10-02T06:02:05Z</time>
      </trkpt>
      <trkpt lat="43.25948" lon="6.4964">
        <ele>78.484741210938</ele>
        <time>2011-10-02T06:02:22Z</time>
      </trkpt>
      <trkpt lat="43.25948" lon="6.49644">
        <ele>77.042846679688</ele>
        <time>2011-10-02T06:02:41Z</time>
      </trkpt>
      <trkpt lat="43.25945" lon="6.49643">
        <ele>73.67822265625</ele>
        <time>2011-10-02T06:03:17Z</time>
      </trkpt>
      <trkpt lat="43.25945" lon="6.49643">
        <ele>73.67822265625</ele>
        <time>2011-10-02T06:03:49Z</time>
      </trkpt>
      <trkpt lat="43.25945" lon="6.49644">
        <ele>72.716918945312</ele>
        <time>2011-10-02T06:04:03Z</time>
      </trkpt>
      <trkpt lat="43.25945" lon="6.49643">
        <ele>72.716918945312</ele>
        <time>2011-10-02T06:04:20Z</time>
      </trkpt>
      <trkpt lat="43.25946" lon="6.49643">
        <ele>73.197631835938</ele>
        <time>2011-10-02T06:04:39Z</time>
      </trkpt>
      <trkpt lat="43.25949" lon="6.4964">
        <ele>71.755493164062</ele>
        <time>2011-10-02T06:04:45Z</time>
      </trkpt>
      <trkpt lat="43.25958" lon="6.49637">
        <ele>70.3134765625</ele>
        <time>2011-10-02T06:04:51Z</time>
      </trkpt>
      <trkpt lat="43.25969" lon="6.49633">
        <ele>71.27490234375</ele>
        <time>2011-10-02T06:04:57Z</time>
      </trkpt>
      <trkpt lat="43.25983" lon="6.49631">
        <ele>71.27490234375</ele>
        <time>2011-10-02T06:05:04Z</time>
      </trkpt>
      <trkpt lat="43.25997" lon="6.49624">
        <ele>69.352294921875</ele>
        <time>2011-10-02T06:05:11Z</time>
      </trkpt>
      <trkpt lat="43.26012" lon="6.49617">
        <ele>68.390869140625</ele>
        <time>2011-10-02T06:05:17Z</time>
      </trkpt>
      <trkpt lat="43.26021" lon="6.4961">
        <ele>70.794189453125</ele>
        <time>2011-10-02T06:05:22Z</time>
      </trkpt>
      <trkpt lat="43.26034" lon="6.49606">
        <ele>69.352294921875</ele>
        <time>2011-10-02T06:05:27Z</time>
      </trkpt>
      <trkpt lat="43.26042" lon="6.49605">
        <ele>68.87158203125</ele>
        <time>2011-10-02T06:05:30Z</time>
      </trkpt>
      <trkpt lat="43.26054" lon="6.49615">
        <ele>67.4296875</ele>
        <time>2011-10-02T06:05:37Z</time>
      </trkpt>
      <trkpt lat="43.26065" lon="6.4962">
        <ele>68.390869140625</ele>
        <time>2011-10-02T06:05:44Z</time>
      </trkpt>
      <trkpt lat="43.26071" lon="6.49625">
        <ele>68.87158203125</ele>
        <time>2011-10-02T06:05:47Z</time>
      </trkpt>
      <trkpt lat="43.26086" lon="6.49623">
        <ele>70.3134765625</ele>
        <time>2011-10-02T06:05:53Z</time>
      </trkpt>
      <trkpt lat="43.26094" lon="6.49617">
        <ele>70.794189453125</ele>
        <time>2011-10-02T06:05:56Z</time>
      </trkpt>
      <trkpt lat="43.26102" lon="6.49622">
        <ele>72.236206054688</ele>
        <time>2011-10-02T06:06:00Z</time>
      </trkpt>
      <trkpt lat="43.26106" lon="6.49639">
        <ele>77.042846679688</ele>
        <time>2011-10-02T06:06:08Z</time>
      </trkpt>
      <trkpt lat="43.26112" lon="6.49654">
        <ele>78.965454101562</ele>
        <time>2011-10-02T06:06:13Z</time>
      </trkpt>
      <trkpt lat="43.2612" lon="6.49665">
        <ele>79.926635742188</ele>
        <time>2011-10-02T06:06:18Z</time>
      </trkpt>
      <trkpt lat="43.26131" lon="6.4967">
        <ele>80.88818359375</ele>
        <time>2011-10-02T06:06:22Z</time>
      </trkpt>
      <trkpt lat="43.26148" lon="6.49674">
        <ele>81.849365234375</ele>
        <time>2011-10-02T06:06:29Z</time>
      </trkpt>
      <trkpt lat="43.2617" lon="6.49683">
        <ele>81.368774414062</ele>
        <time>2011-10-02T06:06:35Z</time>
      </trkpt>
      <trkpt lat="43.26189" lon="6.49696">
        <ele>81.368774414062</ele>
        <time>2011-10-02T06:06:40Z</time>
      </trkpt>
      <trkpt lat="43.26192" lon="6.49699">
        <ele>80.88818359375</ele>
        <time>2011-10-02T06:06:41Z</time>
      </trkpt>
      <trkpt lat="43.26201" lon="6.49711">
        <ele>78.484741210938</ele>
        <time>2011-10-02T06:06:44Z</time>
      </trkpt>
      <trkpt lat="43.26209" lon="6.49733">
        <ele>79.446044921875</ele>
        <time>2011-10-02T06:06:49Z</time>
      </trkpt>
      <trkpt lat="43.2621" lon="6.49744">
        <ele>81.368774414062</ele>
        <time>2011-10-02T06:06:52Z</time>
      </trkpt>
      <trkpt lat="43.26215" lon="6.49767">
        <ele>82.810791015625</ele>
        <time>2011-10-02T06:06:58Z</time>
      </trkpt>
      <trkpt lat="43.26219" lon="6.49789">
        <ele>81.849365234375</ele>
        <time>2011-10-02T06:07:03Z</time>
      </trkpt>
      <trkpt lat="43.26227" lon="6.49816">
        <ele>80.407470703125</ele>
        <time>2011-10-02T06:07:09Z</time>
      </trkpt>
      <trkpt lat="43.26234" lon="6.49839">
        <ele>79.446044921875</ele>
        <time>2011-10-02T06:07:14Z</time>
      </trkpt>
      <trkpt lat="43.26247" lon="6.49852">
        <ele>81.849365234375</ele>
        <time>2011-10-02T06:07:19Z</time>
      </trkpt>
      <trkpt lat="43.26263" lon="6.49851">
        <ele>81.849365234375</ele>
        <time>2011-10-02T06:07:24Z</time>
      </trkpt>
      <trkpt lat="43.26285" lon="6.49831">
        <ele>87.136596679688</ele>
        <time>2011-10-02T06:07:31Z</time>
      </trkpt>
      <trkpt lat="43.26299" lon="6.49811">
        <ele>88.098022460938</ele>
        <time>2011-10-02T06:07:36Z</time>
      </trkpt>
      <trkpt lat="43.26312" lon="6.49802">
        <ele>89.539916992188</ele>
        <time>2011-10-02T06:07:40Z</time>
      </trkpt>
      <trkpt lat="43.26326" lon="6.49794">
        <ele>87.6171875</ele>
        <time>2011-10-02T06:07:43Z</time>
      </trkpt>
      <trkpt lat="43.2634" lon="6.49782">
        <ele>86.656005859375</ele>
        <time>2011-10-02T06:07:46Z</time>
      </trkpt>
      <trkpt lat="43.26361" lon="6.49773">
        <ele>85.213989257812</ele>
        <time>2011-10-02T06:07:50Z</time>
      </trkpt>
      <trkpt lat="43.26369" lon="6.49772">
        <ele>84.7333984375</ele>
        <time>2011-10-02T06:07:52Z</time>
      </trkpt>
      <trkpt lat="43.26379" lon="6.49779">
        <ele>79.926635742188</ele>
        <time>2011-10-02T06:07:57Z</time>
      </trkpt>
      <trkpt lat="43.26392" lon="6.49786">
        <ele>78.004028320312</ele>
        <time>2011-10-02T06:08:01Z</time>
      </trkpt>
      <trkpt lat="43.26395" lon="6.49788">
        <ele>78.004028320312</ele>
        <time>2011-10-02T06:08:02Z</time>
      </trkpt>
      <trkpt lat="43.26412" lon="6.49802">
        <ele>74.158813476562</ele>
        <time>2011-10-02T06:08:07Z</time>
      </trkpt>
      <trkpt lat="43.26423" lon="6.49802">
        <ele>72.716918945312</ele>
        <time>2011-10-02T06:08:10Z</time>
      </trkpt>
      <trkpt lat="43.26427" lon="6.49814">
        <ele>73.197631835938</ele>
        <time>2011-10-02T06:08:15Z</time>
      </trkpt>
      <trkpt lat="43.26428" lon="6.49838">
        <ele>74.158813476562</ele>
        <time>2011-10-02T06:08:23Z</time>
      </trkpt>
      <trkpt lat="43.26435" lon="6.49844">
        <ele>78.004028320312</ele>
        <time>2011-10-02T06:08:28Z</time>
      </trkpt>
      <trkpt lat="43.2644" lon="6.49844">
        <ele>80.88818359375</ele>
        <time>2011-10-02T06:08:31Z</time>
      </trkpt>
      <trkpt lat="43.26449" lon="6.49848">
        <ele>83.77197265625</ele>
        <time>2011-10-02T06:08:37Z</time>
      </trkpt>
      <trkpt lat="43.26454" lon="6.49851">
        <ele>84.7333984375</ele>
        <time>2011-10-02T06:08:40Z</time>
      </trkpt>
      <trkpt lat="43.26461" lon="6.49852">
        <ele>84.7333984375</ele>
        <time>2011-10-02T06:08:43Z</time>
      </trkpt>
      <trkpt lat="43.26469" lon="6.4986">
        <ele>85.694580078125</ele>
        <time>2011-10-02T06:08:49Z</time>
      </trkpt>
      <trkpt lat="43.26475" lon="6.49866">
        <ele>87.6171875</ele>
        <time>2011-10-02T06:08:53Z</time>
      </trkpt>
      <trkpt lat="43.26482" lon="6.49873">
        <ele>89.539916992188</ele>
        <time>2011-10-02T06:08:58Z</time>
      </trkpt>
      <trkpt lat="43.26489" lon="6.49883">
        <ele>87.6171875</ele>
        <time>2011-10-02T06:09:02Z</time>
      </trkpt>
      <trkpt lat="43.26491" lon="6.49886">
        <ele>87.136596679688</ele>
        <time>2011-10-02T06:09:03Z</time>
      </trkpt>
      <trkpt lat="43.26501" lon="6.49901">
        <ele>84.7333984375</ele>
        <time>2011-10-02T06:09:08Z</time>
      </trkpt>
      <trkpt lat="43.26514" lon="6.49902">
        <ele>88.578735351562</ele>
        <time>2011-10-02T06:09:13Z</time>
      </trkpt>
      <trkpt lat="43.2653" lon="6.49909">
        <ele>86.656005859375</ele>
        <time>2011-10-02T06:09:20Z</time>
      </trkpt>
      <trkpt lat="43.26543" lon="6.49911">
        <ele>88.578735351562</ele>
        <time>2011-10-02T06:09:26Z</time>
      </trkpt>
      <trkpt lat="43.26558" lon="6.49907">
        <ele>90.98193359375</ele>
        <time>2011-10-02T06:09:31Z</time>
      </trkpt>
      <trkpt lat="43.26578" lon="6.49908">
        <ele>91.943237304688</ele>
        <time>2011-10-02T06:09:36Z</time>
      </trkpt>
      <trkpt lat="43.26592" lon="6.49917">
        <ele>90.501342773438</ele>
        <time>2011-10-02T06:09:41Z</time>
      </trkpt>
      <trkpt lat="43.26603" lon="6.49914">
        <ele>92.423950195312</ele>
        <time>2011-10-02T06:09:45Z</time>
      </trkpt>
      <trkpt lat="43.26606" lon="6.4991">
        <ele>91.943237304688</ele>
        <time>2011-10-02T06:09:47Z</time>
      </trkpt>
      <trkpt lat="43.26614" lon="6.49914">
        <ele>94.346557617188</ele>
        <time>2011-10-02T06:09:52Z</time>
      </trkpt>
      <trkpt lat="43.26622" lon="6.49912">
        <ele>99.153076171875</ele>
        <time>2011-10-02T06:09:56Z</time>
      </trkpt>
      <trkpt lat="43.26632" lon="6.4991">
        <ele>100.11450195312</ele>
        <time>2011-10-02T06:10:01Z</time>
      </trkpt>
      <trkpt lat="43.26635" lon="6.4991">
        <ele>100.11450195312</ele>
        <time>2011-10-02T06:10:02Z</time>
      </trkpt>
      <trkpt lat="43.26655" lon="6.49919">
        <ele>98.672485351562</ele>
        <time>2011-10-02T06:10:08Z</time>
      </trkpt>
      <trkpt lat="43.26675" lon="6.49925">
        <ele>95.788452148438</ele>
        <time>2011-10-02T06:10:13Z</time>
      </trkpt>
      <trkpt lat="43.26688" lon="6.49922">
        <ele>94.8271484375</ele>
        <time>2011-10-02T06:10:16Z</time>
      </trkpt>
      <trkpt lat="43.26703" lon="6.4992">
        <ele>94.346557617188</ele>
        <time>2011-10-02T06:10:19Z</time>
      </trkpt>
      <trkpt lat="43.26719" lon="6.4991">
        <ele>91.462524414062</ele>
        <time>2011-10-02T06:10:23Z</time>
      </trkpt>
      <trkpt lat="43.26728" lon="6.49893">
        <ele>91.943237304688</ele>
        <time>2011-10-02T06:10:28Z</time>
      </trkpt>
      <trkpt lat="43.26727" lon="6.49886">
        <ele>91.462524414062</ele>
        <time>2011-10-02T06:10:30Z</time>
      </trkpt>
      <trkpt lat="43.26726" lon="6.49869">
        <ele>90.020629882812</ele>
        <time>2011-10-02T06:10:35Z</time>
      </trkpt>
      <trkpt lat="43.26736" lon="6.49861">
        <ele>84.7333984375</ele>
        <time>2011-10-02T06:10:41Z</time>
      </trkpt>
      <trkpt lat="43.2674" lon="6.49854">
        <ele>82.810791015625</ele>
        <time>2011-10-02T06:10:44Z</time>
      </trkpt>
      <trkpt lat="43.2674" lon="6.49846">
        <ele>82.330078125</ele>
        <time>2011-10-02T06:10:46Z</time>
      </trkpt>
      <trkpt lat="43.26735" lon="6.49834">
        <ele>81.849365234375</ele>
        <time>2011-10-02T06:10:49Z</time>
      </trkpt>
      <trkpt lat="43.2674" lon="6.4982">
        <ele>77.042846679688</ele>
        <time>2011-10-02T06:10:54Z</time>
      </trkpt>
      <trkpt lat="43.26749" lon="6.49815">
        <ele>72.236206054688</ele>
        <time>2011-10-02T06:10:58Z</time>
      </trkpt>
      <trkpt lat="43.26756" lon="6.49794">
        <ele>72.716918945312</ele>
        <time>2011-10-02T06:11:04Z</time>
      </trkpt>
      <trkpt lat="43.2676" lon="6.49779">
        <ele>71.755493164062</ele>
        <time>2011-10-02T06:11:10Z</time>
      </trkpt>
      <trkpt lat="43.26757" lon="6.49761">
        <ele>68.390869140625</ele>
        <time>2011-10-02T06:11:16Z</time>
      </trkpt>
      <trkpt lat="43.26759" lon="6.49744">
        <ele>65.507080078125</ele>
        <time>2011-10-02T06:11:22Z</time>
      </trkpt>
      <trkpt lat="43.26759" lon="6.49729">
        <ele>64.545654296875</ele>
        <time>2011-10-02T06:11:27Z</time>
      </trkpt>
      <trkpt lat="43.26758" lon="6.49713">
        <ele>61.661743164062</ele>
        <time>2011-10-02T06:11:31Z</time>
      </trkpt>
      <trkpt lat="43.26764" lon="6.49692">
        <ele>59.258422851562</ele>
        <time>2011-10-02T06:11:36Z</time>
      </trkpt>
      <trkpt lat="43.26759" lon="6.49674">
        <ele>56.855102539062</ele>
        <time>2011-10-02T06:11:41Z</time>
      </trkpt>
      <trkpt lat="43.26743" lon="6.49668">
        <ele>55.893798828125</ele>
        <time>2011-10-02T06:11:45Z</time>
      </trkpt>
      <trkpt lat="43.26729" lon="6.49679">
        <ele>56.37451171875</ele>
        <time>2011-10-02T06:11:49Z</time>
      </trkpt>
      <trkpt lat="43.26716" lon="6.49677">
        <ele>55.4130859375</ele>
        <time>2011-10-02T06:11:53Z</time>
      </trkpt>
      <trkpt lat="43.26711" lon="6.49675">
        <ele>53.009765625</ele>
        <time>2011-10-02T06:11:55Z</time>
      </trkpt>
      <trkpt lat="43.26692" lon="6.49665">
        <ele>50.606567382812</ele>
        <time>2011-10-02T06:12:00Z</time>
      </trkpt>
      <trkpt lat="43.2668" lon="6.49662">
        <ele>51.56787109375</ele>
        <time>2011-10-02T06:12:02Z</time>
      </trkpt>
      <trkpt lat="43.26658" lon="6.49663">
        <ele>50.606567382812</ele>
        <time>2011-10-02T06:12:06Z</time>
      </trkpt>
      <trkpt lat="43.26648" lon="6.49656">
        <ele>50.1259765625</ele>
        <time>2011-10-02T06:12:09Z</time>
      </trkpt>
      <trkpt lat="43.26647" lon="6.49643">
        <ele>47.722534179688</ele>
        <time>2011-10-02T06:12:14Z</time>
      </trkpt>
      <trkpt lat="43.26649" lon="6.49642">
        <ele>47.241821289062</ele>
        <time>2011-10-02T06:12:15Z</time>
      </trkpt>
      <trkpt lat="43.26657" lon="6.49636">
        <ele>45.799926757812</ele>
        <time>2011-10-02T06:12:20Z</time>
      </trkpt>
      <trkpt lat="43.26661" lon="6.49635">
        <ele>44.838623046875</ele>
        <time>2011-10-02T06:12:22Z</time>
      </trkpt>
      <trkpt lat="43.26673" lon="6.4963">
        <ele>42.916015625</ele>
        <time>2011-10-02T06:12:27Z</time>
      </trkpt>
      <trkpt lat="43.2669" lon="6.4962">
        <ele>38.590087890625</ele>
        <time>2011-10-02T06:12:33Z</time>
      </trkpt>
      <trkpt lat="43.2671" lon="6.49604">
        <ele>36.66748046875</ele>
        <time>2011-10-02T06:12:39Z</time>
      </trkpt>
      <trkpt lat="43.26732" lon="6.49591">
        <ele>34.744873046875</ele>
        <time>2011-10-02T06:12:44Z</time>
      </trkpt>
      <trkpt lat="43.2674" lon="6.49588">
        <ele>33.783447265625</ele>
        <time>2011-10-02T06:12:46Z</time>
      </trkpt>
      <trkpt lat="43.26759" lon="6.49574">
        <ele>33.783447265625</ele>
        <time>2011-10-02T06:12:51Z</time>
      </trkpt>
      <trkpt lat="43.26772" lon="6.49565">
        <ele>34.744873046875</ele>
        <time>2011-10-02T06:12:54Z</time>
      </trkpt>
      <trkpt lat="43.26779" lon="6.4956">
        <ele>34.26416015625</ele>
        <time>2011-10-02T06:12:56Z</time>
      </trkpt>
      <trkpt lat="43.26793" lon="6.49556">
        <ele>32.822265625</ele>
        <time>2011-10-02T06:13:00Z</time>
      </trkpt>
      <trkpt lat="43.26815" lon="6.49553">
        <ele>28.976928710938</ele>
        <time>2011-10-02T06:13:07Z</time>
      </trkpt>
      <trkpt lat="43.26828" lon="6.49549">
        <ele>28.976928710938</ele>
        <time>2011-10-02T06:13:11Z</time>
      </trkpt>
      <trkpt lat="43.26845" lon="6.49535">
        <ele>29.938110351562</ele>
        <time>2011-10-02T06:13:15Z</time>
      </trkpt>
      <trkpt lat="43.26858" lon="6.49526">
        <ele>30.418823242188</ele>
        <time>2011-10-02T06:13:18Z</time>
      </trkpt>
      <trkpt lat="43.26878" lon="6.49512">
        <ele>29.45751953125</ele>
        <time>2011-10-02T06:13:23Z</time>
      </trkpt>
      <trkpt lat="43.26891" lon="6.49513">
        <ele>29.45751953125</ele>
        <time>2011-10-02T06:13:26Z</time>
      </trkpt>
      <trkpt lat="43.269" lon="6.49514">
        <ele>29.45751953125</ele>
        <time>2011-10-02T06:13:28Z</time>
      </trkpt>
      <trkpt lat="43.26918" lon="6.49515">
        <ele>28.496215820312</ele>
        <time>2011-10-02T06:13:32Z</time>
      </trkpt>
      <trkpt lat="43.26924" lon="6.49518">
        <ele>28.015502929688</ele>
        <time>2011-10-02T06:13:34Z</time>
      </trkpt>
      <trkpt lat="43.26931" lon="6.49518">
        <ele>27.534912109375</ele>
        <time>2011-10-02T06:13:39Z</time>
      </trkpt>
      <trkpt lat="43.26931" lon="6.4951">
        <ele>28.015502929688</ele>
        <time>2011-10-02T06:13:43Z</time>
      </trkpt>
      <trkpt lat="43.26936" lon="6.49506">
        <ele>27.534912109375</ele>
        <time>2011-10-02T06:13:46Z</time>
      </trkpt>
      <trkpt lat="43.2695" lon="6.49486">
        <ele>28.496215820312</ele>
        <time>2011-10-02T06:13:52Z</time>
      </trkpt>
      <trkpt lat="43.26959" lon="6.4945">
        <ele>29.45751953125</ele>
        <time>2011-10-02T06:13:59Z</time>
      </trkpt>
      <trkpt lat="43.26969" lon="6.49426">
        <ele>31.860717773438</ele>
        <time>2011-10-02T06:14:03Z</time>
      </trkpt>
      <trkpt lat="43.26972" lon="6.49391">
        <ele>33.783447265625</ele>
        <time>2011-10-02T06:14:08Z</time>
      </trkpt>
      <trkpt lat="43.26969" lon="6.49347">
        <ele>37.148071289062</ele>
        <time>2011-10-02T06:14:14Z</time>
      </trkpt>
      <trkpt lat="43.26968" lon="6.49332">
        <ele>38.109375</ele>
        <time>2011-10-02T06:14:16Z</time>
      </trkpt>
      <trkpt lat="43.26973" lon="6.49303">
        <ele>40.032104492188</ele>
        <time>2011-10-02T06:14:20Z</time>
      </trkpt>
      <trkpt lat="43.26985" lon="6.49282">
        <ele>38.109375</ele>
        <time>2011-10-02T06:14:24Z</time>
      </trkpt>
      <trkpt lat="43.27004" lon="6.49273">
        <ele>36.186767578125</ele>
        <time>2011-10-02T06:14:28Z</time>
      </trkpt>
      <trkpt lat="43.27015" lon="6.49267">
        <ele>35.225463867188</ele>
        <time>2011-10-02T06:14:30Z</time>
      </trkpt>
      <trkpt lat="43.27034" lon="6.49238">
        <ele>36.186767578125</ele>
        <time>2011-10-02T06:14:35Z</time>
      </trkpt>
      <trkpt lat="43.27048" lon="6.49214">
        <ele>34.744873046875</ele>
        <time>2011-10-02T06:14:39Z</time>
      </trkpt>
      <trkpt lat="43.27067" lon="6.49195">
        <ele>31.860717773438</ele>
        <time>2011-10-02T06:14:43Z</time>
      </trkpt>
      <trkpt lat="43.27105" lon="6.49164">
        <ele>25.131713867188</ele>
        <time>2011-10-02T06:14:49Z</time>
      </trkpt>
      <trkpt lat="43.27145" lon="6.49131">
        <ele>22.24755859375</ele>
        <time>2011-10-02T06:14:55Z</time>
      </trkpt>
      <trkpt lat="43.27166" lon="6.49122">
        <ele>20.8056640625</ele>
        <time>2011-10-02T06:14:59Z</time>
      </trkpt>
      <trkpt lat="43.27175" lon="6.49118">
        <ele>20.8056640625</ele>
        <time>2011-10-02T06:15:02Z</time>
      </trkpt>
      <trkpt lat="43.27177" lon="6.49109">
        <ele>20.324951171875</ele>
        <time>2011-10-02T06:15:04Z</time>
      </trkpt>
      <trkpt lat="43.27177" lon="6.49089">
        <ele>21.286376953125</ele>
        <time>2011-10-02T06:15:07Z</time>
      </trkpt>
      <trkpt lat="43.2718" lon="6.49069">
        <ele>22.24755859375</ele>
        <time>2011-10-02T06:15:10Z</time>
      </trkpt>
      <trkpt lat="43.27181" lon="6.49035">
        <ele>24.651000976562</ele>
        <time>2011-10-02T06:15:15Z</time>
      </trkpt>
      <trkpt lat="43.27187" lon="6.48988">
        <ele>27.534912109375</ele>
        <time>2011-10-02T06:15:22Z</time>
      </trkpt>
      <trkpt lat="43.27203" lon="6.48943">
        <ele>28.976928710938</ele>
        <time>2011-10-02T06:15:29Z</time>
      </trkpt>
      <trkpt lat="43.27221" lon="6.48903">
        <ele>29.45751953125</ele>
        <time>2011-10-02T06:15:35Z</time>
      </trkpt>
      <trkpt lat="43.27247" lon="6.48848">
        <ele>29.45751953125</ele>
        <time>2011-10-02T06:15:43Z</time>
      </trkpt>
      <trkpt lat="43.27262" lon="6.48813">
        <ele>29.45751953125</ele>
        <time>2011-10-02T06:15:48Z</time>
      </trkpt>
      <trkpt lat="43.27267" lon="6.48778">
        <ele>28.496215820312</ele>
        <time>2011-10-02T06:15:53Z</time>
      </trkpt>
      <trkpt lat="43.27261" lon="6.4873">
        <ele>28.015502929688</ele>
        <time>2011-10-02T06:15:59Z</time>
      </trkpt>
      <trkpt lat="43.27251" lon="6.48653">
        <ele>28.015502929688</ele>
        <time>2011-10-02T06:16:09Z</time>
      </trkpt>
      <trkpt lat="43.27248" lon="6.48631">
        <ele>27.534912109375</ele>
        <time>2011-10-02T06:16:12Z</time>
      </trkpt>
      <trkpt lat="43.27248" lon="6.4861">
        <ele>27.054321289062</ele>
        <time>2011-10-02T06:16:15Z</time>
      </trkpt>
      <trkpt lat="43.27255" lon="6.48579">
        <ele>27.054321289062</ele>
        <time>2011-10-02T06:16:20Z</time>
      </trkpt>
      <trkpt lat="43.27259" lon="6.48542">
        <ele>28.976928710938</ele>
        <time>2011-10-02T06:16:26Z</time>
      </trkpt>
      <trkpt lat="43.27258" lon="6.48527">
        <ele>31.860717773438</ele>
        <time>2011-10-02T06:16:32Z</time>
      </trkpt>
      <trkpt lat="43.27256" lon="6.4852">
        <ele>33.783447265625</ele>
        <time>2011-10-02T06:16:38Z</time>
      </trkpt>
      <trkpt lat="43.27254" lon="6.48518">
        <ele>35.7060546875</ele>
        <time>2011-10-02T06:16:44Z</time>
      </trkpt>
      <trkpt lat="43.27254" lon="6.48514">
        <ele>36.186767578125</ele>
        <time>2011-10-02T06:16:50Z</time>
      </trkpt>
      <trkpt lat="43.27256" lon="6.48504">
        <ele>37.148071289062</ele>
        <time>2011-10-02T06:16:55Z</time>
      </trkpt>
      <trkpt lat="43.27256" lon="6.48485">
        <ele>36.66748046875</ele>
        <time>2011-10-02T06:17:00Z</time>
      </trkpt>
      <trkpt lat="43.27254" lon="6.48468">
        <ele>36.66748046875</ele>
        <time>2011-10-02T06:17:05Z</time>
      </trkpt>
      <trkpt lat="43.27254" lon="6.48452">
        <ele>35.7060546875</ele>
        <time>2011-10-02T06:17:09Z</time>
      </trkpt>
      <trkpt lat="43.27258" lon="6.48429">
        <ele>35.225463867188</ele>
        <time>2011-10-02T06:17:14Z</time>
      </trkpt>
      <trkpt lat="43.27254" lon="6.48409">
        <ele>37.628662109375</ele>
        <time>2011-10-02T06:17:18Z</time>
      </trkpt>
      <trkpt lat="43.27252" lon="6.484">
        <ele>39.070678710938</ele>
        <time>2011-10-02T06:17:20Z</time>
      </trkpt>
      <trkpt lat="43.27254" lon="6.48388">
        <ele>35.225463867188</ele>
        <time>2011-10-02T06:17:25Z</time>
      </trkpt>
      <trkpt lat="43.27258" lon="6.48382">
        <ele>36.186767578125</ele>
        <time>2011-10-02T06:17:30Z</time>
      </trkpt>
      <trkpt lat="43.27259" lon="6.4838">
        <ele>35.7060546875</ele>
        <time>2011-10-02T06:17:32Z</time>
      </trkpt>
      <trkpt lat="43.27261" lon="6.48376">
        <ele>32.822265625</ele>
        <time>2011-10-02T06:17:39Z</time>
      </trkpt>
      <trkpt lat="43.27263" lon="6.48375">
        <ele>31.380126953125</ele>
        <time>2011-10-02T06:17:45Z</time>
      </trkpt>
      <trkpt lat="43.27266" lon="6.48377">
        <ele>26.573608398438</ele>
        <time>2011-10-02T06:17:50Z</time>
      </trkpt>
      <trkpt lat="43.27268" lon="6.48377">
        <ele>23.689575195312</ele>
        <time>2011-10-02T06:17:57Z</time>
      </trkpt>
      <trkpt lat="43.27271" lon="6.48375">
        <ele>23.208984375</ele>
        <time>2011-10-02T06:17:59Z</time>
      </trkpt>
      <trkpt lat="43.27275" lon="6.48368">
        <ele>23.689575195312</ele>
        <time>2011-10-02T06:18:03Z</time>
      </trkpt>
      <trkpt lat="43.27277" lon="6.4836">
        <ele>24.170288085938</ele>
        <time>2011-10-02T06:18:07Z</time>
      </trkpt>
      <trkpt lat="43.27274" lon="6.48342">
        <ele>26.573608398438</ele>
        <time>2011-10-02T06:18:15Z</time>
      </trkpt>
      <trkpt lat="43.27266" lon="6.48318">
        <ele>26.092895507812</ele>
        <time>2011-10-02T06:18:22Z</time>
      </trkpt>
      <trkpt lat="43.27255" lon="6.48286">
        <ele>28.496215820312</ele>
        <time>2011-10-02T06:18:29Z</time>
      </trkpt>
      <trkpt lat="43.27247" lon="6.48251">
        <ele>28.496215820312</ele>
        <time>2011-10-02T06:18:35Z</time>
      </trkpt>
      <trkpt lat="43.27229" lon="6.48212">
        <ele>27.054321289062</ele>
        <time>2011-10-02T06:18:42Z</time>
      </trkpt>
      <trkpt lat="43.27227" lon="6.48207">
        <ele>26.573608398438</ele>
        <time>2011-10-02T06:18:43Z</time>
      </trkpt>
      <trkpt lat="43.27226" lon="6.48189">
        <ele>27.534912109375</ele>
        <time>2011-10-02T06:18:46Z</time>
      </trkpt>
      <trkpt lat="43.27234" lon="6.48186">
        <ele>28.496215820312</ele>
        <time>2011-10-02T06:18:48Z</time>
      </trkpt>
      <trkpt lat="43.2727" lon="6.48176">
        <ele>28.976928710938</ele>
        <time>2011-10-02T06:18:57Z</time>
      </trkpt>
      <trkpt lat="43.27296" lon="6.4817">
        <ele>28.496215820312</ele>
        <time>2011-10-02T06:19:04Z</time>
      </trkpt>
      <trkpt lat="43.27314" lon="6.48165">
        <ele>28.976928710938</ele>
        <time>2011-10-02T06:19:10Z</time>
      </trkpt>
      <trkpt lat="43.27333" lon="6.48163">
        <ele>28.496215820312</ele>
        <time>2011-10-02T06:19:16Z</time>
      </trkpt>
      <trkpt lat="43.27349" lon="6.48165">
        <ele>27.054321289062</ele>
        <time>2011-10-02T06:19:21Z</time>
      </trkpt>
      <trkpt lat="43.27372" lon="6.48177">
        <ele>26.092895507812</ele>
        <time>2011-10-02T06:19:28Z</time>
      </trkpt>
      <trkpt lat="43.27391" lon="6.48185">
        <ele>25.6123046875</ele>
        <time>2011-10-02T06:19:33Z</time>
      </trkpt>
      <trkpt lat="43.27412" lon="6.48183">
        <ele>25.131713867188</ele>
        <time>2011-10-02T06:19:39Z</time>
      </trkpt>
      <trkpt lat="43.27441" lon="6.48177">
        <ele>25.131713867188</ele>
        <time>2011-10-02T06:19:47Z</time>
      </trkpt>
      <trkpt lat="43.27469" lon="6.48176">
        <ele>25.131713867188</ele>
        <time>2011-10-02T06:19:55Z</time>
      </trkpt>
      <trkpt lat="43.27475" lon="6.48175">
        <ele>26.092895507812</ele>
        <time>2011-10-02T06:19:57Z</time>
      </trkpt>
      <trkpt lat="43.27488" lon="6.48155">
        <ele>29.45751953125</ele>
        <time>2011-10-02T06:20:02Z</time>
      </trkpt>
      <trkpt lat="43.27513" lon="6.48116">
        <ele>34.744873046875</ele>
        <time>2011-10-02T06:20:10Z</time>
      </trkpt>
      <trkpt lat="43.27536" lon="6.48074">
        <ele>39.55126953125</ele>
        <time>2011-10-02T06:20:18Z</time>
      </trkpt>
      <trkpt lat="43.27558" lon="6.48035">
        <ele>41.954711914062</ele>
        <time>2011-10-02T06:20:26Z</time>
      </trkpt>
      <trkpt lat="43.27576" lon="6.48">
        <ele>41.954711914062</ele>
        <time>2011-10-02T06:20:33Z</time>
      </trkpt>
      <trkpt lat="43.27584" lon="6.47985">
        <ele>43.396606445312</ele>
        <time>2011-10-02T06:20:36Z</time>
      </trkpt>
      <trkpt lat="43.27598" lon="6.47972">
        <ele>44.358032226562</ele>
        <time>2011-10-02T06:20:40Z</time>
      </trkpt>
      <trkpt lat="43.27622" lon="6.47962">
        <ele>45.799926757812</ele>
        <time>2011-10-02T06:20:47Z</time>
      </trkpt>
      <trkpt lat="43.27641" lon="6.47963">
        <ele>44.838623046875</ele>
        <time>2011-10-02T06:20:53Z</time>
      </trkpt>
      <trkpt lat="43.27652" lon="6.47968">
        <ele>43.877319335938</ele>
        <time>2011-10-02T06:20:57Z</time>
      </trkpt>
      <trkpt lat="43.27671" lon="6.47963">
        <ele>42.435424804688</ele>
        <time>2011-10-02T06:21:03Z</time>
      </trkpt>
      <trkpt lat="43.27686" lon="6.47951">
        <ele>46.280639648438</ele>
        <time>2011-10-02T06:21:08Z</time>
      </trkpt>
      <trkpt lat="43.27689" lon="6.47934">
        <ele>50.606567382812</ele>
        <time>2011-10-02T06:21:12Z</time>
      </trkpt>
      <trkpt lat="43.27687" lon="6.47921">
        <ele>52.529174804688</ele>
        <time>2011-10-02T06:21:16Z</time>
      </trkpt>
      <trkpt lat="43.27686" lon="6.47921">
        <ele>48.683959960938</ele>
        <time>2011-10-02T06:21:24Z</time>
      </trkpt>
      <trkpt lat="43.27685" lon="6.47919">
        <ele>50.606567382812</ele>
        <time>2011-10-02T06:21:37Z</time>
      </trkpt>
      <trkpt lat="43.27683" lon="6.47916">
        <ele>52.529174804688</ele>
        <time>2011-10-02T06:21:46Z</time>
      </trkpt>
      <trkpt lat="43.27682" lon="6.47915">
        <ele>52.529174804688</ele>
        <time>2011-10-02T06:21:47Z</time>
      </trkpt>
      <trkpt lat="43.27681" lon="6.47897">
        <ele>54.932373046875</ele>
        <time>2011-10-02T06:21:53Z</time>
      </trkpt>
      <trkpt lat="43.27679" lon="6.47867">
        <ele>58.297119140625</ele>
        <time>2011-10-02T06:22:01Z</time>
      </trkpt>
      <trkpt lat="43.27676" lon="6.47844">
        <ele>62.142333984375</ele>
        <time>2011-10-02T06:22:08Z</time>
      </trkpt>
      <trkpt lat="43.27671" lon="6.47817">
        <ele>66.948974609375</ele>
        <time>2011-10-02T06:22:16Z</time>
      </trkpt>
      <trkpt lat="43.27668" lon="6.47794">
        <ele>68.390869140625</ele>
        <time>2011-10-02T06:22:22Z</time>
      </trkpt>
      <trkpt lat="43.27667" lon="6.47774">
        <ele>69.352294921875</ele>
        <time>2011-10-02T06:22:27Z</time>
      </trkpt>
      <trkpt lat="43.27664" lon="6.47737">
        <ele>68.87158203125</ele>
        <time>2011-10-02T06:22:34Z</time>
      </trkpt>
      <trkpt lat="43.27659" lon="6.47705">
        <ele>69.352294921875</ele>
        <time>2011-10-02T06:22:40Z</time>
      </trkpt>
      <trkpt lat="43.27654" lon="6.47658">
        <ele>70.3134765625</ele>
        <time>2011-10-02T06:22:48Z</time>
      </trkpt>
      <trkpt lat="43.2765" lon="6.47634">
        <ele>70.794189453125</ele>
        <time>2011-10-02T06:22:52Z</time>
      </trkpt>
      <trkpt lat="43.27637" lon="6.47576">
        <ele>70.3134765625</ele>
        <time>2011-10-02T06:23:01Z</time>
      </trkpt>
      <trkpt lat="43.27632" lon="6.47527">
        <ele>71.755493164062</ele>
        <time>2011-10-02T06:23:08Z</time>
      </trkpt>
      <trkpt lat="43.27633" lon="6.47483">
        <ele>72.716918945312</ele>
        <time>2011-10-02T06:23:15Z</time>
      </trkpt>
      <trkpt lat="43.27647" lon="6.47445">
        <ele>70.794189453125</ele>
        <time>2011-10-02T06:23:21Z</time>
      </trkpt>
      <trkpt lat="43.27668" lon="6.47407">
        <ele>67.910278320312</ele>
        <time>2011-10-02T06:23:27Z</time>
      </trkpt>
      <trkpt lat="43.277" lon="6.47354">
        <ele>63.103637695312</ele>
        <time>2011-10-02T06:23:34Z</time>
      </trkpt>
      <trkpt lat="43.27725" lon="6.47307">
        <ele>60.700317382812</ele>
        <time>2011-10-02T06:23:39Z</time>
      </trkpt>
      <trkpt lat="43.27736" lon="6.47277">
        <ele>59.258422851562</ele>
        <time>2011-10-02T06:23:42Z</time>
      </trkpt>
      <trkpt lat="43.27751" lon="6.47242">
        <ele>58.297119140625</ele>
        <time>2011-10-02T06:23:46Z</time>
      </trkpt>
      <trkpt lat="43.27765" lon="6.47198">
        <ele>57.335815429688</ele>
        <time>2011-10-02T06:23:51Z</time>
      </trkpt>
      <trkpt lat="43.27779" lon="6.47169">
        <ele>59.258422851562</ele>
        <time>2011-10-02T06:23:56Z</time>
      </trkpt>
      <trkpt lat="43.27796" lon="6.47144">
        <ele>61.661743164062</ele>
        <time>2011-10-02T06:24:02Z</time>
      </trkpt>
      <trkpt lat="43.27816" lon="6.4711">
        <ele>65.507080078125</ele>
        <time>2011-10-02T06:24:10Z</time>
      </trkpt>
      <trkpt lat="43.27818" lon="6.47105">
        <ele>65.507080078125</ele>
        <time>2011-10-02T06:24:11Z</time>
      </trkpt>
      <trkpt lat="43.27825" lon="6.47091">
        <ele>66.46826171875</ele>
        <time>2011-10-02T06:24:14Z</time>
      </trkpt>
      <trkpt lat="43.27838" lon="6.47068">
        <ele>66.46826171875</ele>
        <time>2011-10-02T06:24:19Z</time>
      </trkpt>
      <trkpt lat="43.27857" lon="6.47047">
        <ele>67.4296875</ele>
        <time>2011-10-02T06:24:25Z</time>
      </trkpt>
      <trkpt lat="43.2786" lon="6.47044">
        <ele>67.4296875</ele>
        <time>2011-10-02T06:24:26Z</time>
      </trkpt>
      <trkpt lat="43.27873" lon="6.4702">
        <ele>71.755493164062</ele>
        <time>2011-10-02T06:24:32Z</time>
      </trkpt>
      <trkpt lat="43.27885" lon="6.4699">
        <ele>75.600830078125</ele>
        <time>2011-10-02T06:24:40Z</time>
      </trkpt>
      <trkpt lat="43.27895" lon="6.46966">
        <ele>76.562133789062</ele>
        <time>2011-10-02T06:24:47Z</time>
      </trkpt>
      <trkpt lat="43.279" lon="6.46948">
        <ele>79.926635742188</ele>
        <time>2011-10-02T06:24:52Z</time>
      </trkpt>
      <trkpt lat="43.27901" lon="6.46927">
        <ele>85.694580078125</ele>
        <time>2011-10-02T06:24:58Z</time>
      </trkpt>
      <trkpt lat="43.27898" lon="6.46907">
        <ele>87.6171875</ele>
        <time>2011-10-02T06:25:04Z</time>
      </trkpt>
      <trkpt lat="43.27899" lon="6.46885">
        <ele>88.578735351562</ele>
        <time>2011-10-02T06:25:10Z</time>
      </trkpt>
      <trkpt lat="43.27903" lon="6.46857">
        <ele>92.423950195312</ele>
        <time>2011-10-02T06:25:18Z</time>
      </trkpt>
      <trkpt lat="43.27906" lon="6.46838">
        <ele>91.462524414062</ele>
        <time>2011-10-02T06:25:24Z</time>
      </trkpt>
      <trkpt lat="43.27915" lon="6.46817">
        <ele>92.423950195312</ele>
        <time>2011-10-02T06:25:30Z</time>
      </trkpt>
      <trkpt lat="43.27919" lon="6.46795">
        <ele>94.8271484375</ele>
        <time>2011-10-02T06:25:35Z</time>
      </trkpt>
      <trkpt lat="43.27919" lon="6.46776">
        <ele>92.423950195312</ele>
        <time>2011-10-02T06:25:39Z</time>
      </trkpt>
      <trkpt lat="43.2792" lon="6.46772">
        <ele>91.462524414062</ele>
        <time>2011-10-02T06:25:40Z</time>
      </trkpt>
      <trkpt lat="43.27933" lon="6.46774">
        <ele>87.136596679688</ele>
        <time>2011-10-02T06:25:45Z</time>
      </trkpt>
      <trkpt lat="43.27943" lon="6.4677">
        <ele>85.694580078125</ele>
        <time>2011-10-02T06:25:49Z</time>
      </trkpt>
      <trkpt lat="43.27953" lon="6.46758">
        <ele>86.656005859375</ele>
        <time>2011-10-02T06:25:53Z</time>
      </trkpt>
      <trkpt lat="43.27961" lon="6.46737">
        <ele>88.578735351562</ele>
        <time>2011-10-02T06:25:58Z</time>
      </trkpt>
      <trkpt lat="43.2797" lon="6.46708">
        <ele>89.539916992188</ele>
        <time>2011-10-02T06:26:04Z</time>
      </trkpt>
      <trkpt lat="43.27977" lon="6.46688">
        <ele>93.865844726562</ele>
        <time>2011-10-02T06:26:09Z</time>
      </trkpt>
      <trkpt lat="43.27978" lon="6.46661">
        <ele>97.711181640625</ele>
        <time>2011-10-02T06:26:16Z</time>
      </trkpt>
      <trkpt lat="43.27977" lon="6.46628">
        <ele>97.23046875</ele>
        <time>2011-10-02T06:26:25Z</time>
      </trkpt>
      <trkpt lat="43.27978" lon="6.46605">
        <ele>100.11450195312</ele>
        <time>2011-10-02T06:26:32Z</time>
      </trkpt>
      <trkpt lat="43.27982" lon="6.46579">
        <ele>101.55639648438</ele>
        <time>2011-10-02T06:26:40Z</time>
      </trkpt>
      <trkpt lat="43.27985" lon="6.46557">
        <ele>103.95971679688</ele>
        <time>2011-10-02T06:26:46Z</time>
      </trkpt>
      <trkpt lat="43.27993" lon="6.4652">
        <ele>109.24694824219</ele>
        <time>2011-10-02T06:26:56Z</time>
      </trkpt>
      <trkpt lat="43.28" lon="6.46492">
        <ele>108.76623535156</ele>
        <time>2011-10-02T06:27:04Z</time>
      </trkpt>
      <trkpt lat="43.28009" lon="6.46463">
        <ele>108.28564453125</ele>
        <time>2011-10-02T06:27:12Z</time>
      </trkpt>
      <trkpt lat="43.28006" lon="6.46445">
        <ele>110.68884277344</ele>
        <time>2011-10-02T06:27:16Z</time>
      </trkpt>
      <trkpt lat="43.27994" lon="6.46419">
        <ele>113.09228515625</ele>
        <time>2011-10-02T06:27:23Z</time>
      </trkpt>
      <trkpt lat="43.27984" lon="6.46391">
        <ele>115.49560546875</ele>
        <time>2011-10-02T06:27:30Z</time>
      </trkpt>
      <trkpt lat="43.27974" lon="6.46348">
        <ele>115.97619628906</ele>
        <time>2011-10-02T06:27:38Z</time>
      </trkpt>
      <trkpt lat="43.27964" lon="6.463">
        <ele>115.97619628906</ele>
        <time>2011-10-02T06:27:45Z</time>
      </trkpt>
      <trkpt lat="43.27955" lon="6.46249">
        <ele>114.05358886719</ele>
        <time>2011-10-02T06:27:52Z</time>
      </trkpt>
      <trkpt lat="43.27951" lon="6.46229">
        <ele>112.13098144531</ele>
        <time>2011-10-02T06:27:55Z</time>
      </trkpt>
      <trkpt lat="43.27933" lon="6.46198">
        <ele>112.61157226562</ele>
        <time>2011-10-02T06:28:00Z</time>
      </trkpt>
      <trkpt lat="43.27917" lon="6.4617">
        <ele>112.61157226562</ele>
        <time>2011-10-02T06:28:04Z</time>
      </trkpt>
      <trkpt lat="43.27905" lon="6.46135">
        <ele>110.20825195312</ele>
        <time>2011-10-02T06:28:08Z</time>
      </trkpt>
      <trkpt lat="43.27898" lon="6.46115">
        <ele>110.20825195312</ele>
        <time>2011-10-02T06:28:10Z</time>
      </trkpt>
      <trkpt lat="43.27887" lon="6.46056">
        <ele>106.84362792969</ele>
        <time>2011-10-02T06:28:16Z</time>
      </trkpt>
      <trkpt lat="43.27879" lon="6.46002">
        <ele>105.40173339844</ele>
        <time>2011-10-02T06:28:22Z</time>
      </trkpt>
      <trkpt lat="43.27864" lon="6.45948">
        <ele>106.84362792969</ele>
        <time>2011-10-02T06:28:29Z</time>
      </trkpt>
      <trkpt lat="43.27861" lon="6.45933">
        <ele>106.84362792969</ele>
        <time>2011-10-02T06:28:31Z</time>
      </trkpt>
      <trkpt lat="43.27859" lon="6.4592">
        <ele>106.36303710938</ele>
        <time>2011-10-02T06:28:33Z</time>
      </trkpt>
      <trkpt lat="43.27848" lon="6.45903">
        <ele>106.36303710938</ele>
        <time>2011-10-02T06:28:37Z</time>
      </trkpt>
      <trkpt lat="43.2784" lon="6.4591">
        <ele>106.36303710938</ele>
        <time>2011-10-02T06:28:39Z</time>
      </trkpt>
      <trkpt lat="43.27839" lon="6.45915">
        <ele>106.36303710938</ele>
        <time>2011-10-02T06:28:40Z</time>
      </trkpt>
      <trkpt lat="43.27831" lon="6.45944">
        <ele>102.99829101562</ele>
        <time>2011-10-02T06:28:44Z</time>
      </trkpt>
      <trkpt lat="43.27828" lon="6.45978">
        <ele>100.59509277344</ele>
        <time>2011-10-02T06:28:50Z</time>
      </trkpt>
      <trkpt lat="43.27827" lon="6.4602">
        <ele>97.711181640625</ele>
        <time>2011-10-02T06:28:59Z</time>
      </trkpt>
      <trkpt lat="43.27826" lon="6.46043">
        <ele>100.11450195312</ele>
        <time>2011-10-02T06:29:05Z</time>
      </trkpt>
      <trkpt lat="43.27827" lon="6.46067">
        <ele>100.59509277344</ele>
        <time>2011-10-02T06:29:11Z</time>
      </trkpt>
      <trkpt lat="43.27826" lon="6.46107">
        <ele>95.307739257812</ele>
        <time>2011-10-02T06:29:20Z</time>
      </trkpt>
      <trkpt lat="43.27819" lon="6.46138">
        <ele>94.346557617188</ele>
        <time>2011-10-02T06:29:27Z</time>
      </trkpt>
      <trkpt lat="43.27813" lon="6.46164">
        <ele>96.269287109375</ele>
        <time>2011-10-02T06:29:33Z</time>
      </trkpt>
      <trkpt lat="43.27814" lon="6.46191">
        <ele>98.19189453125</ele>
        <time>2011-10-02T06:29:39Z</time>
      </trkpt>
      <trkpt lat="43.27813" lon="6.46216">
        <ele>95.788452148438</ele>
        <time>2011-10-02T06:29:45Z</time>
      </trkpt>
      <trkpt lat="43.27813" lon="6.4624">
        <ele>95.307739257812</ele>
        <time>2011-10-02T06:29:51Z</time>
      </trkpt>
      <trkpt lat="43.27822" lon="6.46268">
        <ele>110.68884277344</ele>
        <time>2011-10-02T06:29:59Z</time>
      </trkpt>
      <trkpt lat="43.27825" lon="6.46288">
        <ele>112.61157226562</ele>
        <time>2011-10-02T06:30:05Z</time>
      </trkpt>
      <trkpt lat="43.27823" lon="6.46312">
        <ele>112.61157226562</ele>
        <time>2011-10-02T06:30:12Z</time>
      </trkpt>
      <trkpt lat="43.27818" lon="6.46325">
        <ele>117.41821289062</ele>
        <time>2011-10-02T06:30:17Z</time>
      </trkpt>
      <trkpt lat="43.27811" lon="6.46336">
        <ele>121.26354980469</ele>
        <time>2011-10-02T06:30:22Z</time>
      </trkpt>
      <trkpt lat="43.27804" lon="6.46351">
        <ele>123.18615722656</ele>
        <time>2011-10-02T06:30:27Z</time>
      </trkpt>
      <trkpt lat="43.27799" lon="6.46372">
        <ele>124.14733886719</ele>
        <time>2011-10-02T06:30:33Z</time>
      </trkpt>
      <trkpt lat="43.27792" lon="6.46401">
        <ele>122.22473144531</ele>
        <time>2011-10-02T06:30:41Z</time>
      </trkpt>
      <trkpt lat="43.27785" lon="6.46425">
        <ele>123.66674804688</ele>
        <time>2011-10-02T06:30:48Z</time>
      </trkpt>
      <trkpt lat="43.27777" lon="6.46445">
        <ele>125.58935546875</ele>
        <time>2011-10-02T06:30:54Z</time>
      </trkpt>
      <trkpt lat="43.27768" lon="6.46465">
        <ele>127.03137207031</ele>
        <time>2011-10-02T06:31:01Z</time>
      </trkpt>
      <trkpt lat="43.27759" lon="6.4648">
        <ele>129.91528320312</ele>
        <time>2011-10-02T06:31:07Z</time>
      </trkpt>
      <trkpt lat="43.27752" lon="6.46492">
        <ele>132.79931640625</ele>
        <time>2011-10-02T06:31:12Z</time>
      </trkpt>
      <trkpt lat="43.27733" lon="6.46509">
        <ele>140.00915527344</ele>
        <time>2011-10-02T06:31:21Z</time>
      </trkpt>
      <trkpt lat="43.27719" lon="6.4652">
        <ele>143.37365722656</ele>
        <time>2011-10-02T06:31:27Z</time>
      </trkpt>
      <trkpt lat="43.27702" lon="6.46537">
        <ele>144.81579589844</ele>
        <time>2011-10-02T06:31:34Z</time>
      </trkpt>
      <trkpt lat="43.27684" lon="6.46556">
        <ele>145.29638671875</ele>
        <time>2011-10-02T06:31:42Z</time>
      </trkpt>
      <trkpt lat="43.27654" lon="6.46575">
        <ele>148.18041992188</ele>
        <time>2011-10-02T06:31:53Z</time>
      </trkpt>
      <trkpt lat="43.27628" lon="6.46586">
        <ele>151.544921875</ele>
        <time>2011-10-02T06:32:02Z</time>
      </trkpt>
      <trkpt lat="43.27602" lon="6.46595">
        <ele>152.02575683594</ele>
        <time>2011-10-02T06:32:11Z</time>
      </trkpt>
      <trkpt lat="43.2758" lon="6.46601">
        <ele>151.544921875</ele>
        <time>2011-10-02T06:32:18Z</time>
      </trkpt>
      <trkpt lat="43.27562" lon="6.46605">
        <ele>153.46765136719</ele>
        <time>2011-10-02T06:32:24Z</time>
      </trkpt>
      <trkpt lat="43.27548" lon="6.46601">
        <ele>151.544921875</ele>
        <time>2011-10-02T06:32:29Z</time>
      </trkpt>
      <trkpt lat="43.27533" lon="6.46594">
        <ele>151.06420898438</ele>
        <time>2011-10-02T06:32:35Z</time>
      </trkpt>
      <trkpt lat="43.2751" lon="6.46595">
        <ele>151.06420898438</ele>
        <time>2011-10-02T06:32:43Z</time>
      </trkpt>
      <trkpt lat="43.27491" lon="6.46611">
        <ele>155.39025878906</ele>
        <time>2011-10-02T06:32:49Z</time>
      </trkpt>
      <trkpt lat="43.27473" lon="6.46632">
        <ele>160.67749023438</ele>
        <time>2011-10-02T06:32:56Z</time>
      </trkpt>
      <trkpt lat="43.27452" lon="6.46649">
        <ele>162.11950683594</ele>
        <time>2011-10-02T06:33:03Z</time>
      </trkpt>
      <trkpt lat="43.27436" lon="6.46652">
        <ele>165.00341796875</ele>
        <time>2011-10-02T06:33:08Z</time>
      </trkpt>
      <trkpt lat="43.27422" lon="6.46644">
        <ele>168.36804199219</ele>
        <time>2011-10-02T06:33:13Z</time>
      </trkpt>
      <trkpt lat="43.27409" lon="6.46623">
        <ele>168.84875488281</ele>
        <time>2011-10-02T06:33:20Z</time>
      </trkpt>
      <trkpt lat="43.27404" lon="6.46604">
        <ele>168.36804199219</ele>
        <time>2011-10-02T06:33:26Z</time>
      </trkpt>
      <trkpt lat="43.27402" lon="6.46586">
        <ele>169.81005859375</ele>
        <time>2011-10-02T06:33:32Z</time>
      </trkpt>
      <trkpt lat="43.27406" lon="6.46567">
        <ele>171.25207519531</ele>
        <time>2011-10-02T06:33:39Z</time>
      </trkpt>
      <trkpt lat="43.27409" lon="6.46549">
        <ele>172.69396972656</ele>
        <time>2011-10-02T06:33:45Z</time>
      </trkpt>
      <trkpt lat="43.27413" lon="6.46521">
        <ele>174.61657714844</ele>
        <time>2011-10-02T06:33:54Z</time>
      </trkpt>
      <trkpt lat="43.27419" lon="6.46509">
        <ele>174.61657714844</ele>
        <time>2011-10-02T06:33:59Z</time>
      </trkpt>
      <trkpt lat="43.27432" lon="6.46498">
        <ele>175.09729003906</ele>
        <time>2011-10-02T06:34:06Z</time>
      </trkpt>
      <trkpt lat="43.27447" lon="6.46489">
        <ele>175.57788085938</ele>
        <time>2011-10-02T06:34:14Z</time>
      </trkpt>
      <trkpt lat="43.27466" lon="6.46475">
        <ele>177.02001953125</ele>
        <time>2011-10-02T06:34:23Z</time>
      </trkpt>
      <trkpt lat="43.27481" lon="6.46466">
        <ele>178.4619140625</ele>
        <time>2011-10-02T06:34:30Z</time>
      </trkpt>
      <trkpt lat="43.2749" lon="6.4645">
        <ele>181.34582519531</ele>
        <time>2011-10-02T06:34:36Z</time>
      </trkpt>
      <trkpt lat="43.27498" lon="6.46418">
        <ele>182.78784179688</ele>
        <time>2011-10-02T06:34:46Z</time>
      </trkpt>
      <trkpt lat="43.27505" lon="6.46395">
        <ele>183.26843261719</ele>
        <time>2011-10-02T06:34:53Z</time>
      </trkpt>
      <trkpt lat="43.27517" lon="6.46377">
        <ele>182.78784179688</ele>
        <time>2011-10-02T06:35:00Z</time>
      </trkpt>
      <trkpt lat="43.27533" lon="6.46365">
        <ele>184.71057128906</ele>
        <time>2011-10-02T06:35:07Z</time>
      </trkpt>
      <trkpt lat="43.27552" lon="6.46362">
        <ele>185.67175292969</ele>
        <time>2011-10-02T06:35:14Z</time>
      </trkpt>
      <trkpt lat="43.27573" lon="6.46353">
        <ele>186.63317871094</ele>
        <time>2011-10-02T06:35:22Z</time>
      </trkpt>
      <trkpt lat="43.27583" lon="6.46337">
        <ele>189.51696777344</ele>
        <time>2011-10-02T06:35:27Z</time>
      </trkpt>
      <trkpt lat="43.27595" lon="6.46313">
        <ele>191.92028808594</ele>
        <time>2011-10-02T06:35:35Z</time>
      </trkpt>
      <trkpt lat="43.27606" lon="6.46288">
        <ele>193.84301757812</ele>
        <time>2011-10-02T06:35:43Z</time>
      </trkpt>
      <trkpt lat="43.27615" lon="6.46264">
        <ele>195.28491210938</ele>
        <time>2011-10-02T06:35:51Z</time>
      </trkpt>
      <trkpt lat="43.27618" lon="6.46242">
        <ele>199.61083984375</ele>
        <time>2011-10-02T06:35:57Z</time>
      </trkpt>
      <trkpt lat="43.27619" lon="6.46214">
        <ele>204.41748046875</ele>
        <time>2011-10-02T06:36:04Z</time>
      </trkpt>
      <trkpt lat="43.27617" lon="6.46186">
        <ele>206.34008789062</ele>
        <time>2011-10-02T06:36:11Z</time>
      </trkpt>
      <trkpt lat="43.27615" lon="6.4616">
        <ele>208.26281738281</ele>
        <time>2011-10-02T06:36:17Z</time>
      </trkpt>
      <trkpt lat="43.27615" lon="6.46134">
        <ele>209.70483398438</ele>
        <time>2011-10-02T06:36:23Z</time>
      </trkpt>
      <trkpt lat="43.27616" lon="6.46103">
        <ele>210.18542480469</ele>
        <time>2011-10-02T06:36:29Z</time>
      </trkpt>
      <trkpt lat="43.27618" lon="6.4606">
        <ele>211.14672851562</ele>
        <time>2011-10-02T06:36:37Z</time>
      </trkpt>
      <trkpt lat="43.27614" lon="6.46029">
        <ele>212.10803222656</ele>
        <time>2011-10-02T06:36:44Z</time>
      </trkpt>
      <trkpt lat="43.2761" lon="6.46009">
        <ele>213.55004882812</ele>
        <time>2011-10-02T06:36:49Z</time>
      </trkpt>
      <trkpt lat="43.27607" lon="6.45988">
        <ele>214.51123046875</ele>
        <time>2011-10-02T06:36:55Z</time>
      </trkpt>
      <trkpt lat="43.27603" lon="6.45975">
        <ele>215.47265625</ele>
        <time>2011-10-02T06:37:00Z</time>
      </trkpt>
      <trkpt lat="43.27599" lon="6.45947">
        <ele>217.8759765625</ele>
        <time>2011-10-02T06:37:09Z</time>
      </trkpt>
      <trkpt lat="43.27591" lon="6.45919">
        <ele>220.27917480469</ele>
        <time>2011-10-02T06:37:19Z</time>
      </trkpt>
      <trkpt lat="43.27584" lon="6.45896">
        <ele>222.20178222656</ele>
        <time>2011-10-02T06:37:26Z</time>
      </trkpt>
      <trkpt lat="43.27581" lon="6.45872">
        <ele>224.12451171875</ele>
        <time>2011-10-02T06:37:33Z</time>
      </trkpt>
      <trkpt lat="43.27578" lon="6.45842">
        <ele>226.04711914062</ele>
        <time>2011-10-02T06:37:42Z</time>
      </trkpt>
      <trkpt lat="43.27574" lon="6.45811">
        <ele>228.45043945312</ele>
        <time>2011-10-02T06:37:51Z</time>
      </trkpt>
      <trkpt lat="43.2757" lon="6.45783">
        <ele>230.373046875</ele>
        <time>2011-10-02T06:37:59Z</time>
      </trkpt>
      <trkpt lat="43.27569" lon="6.45766">
        <ele>231.81494140625</ele>
        <time>2011-10-02T06:38:04Z</time>
      </trkpt>
      <trkpt lat="43.27567" lon="6.45738">
        <ele>234.21838378906</ele>
        <time>2011-10-02T06:38:12Z</time>
      </trkpt>
      <trkpt lat="43.27566" lon="6.45717">
        <ele>235.1796875</ele>
        <time>2011-10-02T06:38:18Z</time>
      </trkpt>
      <trkpt lat="43.27569" lon="6.45692">
        <ele>238.54431152344</ele>
        <time>2011-10-02T06:38:26Z</time>
      </trkpt>
      <trkpt lat="43.27575" lon="6.45671">
        <ele>238.06359863281</ele>
        <time>2011-10-02T06:38:34Z</time>
      </trkpt>
      <trkpt lat="43.2758" lon="6.45654">
        <ele>237.58288574219</ele>
        <time>2011-10-02T06:38:40Z</time>
      </trkpt>
      <trkpt lat="43.27584" lon="6.4563">
        <ele>237.10229492188</ele>
        <time>2011-10-02T06:38:49Z</time>
      </trkpt>
      <trkpt lat="43.27587" lon="6.45607">
        <ele>237.10229492188</ele>
        <time>2011-10-02T06:38:56Z</time>
      </trkpt>
      <trkpt lat="43.2759" lon="6.45575">
        <ele>239.50549316406</ele>
        <time>2011-10-02T06:39:05Z</time>
      </trkpt>
      <trkpt lat="43.27591" lon="6.45555">
        <ele>243.83154296875</ele>
        <time>2011-10-02T06:39:11Z</time>
      </trkpt>
      <trkpt lat="43.27587" lon="6.45526">
        <ele>249.11877441406</ele>
        <time>2011-10-02T06:39:21Z</time>
      </trkpt>
      <trkpt lat="43.27583" lon="6.45501">
        <ele>251.52209472656</ele>
        <time>2011-10-02T06:39:30Z</time>
      </trkpt>
      <trkpt lat="43.27583" lon="6.45483">
        <ele>253.44470214844</ele>
        <time>2011-10-02T06:39:36Z</time>
      </trkpt>
      <trkpt lat="43.27586" lon="6.45467">
        <ele>254.88659667969</ele>
        <time>2011-10-02T06:39:42Z</time>
      </trkpt>
      <trkpt lat="43.27589" lon="6.45448">
        <ele>257.2900390625</ele>
        <time>2011-10-02T06:39:49Z</time>
      </trkpt>
      <trkpt lat="43.27592" lon="6.45432">
        <ele>260.17395019531</ele>
        <time>2011-10-02T06:39:55Z</time>
      </trkpt>
      <trkpt lat="43.27596" lon="6.45413">
        <ele>262.5771484375</ele>
        <time>2011-10-02T06:40:02Z</time>
      </trkpt>
      <trkpt lat="43.27604" lon="6.45394">
        <ele>262.09655761719</ele>
        <time>2011-10-02T06:40:09Z</time>
      </trkpt>
      <trkpt lat="43.27612" lon="6.45387">
        <ele>260.65454101562</ele>
        <time>2011-10-02T06:40:13Z</time>
      </trkpt>
      <trkpt lat="43.27625" lon="6.45368">
        <ele>262.5771484375</ele>
        <time>2011-10-02T06:40:21Z</time>
      </trkpt>
      <trkpt lat="43.27629" lon="6.45352">
        <ele>264.98059082031</ele>
        <time>2011-10-02T06:40:27Z</time>
      </trkpt>
      <trkpt lat="43.27631" lon="6.45334">
        <ele>265.94189453125</ele>
        <time>2011-10-02T06:40:34Z</time>
      </trkpt>
      <trkpt lat="43.27636" lon="6.45311">
        <ele>264.98059082031</ele>
        <time>2011-10-02T06:40:43Z</time>
      </trkpt>
      <trkpt lat="43.27641" lon="6.45288">
        <ele>266.42248535156</ele>
        <time>2011-10-02T06:40:51Z</time>
      </trkpt>
      <trkpt lat="43.27645" lon="6.45268">
        <ele>266.42248535156</ele>
        <time>2011-10-02T06:40:58Z</time>
      </trkpt>
      <trkpt lat="43.27649" lon="6.45245">
        <ele>267.86450195312</ele>
        <time>2011-10-02T06:41:06Z</time>
      </trkpt>
      <trkpt lat="43.27655" lon="6.45221">
        <ele>274.59375</ele>
        <time>2011-10-02T06:41:14Z</time>
      </trkpt>
      <trkpt lat="43.27659" lon="6.45205">
        <ele>275.07446289062</ele>
        <time>2011-10-02T06:41:20Z</time>
      </trkpt>
      <trkpt lat="43.27665" lon="6.45186">
        <ele>276.9970703125</ele>
        <time>2011-10-02T06:41:27Z</time>
      </trkpt>
      <trkpt lat="43.27674" lon="6.45167">
        <ele>277.47766113281</ele>
        <time>2011-10-02T06:41:34Z</time>
      </trkpt>
      <trkpt lat="43.27684" lon="6.45146">
        <ele>280.36169433594</ele>
        <time>2011-10-02T06:41:42Z</time>
      </trkpt>
      <trkpt lat="43.27693" lon="6.45131">
        <ele>282.28430175781</ele>
        <time>2011-10-02T06:41:47Z</time>
      </trkpt>
      <trkpt lat="43.27707" lon="6.4511">
        <ele>285.16821289062</ele>
        <time>2011-10-02T06:41:56Z</time>
      </trkpt>
      <trkpt lat="43.27716" lon="6.45094">
        <ele>281.32299804688</ele>
        <time>2011-10-02T06:42:03Z</time>
      </trkpt>
      <trkpt lat="43.27731" lon="6.4508">
        <ele>281.32299804688</ele>
        <time>2011-10-02T06:42:11Z</time>
      </trkpt>
      <trkpt lat="43.27742" lon="6.45074">
        <ele>282.28430175781</ele>
        <time>2011-10-02T06:42:17Z</time>
      </trkpt>
      <trkpt lat="43.27754" lon="6.45059">
        <ele>287.57141113281</ele>
        <time>2011-10-02T06:42:24Z</time>
      </trkpt>
      <trkpt lat="43.27759" lon="6.45042">
        <ele>291.8974609375</ele>
        <time>2011-10-02T06:42:30Z</time>
      </trkpt>
      <trkpt lat="43.27762" lon="6.45021">
        <ele>298.62670898438</ele>
        <time>2011-10-02T06:42:38Z</time>
      </trkpt>
      <trkpt lat="43.27763" lon="6.45019">
        <ele>298.14611816406</ele>
        <time>2011-10-02T06:42:39Z</time>
      </trkpt>
      <trkpt lat="43.27769" lon="6.45002">
        <ele>296.7041015625</ele>
        <time>2011-10-02T06:42:46Z</time>
      </trkpt>
      <trkpt lat="43.27778" lon="6.44989">
        <ele>294.78137207031</ele>
        <time>2011-10-02T06:42:52Z</time>
      </trkpt>
      <trkpt lat="43.27787" lon="6.4497">
        <ele>299.10729980469</ele>
        <time>2011-10-02T06:42:59Z</time>
      </trkpt>
      <trkpt lat="43.27793" lon="6.4496">
        <ele>297.18469238281</ele>
        <time>2011-10-02T06:43:03Z</time>
      </trkpt>
      <trkpt lat="43.27804" lon="6.44955">
        <ele>295.74267578125</ele>
        <time>2011-10-02T06:43:08Z</time>
      </trkpt>
      <trkpt lat="43.27814" lon="6.44952">
        <ele>301.02990722656</ele>
        <time>2011-10-02T06:43:13Z</time>
      </trkpt>
      <trkpt lat="43.27829" lon="6.44946">
        <ele>301.51062011719</ele>
        <time>2011-10-02T06:43:20Z</time>
      </trkpt>
      <trkpt lat="43.2784" lon="6.44933">
        <ele>300.06872558594</ele>
        <time>2011-10-02T06:43:26Z</time>
      </trkpt>
      <trkpt lat="43.27852" lon="6.44916">
        <ele>299.10729980469</ele>
        <time>2011-10-02T06:43:34Z</time>
      </trkpt>
      <trkpt lat="43.27861" lon="6.44896">
        <ele>301.51062011719</ele>
        <time>2011-10-02T06:43:42Z</time>
      </trkpt>
      <trkpt lat="43.27867" lon="6.4488">
        <ele>305.35595703125</ele>
        <time>2011-10-02T06:43:48Z</time>
      </trkpt>
      <trkpt lat="43.27873" lon="6.44866">
        <ele>307.27856445312</ele>
        <time>2011-10-02T06:43:53Z</time>
      </trkpt>
      <trkpt lat="43.27879" lon="6.44848">
        <ele>307.27856445312</ele>
        <time>2011-10-02T06:43:59Z</time>
      </trkpt>
      <trkpt lat="43.27885" lon="6.4483">
        <ele>311.12377929688</ele>
        <time>2011-10-02T06:44:05Z</time>
      </trkpt>
      <trkpt lat="43.27888" lon="6.44822">
        <ele>314.48840332031</ele>
        <time>2011-10-02T06:44:08Z</time>
      </trkpt>
      <trkpt lat="43.27897" lon="6.448">
        <ele>321.2177734375</ele>
        <time>2011-10-02T06:44:16Z</time>
      </trkpt>
      <trkpt lat="43.27905" lon="6.44781">
        <ele>322.65966796875</ele>
        <time>2011-10-02T06:44:23Z</time>
      </trkpt>
      <trkpt lat="43.2791" lon="6.44771">
        <ele>323.14038085938</ele>
        <time>2011-10-02T06:44:27Z</time>
      </trkpt>
      <trkpt lat="43.27917" lon="6.44758">
        <ele>324.1015625</ele>
        <time>2011-10-02T06:44:32Z</time>
      </trkpt>
      <trkpt lat="43.27924" lon="6.44743">
        <ele>323.14038085938</ele>
        <time>2011-10-02T06:44:37Z</time>
      </trkpt>
      <trkpt lat="43.27931" lon="6.44727">
        <ele>324.58227539062</ele>
        <time>2011-10-02T06:44:42Z</time>
      </trkpt>
      <trkpt lat="43.2794" lon="6.44705">
        <ele>327.46618652344</ele>
        <time>2011-10-02T06:44:49Z</time>
      </trkpt>
      <trkpt lat="43.27947" lon="6.44692">
        <ele>336.1181640625</ele>
        <time>2011-10-02T06:44:54Z</time>
      </trkpt>
      <trkpt lat="43.27959" lon="6.44667">
        <ele>328.42761230469</ele>
        <time>2011-10-02T06:45:02Z</time>
      </trkpt>
      <trkpt lat="43.27967" lon="6.44653">
        <ele>325.06298828125</ele>
        <time>2011-10-02T06:45:07Z</time>
      </trkpt>
      <trkpt lat="43.27979" lon="6.44639">
        <ele>324.1015625</ele>
        <time>2011-10-02T06:45:13Z</time>
      </trkpt>
      <trkpt lat="43.27987" lon="6.44627">
        <ele>323.14038085938</ele>
        <time>2011-10-02T06:45:18Z</time>
      </trkpt>
      <trkpt lat="43.27996" lon="6.44613">
        <ele>325.06298828125</ele>
        <time>2011-10-02T06:45:23Z</time>
      </trkpt>
      <trkpt lat="43.28004" lon="6.44595">
        <ele>329.86950683594</ele>
        <time>2011-10-02T06:45:29Z</time>
      </trkpt>
      <trkpt lat="43.28004" lon="6.44593">
        <ele>331.79211425781</ele>
        <time>2011-10-02T06:45:30Z</time>
      </trkpt>
      <trkpt lat="43.28008" lon="6.44583">
        <ele>335.63732910156</ele>
        <time>2011-10-02T06:45:36Z</time>
      </trkpt>
      <trkpt lat="43.28009" lon="6.44579">
        <ele>336.59887695312</ele>
        <time>2011-10-02T06:45:46Z</time>
      </trkpt>
      <trkpt lat="43.2801" lon="6.44578">
        <ele>338.04077148438</ele>
        <time>2011-10-02T06:45:51Z</time>
      </trkpt>
      <trkpt lat="43.28009" lon="6.44581">
        <ele>339.48266601562</ele>
        <time>2011-10-02T06:46:12Z</time>
      </trkpt>
      <trkpt lat="43.28009" lon="6.44582">
        <ele>339.00207519531</ele>
        <time>2011-10-02T06:46:28Z</time>
      </trkpt>
      <trkpt lat="43.28011" lon="6.4458">
        <ele>331.79211425781</ele>
        <time>2011-10-02T06:46:54Z</time>
      </trkpt>
      <trkpt lat="43.28014" lon="6.44578">
        <ele>336.59887695312</ele>
        <time>2011-10-02T06:47:31Z</time>
      </trkpt>
      <trkpt lat="43.28013" lon="6.4458">
        <ele>328.42761230469</ele>
        <time>2011-10-02T06:47:55Z</time>
      </trkpt>
      <trkpt lat="43.28014" lon="6.44579">
        <ele>337.07946777344</ele>
        <time>2011-10-02T06:48:24Z</time>
      </trkpt>
      <trkpt lat="43.28013" lon="6.4458">
        <ele>335.63732910156</ele>
        <time>2011-10-02T06:48:46Z</time>
      </trkpt>
      <trkpt lat="43.28011" lon="6.44581">
        <ele>335.15673828125</ele>
        <time>2011-10-02T06:49:14Z</time>
      </trkpt>
      <trkpt lat="43.2801" lon="6.44586">
        <ele>334.67614746094</ele>
        <time>2011-10-02T06:49:40Z</time>
      </trkpt>
      <trkpt lat="43.28009" lon="6.44588">
        <ele>334.67614746094</ele>
        <time>2011-10-02T06:50:01Z</time>
      </trkpt>
      <trkpt lat="43.28006" lon="6.44585">
        <ele>332.75354003906</ele>
        <time>2011-10-02T06:50:07Z</time>
      </trkpt>
      <trkpt lat="43.28006" lon="6.44577">
        <ele>328.42761230469</ele>
        <time>2011-10-02T06:50:13Z</time>
      </trkpt>
      <trkpt lat="43.28005" lon="6.44574">
        <ele>327.46618652344</ele>
        <time>2011-10-02T06:50:18Z</time>
      </trkpt>
      <trkpt lat="43.28006" lon="6.44568">
        <ele>327.94677734375</ele>
        <time>2011-10-02T06:50:22Z</time>
      </trkpt>
      <trkpt lat="43.28011" lon="6.44555">
        <ele>334.67614746094</ele>
        <time>2011-10-02T06:50:29Z</time>
      </trkpt>
      <trkpt lat="43.28014" lon="6.44537">
        <ele>338.521484375</ele>
        <time>2011-10-02T06:50:36Z</time>
      </trkpt>
      <trkpt lat="43.28016" lon="6.44522">
        <ele>340.44409179688</ele>
        <time>2011-10-02T06:50:42Z</time>
      </trkpt>
      <trkpt lat="43.28016" lon="6.44507">
        <ele>342.36669921875</ele>
        <time>2011-10-02T06:50:48Z</time>
      </trkpt>
      <trkpt lat="43.28016" lon="6.44493">
        <ele>342.36669921875</ele>
        <time>2011-10-02T06:50:54Z</time>
      </trkpt>
      <trkpt lat="43.28016" lon="6.44475">
        <ele>343.80859375</ele>
        <time>2011-10-02T06:51:02Z</time>
      </trkpt>
      <trkpt lat="43.28015" lon="6.44461">
        <ele>343.32788085938</ele>
        <time>2011-10-02T06:51:09Z</time>
      </trkpt>
      <trkpt lat="43.28014" lon="6.44449">
        <ele>345.73132324219</ele>
        <time>2011-10-02T06:51:16Z</time>
      </trkpt>
      <trkpt lat="43.28013" lon="6.44444">
        <ele>347.17321777344</ele>
        <time>2011-10-02T06:51:19Z</time>
      </trkpt>
      <trkpt lat="43.28012" lon="6.44437">
        <ele>346.69262695312</ele>
        <time>2011-10-02T06:51:23Z</time>
      </trkpt>
      <trkpt lat="43.28012" lon="6.44427">
        <ele>347.17321777344</ele>
        <time>2011-10-02T06:51:27Z</time>
      </trkpt>
      <trkpt lat="43.28008" lon="6.44415">
        <ele>347.17321777344</ele>
        <time>2011-10-02T06:51:32Z</time>
      </trkpt>
      <trkpt lat="43.28009" lon="6.44407">
        <ele>348.13464355469</ele>
        <time>2011-10-02T06:51:35Z</time>
      </trkpt>
      <trkpt lat="43.28007" lon="6.44393">
        <ele>348.615234375</ele>
        <time>2011-10-02T06:51:42Z</time>
      </trkpt>
      <trkpt lat="43.28006" lon="6.44372">
        <ele>347.65393066406</ele>
        <time>2011-10-02T06:51:51Z</time>
      </trkpt>
      <trkpt lat="43.28004" lon="6.44356">
        <ele>349.57653808594</ele>
        <time>2011-10-02T06:51:58Z</time>
      </trkpt>
      <trkpt lat="43.28002" lon="6.44342">
        <ele>351.01843261719</ele>
        <time>2011-10-02T06:52:04Z</time>
      </trkpt>
      <trkpt lat="43.28003" lon="6.44328">
        <ele>352.94116210938</ele>
        <time>2011-10-02T06:52:10Z</time>
      </trkpt>
      <trkpt lat="43.28001" lon="6.44308">
        <ele>355.8251953125</ele>
        <time>2011-10-02T06:52:18Z</time>
      </trkpt>
      <trkpt lat="43.28" lon="6.44287">
        <ele>355.34448242188</ele>
        <time>2011-10-02T06:52:26Z</time>
      </trkpt>
      <trkpt lat="43.27999" lon="6.44273">
        <ele>354.86376953125</ele>
        <time>2011-10-02T06:52:32Z</time>
      </trkpt>
      <trkpt lat="43.27996" lon="6.44257">
        <ele>353.421875</ele>
        <time>2011-10-02T06:52:38Z</time>
      </trkpt>
      <trkpt lat="43.27994" lon="6.44236">
        <ele>352.94116210938</ele>
        <time>2011-10-02T06:52:46Z</time>
      </trkpt>
      <trkpt lat="43.27997" lon="6.44221">
        <ele>354.38317871094</ele>
        <time>2011-10-02T06:52:52Z</time>
      </trkpt>
      <trkpt lat="43.28002" lon="6.44205">
        <ele>351.49914550781</ele>
        <time>2011-10-02T06:52:59Z</time>
      </trkpt>
      <trkpt lat="43.28009" lon="6.44187">
        <ele>355.8251953125</ele>
        <time>2011-10-02T06:53:06Z</time>
      </trkpt>
      <trkpt lat="43.28011" lon="6.44182">
        <ele>356.78637695312</ele>
        <time>2011-10-02T06:53:08Z</time>
      </trkpt>
      <trkpt lat="43.2801" lon="6.44171">
        <ele>357.26708984375</ele>
        <time>2011-10-02T06:53:12Z</time>
      </trkpt>
      <trkpt lat="43.28008" lon="6.44146">
        <ele>356.78637695312</ele>
        <time>2011-10-02T06:53:19Z</time>
      </trkpt>
      <trkpt lat="43.28006" lon="6.44123">
        <ele>357.26708984375</ele>
        <time>2011-10-02T06:53:24Z</time>
      </trkpt>
      <trkpt lat="43.28016" lon="6.44093">
        <ele>355.8251953125</ele>
        <time>2011-10-02T06:53:29Z</time>
      </trkpt>
      <trkpt lat="43.28028" lon="6.44041">
        <ele>351.97985839844</ele>
        <time>2011-10-02T06:53:35Z</time>
      </trkpt>
      <trkpt lat="43.28036" lon="6.44015">
        <ele>349.57653808594</ele>
        <time>2011-10-02T06:53:38Z</time>
      </trkpt>
      <trkpt lat="43.28052" lon="6.43942">
        <ele>344.28942871094</ele>
        <time>2011-10-02T06:53:45Z</time>
      </trkpt>
      <trkpt lat="43.28069" lon="6.43868">
        <ele>337.07946777344</ele>
        <time>2011-10-02T06:53:52Z</time>
      </trkpt>
      <trkpt lat="43.28072" lon="6.43833">
        <ele>334.19543457031</ele>
        <time>2011-10-02T06:53:55Z</time>
      </trkpt>
      <trkpt lat="43.28083" lon="6.43771">
        <ele>331.3115234375</ele>
        <time>2011-10-02T06:54:01Z</time>
      </trkpt>
      <trkpt lat="43.2809" lon="6.43703">
        <ele>327.94677734375</ele>
        <time>2011-10-02T06:54:07Z</time>
      </trkpt>
      <trkpt lat="43.28091" lon="6.43661">
        <ele>325.54357910156</ele>
        <time>2011-10-02T06:54:11Z</time>
      </trkpt>
      <trkpt lat="43.28089" lon="6.43594">
        <ele>320.73706054688</ele>
        <time>2011-10-02T06:54:17Z</time>
      </trkpt>
      <trkpt lat="43.28086" lon="6.43575">
        <ele>320.73706054688</ele>
        <time>2011-10-02T06:54:19Z</time>
      </trkpt>
      <trkpt lat="43.2807" lon="6.43549">
        <ele>323.14038085938</ele>
        <time>2011-10-02T06:54:23Z</time>
      </trkpt>
      <trkpt lat="43.28062" lon="6.43536">
        <ele>324.1015625</ele>
        <time>2011-10-02T06:54:26Z</time>
      </trkpt>
      <trkpt lat="43.28061" lon="6.4353">
        <ele>324.1015625</ele>
        <time>2011-10-02T06:54:27Z</time>
      </trkpt>
      <trkpt lat="43.28058" lon="6.43506">
        <ele>322.65966796875</ele>
        <time>2011-10-02T06:54:30Z</time>
      </trkpt>
      <trkpt lat="43.28043" lon="6.43469">
        <ele>321.2177734375</ele>
        <time>2011-10-02T06:54:34Z</time>
      </trkpt>
      <trkpt lat="43.2804" lon="6.43462">
        <ele>321.69836425781</ele>
        <time>2011-10-02T06:54:35Z</time>
      </trkpt>
      <trkpt lat="43.28034" lon="6.43441">
        <ele>320.25634765625</ele>
        <time>2011-10-02T06:54:40Z</time>
      </trkpt>
      <trkpt lat="43.28027" lon="6.43424">
        <ele>317.37243652344</ele>
        <time>2011-10-02T06:54:47Z</time>
      </trkpt>
      <trkpt lat="43.28025" lon="6.43421">
        <ele>316.89172363281</ele>
        <time>2011-10-02T06:54:48Z</time>
      </trkpt>
      <trkpt lat="43.28016" lon="6.43416">
        <ele>316.89172363281</ele>
        <time>2011-10-02T06:54:53Z</time>
      </trkpt>
      <trkpt lat="43.28014" lon="6.43413">
        <ele>316.41101074219</ele>
        <time>2011-10-02T06:54:54Z</time>
      </trkpt>
      <trkpt lat="43.28002" lon="6.43392">
        <ele>315.44982910156</ele>
        <time>2011-10-02T06:55:00Z</time>
      </trkpt>
      <trkpt lat="43.28" lon="6.43389">
        <ele>315.44982910156</ele>
        <time>2011-10-02T06:55:01Z</time>
      </trkpt>
      <trkpt lat="43.27997" lon="6.43386">
        <ele>314.96911621094</ele>
        <time>2011-10-02T06:55:06Z</time>
      </trkpt>
      <trkpt lat="43.27993" lon="6.43383">
        <ele>314.96911621094</ele>
        <time>2011-10-02T06:55:12Z</time>
      </trkpt>
      <trkpt lat="43.27991" lon="6.43382">
        <ele>314.96911621094</ele>
        <time>2011-10-02T06:55:14Z</time>
      </trkpt>
      <trkpt lat="43.27982" lon="6.43367">
        <ele>316.41101074219</ele>
        <time>2011-10-02T06:55:20Z</time>
      </trkpt>
      <trkpt lat="43.27978" lon="6.43367">
        <ele>316.41101074219</ele>
        <time>2011-10-02T06:55:22Z</time>
      </trkpt>
      <trkpt lat="43.27971" lon="6.43363">
        <ele>314.48840332031</ele>
        <time>2011-10-02T06:55:28Z</time>
      </trkpt>
      <trkpt lat="43.27971" lon="6.43361">
        <ele>314.0078125</ele>
        <time>2011-10-02T06:55:29Z</time>
      </trkpt>
      <trkpt lat="43.27969" lon="6.43357">
        <ele>311.6044921875</ele>
        <time>2011-10-02T06:55:35Z</time>
      </trkpt>
      <trkpt lat="43.27967" lon="6.43353">
        <ele>310.64306640625</ele>
        <time>2011-10-02T06:55:38Z</time>
      </trkpt>
      <trkpt lat="43.27965" lon="6.43349">
        <ele>309.68188476562</ele>
        <time>2011-10-02T06:55:43Z</time>
      </trkpt>
      <trkpt lat="43.27962" lon="6.43347">
        <ele>307.75927734375</ele>
        <time>2011-10-02T06:55:50Z</time>
      </trkpt>
      <trkpt lat="43.27959" lon="6.43345">
        <ele>304.87524414062</ele>
        <time>2011-10-02T06:55:56Z</time>
      </trkpt>
      <trkpt lat="43.27956" lon="6.43344">
        <ele>302.95251464844</ele>
        <time>2011-10-02T06:56:02Z</time>
      </trkpt>
      <trkpt lat="43.2795" lon="6.43341">
        <ele>300.06872558594</ele>
        <time>2011-10-02T06:56:08Z</time>
      </trkpt>
      <trkpt lat="43.27946" lon="6.43339">
        <ele>298.14611816406</ele>
        <time>2011-10-02T06:56:12Z</time>
      </trkpt>
      <trkpt lat="43.27939" lon="6.43335">
        <ele>293.82006835938</ele>
        <time>2011-10-02T06:56:21Z</time>
      </trkpt>
      <trkpt lat="43.27937" lon="6.43333">
        <ele>291.41674804688</ele>
        <time>2011-10-02T06:56:30Z</time>
      </trkpt>
      <trkpt lat="43.27935" lon="6.43333">
        <ele>290.45556640625</ele>
        <time>2011-10-02T06:56:36Z</time>
      </trkpt>
      <trkpt lat="43.27934" lon="6.43333">
        <ele>289.97485351562</ele>
        <time>2011-10-02T06:56:37Z</time>
      </trkpt>
      <trkpt lat="43.27925" lon="6.43339">
        <ele>287.0908203125</ele>
        <time>2011-10-02T06:56:43Z</time>
      </trkpt>
      <trkpt lat="43.27924" lon="6.43341">
        <ele>287.0908203125</ele>
        <time>2011-10-02T06:56:44Z</time>
      </trkpt>
      <trkpt lat="43.27917" lon="6.43354">
        <ele>283.72619628906</ele>
        <time>2011-10-02T06:56:51Z</time>
      </trkpt>
      <trkpt lat="43.27906" lon="6.4336">
        <ele>281.80358886719</ele>
        <time>2011-10-02T06:56:57Z</time>
      </trkpt>
      <trkpt lat="43.27904" lon="6.43362">
        <ele>281.32299804688</ele>
        <time>2011-10-02T06:56:59Z</time>
      </trkpt>
      <trkpt lat="43.279" lon="6.43374">
        <ele>278.91967773438</ele>
        <time>2011-10-02T06:57:05Z</time>
      </trkpt>
      <trkpt lat="43.27898" lon="6.43374">
        <ele>278.43896484375</ele>
        <time>2011-10-02T06:57:10Z</time>
      </trkpt>
      <trkpt lat="43.27888" lon="6.43369">
        <ele>277.95825195312</ele>
        <time>2011-10-02T06:57:15Z</time>
      </trkpt>
      <trkpt lat="43.27868" lon="6.43364">
        <ele>277.47766113281</ele>
        <time>2011-10-02T06:57:21Z</time>
      </trkpt>
      <trkpt lat="43.27851" lon="6.43357">
        <ele>279.40026855469</ele>
        <time>2011-10-02T06:57:26Z</time>
      </trkpt>
      <trkpt lat="43.27839" lon="6.43358">
        <ele>279.40026855469</ele>
        <time>2011-10-02T06:57:31Z</time>
      </trkpt>
      <trkpt lat="43.27826" lon="6.43349">
        <ele>278.43896484375</ele>
        <time>2011-10-02T06:57:36Z</time>
      </trkpt>
      <trkpt lat="43.27819" lon="6.43336">
        <ele>277.95825195312</ele>
        <time>2011-10-02T06:57:42Z</time>
      </trkpt>
      <trkpt lat="43.27812" lon="6.43326">
        <ele>275.07446289062</ele>
        <time>2011-10-02T06:57:47Z</time>
      </trkpt>
      <trkpt lat="43.27806" lon="6.43312">
        <ele>272.1904296875</ele>
        <time>2011-10-02T06:57:52Z</time>
      </trkpt>
      <trkpt lat="43.27798" lon="6.43303">
        <ele>271.70971679688</ele>
        <time>2011-10-02T06:57:56Z</time>
      </trkpt>
      <trkpt lat="43.27786" lon="6.43287">
        <ele>270.74841308594</ele>
        <time>2011-10-02T06:58:01Z</time>
      </trkpt>
      <trkpt lat="43.27775" lon="6.43278">
        <ele>270.74841308594</ele>
        <time>2011-10-02T06:58:06Z</time>
      </trkpt>
      <trkpt lat="43.27771" lon="6.43276">
        <ele>269.30651855469</ele>
        <time>2011-10-02T06:58:13Z</time>
      </trkpt>
      <trkpt lat="43.27767" lon="6.43275">
        <ele>267.86450195312</ele>
        <time>2011-10-02T06:58:19Z</time>
      </trkpt>
      <trkpt lat="43.27765" lon="6.43274">
        <ele>266.42248535156</ele>
        <time>2011-10-02T06:58:24Z</time>
      </trkpt>
      <trkpt lat="43.27764" lon="6.43272">
        <ele>265.46130371094</ele>
        <time>2011-10-02T06:58:25Z</time>
      </trkpt>
      <trkpt lat="43.27762" lon="6.43271">
        <ele>263.53857421875</ele>
        <time>2011-10-02T06:58:31Z</time>
      </trkpt>
      <trkpt lat="43.27758" lon="6.43266">
        <ele>263.53857421875</ele>
        <time>2011-10-02T06:58:36Z</time>
      </trkpt>
      <trkpt lat="43.2775" lon="6.43258">
        <ele>264.49987792969</ele>
        <time>2011-10-02T06:58:42Z</time>
      </trkpt>
      <trkpt lat="43.27741" lon="6.43257">
        <ele>263.53857421875</ele>
        <time>2011-10-02T06:58:46Z</time>
      </trkpt>
      <trkpt lat="43.27737" lon="6.43256">
        <ele>260.65454101562</ele>
        <time>2011-10-02T06:58:50Z</time>
      </trkpt>
      <trkpt lat="43.27737" lon="6.43253">
        <ele>250.08020019531</ele>
        <time>2011-10-02T06:59:03Z</time>
      </trkpt>
      <trkpt lat="43.27733" lon="6.43253">
        <ele>250.56079101562</ele>
        <time>2011-10-02T06:59:07Z</time>
      </trkpt>
      <trkpt lat="43.27732" lon="6.43253">
        <ele>247.6767578125</ele>
        <time>2011-10-02T06:59:09Z</time>
      </trkpt>
      <trkpt lat="43.2772" lon="6.43254">
        <ele>248.15759277344</ele>
        <time>2011-10-02T06:59:14Z</time>
      </trkpt>
      <trkpt lat="43.27712" lon="6.43256">
        <ele>248.15759277344</ele>
        <time>2011-10-02T06:59:17Z</time>
      </trkpt>
      <trkpt lat="43.277" lon="6.43254">
        <ele>243.83154296875</ele>
        <time>2011-10-02T06:59:22Z</time>
      </trkpt>
      <trkpt lat="43.27685" lon="6.43257">
        <ele>243.35083007812</ele>
        <time>2011-10-02T06:59:27Z</time>
      </trkpt>
      <trkpt lat="43.27665" lon="6.43272">
        <ele>245.75415039062</ele>
        <time>2011-10-02T06:59:32Z</time>
      </trkpt>
      <trkpt lat="43.27647" lon="6.43291">
        <ele>244.31225585938</ele>
        <time>2011-10-02T06:59:37Z</time>
      </trkpt>
      <trkpt lat="43.27633" lon="6.43307">
        <ele>236.14099121094</ele>
        <time>2011-10-02T06:59:43Z</time>
      </trkpt>
      <trkpt lat="43.27631" lon="6.4331">
        <ele>234.69909667969</ele>
        <time>2011-10-02T06:59:44Z</time>
      </trkpt>
      <trkpt lat="43.27612" lon="6.4333">
        <ele>226.52783203125</ele>
        <time>2011-10-02T06:59:51Z</time>
      </trkpt>
      <trkpt lat="43.27606" lon="6.43347">
        <ele>219.31799316406</ele>
        <time>2011-10-02T06:59:56Z</time>
      </trkpt>
      <trkpt lat="43.276" lon="6.43365">
        <ele>214.03063964844</ele>
        <time>2011-10-02T07:00:02Z</time>
      </trkpt>
      <trkpt lat="43.27595" lon="6.43377">
        <ele>212.58862304688</ele>
        <time>2011-10-02T07:00:07Z</time>
      </trkpt>
      <trkpt lat="43.27588" lon="6.43389">
        <ele>210.18542480469</ele>
        <time>2011-10-02T07:00:12Z</time>
      </trkpt>
      <trkpt lat="43.27577" lon="6.43407">
        <ele>205.85949707031</ele>
        <time>2011-10-02T07:00:19Z</time>
      </trkpt>
      <trkpt lat="43.27561" lon="6.43428">
        <ele>202.49487304688</ele>
        <time>2011-10-02T07:00:25Z</time>
      </trkpt>
      <trkpt lat="43.27541" lon="6.43445">
        <ele>199.61083984375</ele>
        <time>2011-10-02T07:00:30Z</time>
      </trkpt>
      <trkpt lat="43.27522" lon="6.43465">
        <ele>195.28491210938</ele>
        <time>2011-10-02T07:00:35Z</time>
      </trkpt>
      <trkpt lat="43.27514" lon="6.43474">
        <ele>194.32373046875</ele>
        <time>2011-10-02T07:00:37Z</time>
      </trkpt>
      <trkpt lat="43.2749" lon="6.43505">
        <ele>188.55578613281</ele>
        <time>2011-10-02T07:00:43Z</time>
      </trkpt>
      <trkpt lat="43.27479" lon="6.43521">
        <ele>186.15246582031</ele>
        <time>2011-10-02T07:00:47Z</time>
      </trkpt>
      <trkpt lat="43.2746" lon="6.43548">
        <ele>178.94262695312</ele>
        <time>2011-10-02T07:00:55Z</time>
      </trkpt>
      <trkpt lat="43.27444" lon="6.43568">
        <ele>174.61657714844</ele>
        <time>2011-10-02T07:01:00Z</time>
      </trkpt>
      <trkpt lat="43.27433" lon="6.43585">
        <ele>170.77136230469</ele>
        <time>2011-10-02T07:01:05Z</time>
      </trkpt>
      <trkpt lat="43.27439" lon="6.43588">
        <ele>173.17468261719</ele>
        <time>2011-10-02T07:01:09Z</time>
      </trkpt>
      <trkpt lat="43.27444" lon="6.43585">
        <ele>173.17468261719</ele>
        <time>2011-10-02T07:01:11Z</time>
      </trkpt>
      <trkpt lat="43.27462" lon="6.43577">
        <ele>174.61657714844</ele>
        <time>2011-10-02T07:01:16Z</time>
      </trkpt>
      <trkpt lat="43.27476" lon="6.43572">
        <ele>174.13586425781</ele>
        <time>2011-10-02T07:01:20Z</time>
      </trkpt>
      <trkpt lat="43.27477" lon="6.43572">
        <ele>173.6552734375</ele>
        <time>2011-10-02T07:01:21Z</time>
      </trkpt>
      <trkpt lat="43.27482" lon="6.43574">
        <ele>171.25207519531</ele>
        <time>2011-10-02T07:01:26Z</time>
      </trkpt>
      <trkpt lat="43.27482" lon="6.43576">
        <ele>165.00341796875</ele>
        <time>2011-10-02T07:01:34Z</time>
      </trkpt>
      <trkpt lat="43.27483" lon="6.43573">
        <ele>168.84875488281</ele>
        <time>2011-10-02T07:01:41Z</time>
      </trkpt>
      <trkpt lat="43.27483" lon="6.43571">
        <ele>168.84875488281</ele>
        <time>2011-10-02T07:02:13Z</time>
      </trkpt>
      <trkpt lat="43.27483" lon="6.43576">
        <ele>163.5615234375</ele>
        <time>2011-10-02T07:02:22Z</time>
      </trkpt>
      <trkpt lat="43.27484" lon="6.43579">
        <ele>160.19689941406</ele>
        <time>2011-10-02T07:02:34Z</time>
      </trkpt>
      <trkpt lat="43.27485" lon="6.43579">
        <ele>160.67749023438</ele>
        <time>2011-10-02T07:02:51Z</time>
      </trkpt>
      <trkpt lat="43.27483" lon="6.43574">
        <ele>162.11950683594</ele>
        <time>2011-10-02T07:03:04Z</time>
      </trkpt>
      <trkpt lat="43.2748" lon="6.43573">
        <ele>164.04211425781</ele>
        <time>2011-10-02T07:03:10Z</time>
      </trkpt>
      <trkpt lat="43.27466" lon="6.43595">
        <ele>161.63891601562</ele>
        <time>2011-10-02T07:03:15Z</time>
      </trkpt>
      <trkpt lat="43.27457" lon="6.43613">
        <ele>158.27416992188</ele>
        <time>2011-10-02T07:03:19Z</time>
      </trkpt>
      <trkpt lat="43.27454" lon="6.43622">
        <ele>155.87097167969</ele>
        <time>2011-10-02T07:03:21Z</time>
      </trkpt>
      <trkpt lat="43.27449" lon="6.43631">
        <ele>154.42895507812</ele>
        <time>2011-10-02T07:03:23Z</time>
      </trkpt>
      <trkpt lat="43.27438" lon="6.43644">
        <ele>153.94836425781</ele>
        <time>2011-10-02T07:03:28Z</time>
      </trkpt>
      <trkpt lat="43.2743" lon="6.43646">
        <ele>154.90954589844</ele>
        <time>2011-10-02T07:03:32Z</time>
      </trkpt>
      <trkpt lat="43.27423" lon="6.43653">
        <ele>153.46765136719</ele>
        <time>2011-10-02T07:03:38Z</time>
      </trkpt>
      <trkpt lat="43.27421" lon="6.43655">
        <ele>152.98693847656</ele>
        <time>2011-10-02T07:03:39Z</time>
      </trkpt>
      <trkpt lat="43.27401" lon="6.43664">
        <ele>152.02575683594</ele>
        <time>2011-10-02T07:03:47Z</time>
      </trkpt>
      <trkpt lat="43.27388" lon="6.4366">
        <ele>150.58361816406</ele>
        <time>2011-10-02T07:03:52Z</time>
      </trkpt>
      <trkpt lat="43.27386" lon="6.43659">
        <ele>150.58361816406</ele>
        <time>2011-10-02T07:03:53Z</time>
      </trkpt>
      <trkpt lat="43.27382" lon="6.43644">
        <ele>144.81579589844</ele>
        <time>2011-10-02T07:03:58Z</time>
      </trkpt>
      <trkpt lat="43.27378" lon="6.43621">
        <ele>140.00915527344</ele>
        <time>2011-10-02T07:04:04Z</time>
      </trkpt>
      <trkpt lat="43.27375" lon="6.4361">
        <ele>139.52844238281</ele>
        <time>2011-10-02T07:04:08Z</time>
      </trkpt>
      <trkpt lat="43.27374" lon="6.4359">
        <ele>140.48986816406</ele>
        <time>2011-10-02T07:04:13Z</time>
      </trkpt>
      <trkpt lat="43.27372" lon="6.43578">
        <ele>140.48986816406</ele>
        <time>2011-10-02T07:04:16Z</time>
      </trkpt>
      <trkpt lat="43.27366" lon="6.43566">
        <ele>139.0478515625</ele>
        <time>2011-10-02T07:04:21Z</time>
      </trkpt>
      <trkpt lat="43.27364" lon="6.43563">
        <ele>139.0478515625</ele>
        <time>2011-10-02T07:04:25Z</time>
      </trkpt>
      <trkpt lat="43.27358" lon="6.43564">
        <ele>139.52844238281</ele>
        <time>2011-10-02T07:04:30Z</time>
      </trkpt>
      <trkpt lat="43.27357" lon="6.43562">
        <ele>137.60583496094</ele>
        <time>2011-10-02T07:04:34Z</time>
      </trkpt>
      <trkpt lat="43.27351" lon="6.43563">
        <ele>137.12524414062</ele>
        <time>2011-10-02T07:04:39Z</time>
      </trkpt>
      <trkpt lat="43.27342" lon="6.43553">
        <ele>139.0478515625</ele>
        <time>2011-10-02T07:04:43Z</time>
      </trkpt>
      <trkpt lat="43.27335" lon="6.43545">
        <ele>136.64465332031</ele>
        <time>2011-10-02T07:04:46Z</time>
      </trkpt>
      <trkpt lat="43.27324" lon="6.43548">
        <ele>131.837890625</ele>
        <time>2011-10-02T07:04:51Z</time>
      </trkpt>
      <trkpt lat="43.27321" lon="6.43551">
        <ele>129.91528320312</ele>
        <time>2011-10-02T07:04:52Z</time>
      </trkpt>
      <trkpt lat="43.27314" lon="6.43571">
        <ele>119.82141113281</ele>
        <time>2011-10-02T07:04:57Z</time>
      </trkpt>
      <trkpt lat="43.27313" lon="6.43583">
        <ele>115.97619628906</ele>
        <time>2011-10-02T07:05:01Z</time>
      </trkpt>
      <trkpt lat="43.2731" lon="6.4359">
        <ele>115.97619628906</ele>
        <time>2011-10-02T07:05:05Z</time>
      </trkpt>
      <trkpt lat="43.273" lon="6.43593">
        <ele>114.05358886719</ele>
        <time>2011-10-02T07:05:10Z</time>
      </trkpt>
      <trkpt lat="43.27297" lon="6.43594">
        <ele>115.01489257812</ele>
        <time>2011-10-02T07:05:11Z</time>
      </trkpt>
      <trkpt lat="43.27285" lon="6.43596">
        <ele>112.13098144531</ele>
        <time>2011-10-02T07:05:16Z</time>
      </trkpt>
      <trkpt lat="43.27277" lon="6.43596">
        <ele>112.61157226562</ele>
        <time>2011-10-02T07:05:19Z</time>
      </trkpt>
      <trkpt lat="43.27271" lon="6.43597">
        <ele>111.16955566406</ele>
        <time>2011-10-02T07:05:23Z</time>
      </trkpt>
      <trkpt lat="43.27259" lon="6.43609">
        <ele>109.24694824219</ele>
        <time>2011-10-02T07:05:30Z</time>
      </trkpt>
      <trkpt lat="43.27256" lon="6.43613">
        <ele>110.20825195312</ele>
        <time>2011-10-02T07:05:35Z</time>
      </trkpt>
      <trkpt lat="43.27253" lon="6.43616">
        <ele>111.16955566406</ele>
        <time>2011-10-02T07:05:38Z</time>
      </trkpt>
      <trkpt lat="43.2725" lon="6.4362">
        <ele>110.20825195312</ele>
        <time>2011-10-02T07:05:42Z</time>
      </trkpt>
      <trkpt lat="43.27248" lon="6.43626">
        <ele>108.76623535156</ele>
        <time>2011-10-02T07:05:50Z</time>
      </trkpt>
      <trkpt lat="43.27245" lon="6.43628">
        <ele>105.40173339844</ele>
        <time>2011-10-02T07:06:00Z</time>
      </trkpt>
      <trkpt lat="43.27244" lon="6.43632">
        <ele>105.40173339844</ele>
        <time>2011-10-02T07:06:05Z</time>
      </trkpt>
      <trkpt lat="43.27242" lon="6.43635">
        <ele>106.36303710938</ele>
        <time>2011-10-02T07:06:09Z</time>
      </trkpt>
      <trkpt lat="43.27238" lon="6.43641">
        <ele>106.84362792969</ele>
        <time>2011-10-02T07:06:14Z</time>
      </trkpt>
      <trkpt lat="43.27236" lon="6.43641">
        <ele>109.24694824219</ele>
        <time>2011-10-02T07:06:18Z</time>
      </trkpt>
      <trkpt lat="43.27229" lon="6.43648">
        <ele>109.24694824219</ele>
        <time>2011-10-02T07:06:24Z</time>
      </trkpt>
      <trkpt lat="43.27225" lon="6.4365">
        <ele>110.20825195312</ele>
        <time>2011-10-02T07:06:30Z</time>
      </trkpt>
      <trkpt lat="43.27221" lon="6.43654">
        <ele>110.68884277344</ele>
        <time>2011-10-02T07:06:36Z</time>
      </trkpt>
      <trkpt lat="43.27215" lon="6.43658">
        <ele>110.20825195312</ele>
        <time>2011-10-02T07:06:42Z</time>
      </trkpt>
      <trkpt lat="43.27209" lon="6.43661">
        <ele>110.68884277344</ele>
        <time>2011-10-02T07:06:47Z</time>
      </trkpt>
      <trkpt lat="43.27206" lon="6.43661">
        <ele>110.68884277344</ele>
        <time>2011-10-02T07:06:54Z</time>
      </trkpt>
      <trkpt lat="43.272" lon="6.43661">
        <ele>112.61157226562</ele>
        <time>2011-10-02T07:06:59Z</time>
      </trkpt>
      <trkpt lat="43.27197" lon="6.43663">
        <ele>114.5341796875</ele>
        <time>2011-10-02T07:07:05Z</time>
      </trkpt>
      <trkpt lat="43.27196" lon="6.43662">
        <ele>110.68884277344</ele>
        <time>2011-10-02T07:07:09Z</time>
      </trkpt>
      <trkpt lat="43.27196" lon="6.43659">
        <ele>106.84362792969</ele>
        <time>2011-10-02T07:07:19Z</time>
      </trkpt>
      <trkpt lat="43.27196" lon="6.43664">
        <ele>114.5341796875</ele>
        <time>2011-10-02T07:07:33Z</time>
      </trkpt>
      <trkpt lat="43.27192" lon="6.43666">
        <ele>113.09228515625</ele>
        <time>2011-10-02T07:07:39Z</time>
      </trkpt>
      <trkpt lat="43.27191" lon="6.43673">
        <ele>116.9375</ele>
        <time>2011-10-02T07:07:49Z</time>
      </trkpt>
      <trkpt lat="43.27191" lon="6.43671">
        <ele>111.65026855469</ele>
        <time>2011-10-02T07:07:55Z</time>
      </trkpt>
      <trkpt lat="43.27192" lon="6.43667">
        <ele>108.76623535156</ele>
        <time>2011-10-02T07:07:58Z</time>
      </trkpt>
      <trkpt lat="43.2719" lon="6.43666">
        <ele>105.40173339844</ele>
        <time>2011-10-02T07:08:10Z</time>
      </trkpt>
      <trkpt lat="43.27188" lon="6.43667">
        <ele>104.4404296875</ele>
        <time>2011-10-02T07:08:13Z</time>
      </trkpt>
      <trkpt lat="43.2718" lon="6.43675">
        <ele>104.4404296875</ele>
        <time>2011-10-02T07:08:19Z</time>
      </trkpt>
      <trkpt lat="43.27177" lon="6.43676">
        <ele>104.92102050781</ele>
        <time>2011-10-02T07:08:25Z</time>
      </trkpt>
      <trkpt lat="43.27177" lon="6.43678">
        <ele>103.95971679688</ele>
        <time>2011-10-02T07:08:27Z</time>
      </trkpt>
      <trkpt lat="43.27174" lon="6.43683">
        <ele>105.88244628906</ele>
        <time>2011-10-02T07:08:31Z</time>
      </trkpt>
      <trkpt lat="43.27168" lon="6.43686">
        <ele>106.84362792969</ele>
        <time>2011-10-02T07:08:37Z</time>
      </trkpt>
      <trkpt lat="43.27167" lon="6.43693">
        <ele>106.84362792969</ele>
        <time>2011-10-02T07:08:42Z</time>
      </trkpt>
      <trkpt lat="43.27166" lon="6.43696">
        <ele>105.88244628906</ele>
        <time>2011-10-02T07:08:47Z</time>
      </trkpt>
      <trkpt lat="43.27166" lon="6.43702">
        <ele>105.40173339844</ele>
        <time>2011-10-02T07:08:52Z</time>
      </trkpt>
      <trkpt lat="43.27169" lon="6.43707">
        <ele>104.92102050781</ele>
        <time>2011-10-02T07:08:59Z</time>
      </trkpt>
      <trkpt lat="43.27168" lon="6.43712">
        <ele>104.92102050781</ele>
        <time>2011-10-02T07:09:04Z</time>
      </trkpt>
      <trkpt lat="43.27164" lon="6.43718">
        <ele>103.95971679688</ele>
        <time>2011-10-02T07:09:11Z</time>
      </trkpt>
      <trkpt lat="43.27164" lon="6.43722">
        <ele>105.88244628906</ele>
        <time>2011-10-02T07:09:18Z</time>
      </trkpt>
      <trkpt lat="43.27164" lon="6.43726">
        <ele>109.24694824219</ele>
        <time>2011-10-02T07:09:25Z</time>
      </trkpt>
      <trkpt lat="43.27162" lon="6.4373">
        <ele>109.72766113281</ele>
        <time>2011-10-02T07:09:31Z</time>
      </trkpt>
      <trkpt lat="43.27163" lon="6.43736">
        <ele>112.13098144531</ele>
        <time>2011-10-02T07:09:38Z</time>
      </trkpt>
      <trkpt lat="43.27161" lon="6.43737">
        <ele>114.5341796875</ele>
        <time>2011-10-02T07:09:44Z</time>
      </trkpt>
      <trkpt lat="43.2716" lon="6.43739">
        <ele>117.89880371094</ele>
        <time>2011-10-02T07:09:56Z</time>
      </trkpt>
      <trkpt lat="43.27153" lon="6.43739">
        <ele>116.9375</ele>
        <time>2011-10-02T07:10:00Z</time>
      </trkpt>
      <trkpt lat="43.27144" lon="6.4374">
        <ele>115.97619628906</ele>
        <time>2011-10-02T07:10:06Z</time>
      </trkpt>
      <trkpt lat="43.27143" lon="6.4374">
        <ele>115.49560546875</ele>
        <time>2011-10-02T07:10:07Z</time>
      </trkpt>
      <trkpt lat="43.27139" lon="6.43741">
        <ele>115.97619628906</ele>
        <time>2011-10-02T07:10:13Z</time>
      </trkpt>
      <trkpt lat="43.27135" lon="6.43741">
        <ele>116.45678710938</ele>
        <time>2011-10-02T07:10:19Z</time>
      </trkpt>
      <trkpt lat="43.27131" lon="6.43739">
        <ele>120.30212402344</ele>
        <time>2011-10-02T07:10:26Z</time>
      </trkpt>
      <trkpt lat="43.27128" lon="6.43737">
        <ele>122.70544433594</ele>
        <time>2011-10-02T07:10:32Z</time>
      </trkpt>
      <trkpt lat="43.27125" lon="6.43734">
        <ele>124.14733886719</ele>
        <time>2011-10-02T07:10:39Z</time>
      </trkpt>
      <trkpt lat="43.27119" lon="6.43732">
        <ele>123.66674804688</ele>
        <time>2011-10-02T07:10:46Z</time>
      </trkpt>
      <trkpt lat="43.27113" lon="6.43728">
        <ele>121.26354980469</ele>
        <time>2011-10-02T07:10:55Z</time>
      </trkpt>
      <trkpt lat="43.27112" lon="6.43725">
        <ele>122.70544433594</ele>
        <time>2011-10-02T07:11:01Z</time>
      </trkpt>
      <trkpt lat="43.27113" lon="6.43723">
        <ele>123.18615722656</ele>
        <time>2011-10-02T07:11:10Z</time>
      </trkpt>
      <trkpt lat="43.27108" lon="6.4371">
        <ele>123.66674804688</ele>
        <time>2011-10-02T07:11:17Z</time>
      </trkpt>
      <trkpt lat="43.27107" lon="6.43702">
        <ele>125.58935546875</ele>
        <time>2011-10-02T07:11:21Z</time>
      </trkpt>
      <trkpt lat="43.27102" lon="6.43685">
        <ele>124.62805175781</ele>
        <time>2011-10-02T07:11:29Z</time>
      </trkpt>
      <trkpt lat="43.27096" lon="6.43674">
        <ele>125.58935546875</ele>
        <time>2011-10-02T07:11:35Z</time>
      </trkpt>
      <trkpt lat="43.27091" lon="6.43665">
        <ele>126.06994628906</ele>
        <time>2011-10-02T07:11:40Z</time>
      </trkpt>
      <trkpt lat="43.27085" lon="6.43657">
        <ele>127.99255371094</ele>
        <time>2011-10-02T07:11:45Z</time>
      </trkpt>
      <trkpt lat="43.27084" lon="6.43656">
        <ele>127.99255371094</ele>
        <time>2011-10-02T07:11:46Z</time>
      </trkpt>
      <trkpt lat="43.27078" lon="6.43643">
        <ele>129.43469238281</ele>
        <time>2011-10-02T07:11:52Z</time>
      </trkpt>
      <trkpt lat="43.27072" lon="6.43631">
        <ele>128.9541015625</ele>
        <time>2011-10-02T07:11:58Z</time>
      </trkpt>
      <trkpt lat="43.2707" lon="6.43617">
        <ele>129.91528320312</ele>
        <time>2011-10-02T07:12:04Z</time>
      </trkpt>
      <trkpt lat="43.2707" lon="6.43593">
        <ele>135.20251464844</ele>
        <time>2011-10-02T07:12:13Z</time>
      </trkpt>
      <trkpt lat="43.27071" lon="6.43581">
        <ele>137.12524414062</ele>
        <time>2011-10-02T07:12:17Z</time>
      </trkpt>
      <trkpt lat="43.27072" lon="6.4356">
        <ele>141.45104980469</ele>
        <time>2011-10-02T07:12:25Z</time>
      </trkpt>
      <trkpt lat="43.27069" lon="6.43552">
        <ele>143.85437011719</ele>
        <time>2011-10-02T07:12:29Z</time>
      </trkpt>
      <trkpt lat="43.27062" lon="6.43543">
        <ele>143.37365722656</ele>
        <time>2011-10-02T07:12:35Z</time>
      </trkpt>
      <trkpt lat="43.27058" lon="6.43532">
        <ele>143.37365722656</ele>
        <time>2011-10-02T07:12:40Z</time>
      </trkpt>
      <trkpt lat="43.27055" lon="6.43522">
        <ele>143.37365722656</ele>
        <time>2011-10-02T07:12:45Z</time>
      </trkpt>
      <trkpt lat="43.2705" lon="6.43514">
        <ele>143.85437011719</ele>
        <time>2011-10-02T07:12:50Z</time>
      </trkpt>
      <trkpt lat="43.27044" lon="6.4351">
        <ele>143.85437011719</ele>
        <time>2011-10-02T07:12:55Z</time>
      </trkpt>
      <trkpt lat="43.27042" lon="6.43516">
        <ele>143.37365722656</ele>
        <time>2011-10-02T07:13:01Z</time>
      </trkpt>
      <trkpt lat="43.27044" lon="6.43517">
        <ele>143.37365722656</ele>
        <time>2011-10-02T07:13:02Z</time>
      </trkpt>
      <trkpt lat="43.27051" lon="6.43527">
        <ele>146.2578125</ele>
        <time>2011-10-02T07:13:09Z</time>
      </trkpt>
      <trkpt lat="43.27054" lon="6.4354">
        <ele>148.66101074219</ele>
        <time>2011-10-02T07:13:16Z</time>
      </trkpt>
      <trkpt lat="43.27056" lon="6.43552">
        <ele>150.58361816406</ele>
        <time>2011-10-02T07:13:22Z</time>
      </trkpt>
      <trkpt lat="43.27057" lon="6.43572">
        <ele>152.98693847656</ele>
        <time>2011-10-02T07:13:30Z</time>
      </trkpt>
      <trkpt lat="43.27057" lon="6.43589">
        <ele>154.90954589844</ele>
        <time>2011-10-02T07:13:37Z</time>
      </trkpt>
      <trkpt lat="43.27057" lon="6.43592">
        <ele>154.90954589844</ele>
        <time>2011-10-02T07:13:38Z</time>
      </trkpt>
      <trkpt lat="43.27056" lon="6.436">
        <ele>154.90954589844</ele>
        <time>2011-10-02T07:13:42Z</time>
      </trkpt>
      <trkpt lat="43.27054" lon="6.43624">
        <ele>158.27416992188</ele>
        <time>2011-10-02T07:13:52Z</time>
      </trkpt>
      <trkpt lat="43.27053" lon="6.43644">
        <ele>161.158203125</ele>
        <time>2011-10-02T07:14:00Z</time>
      </trkpt>
      <trkpt lat="43.27053" lon="6.43669">
        <ele>164.52270507812</ele>
        <time>2011-10-02T07:14:10Z</time>
      </trkpt>
      <trkpt lat="43.27052" lon="6.4368">
        <ele>165.96472167969</ele>
        <time>2011-10-02T07:14:15Z</time>
      </trkpt>
      <trkpt lat="43.2705" lon="6.4369">
        <ele>166.92602539062</ele>
        <time>2011-10-02T07:14:19Z</time>
      </trkpt>
      <trkpt lat="43.27045" lon="6.43713">
        <ele>168.84875488281</ele>
        <time>2011-10-02T07:14:29Z</time>
      </trkpt>
      <trkpt lat="43.27039" lon="6.43727">
        <ele>169.32946777344</ele>
        <time>2011-10-02T07:14:36Z</time>
      </trkpt>
      <trkpt lat="43.27035" lon="6.43723">
        <ele>168.36804199219</ele>
        <time>2011-10-02T07:14:41Z</time>
      </trkpt>
      <trkpt lat="43.27036" lon="6.4371">
        <ele>170.29064941406</ele>
        <time>2011-10-02T07:14:48Z</time>
      </trkpt>
      <trkpt lat="43.27035" lon="6.43694">
        <ele>172.69396972656</ele>
        <time>2011-10-02T07:14:56Z</time>
      </trkpt>
      <trkpt lat="43.27034" lon="6.43685">
        <ele>173.17468261719</ele>
        <time>2011-10-02T07:15:00Z</time>
      </trkpt>
      <trkpt lat="43.27032" lon="6.43677">
        <ele>173.6552734375</ele>
        <time>2011-10-02T07:15:04Z</time>
      </trkpt>
      <trkpt lat="43.27029" lon="6.43658">
        <ele>173.6552734375</ele>
        <time>2011-10-02T07:15:12Z</time>
      </trkpt>
      <trkpt lat="43.27027" lon="6.43652">
        <ele>175.09729003906</ele>
        <time>2011-10-02T07:15:15Z</time>
      </trkpt>
      <trkpt lat="43.27025" lon="6.43634">
        <ele>175.57788085938</ele>
        <time>2011-10-02T07:15:22Z</time>
      </trkpt>
      <trkpt lat="43.27024" lon="6.43617">
        <ele>178.94262695312</ele>
        <time>2011-10-02T07:15:29Z</time>
      </trkpt>
      <trkpt lat="43.27023" lon="6.436">
        <ele>180.38452148438</ele>
        <time>2011-10-02T07:15:36Z</time>
      </trkpt>
      <trkpt lat="43.2702" lon="6.43587">
        <ele>182.78784179688</ele>
        <time>2011-10-02T07:15:42Z</time>
      </trkpt>
      <trkpt lat="43.27014" lon="6.43578">
        <ele>182.78784179688</ele>
        <time>2011-10-02T07:15:47Z</time>
      </trkpt>
      <trkpt lat="43.27007" lon="6.43574">
        <ele>181.34582519531</ele>
        <time>2011-10-02T07:15:52Z</time>
      </trkpt>
      <trkpt lat="43.27004" lon="6.43573">
        <ele>182.78784179688</ele>
        <time>2011-10-02T07:15:54Z</time>
      </trkpt>
      <trkpt lat="43.27003" lon="6.43579">
        <ele>185.19116210938</ele>
        <time>2011-10-02T07:15:59Z</time>
      </trkpt>
      <trkpt lat="43.27005" lon="6.43582">
        <ele>185.19116210938</ele>
        <time>2011-10-02T07:16:01Z</time>
      </trkpt>
      <trkpt lat="43.27014" lon="6.43592">
        <ele>186.15246582031</ele>
        <time>2011-10-02T07:16:08Z</time>
      </trkpt>
      <trkpt lat="43.27015" lon="6.43605">
        <ele>187.59436035156</ele>
        <time>2011-10-02T07:16:14Z</time>
      </trkpt>
      <trkpt lat="43.27013" lon="6.43624">
        <ele>190.958984375</ele>
        <time>2011-10-02T07:16:22Z</time>
      </trkpt>
      <trkpt lat="43.27008" lon="6.43643">
        <ele>195.28491210938</ele>
        <time>2011-10-02T07:16:31Z</time>
      </trkpt>
      <trkpt lat="43.27005" lon="6.43661">
        <ele>197.20751953125</ele>
        <time>2011-10-02T07:16:39Z</time>
      </trkpt>
      <trkpt lat="43.27002" lon="6.43673">
        <ele>199.13012695312</ele>
        <time>2011-10-02T07:16:45Z</time>
      </trkpt>
      <trkpt lat="43.26998" lon="6.4369">
        <ele>201.05285644531</ele>
        <time>2011-10-02T07:16:53Z</time>
      </trkpt>
      <trkpt lat="43.26994" lon="6.43703">
        <ele>202.49487304688</ele>
        <time>2011-10-02T07:16:59Z</time>
      </trkpt>
      <trkpt lat="43.26992" lon="6.43717">
        <ele>205.85949707031</ele>
        <time>2011-10-02T07:17:05Z</time>
      </trkpt>
      <trkpt lat="43.26987" lon="6.43728">
        <ele>207.78210449219</ele>
        <time>2011-10-02T07:17:10Z</time>
      </trkpt>
      <trkpt lat="43.26977" lon="6.43729">
        <ele>206.82067871094</ele>
        <time>2011-10-02T07:17:16Z</time>
      </trkpt>
      <trkpt lat="43.26976" lon="6.43726">
        <ele>208.74340820312</ele>
        <time>2011-10-02T07:17:19Z</time>
      </trkpt>
      <trkpt lat="43.26976" lon="6.43714">
        <ele>211.14672851562</ele>
        <time>2011-10-02T07:17:26Z</time>
      </trkpt>
      <trkpt lat="43.26976" lon="6.43702">
        <ele>212.58862304688</ele>
        <time>2011-10-02T07:17:32Z</time>
      </trkpt>
      <trkpt lat="43.26975" lon="6.43693">
        <ele>213.55004882812</ele>
        <time>2011-10-02T07:17:36Z</time>
      </trkpt>
      <trkpt lat="43.26975" lon="6.43674">
        <ele>215.47265625</ele>
        <time>2011-10-02T07:17:44Z</time>
      </trkpt>
      <trkpt lat="43.26971" lon="6.4366">
        <ele>215.95324707031</ele>
        <time>2011-10-02T07:17:51Z</time>
      </trkpt>
      <trkpt lat="43.26971" lon="6.43651">
        <ele>217.39538574219</ele>
        <time>2011-10-02T07:17:55Z</time>
      </trkpt>
      <trkpt lat="43.26963" lon="6.43637">
        <ele>217.8759765625</ele>
        <time>2011-10-02T07:18:02Z</time>
      </trkpt>
      <trkpt lat="43.26953" lon="6.43627">
        <ele>217.39538574219</ele>
        <time>2011-10-02T07:18:08Z</time>
      </trkpt>
      <trkpt lat="43.26949" lon="6.43617">
        <ele>218.83728027344</ele>
        <time>2011-10-02T07:18:13Z</time>
      </trkpt>
      <trkpt lat="43.26942" lon="6.43607">
        <ele>219.31799316406</ele>
        <time>2011-10-02T07:18:18Z</time>
      </trkpt>
      <trkpt lat="43.26934" lon="6.43597">
        <ele>220.75988769531</ele>
        <time>2011-10-02T07:18:24Z</time>
      </trkpt>
      <trkpt lat="43.26934" lon="6.43602">
        <ele>222.20178222656</ele>
        <time>2011-10-02T07:18:29Z</time>
      </trkpt>
      <trkpt lat="43.26941" lon="6.43614">
        <ele>224.12451171875</ele>
        <time>2011-10-02T07:18:36Z</time>
      </trkpt>
      <trkpt lat="43.2695" lon="6.43633">
        <ele>224.12451171875</ele>
        <time>2011-10-02T07:18:45Z</time>
      </trkpt>
      <trkpt lat="43.26953" lon="6.43649">
        <ele>226.52783203125</ele>
        <time>2011-10-02T07:18:52Z</time>
      </trkpt>
      <trkpt lat="43.2695" lon="6.4367">
        <ele>231.33435058594</ele>
        <time>2011-10-02T07:19:01Z</time>
      </trkpt>
      <trkpt lat="43.26946" lon="6.43688">
        <ele>235.66027832031</ele>
        <time>2011-10-02T07:19:09Z</time>
      </trkpt>
      <trkpt lat="43.26943" lon="6.437">
        <ele>237.58288574219</ele>
        <time>2011-10-02T07:19:15Z</time>
      </trkpt>
      <trkpt lat="43.2694" lon="6.4371">
        <ele>236.14099121094</ele>
        <time>2011-10-02T07:19:19Z</time>
      </trkpt>
      <trkpt lat="43.26936" lon="6.43718">
        <ele>236.62170410156</ele>
        <time>2011-10-02T07:19:23Z</time>
      </trkpt>
      <trkpt lat="43.26931" lon="6.43733">
        <ele>237.10229492188</ele>
        <time>2011-10-02T07:19:30Z</time>
      </trkpt>
      <trkpt lat="43.26928" lon="6.43739">
        <ele>238.54431152344</ele>
        <time>2011-10-02T07:19:34Z</time>
      </trkpt>
      <trkpt lat="43.26919" lon="6.43738">
        <ele>235.66027832031</ele>
        <time>2011-10-02T07:19:40Z</time>
      </trkpt>
      <trkpt lat="43.26918" lon="6.43734">
        <ele>235.1796875</ele>
        <time>2011-10-02T07:19:43Z</time>
      </trkpt>
      <trkpt lat="43.26921" lon="6.43717">
        <ele>236.14099121094</ele>
        <time>2011-10-02T07:19:51Z</time>
      </trkpt>
      <trkpt lat="43.26926" lon="6.43698">
        <ele>235.66027832031</ele>
        <time>2011-10-02T07:19:58Z</time>
      </trkpt>
      <trkpt lat="43.26928" lon="6.43675">
        <ele>236.62170410156</ele>
        <time>2011-10-02T07:20:06Z</time>
      </trkpt>
      <trkpt lat="43.26925" lon="6.4366">
        <ele>240.94763183594</ele>
        <time>2011-10-02T07:20:12Z</time>
      </trkpt>
      <trkpt lat="43.26924" lon="6.43657">
        <ele>240.94763183594</ele>
        <time>2011-10-02T07:20:13Z</time>
      </trkpt>
      <trkpt lat="43.26915" lon="6.43646">
        <ele>240.94763183594</ele>
        <time>2011-10-02T07:20:19Z</time>
      </trkpt>
      <trkpt lat="43.26907" lon="6.43636">
        <ele>239.50549316406</ele>
        <time>2011-10-02T07:20:24Z</time>
      </trkpt>
      <trkpt lat="43.26896" lon="6.43622">
        <ele>241.42822265625</ele>
        <time>2011-10-02T07:20:31Z</time>
      </trkpt>
      <trkpt lat="43.26887" lon="6.4361">
        <ele>243.83154296875</ele>
        <time>2011-10-02T07:20:37Z</time>
      </trkpt>
      <trkpt lat="43.26885" lon="6.43608">
        <ele>243.35083007812</ele>
        <time>2011-10-02T07:20:38Z</time>
      </trkpt>
      <trkpt lat="43.26877" lon="6.43605">
        <ele>245.2734375</ele>
        <time>2011-10-02T07:20:44Z</time>
      </trkpt>
      <trkpt lat="43.2688" lon="6.43614">
        <ele>245.75415039062</ele>
        <time>2011-10-02T07:20:48Z</time>
      </trkpt>
      <trkpt lat="43.26884" lon="6.43618">
        <ele>245.75415039062</ele>
        <time>2011-10-02T07:20:50Z</time>
      </trkpt>
      <trkpt lat="43.26893" lon="6.43638">
        <ele>247.6767578125</ele>
        <time>2011-10-02T07:20:58Z</time>
      </trkpt>
      <trkpt lat="43.26899" lon="6.4366">
        <ele>251.04138183594</ele>
        <time>2011-10-02T07:21:06Z</time>
      </trkpt>
      <trkpt lat="43.26899" lon="6.43682">
        <ele>253.44470214844</ele>
        <time>2011-10-02T07:21:13Z</time>
      </trkpt>
      <trkpt lat="43.26899" lon="6.43685">
        <ele>253.92541503906</ele>
        <time>2011-10-02T07:21:14Z</time>
      </trkpt>
      <trkpt lat="43.26892" lon="6.43702">
        <ele>257.77075195312</ele>
        <time>2011-10-02T07:21:22Z</time>
      </trkpt>
      <trkpt lat="43.26888" lon="6.43712">
        <ele>258.73193359375</ele>
        <time>2011-10-02T07:21:28Z</time>
      </trkpt>
      <trkpt lat="43.2688" lon="6.43724">
        <ele>260.17395019531</ele>
        <time>2011-10-02T07:21:35Z</time>
      </trkpt>
      <trkpt lat="43.26873" lon="6.43734">
        <ele>260.17395019531</ele>
        <time>2011-10-02T07:21:41Z</time>
      </trkpt>
      <trkpt lat="43.26862" lon="6.4375">
        <ele>262.5771484375</ele>
        <time>2011-10-02T07:21:50Z</time>
      </trkpt>
      <trkpt lat="43.26851" lon="6.43757">
        <ele>264.49987792969</ele>
        <time>2011-10-02T07:21:57Z</time>
      </trkpt>
      <trkpt lat="43.26839" lon="6.43766">
        <ele>268.82580566406</ele>
        <time>2011-10-02T07:22:04Z</time>
      </trkpt>
      <trkpt lat="43.26833" lon="6.43778">
        <ele>271.70971679688</ele>
        <time>2011-10-02T07:22:10Z</time>
      </trkpt>
      <trkpt lat="43.26826" lon="6.43798">
        <ele>274.11303710938</ele>
        <time>2011-10-02T07:22:19Z</time>
      </trkpt>
      <trkpt lat="43.2682" lon="6.43809">
        <ele>276.9970703125</ele>
        <time>2011-10-02T07:22:25Z</time>
      </trkpt>
      <trkpt lat="43.26813" lon="6.43817">
        <ele>281.80358886719</ele>
        <time>2011-10-02T07:22:32Z</time>
      </trkpt>
      <trkpt lat="43.26804" lon="6.43823">
        <ele>281.32299804688</ele>
        <time>2011-10-02T07:22:38Z</time>
      </trkpt>
      <trkpt lat="43.26799" lon="6.43836">
        <ele>285.64880371094</ele>
        <time>2011-10-02T07:22:44Z</time>
      </trkpt>
      <trkpt lat="43.26798" lon="6.43838">
        <ele>286.12951660156</ele>
        <time>2011-10-02T07:22:45Z</time>
      </trkpt>
      <trkpt lat="43.26799" lon="6.43862">
        <ele>289.97485351562</ele>
        <time>2011-10-02T07:22:53Z</time>
      </trkpt>
      <trkpt lat="43.26794" lon="6.43875">
        <ele>287.57141113281</ele>
        <time>2011-10-02T07:22:59Z</time>
      </trkpt>
      <trkpt lat="43.26786" lon="6.43891">
        <ele>288.05224609375</ele>
        <time>2011-10-02T07:23:06Z</time>
      </trkpt>
      <trkpt lat="43.26781" lon="6.4391">
        <ele>287.57141113281</ele>
        <time>2011-10-02T07:23:13Z</time>
      </trkpt>
      <trkpt lat="43.26777" lon="6.43923">
        <ele>285.16821289062</ele>
        <time>2011-10-02T07:23:18Z</time>
      </trkpt>
      <trkpt lat="43.26773" lon="6.4393">
        <ele>281.80358886719</ele>
        <time>2011-10-02T07:23:24Z</time>
      </trkpt>
      <trkpt lat="43.2677" lon="6.43942">
        <ele>289.494140625</ele>
        <time>2011-10-02T07:24:47Z</time>
      </trkpt>
      <trkpt lat="43.26768" lon="6.43941">
        <ele>287.0908203125</ele>
        <time>2011-10-02T07:25:36Z</time>
      </trkpt>
      <trkpt lat="43.26757" lon="6.43951">
        <ele>285.16821289062</ele>
        <time>2011-10-02T07:25:43Z</time>
      </trkpt>
      <trkpt lat="43.26743" lon="6.43963">
        <ele>282.28430175781</ele>
        <time>2011-10-02T07:25:51Z</time>
      </trkpt>
      <trkpt lat="43.26728" lon="6.43978">
        <ele>283.72619628906</ele>
        <time>2011-10-02T07:26:00Z</time>
      </trkpt>
      <trkpt lat="43.26715" lon="6.43989">
        <ele>285.16821289062</ele>
        <time>2011-10-02T07:26:07Z</time>
      </trkpt>
      <trkpt lat="43.26705" lon="6.43999">
        <ele>285.16821289062</ele>
        <time>2011-10-02T07:26:13Z</time>
      </trkpt>
      <trkpt lat="43.26692" lon="6.44014">
        <ele>284.20690917969</ele>
        <time>2011-10-02T07:26:21Z</time>
      </trkpt>
      <trkpt lat="43.26677" lon="6.44026">
        <ele>283.24560546875</ele>
        <time>2011-10-02T07:26:29Z</time>
      </trkpt>
      <trkpt lat="43.26662" lon="6.44037">
        <ele>285.16821289062</ele>
        <time>2011-10-02T07:26:36Z</time>
      </trkpt>
      <trkpt lat="43.26645" lon="6.44044">
        <ele>284.20690917969</ele>
        <time>2011-10-02T07:26:43Z</time>
      </trkpt>
      <trkpt lat="43.26629" lon="6.44045">
        <ele>284.68762207031</ele>
        <time>2011-10-02T07:26:49Z</time>
      </trkpt>
      <trkpt lat="43.26624" lon="6.4405">
        <ele>284.68762207031</ele>
        <time>2011-10-02T07:26:51Z</time>
      </trkpt>
      <trkpt lat="43.2662" lon="6.4408">
        <ele>282.76501464844</ele>
        <time>2011-10-02T07:26:55Z</time>
      </trkpt>
      <trkpt lat="43.26619" lon="6.44101">
        <ele>280.84240722656</ele>
        <time>2011-10-02T07:26:57Z</time>
      </trkpt>
      <trkpt lat="43.26612" lon="6.44144">
        <ele>277.95825195312</ele>
        <time>2011-10-02T07:27:01Z</time>
      </trkpt>
      <trkpt lat="43.26599" lon="6.44179">
        <ele>276.03564453125</ele>
        <time>2011-10-02T07:27:05Z</time>
      </trkpt>
      <trkpt lat="43.26574" lon="6.44224">
        <ele>273.63244628906</ele>
        <time>2011-10-02T07:27:11Z</time>
      </trkpt>
      <trkpt lat="43.26566" lon="6.44238">
        <ele>272.67114257812</ele>
        <time>2011-10-02T07:27:13Z</time>
      </trkpt>
      <trkpt lat="43.26558" lon="6.44263">
        <ele>270.74841308594</ele>
        <time>2011-10-02T07:27:16Z</time>
      </trkpt>
      <trkpt lat="43.26541" lon="6.44307">
        <ele>266.90319824219</ele>
        <time>2011-10-02T07:27:22Z</time>
      </trkpt>
      <trkpt lat="43.26538" lon="6.44314">
        <ele>266.90319824219</ele>
        <time>2011-10-02T07:27:23Z</time>
      </trkpt>
      <trkpt lat="43.26525" lon="6.44372">
        <ele>265.94189453125</ele>
        <time>2011-10-02T07:27:31Z</time>
      </trkpt>
      <trkpt lat="43.26521" lon="6.44409">
        <ele>265.94189453125</ele>
        <time>2011-10-02T07:27:36Z</time>
      </trkpt>
      <trkpt lat="43.26521" lon="6.44424">
        <ele>266.42248535156</ele>
        <time>2011-10-02T07:27:38Z</time>
      </trkpt>
      <trkpt lat="43.2652" lon="6.44445">
        <ele>264.01928710938</ele>
        <time>2011-10-02T07:27:42Z</time>
      </trkpt>
      <trkpt lat="43.26517" lon="6.44465">
        <ele>262.09655761719</ele>
        <time>2011-10-02T07:27:46Z</time>
      </trkpt>
      <trkpt lat="43.26513" lon="6.44484">
        <ele>260.17395019531</ele>
        <time>2011-10-02T07:27:50Z</time>
      </trkpt>
      <trkpt lat="43.26501" lon="6.4449">
        <ele>258.73193359375</ele>
        <time>2011-10-02T07:27:54Z</time>
      </trkpt>
      <trkpt lat="43.26487" lon="6.445">
        <ele>256.80932617188</ele>
        <time>2011-10-02T07:27:58Z</time>
      </trkpt>
      <trkpt lat="43.26477" lon="6.44523">
        <ele>254.88659667969</ele>
        <time>2011-10-02T07:28:02Z</time>
      </trkpt>
      <trkpt lat="43.26465" lon="6.44555">
        <ele>253.44470214844</ele>
        <time>2011-10-02T07:28:06Z</time>
      </trkpt>
      <trkpt lat="43.26461" lon="6.44582">
        <ele>252.96398925781</ele>
        <time>2011-10-02T07:28:09Z</time>
      </trkpt>
      <trkpt lat="43.26462" lon="6.44612">
        <ele>256.32873535156</ele>
        <time>2011-10-02T07:28:12Z</time>
      </trkpt>
      <trkpt lat="43.26472" lon="6.44627">
        <ele>257.2900390625</ele>
        <time>2011-10-02T07:28:15Z</time>
      </trkpt>
      <trkpt lat="43.26474" lon="6.44629">
        <ele>257.77075195312</ele>
        <time>2011-10-02T07:28:16Z</time>
      </trkpt>
      <trkpt lat="43.26489" lon="6.44635">
        <ele>256.80932617188</ele>
        <time>2011-10-02T07:28:25Z</time>
      </trkpt>
      <trkpt lat="43.26493" lon="6.44637">
        <ele>256.32873535156</ele>
        <time>2011-10-02T07:28:27Z</time>
      </trkpt>
      <trkpt lat="43.26509" lon="6.44648">
        <ele>254.40600585938</ele>
        <time>2011-10-02T07:28:35Z</time>
      </trkpt>
      <trkpt lat="43.26516" lon="6.44655">
        <ele>254.88659667969</ele>
        <time>2011-10-02T07:28:39Z</time>
      </trkpt>
      <trkpt lat="43.26513" lon="6.44662">
        <ele>258.73193359375</ele>
        <time>2011-10-02T07:28:43Z</time>
      </trkpt>
      <trkpt lat="43.26511" lon="6.44662">
        <ele>262.5771484375</ele>
        <time>2011-10-02T07:28:50Z</time>
      </trkpt>
      <trkpt lat="43.26508" lon="6.44657">
        <ele>263.05786132812</ele>
        <time>2011-10-02T07:28:57Z</time>
      </trkpt>
      <trkpt lat="43.265" lon="6.44648">
        <ele>265.46130371094</ele>
        <time>2011-10-02T07:29:02Z</time>
      </trkpt>
      <trkpt lat="43.26485" lon="6.44639">
        <ele>263.53857421875</ele>
        <time>2011-10-02T07:29:07Z</time>
      </trkpt>
      <trkpt lat="43.26469" lon="6.44637">
        <ele>261.61596679688</ele>
        <time>2011-10-02T07:29:11Z</time>
      </trkpt>
      <trkpt lat="43.26448" lon="6.44635">
        <ele>260.65454101562</ele>
        <time>2011-10-02T07:29:16Z</time>
      </trkpt>
      <trkpt lat="43.26441" lon="6.44642">
        <ele>260.17395019531</ele>
        <time>2011-10-02T07:29:20Z</time>
      </trkpt>
      <trkpt lat="43.26439" lon="6.44646">
        <ele>260.65454101562</ele>
        <time>2011-10-02T07:29:22Z</time>
      </trkpt>
      <trkpt lat="43.26429" lon="6.44655">
        <ele>263.53857421875</ele>
        <time>2011-10-02T07:29:28Z</time>
      </trkpt>
      <trkpt lat="43.26427" lon="6.44656">
        <ele>263.53857421875</ele>
        <time>2011-10-02T07:29:29Z</time>
      </trkpt>
      <trkpt lat="43.2641" lon="6.44649">
        <ele>262.5771484375</ele>
        <time>2011-10-02T07:29:36Z</time>
      </trkpt>
      <trkpt lat="43.26392" lon="6.44649">
        <ele>264.01928710938</ele>
        <time>2011-10-02T07:29:44Z</time>
      </trkpt>
      <trkpt lat="43.26382" lon="6.44651">
        <ele>266.90319824219</ele>
        <time>2011-10-02T07:29:49Z</time>
      </trkpt>
      <trkpt lat="43.26371" lon="6.44653">
        <ele>270.26770019531</ele>
        <time>2011-10-02T07:29:53Z</time>
      </trkpt>
      <trkpt lat="43.26355" lon="6.44649">
        <ele>269.787109375</ele>
        <time>2011-10-02T07:29:58Z</time>
      </trkpt>
      <trkpt lat="43.2634" lon="6.44653">
        <ele>269.787109375</ele>
        <time>2011-10-02T07:30:04Z</time>
      </trkpt>
      <trkpt lat="43.26324" lon="6.44661">
        <ele>271.22912597656</ele>
        <time>2011-10-02T07:30:11Z</time>
      </trkpt>
      <trkpt lat="43.26314" lon="6.44665">
        <ele>271.22912597656</ele>
        <time>2011-10-02T07:30:16Z</time>
      </trkpt>
      <trkpt lat="43.2631" lon="6.44666">
        <ele>269.30651855469</ele>
        <time>2011-10-02T07:30:21Z</time>
      </trkpt>
      <trkpt lat="43.26305" lon="6.44667">
        <ele>272.1904296875</ele>
        <time>2011-10-02T07:31:15Z</time>
      </trkpt>
      <trkpt lat="43.26305" lon="6.4467">
        <ele>278.91967773438</ele>
        <time>2011-10-02T07:31:39Z</time>
      </trkpt>
      <trkpt lat="43.26296" lon="6.44666">
        <ele>274.11303710938</ele>
        <time>2011-10-02T07:31:44Z</time>
      </trkpt>
      <trkpt lat="43.26283" lon="6.44657">
        <ele>270.26770019531</ele>
        <time>2011-10-02T07:31:50Z</time>
      </trkpt>
      <trkpt lat="43.26269" lon="6.44653">
        <ele>272.1904296875</ele>
        <time>2011-10-02T07:31:56Z</time>
      </trkpt>
      <trkpt lat="43.26257" lon="6.44651">
        <ele>271.22912597656</ele>
        <time>2011-10-02T07:32:00Z</time>
      </trkpt>
      <trkpt lat="43.26239" lon="6.44644">
        <ele>272.67114257812</ele>
        <time>2011-10-02T07:32:06Z</time>
      </trkpt>
      <trkpt lat="43.2623" lon="6.44637">
        <ele>275.55505371094</ele>
        <time>2011-10-02T07:32:10Z</time>
      </trkpt>
      <trkpt lat="43.26221" lon="6.44627">
        <ele>273.63244628906</ele>
        <time>2011-10-02T07:32:16Z</time>
      </trkpt>
      <trkpt lat="43.26218" lon="6.44625">
        <ele>272.1904296875</ele>
        <time>2011-10-02T07:32:18Z</time>
      </trkpt>
      <trkpt lat="43.26206" lon="6.44612">
        <ele>270.74841308594</ele>
        <time>2011-10-02T07:32:25Z</time>
      </trkpt>
      <trkpt lat="43.26192" lon="6.44602">
        <ele>272.1904296875</ele>
        <time>2011-10-02T07:32:34Z</time>
      </trkpt>
      <trkpt lat="43.26184" lon="6.44597">
        <ele>275.07446289062</ele>
        <time>2011-10-02T07:32:41Z</time>
      </trkpt>
      <trkpt lat="43.26175" lon="6.44592">
        <ele>278.43896484375</ele>
        <time>2011-10-02T07:32:49Z</time>
      </trkpt>
      <trkpt lat="43.26169" lon="6.44591">
        <ele>282.76501464844</ele>
        <time>2011-10-02T07:32:54Z</time>
      </trkpt>
      <trkpt lat="43.26162" lon="6.44589">
        <ele>282.28430175781</ele>
        <time>2011-10-02T07:33:00Z</time>
      </trkpt>
      <trkpt lat="43.26154" lon="6.44587">
        <ele>281.80358886719</ele>
        <time>2011-10-02T07:33:05Z</time>
      </trkpt>
      <trkpt lat="43.26144" lon="6.44579">
        <ele>278.43896484375</ele>
        <time>2011-10-02T07:33:13Z</time>
      </trkpt>
      <trkpt lat="43.26146" lon="6.44572">
        <ele>277.95825195312</ele>
        <time>2011-10-02T07:33:18Z</time>
      </trkpt>
      <trkpt lat="43.26154" lon="6.4456">
        <ele>276.51635742188</ele>
        <time>2011-10-02T07:33:24Z</time>
      </trkpt>
      <trkpt lat="43.26157" lon="6.44551">
        <ele>276.03564453125</ele>
        <time>2011-10-02T07:33:27Z</time>
      </trkpt>
      <trkpt lat="43.26149" lon="6.44542">
        <ele>280.36169433594</ele>
        <time>2011-10-02T07:33:31Z</time>
      </trkpt>
      <trkpt lat="43.26135" lon="6.44535">
        <ele>283.72619628906</ele>
        <time>2011-10-02T07:33:37Z</time>
      </trkpt>
      <trkpt lat="43.26123" lon="6.4453">
        <ele>285.16821289062</ele>
        <time>2011-10-02T07:33:42Z</time>
      </trkpt>
      <trkpt lat="43.2611" lon="6.44513">
        <ele>284.20690917969</ele>
        <time>2011-10-02T07:33:47Z</time>
      </trkpt>
      <trkpt lat="43.26097" lon="6.445">
        <ele>287.57141113281</ele>
        <time>2011-10-02T07:33:52Z</time>
      </trkpt>
      <trkpt lat="43.26091" lon="6.44484">
        <ele>287.0908203125</ele>
        <time>2011-10-02T07:33:57Z</time>
      </trkpt>
      <trkpt lat="43.26089" lon="6.44461">
        <ele>289.01354980469</ele>
        <time>2011-10-02T07:34:05Z</time>
      </trkpt>
      <trkpt lat="43.26096" lon="6.44451">
        <ele>292.37817382812</ele>
        <time>2011-10-02T07:34:10Z</time>
      </trkpt>
      <trkpt lat="43.26108" lon="6.44438">
        <ele>291.8974609375</ele>
        <time>2011-10-02T07:34:16Z</time>
      </trkpt>
      <trkpt lat="43.26126" lon="6.4442">
        <ele>290.45556640625</ele>
        <time>2011-10-02T07:34:24Z</time>
      </trkpt>
      <trkpt lat="43.26136" lon="6.44409">
        <ele>289.494140625</ele>
        <time>2011-10-02T07:34:29Z</time>
      </trkpt>
      <trkpt lat="43.26143" lon="6.4439">
        <ele>288.53295898438</ele>
        <time>2011-10-02T07:34:35Z</time>
      </trkpt>
      <trkpt lat="43.26149" lon="6.44363">
        <ele>291.41674804688</ele>
        <time>2011-10-02T07:34:45Z</time>
      </trkpt>
      <trkpt lat="43.26152" lon="6.44352">
        <ele>293.82006835938</ele>
        <time>2011-10-02T07:34:50Z</time>
      </trkpt>
      <trkpt lat="43.26156" lon="6.44332">
        <ele>296.7041015625</ele>
        <time>2011-10-02T07:34:57Z</time>
      </trkpt>
      <trkpt lat="43.26162" lon="6.44313">
        <ele>299.10729980469</ele>
        <time>2011-10-02T07:35:03Z</time>
      </trkpt>
      <trkpt lat="43.26162" lon="6.44291">
        <ele>297.66540527344</ele>
        <time>2011-10-02T07:35:09Z</time>
      </trkpt>
      <trkpt lat="43.26154" lon="6.4427">
        <ele>296.22351074219</ele>
        <time>2011-10-02T07:35:15Z</time>
      </trkpt>
      <trkpt lat="43.26153" lon="6.44266">
        <ele>295.26196289062</ele>
        <time>2011-10-02T07:35:16Z</time>
      </trkpt>
      <trkpt lat="43.26159" lon="6.44257">
        <ele>296.7041015625</ele>
        <time>2011-10-02T07:35:20Z</time>
      </trkpt>
      <trkpt lat="43.26161" lon="6.44257">
        <ele>297.18469238281</ele>
        <time>2011-10-02T07:35:21Z</time>
      </trkpt>
      <trkpt lat="43.26177" lon="6.44258">
        <ele>300.54931640625</ele>
        <time>2011-10-02T07:35:27Z</time>
      </trkpt>
      <trkpt lat="43.26186" lon="6.44249">
        <ele>302.95251464844</ele>
        <time>2011-10-02T07:35:31Z</time>
      </trkpt>
      <trkpt lat="43.26192" lon="6.44223">
        <ele>305.83666992188</ele>
        <time>2011-10-02T07:35:39Z</time>
      </trkpt>
      <trkpt lat="43.26197" lon="6.44205">
        <ele>307.27856445312</ele>
        <time>2011-10-02T07:35:44Z</time>
      </trkpt>
      <trkpt lat="43.26206" lon="6.44201">
        <ele>307.75927734375</ele>
        <time>2011-10-02T07:35:48Z</time>
      </trkpt>
      <trkpt lat="43.26217" lon="6.44194">
        <ele>306.7978515625</ele>
        <time>2011-10-02T07:35:52Z</time>
      </trkpt>
      <trkpt lat="43.26228" lon="6.44176">
        <ele>308.72045898438</ele>
        <time>2011-10-02T07:35:59Z</time>
      </trkpt>
      <trkpt lat="43.26233" lon="6.44166">
        <ele>308.23986816406</ele>
        <time>2011-10-02T07:36:03Z</time>
      </trkpt>
      <trkpt lat="43.26234" lon="6.44162">
        <ele>309.201171875</ele>
        <time>2011-10-02T07:36:05Z</time>
      </trkpt>
      <trkpt lat="43.26234" lon="6.44152">
        <ele>312.08520507812</ele>
        <time>2011-10-02T07:36:11Z</time>
      </trkpt>
      <trkpt lat="43.26236" lon="6.44144">
        <ele>312.08520507812</ele>
        <time>2011-10-02T07:36:15Z</time>
      </trkpt>
      <trkpt lat="43.2624" lon="6.4413">
        <ele>311.6044921875</ele>
        <time>2011-10-02T07:36:21Z</time>
      </trkpt>
      <trkpt lat="43.26244" lon="6.4412">
        <ele>312.56579589844</ele>
        <time>2011-10-02T07:36:26Z</time>
      </trkpt>
      <trkpt lat="43.26247" lon="6.44114">
        <ele>312.56579589844</ele>
        <time>2011-10-02T07:36:29Z</time>
      </trkpt>
      <trkpt lat="43.26258" lon="6.44106">
        <ele>313.04650878906</ele>
        <time>2011-10-02T07:36:34Z</time>
      </trkpt>
      <trkpt lat="43.2627" lon="6.44107">
        <ele>315.93041992188</ele>
        <time>2011-10-02T07:36:40Z</time>
      </trkpt>
      <trkpt lat="43.26283" lon="6.44104">
        <ele>320.25634765625</ele>
        <time>2011-10-02T07:36:48Z</time>
      </trkpt>
      <trkpt lat="43.26299" lon="6.441">
        <ele>325.06298828125</ele>
        <time>2011-10-02T07:36:58Z</time>
      </trkpt>
      <trkpt lat="43.26311" lon="6.44092">
        <ele>327.46618652344</ele>
        <time>2011-10-02T07:37:06Z</time>
      </trkpt>
      <trkpt lat="43.26325" lon="6.44082">
        <ele>330.83093261719</ele>
        <time>2011-10-02T07:37:15Z</time>
      </trkpt>
      <trkpt lat="43.26339" lon="6.44071">
        <ele>334.19543457031</ele>
        <time>2011-10-02T07:37:25Z</time>
      </trkpt>
      <trkpt lat="43.26349" lon="6.44061">
        <ele>336.59887695312</ele>
        <time>2011-10-02T07:37:32Z</time>
      </trkpt>
      <trkpt lat="43.26362" lon="6.44048">
        <ele>338.04077148438</ele>
        <time>2011-10-02T07:37:41Z</time>
      </trkpt>
      <trkpt lat="43.26373" lon="6.44036">
        <ele>338.521484375</ele>
        <time>2011-10-02T07:37:48Z</time>
      </trkpt>
      <trkpt lat="43.26385" lon="6.44024">
        <ele>339.00207519531</ele>
        <time>2011-10-02T07:37:55Z</time>
      </trkpt>
      <trkpt lat="43.26398" lon="6.44011">
        <ele>339.00207519531</ele>
        <time>2011-10-02T07:38:02Z</time>
      </trkpt>
      <trkpt lat="43.26408" lon="6.43997">
        <ele>339.48266601562</ele>
        <time>2011-10-02T07:38:09Z</time>
      </trkpt>
      <trkpt lat="43.26417" lon="6.43984">
        <ele>341.88598632812</ele>
        <time>2011-10-02T07:38:16Z</time>
      </trkpt>
      <trkpt lat="43.26427" lon="6.43969">
        <ele>344.28942871094</ele>
        <time>2011-10-02T07:38:24Z</time>
      </trkpt>
      <trkpt lat="43.26437" lon="6.43956">
        <ele>345.25061035156</ele>
        <time>2011-10-02T07:38:30Z</time>
      </trkpt>
      <trkpt lat="43.26448" lon="6.4394">
        <ele>348.13464355469</ele>
        <time>2011-10-02T07:38:38Z</time>
      </trkpt>
      <trkpt lat="43.26455" lon="6.43927">
        <ele>349.09582519531</ele>
        <time>2011-10-02T07:38:44Z</time>
      </trkpt>
      <trkpt lat="43.26464" lon="6.43911">
        <ele>350.53784179688</ele>
        <time>2011-10-02T07:38:51Z</time>
      </trkpt>
      <trkpt lat="43.26471" lon="6.43894">
        <ele>351.49914550781</ele>
        <time>2011-10-02T07:38:58Z</time>
      </trkpt>
      <trkpt lat="43.26479" lon="6.43877">
        <ele>351.01843261719</ele>
        <time>2011-10-02T07:39:05Z</time>
      </trkpt>
      <trkpt lat="43.26484" lon="6.43861">
        <ele>350.53784179688</ele>
        <time>2011-10-02T07:39:11Z</time>
      </trkpt>
      <trkpt lat="43.26488" lon="6.43843">
        <ele>354.38317871094</ele>
        <time>2011-10-02T07:39:18Z</time>
      </trkpt>
      <trkpt lat="43.26494" lon="6.43828">
        <ele>357.26708984375</ele>
        <time>2011-10-02T07:39:24Z</time>
      </trkpt>
      <trkpt lat="43.26504" lon="6.43806">
        <ele>359.18969726562</ele>
        <time>2011-10-02T07:39:33Z</time>
      </trkpt>
      <trkpt lat="43.26513" lon="6.43786">
        <ele>362.07373046875</ele>
        <time>2011-10-02T07:39:42Z</time>
      </trkpt>
      <trkpt lat="43.2652" lon="6.43769">
        <ele>363.51574707031</ele>
        <time>2011-10-02T07:39:49Z</time>
      </trkpt>
      <trkpt lat="43.26526" lon="6.43753">
        <ele>363.51574707031</ele>
        <time>2011-10-02T07:39:55Z</time>
      </trkpt>
      <trkpt lat="43.26536" lon="6.43731">
        <ele>363.51574707031</ele>
        <time>2011-10-02T07:40:02Z</time>
      </trkpt>
      <trkpt lat="43.26543" lon="6.43713">
        <ele>363.99633789062</ele>
        <time>2011-10-02T07:40:08Z</time>
      </trkpt>
      <trkpt lat="43.26549" lon="6.43694">
        <ele>365.43835449219</ele>
        <time>2011-10-02T07:40:15Z</time>
      </trkpt>
      <trkpt lat="43.26555" lon="6.43673">
        <ele>367.84155273438</ele>
        <time>2011-10-02T07:40:23Z</time>
      </trkpt>
      <trkpt lat="43.26561" lon="6.43651">
        <ele>370.24487304688</ele>
        <time>2011-10-02T07:40:32Z</time>
      </trkpt>
      <trkpt lat="43.26567" lon="6.43629">
        <ele>371.68688964844</ele>
        <time>2011-10-02T07:40:41Z</time>
      </trkpt>
      <trkpt lat="43.26571" lon="6.43615">
        <ele>372.64819335938</ele>
        <time>2011-10-02T07:40:46Z</time>
      </trkpt>
      <trkpt lat="43.26571" lon="6.43596">
        <ele>376.97424316406</ele>
        <time>2011-10-02T07:40:54Z</time>
      </trkpt>
      <trkpt lat="43.26565" lon="6.43578">
        <ele>374.57080078125</ele>
        <time>2011-10-02T07:41:01Z</time>
      </trkpt>
      <trkpt lat="43.26553" lon="6.43571">
        <ele>376.01281738281</ele>
        <time>2011-10-02T07:41:08Z</time>
      </trkpt>
      <trkpt lat="43.26542" lon="6.4358">
        <ele>376.01281738281</ele>
        <time>2011-10-02T07:41:14Z</time>
      </trkpt>
      <trkpt lat="43.26538" lon="6.43594">
        <ele>378.41613769531</ele>
        <time>2011-10-02T07:41:19Z</time>
      </trkpt>
      <trkpt lat="43.26535" lon="6.43607">
        <ele>379.37744140625</ele>
        <time>2011-10-02T07:41:24Z</time>
      </trkpt>
      <trkpt lat="43.26529" lon="6.43621">
        <ele>380.33874511719</ele>
        <time>2011-10-02T07:41:30Z</time>
      </trkpt>
      <trkpt lat="43.26526" lon="6.43627">
        <ele>379.85803222656</ele>
        <time>2011-10-02T07:41:34Z</time>
      </trkpt>
      <trkpt lat="43.26525" lon="6.43631">
        <ele>379.85803222656</ele>
        <time>2011-10-02T07:41:36Z</time>
      </trkpt>
      <trkpt lat="43.2653" lon="6.4363">
        <ele>377.93542480469</ele>
        <time>2011-10-02T07:41:42Z</time>
      </trkpt>
      <trkpt lat="43.26531" lon="6.43622">
        <ele>378.41613769531</ele>
        <time>2011-10-02T07:41:50Z</time>
      </trkpt>
      <trkpt lat="43.2653" lon="6.43622">
        <ele>378.41613769531</ele>
        <time>2011-10-02T07:41:51Z</time>
      </trkpt>
      <trkpt lat="43.26526" lon="6.43626">
        <ele>377.93542480469</ele>
        <time>2011-10-02T07:41:56Z</time>
      </trkpt>
      <trkpt lat="43.26528" lon="6.4363">
        <ele>379.37744140625</ele>
        <time>2011-10-02T07:42:00Z</time>
      </trkpt>
      <trkpt lat="43.2653" lon="6.43629">
        <ele>379.85803222656</ele>
        <time>2011-10-02T07:42:02Z</time>
      </trkpt>
      <trkpt lat="43.26529" lon="6.43624">
        <ele>381.78063964844</ele>
        <time>2011-10-02T07:42:08Z</time>
      </trkpt>
      <trkpt lat="43.26525" lon="6.43628">
        <ele>381.30004882812</ele>
        <time>2011-10-02T07:42:13Z</time>
      </trkpt>
      <trkpt lat="43.26528" lon="6.43631">
        <ele>381.30004882812</ele>
        <time>2011-10-02T07:42:17Z</time>
      </trkpt>
      <trkpt lat="43.2653" lon="6.43625">
        <ele>381.78063964844</ele>
        <time>2011-10-02T07:42:22Z</time>
      </trkpt>
      <trkpt lat="43.26529" lon="6.43623">
        <ele>381.78063964844</ele>
        <time>2011-10-02T07:42:24Z</time>
      </trkpt>
      <trkpt lat="43.26523" lon="6.43625">
        <ele>380.81945800781</ele>
        <time>2011-10-02T07:42:32Z</time>
      </trkpt>
      <trkpt lat="43.26525" lon="6.43632">
        <ele>382.26135253906</ele>
        <time>2011-10-02T07:42:38Z</time>
      </trkpt>
      <trkpt lat="43.26526" lon="6.43632">
        <ele>381.78063964844</ele>
        <time>2011-10-02T07:42:39Z</time>
      </trkpt>
      <trkpt lat="43.2653" lon="6.43629">
        <ele>381.30004882812</ele>
        <time>2011-10-02T07:42:43Z</time>
      </trkpt>
      <trkpt lat="43.26528" lon="6.43624">
        <ele>381.78063964844</ele>
        <time>2011-10-02T07:42:48Z</time>
      </trkpt>
      <trkpt lat="43.26521" lon="6.43632">
        <ele>382.26135253906</ele>
        <time>2011-10-02T07:42:54Z</time>
      </trkpt>
      <trkpt lat="43.26511" lon="6.43637">
        <ele>381.78063964844</ele>
        <time>2011-10-02T07:43:01Z</time>
      </trkpt>
      <trkpt lat="43.26498" lon="6.43637">
        <ele>382.74206542969</ele>
        <time>2011-10-02T07:43:09Z</time>
      </trkpt>
      <trkpt lat="43.26487" lon="6.43637">
        <ele>385.14538574219</ele>
        <time>2011-10-02T07:43:16Z</time>
      </trkpt>
      <trkpt lat="43.26481" lon="6.43643">
        <ele>385.14538574219</ele>
        <time>2011-10-02T07:43:21Z</time>
      </trkpt>
      <trkpt lat="43.26468" lon="6.4365">
        <ele>385.14538574219</ele>
        <time>2011-10-02T07:43:29Z</time>
      </trkpt>
      <trkpt lat="43.26457" lon="6.43652">
        <ele>385.6259765625</ele>
        <time>2011-10-02T07:43:36Z</time>
      </trkpt>
      <trkpt lat="43.2644" lon="6.43651">
        <ele>386.58740234375</ele>
        <time>2011-10-02T07:43:44Z</time>
      </trkpt>
      <trkpt lat="43.26425" lon="6.43648">
        <ele>386.10668945312</ele>
        <time>2011-10-02T07:43:51Z</time>
      </trkpt>
      <trkpt lat="43.26406" lon="6.4365">
        <ele>385.6259765625</ele>
        <time>2011-10-02T07:43:58Z</time>
      </trkpt>
      <trkpt lat="43.2639" lon="6.43657">
        <ele>386.10668945312</ele>
        <time>2011-10-02T07:44:04Z</time>
      </trkpt>
      <trkpt lat="43.26371" lon="6.43657">
        <ele>389.95190429688</ele>
        <time>2011-10-02T07:44:11Z</time>
      </trkpt>
      <trkpt lat="43.26355" lon="6.43663">
        <ele>392.35534667969</ele>
        <time>2011-10-02T07:44:18Z</time>
      </trkpt>
      <trkpt lat="43.26344" lon="6.43666">
        <ele>392.8359375</ele>
        <time>2011-10-02T07:44:24Z</time>
      </trkpt>
      <trkpt lat="43.2633" lon="6.43665">
        <ele>393.79724121094</ele>
        <time>2011-10-02T07:44:30Z</time>
      </trkpt>
      <trkpt lat="43.26323" lon="6.43662">
        <ele>391.87451171875</ele>
        <time>2011-10-02T07:44:35Z</time>
      </trkpt>
      <trkpt lat="43.26316" lon="6.43659">
        <ele>393.31652832031</ele>
        <time>2011-10-02T07:44:39Z</time>
      </trkpt>
      <trkpt lat="43.2631" lon="6.43653">
        <ele>396.20056152344</ele>
        <time>2011-10-02T07:44:44Z</time>
      </trkpt>
      <trkpt lat="43.26299" lon="6.43645">
        <ele>396.68115234375</ele>
        <time>2011-10-02T07:44:50Z</time>
      </trkpt>
      <trkpt lat="43.26289" lon="6.43637">
        <ele>397.16174316406</ele>
        <time>2011-10-02T07:44:56Z</time>
      </trkpt>
      <trkpt lat="43.26283" lon="6.43627">
        <ele>398.12316894531</ele>
        <time>2011-10-02T07:45:00Z</time>
      </trkpt>
      <trkpt lat="43.26269" lon="6.43608">
        <ele>398.12316894531</ele>
        <time>2011-10-02T07:45:05Z</time>
      </trkpt>
      <trkpt lat="43.26251" lon="6.43589">
        <ele>399.56506347656</ele>
        <time>2011-10-02T07:45:10Z</time>
      </trkpt>
      <trkpt lat="43.26246" lon="6.4358">
        <ele>401.48779296875</ele>
        <time>2011-10-02T07:45:12Z</time>
      </trkpt>
      <trkpt lat="43.2624" lon="6.43559">
        <ele>402.44909667969</ele>
        <time>2011-10-02T07:45:17Z</time>
      </trkpt>
      <trkpt lat="43.26232" lon="6.43527">
        <ele>398.60375976562</ele>
        <time>2011-10-02T07:45:23Z</time>
      </trkpt>
      <trkpt lat="43.26233" lon="6.43503">
        <ele>393.31652832031</ele>
        <time>2011-10-02T07:45:28Z</time>
      </trkpt>
      <trkpt lat="43.26234" lon="6.43479">
        <ele>392.35534667969</ele>
        <time>2011-10-02T07:45:32Z</time>
      </trkpt>
      <trkpt lat="43.26234" lon="6.43467">
        <ele>392.35534667969</ele>
        <time>2011-10-02T07:45:34Z</time>
      </trkpt>
      <trkpt lat="43.26233" lon="6.43454">
        <ele>392.8359375</ele>
        <time>2011-10-02T07:45:36Z</time>
      </trkpt>
      <trkpt lat="43.26228" lon="6.43439">
        <ele>394.75854492188</ele>
        <time>2011-10-02T07:45:39Z</time>
      </trkpt>
      <trkpt lat="43.26219" lon="6.43412">
        <ele>389.95190429688</ele>
        <time>2011-10-02T07:45:44Z</time>
      </trkpt>
      <trkpt lat="43.26215" lon="6.43377">
        <ele>387.06799316406</ele>
        <time>2011-10-02T07:45:51Z</time>
      </trkpt>
      <trkpt lat="43.26212" lon="6.43349">
        <ele>386.10668945312</ele>
        <time>2011-10-02T07:45:57Z</time>
      </trkpt>
      <trkpt lat="43.26215" lon="6.43329">
        <ele>384.66479492188</ele>
        <time>2011-10-02T07:46:02Z</time>
      </trkpt>
      <trkpt lat="43.26226" lon="6.43314">
        <ele>384.18408203125</ele>
        <time>2011-10-02T07:46:07Z</time>
      </trkpt>
      <trkpt lat="43.26237" lon="6.433">
        <ele>383.70324707031</ele>
        <time>2011-10-02T07:46:12Z</time>
      </trkpt>
      <trkpt lat="43.26237" lon="6.43286">
        <ele>384.66479492188</ele>
        <time>2011-10-02T07:46:16Z</time>
      </trkpt>
      <trkpt lat="43.26233" lon="6.43269">
        <ele>385.14538574219</ele>
        <time>2011-10-02T07:46:21Z</time>
      </trkpt>
      <trkpt lat="43.26229" lon="6.43253">
        <ele>385.6259765625</ele>
        <time>2011-10-02T07:46:27Z</time>
      </trkpt>
      <trkpt lat="43.26228" lon="6.43251">
        <ele>385.6259765625</ele>
        <time>2011-10-02T07:46:28Z</time>
      </trkpt>
      <trkpt lat="43.26226" lon="6.43238">
        <ele>386.10668945312</ele>
        <time>2011-10-02T07:46:34Z</time>
      </trkpt>
      <trkpt lat="43.26217" lon="6.43229">
        <ele>388.029296875</ele>
        <time>2011-10-02T07:46:39Z</time>
      </trkpt>
      <trkpt lat="43.26197" lon="6.43221">
        <ele>388.029296875</ele>
        <time>2011-10-02T07:46:44Z</time>
      </trkpt>
      <trkpt lat="43.26179" lon="6.43219">
        <ele>390.91320800781</ele>
        <time>2011-10-02T07:46:49Z</time>
      </trkpt>
      <trkpt lat="43.26162" lon="6.43216">
        <ele>391.87451171875</ele>
        <time>2011-10-02T07:46:54Z</time>
      </trkpt>
      <trkpt lat="43.26146" lon="6.43213">
        <ele>391.39379882812</ele>
        <time>2011-10-02T07:46:59Z</time>
      </trkpt>
      <trkpt lat="43.2613" lon="6.43201">
        <ele>397.64245605469</ele>
        <time>2011-10-02T07:47:04Z</time>
      </trkpt>
      <trkpt lat="43.26112" lon="6.43185">
        <ele>403.89111328125</ele>
        <time>2011-10-02T07:47:10Z</time>
      </trkpt>
      <trkpt lat="43.26096" lon="6.43171">
        <ele>407.736328125</ele>
        <time>2011-10-02T07:47:17Z</time>
      </trkpt>
      <trkpt lat="43.26086" lon="6.43166">
        <ele>408.21704101562</ele>
        <time>2011-10-02T07:47:21Z</time>
      </trkpt>
      <trkpt lat="43.26075" lon="6.43156">
        <ele>409.65905761719</ele>
        <time>2011-10-02T07:47:27Z</time>
      </trkpt>
      <trkpt lat="43.26065" lon="6.43148">
        <ele>410.1396484375</ele>
        <time>2011-10-02T07:47:33Z</time>
      </trkpt>
      <trkpt lat="43.26055" lon="6.43139">
        <ele>410.1396484375</ele>
        <time>2011-10-02T07:47:39Z</time>
      </trkpt>
      <trkpt lat="43.26049" lon="6.43127">
        <ele>411.10095214844</ele>
        <time>2011-10-02T07:47:45Z</time>
      </trkpt>
      <trkpt lat="43.26041" lon="6.43121">
        <ele>412.54284667969</ele>
        <time>2011-10-02T07:47:49Z</time>
      </trkpt>
      <trkpt lat="43.26029" lon="6.43107">
        <ele>412.54284667969</ele>
        <time>2011-10-02T07:47:54Z</time>
      </trkpt>
      <trkpt lat="43.26019" lon="6.43077">
        <ele>407.736328125</ele>
        <time>2011-10-02T07:48:00Z</time>
      </trkpt>
      <trkpt lat="43.26015" lon="6.43073">
        <ele>406.77490234375</ele>
        <time>2011-10-02T07:48:01Z</time>
      </trkpt>
      <trkpt lat="43.26008" lon="6.43061">
        <ele>406.29431152344</ele>
        <time>2011-10-02T07:48:04Z</time>
      </trkpt>
      <trkpt lat="43.25996" lon="6.43036">
        <ele>404.85229492188</ele>
        <time>2011-10-02T07:48:09Z</time>
      </trkpt>
      <trkpt lat="43.25993" lon="6.43032">
        <ele>404.37170410156</ele>
        <time>2011-10-02T07:48:10Z</time>
      </trkpt>
      <trkpt lat="43.25986" lon="6.43009">
        <ele>400.0458984375</ele>
        <time>2011-10-02T07:48:16Z</time>
      </trkpt>
      <trkpt lat="43.25985" lon="6.42994">
        <ele>401.48779296875</ele>
        <time>2011-10-02T07:48:21Z</time>
      </trkpt>
      <trkpt lat="43.25987" lon="6.42972">
        <ele>400.0458984375</ele>
        <time>2011-10-02T07:48:28Z</time>
      </trkpt>
      <trkpt lat="43.25986" lon="6.42956">
        <ele>402.9296875</ele>
        <time>2011-10-02T07:48:34Z</time>
      </trkpt>
      <trkpt lat="43.25985" lon="6.42941">
        <ele>405.81372070312</ele>
        <time>2011-10-02T07:48:39Z</time>
      </trkpt>
      <trkpt lat="43.25985" lon="6.42925">
        <ele>407.25561523438</ele>
        <time>2011-10-02T07:48:44Z</time>
      </trkpt>
      <trkpt lat="43.25986" lon="6.42899">
        <ele>408.69763183594</ele>
        <time>2011-10-02T07:48:51Z</time>
      </trkpt>
      <trkpt lat="43.25987" lon="6.42879">
        <ele>412.54284667969</ele>
        <time>2011-10-02T07:48:58Z</time>
      </trkpt>
      <trkpt lat="43.25989" lon="6.42859">
        <ele>412.54284667969</ele>
        <time>2011-10-02T07:49:04Z</time>
      </trkpt>
      <trkpt lat="43.25989" lon="6.42842">
        <ele>415.90747070312</ele>
        <time>2011-10-02T07:49:10Z</time>
      </trkpt>
      <trkpt lat="43.2599" lon="6.42834">
        <ele>414.94616699219</ele>
        <time>2011-10-02T07:49:13Z</time>
      </trkpt>
      <trkpt lat="43.25988" lon="6.4281">
        <ele>413.98486328125</ele>
        <time>2011-10-02T07:49:21Z</time>
      </trkpt>
      <trkpt lat="43.25985" lon="6.42798">
        <ele>415.90747070312</ele>
        <time>2011-10-02T07:49:27Z</time>
      </trkpt>
      <trkpt lat="43.25983" lon="6.42788">
        <ele>413.98486328125</ele>
        <time>2011-10-02T07:49:32Z</time>
      </trkpt>
      <trkpt lat="43.25979" lon="6.42774">
        <ele>413.02355957031</ele>
        <time>2011-10-02T07:49:38Z</time>
      </trkpt>
      <trkpt lat="43.25972" lon="6.42756">
        <ele>414.94616699219</ele>
        <time>2011-10-02T07:49:45Z</time>
      </trkpt>
      <trkpt lat="43.25969" lon="6.42748">
        <ele>414.94616699219</ele>
        <time>2011-10-02T07:49:48Z</time>
      </trkpt>
      <trkpt lat="43.25967" lon="6.42738">
        <ele>415.42687988281</ele>
        <time>2011-10-02T07:49:54Z</time>
      </trkpt>
      <trkpt lat="43.25966" lon="6.42732">
        <ele>413.50427246094</ele>
        <time>2011-10-02T07:50:07Z</time>
      </trkpt>
      <trkpt lat="43.25971" lon="6.42724">
        <ele>414.46545410156</ele>
        <time>2011-10-02T07:50:12Z</time>
      </trkpt>
      <trkpt lat="43.25973" lon="6.42716">
        <ele>412.06225585938</ele>
        <time>2011-10-02T07:50:16Z</time>
      </trkpt>
      <trkpt lat="43.25972" lon="6.4271">
        <ele>410.1396484375</ele>
        <time>2011-10-02T07:50:20Z</time>
      </trkpt>
      <trkpt lat="43.25973" lon="6.42695">
        <ele>407.736328125</ele>
        <time>2011-10-02T07:50:28Z</time>
      </trkpt>
      <trkpt lat="43.25974" lon="6.42692">
        <ele>407.25561523438</ele>
        <time>2011-10-02T07:50:29Z</time>
      </trkpt>
      <trkpt lat="43.25972" lon="6.4268">
        <ele>406.29431152344</ele>
        <time>2011-10-02T07:50:35Z</time>
      </trkpt>
      <trkpt lat="43.25971" lon="6.42675">
        <ele>406.29431152344</ele>
        <time>2011-10-02T07:50:37Z</time>
      </trkpt>
      <trkpt lat="43.25971" lon="6.42661">
        <ele>406.29431152344</ele>
        <time>2011-10-02T07:50:44Z</time>
      </trkpt>
      <trkpt lat="43.25965" lon="6.42652">
        <ele>423.59802246094</ele>
        <time>2011-10-02T07:51:17Z</time>
      </trkpt>
      <trkpt lat="43.25965" lon="6.42652">
        <ele>427.443359375</ele>
        <time>2011-10-02T07:51:46Z</time>
      </trkpt>
      <trkpt lat="43.25966" lon="6.42649">
        <ele>430.80798339844</ele>
        <time>2011-10-02T07:51:51Z</time>
      </trkpt>
      <trkpt lat="43.25964" lon="6.42647">
        <ele>432.73071289062</ele>
        <time>2011-10-02T07:52:08Z</time>
      </trkpt>
      <trkpt lat="43.25965" lon="6.42648">
        <ele>431.28857421875</ele>
        <time>2011-10-02T07:52:15Z</time>
      </trkpt>
      <trkpt lat="43.25965" lon="6.42649">
        <ele>431.28857421875</ele>
        <time>2011-10-02T07:52:40Z</time>
      </trkpt>
      <trkpt lat="43.25968" lon="6.42648">
        <ele>424.55944824219</ele>
        <time>2011-10-02T07:52:50Z</time>
      </trkpt>
      <trkpt lat="43.25969" lon="6.42648">
        <ele>424.07873535156</ele>
        <time>2011-10-02T07:53:04Z</time>
      </trkpt>
      <trkpt lat="43.25967" lon="6.42646">
        <ele>424.07873535156</ele>
        <time>2011-10-02T07:53:40Z</time>
      </trkpt>
      <trkpt lat="43.25969" lon="6.42641">
        <ele>424.55944824219</ele>
        <time>2011-10-02T07:53:47Z</time>
      </trkpt>
      <trkpt lat="43.25972" lon="6.42626">
        <ele>424.07873535156</ele>
        <time>2011-10-02T07:53:53Z</time>
      </trkpt>
      <trkpt lat="43.25972" lon="6.42613">
        <ele>424.07873535156</ele>
        <time>2011-10-02T07:53:59Z</time>
      </trkpt>
      <trkpt lat="43.25971" lon="6.42599">
        <ele>421.67541503906</ele>
        <time>2011-10-02T07:54:05Z</time>
      </trkpt>
      <trkpt lat="43.25973" lon="6.42577">
        <ele>419.75280761719</ele>
        <time>2011-10-02T07:54:14Z</time>
      </trkpt>
      <trkpt lat="43.25975" lon="6.42559">
        <ele>421.19482421875</ele>
        <time>2011-10-02T07:54:23Z</time>
      </trkpt>
      <trkpt lat="43.25975" lon="6.42557">
        <ele>422.15600585938</ele>
        <time>2011-10-02T07:54:29Z</time>
      </trkpt>
      <trkpt lat="43.25975" lon="6.42558">
        <ele>421.19482421875</ele>
        <time>2011-10-02T07:54:42Z</time>
      </trkpt>
      <trkpt lat="43.25973" lon="6.4256">
        <ele>422.63671875</ele>
        <time>2011-10-02T07:54:48Z</time>
      </trkpt>
      <trkpt lat="43.25971" lon="6.42562">
        <ele>423.11743164062</ele>
        <time>2011-10-02T07:55:48Z</time>
      </trkpt>
      <trkpt lat="43.25972" lon="6.42557">
        <ele>423.59802246094</ele>
        <time>2011-10-02T07:55:53Z</time>
      </trkpt>
      <trkpt lat="43.25974" lon="6.42542">
        <ele>424.07873535156</ele>
        <time>2011-10-02T07:55:59Z</time>
      </trkpt>
      <trkpt lat="43.25983" lon="6.42526">
        <ele>426.48205566406</ele>
        <time>2011-10-02T07:56:07Z</time>
      </trkpt>
      <trkpt lat="43.25993" lon="6.42516">
        <ele>426.48205566406</ele>
        <time>2011-10-02T07:56:14Z</time>
      </trkpt>
      <trkpt lat="43.26" lon="6.42507">
        <ele>428.40466308594</ele>
        <time>2011-10-02T07:56:20Z</time>
      </trkpt>
      <trkpt lat="43.26009" lon="6.42496">
        <ele>432.25</ele>
        <time>2011-10-02T07:56:28Z</time>
      </trkpt>
      <trkpt lat="43.26014" lon="6.42486">
        <ele>434.6533203125</ele>
        <time>2011-10-02T07:56:34Z</time>
      </trkpt>
      <trkpt lat="43.26023" lon="6.4247">
        <ele>437.537109375</ele>
        <time>2011-10-02T07:56:42Z</time>
      </trkpt>
      <trkpt lat="43.26028" lon="6.42457">
        <ele>440.90185546875</ele>
        <time>2011-10-02T07:56:49Z</time>
      </trkpt>
      <trkpt lat="43.26028" lon="6.4244">
        <ele>438.01782226562</ele>
        <time>2011-10-02T07:56:55Z</time>
      </trkpt>
      <trkpt lat="43.26023" lon="6.42427">
        <ele>438.49853515625</ele>
        <time>2011-10-02T07:57:01Z</time>
      </trkpt>
      <trkpt lat="43.26027" lon="6.42417">
        <ele>438.49853515625</ele>
        <time>2011-10-02T07:57:07Z</time>
      </trkpt>
      <trkpt lat="43.26034" lon="6.42404">
        <ele>436.57592773438</ele>
        <time>2011-10-02T07:57:14Z</time>
      </trkpt>
      <trkpt lat="43.2604" lon="6.42395">
        <ele>438.01782226562</ele>
        <time>2011-10-02T07:57:21Z</time>
      </trkpt>
      <trkpt lat="43.26044" lon="6.4238">
        <ele>440.42126464844</ele>
        <time>2011-10-02T07:57:29Z</time>
      </trkpt>
      <trkpt lat="43.26047" lon="6.42366">
        <ele>442.82446289062</ele>
        <time>2011-10-02T07:57:35Z</time>
      </trkpt>
      <trkpt lat="43.26048" lon="6.42356">
        <ele>445.22766113281</ele>
        <time>2011-10-02T07:57:39Z</time>
      </trkpt>
      <trkpt lat="43.26047" lon="6.4234">
        <ele>444.7470703125</ele>
        <time>2011-10-02T07:57:46Z</time>
      </trkpt>
      <trkpt lat="43.26047" lon="6.42324">
        <ele>445.22766113281</ele>
        <time>2011-10-02T07:57:51Z</time>
      </trkpt>
      <trkpt lat="43.26044" lon="6.42313">
        <ele>444.26647949219</ele>
        <time>2011-10-02T07:57:55Z</time>
      </trkpt>
      <trkpt lat="43.2604" lon="6.42298">
        <ele>445.70837402344</ele>
        <time>2011-10-02T07:58:01Z</time>
      </trkpt>
      <trkpt lat="43.26038" lon="6.42296">
        <ele>446.66967773438</ele>
        <time>2011-10-02T07:58:02Z</time>
      </trkpt>
      <trkpt lat="43.26036" lon="6.42273">
        <ele>448.11181640625</ele>
        <time>2011-10-02T07:58:10Z</time>
      </trkpt>
      <trkpt lat="43.26037" lon="6.42267">
        <ele>448.59240722656</ele>
        <time>2011-10-02T07:58:12Z</time>
      </trkpt>
      <trkpt lat="43.26038" lon="6.42261">
        <ele>450.03442382812</ele>
        <time>2011-10-02T07:58:15Z</time>
      </trkpt>
      <trkpt lat="43.2604" lon="6.42241">
        <ele>450.99560546875</ele>
        <time>2011-10-02T07:58:22Z</time>
      </trkpt>
      <trkpt lat="43.26045" lon="6.42222">
        <ele>450.51501464844</ele>
        <time>2011-10-02T07:58:28Z</time>
      </trkpt>
      <trkpt lat="43.26048" lon="6.42203">
        <ele>451.47631835938</ele>
        <time>2011-10-02T07:58:34Z</time>
      </trkpt>
      <trkpt lat="43.26049" lon="6.42179">
        <ele>452.91821289062</ele>
        <time>2011-10-02T07:58:39Z</time>
      </trkpt>
      <trkpt lat="43.26055" lon="6.42162">
        <ele>451.95703125</ele>
        <time>2011-10-02T07:58:45Z</time>
      </trkpt>
      <trkpt lat="43.26064" lon="6.42138">
        <ele>454.36022949219</ele>
        <time>2011-10-02T07:58:52Z</time>
      </trkpt>
      <trkpt lat="43.26065" lon="6.42113">
        <ele>460.60876464844</ele>
        <time>2011-10-02T07:58:58Z</time>
      </trkpt>
      <trkpt lat="43.26067" lon="6.42096">
        <ele>458.68615722656</ele>
        <time>2011-10-02T07:59:01Z</time>
      </trkpt>
      <trkpt lat="43.26073" lon="6.42065">
        <ele>453.87963867188</ele>
        <time>2011-10-02T07:59:07Z</time>
      </trkpt>
      <trkpt lat="43.26076" lon="6.42048">
        <ele>453.87963867188</ele>
        <time>2011-10-02T07:59:10Z</time>
      </trkpt>
      <trkpt lat="43.26074" lon="6.42026">
        <ele>456.28295898438</ele>
        <time>2011-10-02T07:59:14Z</time>
      </trkpt>
      <trkpt lat="43.26069" lon="6.42009">
        <ele>455.32153320312</ele>
        <time>2011-10-02T07:59:17Z</time>
      </trkpt>
      <trkpt lat="43.26052" lon="6.41986">
        <ele>450.51501464844</ele>
        <time>2011-10-02T07:59:22Z</time>
      </trkpt>
      <trkpt lat="43.26044" lon="6.41968">
        <ele>449.07299804688</ele>
        <time>2011-10-02T07:59:26Z</time>
      </trkpt>
      <trkpt lat="43.26045" lon="6.41958">
        <ele>448.11181640625</ele>
        <time>2011-10-02T07:59:28Z</time>
      </trkpt>
      <trkpt lat="43.26046" lon="6.41948">
        <ele>447.15026855469</ele>
        <time>2011-10-02T07:59:30Z</time>
      </trkpt>
      <trkpt lat="43.26049" lon="6.41925">
        <ele>446.18908691406</ele>
        <time>2011-10-02T07:59:34Z</time>
      </trkpt>
      <trkpt lat="43.26049" lon="6.41891">
        <ele>445.22766113281</ele>
        <time>2011-10-02T07:59:39Z</time>
      </trkpt>
      <trkpt lat="43.26048" lon="6.41868">
        <ele>442.82446289062</ele>
        <time>2011-10-02T07:59:43Z</time>
      </trkpt>
      <trkpt lat="43.26047" lon="6.41858">
        <ele>440.90185546875</ele>
        <time>2011-10-02T07:59:45Z</time>
      </trkpt>
      <trkpt lat="43.2604" lon="6.41839">
        <ele>438.01782226562</ele>
        <time>2011-10-02T07:59:50Z</time>
      </trkpt>
      <trkpt lat="43.26044" lon="6.41833">
        <ele>437.05651855469</ele>
        <time>2011-10-02T07:59:52Z</time>
      </trkpt>
      <trkpt lat="43.26064" lon="6.41811">
        <ele>434.6533203125</ele>
        <time>2011-10-02T07:59:58Z</time>
      </trkpt>
      <trkpt lat="43.26072" lon="6.41796">
        <ele>432.73071289062</ele>
        <time>2011-10-02T08:00:01Z</time>
      </trkpt>
      <trkpt lat="43.26085" lon="6.41786">
        <ele>429.36596679688</ele>
        <time>2011-10-02T08:00:05Z</time>
      </trkpt>
      <trkpt lat="43.26102" lon="6.41769">
        <ele>425.52075195312</ele>
        <time>2011-10-02T08:00:10Z</time>
      </trkpt>
      <trkpt lat="43.26124" lon="6.41742">
        <ele>419.75280761719</ele>
        <time>2011-10-02T08:00:15Z</time>
      </trkpt>
      <trkpt lat="43.26136" lon="6.41727">
        <ele>417.83020019531</ele>
        <time>2011-10-02T08:00:18Z</time>
      </trkpt>
      <trkpt lat="43.26142" lon="6.41717">
        <ele>415.90747070312</ele>
        <time>2011-10-02T08:00:20Z</time>
      </trkpt>
      <trkpt lat="43.26161" lon="6.41705">
        <ele>414.94616699219</ele>
        <time>2011-10-02T08:00:25Z</time>
      </trkpt>
      <trkpt lat="43.26177" lon="6.41711">
        <ele>414.46545410156</ele>
        <time>2011-10-02T08:00:29Z</time>
      </trkpt>
      <trkpt lat="43.26189" lon="6.41706">
        <ele>414.94616699219</ele>
        <time>2011-10-02T08:00:32Z</time>
      </trkpt>
      <trkpt lat="43.26186" lon="6.41692">
        <ele>416.86889648438</ele>
        <time>2011-10-02T08:00:35Z</time>
      </trkpt>
      <trkpt lat="43.26183" lon="6.41689">
        <ele>417.83020019531</ele>
        <time>2011-10-02T08:00:36Z</time>
      </trkpt>
      <trkpt lat="43.26176" lon="6.41682">
        <ele>419.27221679688</ele>
        <time>2011-10-02T08:00:38Z</time>
      </trkpt>
      <trkpt lat="43.26158" lon="6.41654">
        <ele>418.31079101562</ele>
        <time>2011-10-02T08:00:44Z</time>
      </trkpt>
      <trkpt lat="43.26134" lon="6.4161">
        <ele>416.38818359375</ele>
        <time>2011-10-02T08:00:51Z</time>
      </trkpt>
      <trkpt lat="43.26128" lon="6.41596">
        <ele>415.42687988281</ele>
        <time>2011-10-02T08:00:53Z</time>
      </trkpt>
      <trkpt lat="43.26117" lon="6.41539">
        <ele>411.10095214844</ele>
        <time>2011-10-02T08:01:00Z</time>
      </trkpt>
      <trkpt lat="43.26104" lon="6.41484">
        <ele>407.25561523438</ele>
        <time>2011-10-02T08:01:07Z</time>
      </trkpt>
      <trkpt lat="43.26087" lon="6.41445">
        <ele>408.21704101562</ele>
        <time>2011-10-02T08:01:13Z</time>
      </trkpt>
      <trkpt lat="43.26063" lon="6.41417">
        <ele>409.17834472656</ele>
        <time>2011-10-02T08:01:19Z</time>
      </trkpt>
      <trkpt lat="43.26033" lon="6.41382">
        <ele>408.69763183594</ele>
        <time>2011-10-02T08:01:26Z</time>
      </trkpt>
      <trkpt lat="43.26015" lon="6.41358">
        <ele>407.736328125</ele>
        <time>2011-10-02T08:01:30Z</time>
      </trkpt>
      <trkpt lat="43.25977" lon="6.4133">
        <ele>406.29431152344</ele>
        <time>2011-10-02T08:01:37Z</time>
      </trkpt>
      <trkpt lat="43.25962" lon="6.41319">
        <ele>407.25561523438</ele>
        <time>2011-10-02T08:01:40Z</time>
      </trkpt>
      <trkpt lat="43.25941" lon="6.41284">
        <ele>406.29431152344</ele>
        <time>2011-10-02T08:01:45Z</time>
      </trkpt>
      <trkpt lat="43.25916" lon="6.41238">
        <ele>406.29431152344</ele>
        <time>2011-10-02T08:01:51Z</time>
      </trkpt>
      <trkpt lat="43.25892" lon="6.41197">
        <ele>402.44909667969</ele>
        <time>2011-10-02T08:01:56Z</time>
      </trkpt>
      <trkpt lat="43.25866" lon="6.41166">
        <ele>400.52648925781</ele>
        <time>2011-10-02T08:02:00Z</time>
      </trkpt>
      <trkpt lat="43.25849" lon="6.41128">
        <ele>398.60375976562</ele>
        <time>2011-10-02T08:02:04Z</time>
      </trkpt>
      <trkpt lat="43.25848" lon="6.41104">
        <ele>397.64245605469</ele>
        <time>2011-10-02T08:02:06Z</time>
      </trkpt>
      <trkpt lat="43.25846" lon="6.41045">
        <ele>397.64245605469</ele>
        <time>2011-10-02T08:02:11Z</time>
      </trkpt>
      <trkpt lat="43.25835" lon="6.41005">
        <ele>398.60375976562</ele>
        <time>2011-10-02T08:02:15Z</time>
      </trkpt>
      <trkpt lat="43.25816" lon="6.4094">
        <ele>394.27795410156</ele>
        <time>2011-10-02T08:02:22Z</time>
      </trkpt>
      <trkpt lat="43.25808" lon="6.40912">
        <ele>394.27795410156</ele>
        <time>2011-10-02T08:02:25Z</time>
      </trkpt>
      <trkpt lat="43.258" lon="6.40888">
        <ele>392.8359375</ele>
        <time>2011-10-02T08:02:29Z</time>
      </trkpt>
      <trkpt lat="43.25801" lon="6.40874">
        <ele>392.35534667969</ele>
        <time>2011-10-02T08:02:32Z</time>
      </trkpt>
      <trkpt lat="43.25808" lon="6.40863">
        <ele>391.39379882812</ele>
        <time>2011-10-02T08:02:35Z</time>
      </trkpt>
      <trkpt lat="43.25819" lon="6.40841">
        <ele>392.35534667969</ele>
        <time>2011-10-02T08:02:41Z</time>
      </trkpt>
      <trkpt lat="43.25821" lon="6.40817">
        <ele>397.16174316406</ele>
        <time>2011-10-02T08:02:47Z</time>
      </trkpt>
      <trkpt lat="43.25818" lon="6.40804">
        <ele>399.08435058594</ele>
        <time>2011-10-02T08:02:51Z</time>
      </trkpt>
      <trkpt lat="43.25801" lon="6.40802">
        <ele>400.0458984375</ele>
        <time>2011-10-02T08:02:57Z</time>
      </trkpt>
      <trkpt lat="43.25786" lon="6.40792">
        <ele>397.16174316406</ele>
        <time>2011-10-02T08:03:02Z</time>
      </trkpt>
      <trkpt lat="43.25766" lon="6.40782">
        <ele>396.20056152344</ele>
        <time>2011-10-02T08:03:07Z</time>
      </trkpt>
      <trkpt lat="43.25758" lon="6.40778">
        <ele>395.23913574219</ele>
        <time>2011-10-02T08:03:09Z</time>
      </trkpt>
      <trkpt lat="43.25745" lon="6.40775">
        <ele>393.79724121094</ele>
        <time>2011-10-02T08:03:12Z</time>
      </trkpt>
      <trkpt lat="43.25733" lon="6.4077">
        <ele>394.75854492188</ele>
        <time>2011-10-02T08:03:15Z</time>
      </trkpt>
      <trkpt lat="43.25716" lon="6.40766">
        <ele>396.20056152344</ele>
        <time>2011-10-02T08:03:19Z</time>
      </trkpt>
      <trkpt lat="43.257" lon="6.40766">
        <ele>391.87451171875</ele>
        <time>2011-10-02T08:03:22Z</time>
      </trkpt>
      <trkpt lat="43.25679" lon="6.40758">
        <ele>388.029296875</ele>
        <time>2011-10-02T08:03:26Z</time>
      </trkpt>
      <trkpt lat="43.25667" lon="6.40753">
        <ele>384.66479492188</ele>
        <time>2011-10-02T08:03:32Z</time>
      </trkpt>
      <trkpt lat="43.25665" lon="6.40753">
        <ele>383.70324707031</ele>
        <time>2011-10-02T08:03:33Z</time>
      </trkpt>
      <trkpt lat="43.25663" lon="6.40754">
        <ele>383.70324707031</ele>
        <time>2011-10-02T08:03:35Z</time>
      </trkpt>
      <trkpt lat="43.25659" lon="6.40755">
        <ele>385.14538574219</ele>
        <time>2011-10-02T08:03:40Z</time>
      </trkpt>
      <trkpt lat="43.2565" lon="6.40764">
        <ele>386.10668945312</ele>
        <time>2011-10-02T08:03:45Z</time>
      </trkpt>
      <trkpt lat="43.25639" lon="6.40779">
        <ele>382.74206542969</ele>
        <time>2011-10-02T08:03:49Z</time>
      </trkpt>
      <trkpt lat="43.25621" lon="6.40795">
        <ele>381.30004882812</ele>
        <time>2011-10-02T08:03:53Z</time>
      </trkpt>
      <trkpt lat="43.25599" lon="6.40797">
        <ele>379.85803222656</ele>
        <time>2011-10-02T08:03:58Z</time>
      </trkpt>
      <trkpt lat="43.25577" lon="6.40791">
        <ele>376.97424316406</ele>
        <time>2011-10-02T08:04:04Z</time>
      </trkpt>
      <trkpt lat="43.25566" lon="6.40777">
        <ele>372.64819335938</ele>
        <time>2011-10-02T08:04:08Z</time>
      </trkpt>
      <trkpt lat="43.25554" lon="6.40753">
        <ele>370.7255859375</ele>
        <time>2011-10-02T08:04:13Z</time>
      </trkpt>
      <trkpt lat="43.25541" lon="6.40727">
        <ele>372.64819335938</ele>
        <time>2011-10-02T08:04:18Z</time>
      </trkpt>
      <trkpt lat="43.25531" lon="6.4072">
        <ele>373.12890625</ele>
        <time>2011-10-02T08:04:22Z</time>
      </trkpt>
      <trkpt lat="43.25511" lon="6.40724">
        <ele>375.53210449219</ele>
        <time>2011-10-02T08:04:28Z</time>
      </trkpt>
      <trkpt lat="43.2549" lon="6.40727">
        <ele>377.45483398438</ele>
        <time>2011-10-02T08:04:34Z</time>
      </trkpt>
      <trkpt lat="43.25473" lon="6.40727">
        <ele>375.53210449219</ele>
        <time>2011-10-02T08:04:38Z</time>
      </trkpt>
      <trkpt lat="43.25455" lon="6.40733">
        <ele>374.09008789062</ele>
        <time>2011-10-02T08:04:43Z</time>
      </trkpt>
      <trkpt lat="43.25439" lon="6.40741">
        <ele>373.60949707031</ele>
        <time>2011-10-02T08:04:48Z</time>
      </trkpt>
      <trkpt lat="43.25428" lon="6.40751">
        <ele>371.20629882812</ele>
        <time>2011-10-02T08:04:53Z</time>
      </trkpt>
      <trkpt lat="43.25427" lon="6.40752">
        <ele>370.24487304688</ele>
        <time>2011-10-02T08:04:55Z</time>
      </trkpt>
      <trkpt lat="43.25426" lon="6.40752">
        <ele>367.36096191406</ele>
        <time>2011-10-02T08:05:06Z</time>
      </trkpt>
      <trkpt lat="43.25422" lon="6.40755">
        <ele>376.49353027344</ele>
        <time>2011-10-02T08:07:13Z</time>
      </trkpt>
      <trkpt lat="43.25422" lon="6.40754">
        <ele>372.64819335938</ele>
        <time>2011-10-02T08:07:23Z</time>
      </trkpt>
      <trkpt lat="43.25421" lon="6.40754">
        <ele>372.16748046875</ele>
        <time>2011-10-02T08:07:28Z</time>
      </trkpt>
      <trkpt lat="43.25417" lon="6.40774">
        <ele>369.28369140625</ele>
        <time>2011-10-02T08:07:34Z</time>
      </trkpt>
      <trkpt lat="43.25404" lon="6.40797">
        <ele>366.39953613281</ele>
        <time>2011-10-02T08:07:38Z</time>
      </trkpt>
      <trkpt lat="43.25401" lon="6.40804">
        <ele>365.43835449219</ele>
        <time>2011-10-02T08:07:39Z</time>
      </trkpt>
      <trkpt lat="43.25395" lon="6.40828">
        <ele>362.07373046875</ele>
        <time>2011-10-02T08:07:42Z</time>
      </trkpt>
      <trkpt lat="43.25392" lon="6.40845">
        <ele>360.63171386719</ele>
        <time>2011-10-02T08:07:44Z</time>
      </trkpt>
      <trkpt lat="43.25375" lon="6.40867">
        <ele>356.78637695312</ele>
        <time>2011-10-02T08:07:48Z</time>
      </trkpt>
      <trkpt lat="43.25367" lon="6.40873">
        <ele>355.8251953125</ele>
        <time>2011-10-02T08:07:50Z</time>
      </trkpt>
      <trkpt lat="43.25342" lon="6.40882">
        <ele>354.38317871094</ele>
        <time>2011-10-02T08:07:55Z</time>
      </trkpt>
      <trkpt lat="43.25333" lon="6.40901">
        <ele>352.94116210938</ele>
        <time>2011-10-02T08:07:58Z</time>
      </trkpt>
      <trkpt lat="43.25327" lon="6.40931">
        <ele>351.01843261719</ele>
        <time>2011-10-02T08:08:02Z</time>
      </trkpt>
      <trkpt lat="43.25323" lon="6.40938">
        <ele>350.05725097656</ele>
        <time>2011-10-02T08:08:03Z</time>
      </trkpt>
      <trkpt lat="43.25306" lon="6.40971">
        <ele>349.57653808594</ele>
        <time>2011-10-02T08:08:08Z</time>
      </trkpt>
      <trkpt lat="43.25289" lon="6.41006">
        <ele>343.32788085938</ele>
        <time>2011-10-02T08:08:13Z</time>
      </trkpt>
      <trkpt lat="43.25287" lon="6.41031">
        <ele>340.44409179688</ele>
        <time>2011-10-02T08:08:16Z</time>
      </trkpt>
      <trkpt lat="43.25281" lon="6.41046">
        <ele>339.00207519531</ele>
        <time>2011-10-02T08:08:18Z</time>
      </trkpt>
      <trkpt lat="43.25266" lon="6.41076">
        <ele>339.00207519531</ele>
        <time>2011-10-02T08:08:22Z</time>
      </trkpt>
      <trkpt lat="43.25246" lon="6.41099">
        <ele>335.15673828125</ele>
        <time>2011-10-02T08:08:26Z</time>
      </trkpt>
      <trkpt lat="43.25234" lon="6.41105">
        <ele>334.19543457031</ele>
        <time>2011-10-02T08:08:28Z</time>
      </trkpt>
      <trkpt lat="43.25209" lon="6.41101">
        <ele>332.75354003906</ele>
        <time>2011-10-02T08:08:32Z</time>
      </trkpt>
      <trkpt lat="43.25203" lon="6.41097">
        <ele>332.27282714844</ele>
        <time>2011-10-02T08:08:33Z</time>
      </trkpt>
      <trkpt lat="43.25175" lon="6.41063">
        <ele>331.79211425781</ele>
        <time>2011-10-02T08:08:38Z</time>
      </trkpt>
      <trkpt lat="43.25164" lon="6.41043">
        <ele>330.83093261719</ele>
        <time>2011-10-02T08:08:41Z</time>
      </trkpt>
      <trkpt lat="43.25153" lon="6.41046">
        <ele>329.38891601562</ele>
        <time>2011-10-02T08:08:44Z</time>
      </trkpt>
      <trkpt lat="43.25149" lon="6.41052">
        <ele>328.42761230469</ele>
        <time>2011-10-02T08:08:45Z</time>
      </trkpt>
      <trkpt lat="43.25131" lon="6.4108">
        <ele>324.1015625</ele>
        <time>2011-10-02T08:08:49Z</time>
      </trkpt>
      <trkpt lat="43.25115" lon="6.41102">
        <ele>323.62097167969</ele>
        <time>2011-10-02T08:08:52Z</time>
      </trkpt>
      <trkpt lat="43.25087" lon="6.41121">
        <ele>321.69836425781</ele>
        <time>2011-10-02T08:08:56Z</time>
      </trkpt>
      <trkpt lat="43.25056" lon="6.41122">
        <ele>320.73706054688</ele>
        <time>2011-10-02T08:09:00Z</time>
      </trkpt>
      <trkpt lat="43.25048" lon="6.41119">
        <ele>319.29504394531</ele>
        <time>2011-10-02T08:09:01Z</time>
      </trkpt>
      <trkpt lat="43.25011" lon="6.41109">
        <ele>315.93041992188</ele>
        <time>2011-10-02T08:09:06Z</time>
      </trkpt>
      <trkpt lat="43.2499" lon="6.41114">
        <ele>313.04650878906</ele>
        <time>2011-10-02T08:09:10Z</time>
      </trkpt>
      <trkpt lat="43.24984" lon="6.41128">
        <ele>311.12377929688</ele>
        <time>2011-10-02T08:09:12Z</time>
      </trkpt>
      <trkpt lat="43.2497" lon="6.41162">
        <ele>308.72045898438</ele>
        <time>2011-10-02T08:09:16Z</time>
      </trkpt>
      <trkpt lat="43.24956" lon="6.41188">
        <ele>306.31726074219</ele>
        <time>2011-10-02T08:09:19Z</time>
      </trkpt>
      <trkpt lat="43.24947" lon="6.41204">
        <ele>304.39465332031</ele>
        <time>2011-10-02T08:09:21Z</time>
      </trkpt>
      <trkpt lat="43.24906" lon="6.41251">
        <ele>301.02990722656</ele>
        <time>2011-10-02T08:09:28Z</time>
      </trkpt>
      <trkpt lat="43.24866" lon="6.41286">
        <ele>292.85876464844</ele>
        <time>2011-10-02T08:09:35Z</time>
      </trkpt>
      <trkpt lat="43.24842" lon="6.41288">
        <ele>290.45556640625</ele>
        <time>2011-10-02T08:09:39Z</time>
      </trkpt>
      <trkpt lat="43.24825" lon="6.41277">
        <ele>289.01354980469</ele>
        <time>2011-10-02T08:09:42Z</time>
      </trkpt>
      <trkpt lat="43.24802" lon="6.41256">
        <ele>287.57141113281</ele>
        <time>2011-10-02T08:09:46Z</time>
      </trkpt>
      <trkpt lat="43.2479" lon="6.41229">
        <ele>286.61022949219</ele>
        <time>2011-10-02T08:09:50Z</time>
      </trkpt>
      <trkpt lat="43.24789" lon="6.41216">
        <ele>287.57141113281</ele>
        <time>2011-10-02T08:09:52Z</time>
      </trkpt>
      <trkpt lat="43.24794" lon="6.41168">
        <ele>289.01354980469</ele>
        <time>2011-10-02T08:09:58Z</time>
      </trkpt>
      <trkpt lat="43.24795" lon="6.41107">
        <ele>287.57141113281</ele>
        <time>2011-10-02T08:10:04Z</time>
      </trkpt>
      <trkpt lat="43.24798" lon="6.41051">
        <ele>285.64880371094</ele>
        <time>2011-10-02T08:10:09Z</time>
      </trkpt>
      <trkpt lat="43.24811" lon="6.41015">
        <ele>282.28430175781</ele>
        <time>2011-10-02T08:10:13Z</time>
      </trkpt>
      <trkpt lat="43.24815" lon="6.41008">
        <ele>281.80358886719</ele>
        <time>2011-10-02T08:10:14Z</time>
      </trkpt>
      <trkpt lat="43.24846" lon="6.40998">
        <ele>277.95825195312</ele>
        <time>2011-10-02T08:10:19Z</time>
      </trkpt>
      <trkpt lat="43.24852" lon="6.41001">
        <ele>277.95825195312</ele>
        <time>2011-10-02T08:10:20Z</time>
      </trkpt>
      <trkpt lat="43.24871" lon="6.41009">
        <ele>276.51635742188</ele>
        <time>2011-10-02T08:10:23Z</time>
      </trkpt>
      <trkpt lat="43.24895" lon="6.4101">
        <ele>275.07446289062</ele>
        <time>2011-10-02T08:10:27Z</time>
      </trkpt>
      <trkpt lat="43.24897" lon="6.40993">
        <ele>273.15185546875</ele>
        <time>2011-10-02T08:10:30Z</time>
      </trkpt>
      <trkpt lat="43.24887" lon="6.40992">
        <ele>272.67114257812</ele>
        <time>2011-10-02T08:10:32Z</time>
      </trkpt>
      <trkpt lat="43.24866" lon="6.40987">
        <ele>275.07446289062</ele>
        <time>2011-10-02T08:10:35Z</time>
      </trkpt>
      <trkpt lat="43.24842" lon="6.40972">
        <ele>276.03564453125</ele>
        <time>2011-10-02T08:10:38Z</time>
      </trkpt>
      <trkpt lat="43.24812" lon="6.40957">
        <ele>274.11303710938</ele>
        <time>2011-10-02T08:10:42Z</time>
      </trkpt>
      <trkpt lat="43.24781" lon="6.4096">
        <ele>268.34509277344</ele>
        <time>2011-10-02T08:10:46Z</time>
      </trkpt>
      <trkpt lat="43.24767" lon="6.40982">
        <ele>261.13525390625</ele>
        <time>2011-10-02T08:10:49Z</time>
      </trkpt>
      <trkpt lat="43.24737" lon="6.41048">
        <ele>256.32873535156</ele>
        <time>2011-10-02T08:10:56Z</time>
      </trkpt>
      <trkpt lat="43.24728" lon="6.41102">
        <ele>252.96398925781</ele>
        <time>2011-10-02T08:11:01Z</time>
      </trkpt>
      <trkpt lat="43.24714" lon="6.41154">
        <ele>249.59948730469</ele>
        <time>2011-10-02T08:11:06Z</time>
      </trkpt>
      <trkpt lat="43.2468" lon="6.4123">
        <ele>245.75415039062</ele>
        <time>2011-10-02T08:11:13Z</time>
      </trkpt>
      <trkpt lat="43.24658" lon="6.41288">
        <ele>241.90893554688</ele>
        <time>2011-10-02T08:11:18Z</time>
      </trkpt>
      <trkpt lat="43.24648" lon="6.41338">
        <ele>239.02490234375</ele>
        <time>2011-10-02T08:11:22Z</time>
      </trkpt>
      <trkpt lat="43.24637" lon="6.41397">
        <ele>234.21838378906</ele>
        <time>2011-10-02T08:11:27Z</time>
      </trkpt>
      <trkpt lat="43.24641" lon="6.41424">
        <ele>232.29577636719</ele>
        <time>2011-10-02T08:11:30Z</time>
      </trkpt>
      <trkpt lat="43.2466" lon="6.41433">
        <ele>229.41174316406</ele>
        <time>2011-10-02T08:11:33Z</time>
      </trkpt>
      <trkpt lat="43.24668" lon="6.41433">
        <ele>228.45043945312</ele>
        <time>2011-10-02T08:11:34Z</time>
      </trkpt>
      <trkpt lat="43.24693" lon="6.41431">
        <ele>225.56652832031</ele>
        <time>2011-10-02T08:11:37Z</time>
      </trkpt>
      <trkpt lat="43.24715" lon="6.41424">
        <ele>222.68249511719</ele>
        <time>2011-10-02T08:11:40Z</time>
      </trkpt>
      <trkpt lat="43.24722" lon="6.41428">
        <ele>221.24060058594</ele>
        <time>2011-10-02T08:11:43Z</time>
      </trkpt>
      <trkpt lat="43.24712" lon="6.41437">
        <ele>219.79858398438</ele>
        <time>2011-10-02T08:11:46Z</time>
      </trkpt>
      <trkpt lat="43.24665" lon="6.41453">
        <ele>216.43395996094</ele>
        <time>2011-10-02T08:11:53Z</time>
      </trkpt>
      <trkpt lat="43.24641" lon="6.41476">
        <ele>213.55004882812</ele>
        <time>2011-10-02T08:11:57Z</time>
      </trkpt>
      <trkpt lat="43.2462" lon="6.41504">
        <ele>210.18542480469</ele>
        <time>2011-10-02T08:12:01Z</time>
      </trkpt>
      <trkpt lat="43.246" lon="6.41502">
        <ele>207.78210449219</ele>
        <time>2011-10-02T08:12:05Z</time>
      </trkpt>
      <trkpt lat="43.24578" lon="6.41507">
        <ele>206.34008789062</ele>
        <time>2011-10-02T08:12:09Z</time>
      </trkpt>
      <trkpt lat="43.24572" lon="6.41511">
        <ele>205.37878417969</ele>
        <time>2011-10-02T08:12:10Z</time>
      </trkpt>
      <trkpt lat="43.24549" lon="6.4154">
        <ele>198.1689453125</ele>
        <time>2011-10-02T08:12:14Z</time>
      </trkpt>
      <trkpt lat="43.24513" lon="6.41606">
        <ele>188.55578613281</ele>
        <time>2011-10-02T08:12:21Z</time>
      </trkpt>
      <trkpt lat="43.24502" lon="6.41626">
        <ele>186.15246582031</ele>
        <time>2011-10-02T08:12:23Z</time>
      </trkpt>
      <trkpt lat="43.2447" lon="6.41704">
        <ele>178.94262695312</ele>
        <time>2011-10-02T08:12:30Z</time>
      </trkpt>
      <trkpt lat="43.24439" lon="6.41763">
        <ele>173.6552734375</ele>
        <time>2011-10-02T08:12:36Z</time>
      </trkpt>
      <trkpt lat="43.24416" lon="6.41816">
        <ele>170.29064941406</ele>
        <time>2011-10-02T08:12:41Z</time>
      </trkpt>
      <trkpt lat="43.24384" lon="6.41866">
        <ele>168.84875488281</ele>
        <time>2011-10-02T08:12:47Z</time>
      </trkpt>
      <trkpt lat="43.2436" lon="6.41889">
        <ele>166.4453125</ele>
        <time>2011-10-02T08:12:51Z</time>
      </trkpt>
      <trkpt lat="43.24356" lon="6.41893">
        <ele>167.40673828125</ele>
        <time>2011-10-02T08:12:52Z</time>
      </trkpt>
      <trkpt lat="43.24344" lon="6.41902">
        <ele>170.29064941406</ele>
        <time>2011-10-02T08:12:55Z</time>
      </trkpt>
      <trkpt lat="43.24319" lon="6.41897">
        <ele>166.4453125</ele>
        <time>2011-10-02T08:12:59Z</time>
      </trkpt>
      <trkpt lat="43.24306" lon="6.41884">
        <ele>166.4453125</ele>
        <time>2011-10-02T08:13:01Z</time>
      </trkpt>
      <trkpt lat="43.24289" lon="6.41867">
        <ele>164.04211425781</ele>
        <time>2011-10-02T08:13:04Z</time>
      </trkpt>
      <trkpt lat="43.24276" lon="6.41838">
        <ele>162.11950683594</ele>
        <time>2011-10-02T08:13:08Z</time>
      </trkpt>
      <trkpt lat="43.2428" lon="6.41802">
        <ele>163.08081054688</ele>
        <time>2011-10-02T08:13:12Z</time>
      </trkpt>
      <trkpt lat="43.24279" lon="6.41782">
        <ele>162.60009765625</ele>
        <time>2011-10-02T08:13:14Z</time>
      </trkpt>
      <trkpt lat="43.24269" lon="6.41745">
        <ele>161.158203125</ele>
        <time>2011-10-02T08:13:18Z</time>
      </trkpt>
      <trkpt lat="43.24253" lon="6.41715">
        <ele>159.71618652344</ele>
        <time>2011-10-02T08:13:22Z</time>
      </trkpt>
      <trkpt lat="43.24234" lon="6.41697">
        <ele>160.19689941406</ele>
        <time>2011-10-02T08:13:26Z</time>
      </trkpt>
      <trkpt lat="43.24214" lon="6.41686">
        <ele>160.19689941406</ele>
        <time>2011-10-02T08:13:30Z</time>
      </trkpt>
      <trkpt lat="43.2419" lon="6.41685">
        <ele>159.71618652344</ele>
        <time>2011-10-02T08:13:35Z</time>
      </trkpt>
      <trkpt lat="43.24166" lon="6.41689">
        <ele>160.67749023438</ele>
        <time>2011-10-02T08:13:40Z</time>
      </trkpt>
      <trkpt lat="43.24144" lon="6.41689">
        <ele>160.19689941406</ele>
        <time>2011-10-02T08:13:44Z</time>
      </trkpt>
      <trkpt lat="43.24131" lon="6.41689">
        <ele>160.19689941406</ele>
        <time>2011-10-02T08:13:46Z</time>
      </trkpt>
      <trkpt lat="43.24113" lon="6.41675">
        <ele>159.23547363281</ele>
        <time>2011-10-02T08:13:50Z</time>
      </trkpt>
      <trkpt lat="43.24115" lon="6.41658">
        <ele>158.75476074219</ele>
        <time>2011-10-02T08:13:53Z</time>
      </trkpt>
      <trkpt lat="43.24124" lon="6.41648">
        <ele>156.83215332031</ele>
        <time>2011-10-02T08:13:55Z</time>
      </trkpt>
      <trkpt lat="43.24136" lon="6.41638">
        <ele>156.83215332031</ele>
        <time>2011-10-02T08:13:57Z</time>
      </trkpt>
      <trkpt lat="43.2416" lon="6.41614">
        <ele>156.83215332031</ele>
        <time>2011-10-02T08:14:01Z</time>
      </trkpt>
      <trkpt lat="43.24171" lon="6.41599">
        <ele>155.39025878906</ele>
        <time>2011-10-02T08:14:03Z</time>
      </trkpt>
      <trkpt lat="43.2418" lon="6.41579">
        <ele>153.46765136719</ele>
        <time>2011-10-02T08:14:05Z</time>
      </trkpt>
      <trkpt lat="43.24194" lon="6.41553">
        <ele>152.02575683594</ele>
        <time>2011-10-02T08:14:08Z</time>
      </trkpt>
      <trkpt lat="43.24226" lon="6.41517">
        <ele>147.69970703125</ele>
        <time>2011-10-02T08:14:14Z</time>
      </trkpt>
      <trkpt lat="43.24252" lon="6.4149">
        <ele>145.77709960938</ele>
        <time>2011-10-02T08:14:19Z</time>
      </trkpt>
      <trkpt lat="43.24276" lon="6.41448">
        <ele>144.81579589844</ele>
        <time>2011-10-02T08:14:25Z</time>
      </trkpt>
      <trkpt lat="43.24302" lon="6.41415">
        <ele>140.97045898438</ele>
        <time>2011-10-02T08:14:30Z</time>
      </trkpt>
      <trkpt lat="43.24314" lon="6.41403">
        <ele>139.0478515625</ele>
        <time>2011-10-02T08:14:32Z</time>
      </trkpt>
      <trkpt lat="43.24339" lon="6.41387">
        <ele>134.72192382812</ele>
        <time>2011-10-02T08:14:36Z</time>
      </trkpt>
      <trkpt lat="43.24365" lon="6.41362">
        <ele>132.31860351562</ele>
        <time>2011-10-02T08:14:41Z</time>
      </trkpt>
      <trkpt lat="43.24362" lon="6.41337">
        <ele>129.91528320312</ele>
        <time>2011-10-02T08:14:45Z</time>
      </trkpt>
      <trkpt lat="43.24355" lon="6.41325">
        <ele>128.9541015625</ele>
        <time>2011-10-02T08:14:47Z</time>
      </trkpt>
      <trkpt lat="43.24343" lon="6.41289">
        <ele>126.55065917969</ele>
        <time>2011-10-02T08:14:51Z</time>
      </trkpt>
      <trkpt lat="43.24325" lon="6.41239">
        <ele>123.18615722656</ele>
        <time>2011-10-02T08:14:56Z</time>
      </trkpt>
      <trkpt lat="43.24306" lon="6.41203">
        <ele>121.744140625</ele>
        <time>2011-10-02T08:15:00Z</time>
      </trkpt>
      <trkpt lat="43.24274" lon="6.41174">
        <ele>118.37939453125</ele>
        <time>2011-10-02T08:15:05Z</time>
      </trkpt>
      <trkpt lat="43.24261" lon="6.41163">
        <ele>117.89880371094</ele>
        <time>2011-10-02T08:15:07Z</time>
      </trkpt>
      <trkpt lat="43.24237" lon="6.41152">
        <ele>115.97619628906</ele>
        <time>2011-10-02T08:15:10Z</time>
      </trkpt>
      <trkpt lat="43.24207" lon="6.41151">
        <ele>113.09228515625</ele>
        <time>2011-10-02T08:15:14Z</time>
      </trkpt>
      <trkpt lat="43.24191" lon="6.4116">
        <ele>110.20825195312</ele>
        <time>2011-10-02T08:15:16Z</time>
      </trkpt>
      <trkpt lat="43.24176" lon="6.41173">
        <ele>107.80505371094</ele>
        <time>2011-10-02T08:15:18Z</time>
      </trkpt>
      <trkpt lat="43.24151" lon="6.41188">
        <ele>102.99829101562</ele>
        <time>2011-10-02T08:15:21Z</time>
      </trkpt>
      <trkpt lat="43.2412" lon="6.41189">
        <ele>101.55639648438</ele>
        <time>2011-10-02T08:15:25Z</time>
      </trkpt>
      <trkpt lat="43.24101" lon="6.41177">
        <ele>101.55639648438</ele>
        <time>2011-10-02T08:15:28Z</time>
      </trkpt>
      <trkpt lat="43.24091" lon="6.41167">
        <ele>101.55639648438</ele>
        <time>2011-10-02T08:15:30Z</time>
      </trkpt>
      <trkpt lat="43.24081" lon="6.41163">
        <ele>96.749877929688</ele>
        <time>2011-10-02T08:15:33Z</time>
      </trkpt>
      <trkpt lat="43.2408" lon="6.41164">
        <ele>93.385131835938</ele>
        <time>2011-10-02T08:15:39Z</time>
      </trkpt>
      <trkpt lat="43.24079" lon="6.41164">
        <ele>88.578735351562</ele>
        <time>2011-10-02T08:16:10Z</time>
      </trkpt>
      <trkpt lat="43.2408" lon="6.41188">
        <ele>89.539916992188</ele>
        <time>2011-10-02T08:16:15Z</time>
      </trkpt>
      <trkpt lat="43.24092" lon="6.41213">
        <ele>89.539916992188</ele>
        <time>2011-10-02T08:16:20Z</time>
      </trkpt>
      <trkpt lat="43.24092" lon="6.41235">
        <ele>92.423950195312</ele>
        <time>2011-10-02T08:16:25Z</time>
      </trkpt>
      <trkpt lat="43.24091" lon="6.41253">
        <ele>96.749877929688</ele>
        <time>2011-10-02T08:16:30Z</time>
      </trkpt>
      <trkpt lat="43.24091" lon="6.41256">
        <ele>97.711181640625</ele>
        <time>2011-10-02T08:16:31Z</time>
      </trkpt>
      <trkpt lat="43.24094" lon="6.41271">
        <ele>102.99829101562</ele>
        <time>2011-10-02T08:16:38Z</time>
      </trkpt>
      <trkpt lat="43.24095" lon="6.41285">
        <ele>107.32434082031</ele>
        <time>2011-10-02T08:16:44Z</time>
      </trkpt>
      <trkpt lat="43.24107" lon="6.41296">
        <ele>109.24694824219</ele>
        <time>2011-10-02T08:16:52Z</time>
      </trkpt>
      <trkpt lat="43.24116" lon="6.41308">
        <ele>107.32434082031</ele>
        <time>2011-10-02T08:16:58Z</time>
      </trkpt>
      <trkpt lat="43.24117" lon="6.41311">
        <ele>106.84362792969</ele>
        <time>2011-10-02T08:16:59Z</time>
      </trkpt>
      <trkpt lat="43.24113" lon="6.41323">
        <ele>105.88244628906</ele>
        <time>2011-10-02T08:17:04Z</time>
      </trkpt>
      <trkpt lat="43.24105" lon="6.41322">
        <ele>106.36303710938</ele>
        <time>2011-10-02T08:17:09Z</time>
      </trkpt>
      <trkpt lat="43.24096" lon="6.41314">
        <ele>107.80505371094</ele>
        <time>2011-10-02T08:17:15Z</time>
      </trkpt>
      <trkpt lat="43.24086" lon="6.41304">
        <ele>112.13098144531</ele>
        <time>2011-10-02T08:17:22Z</time>
      </trkpt>
      <trkpt lat="43.24078" lon="6.41291">
        <ele>115.97619628906</ele>
        <time>2011-10-02T08:17:30Z</time>
      </trkpt>
      <trkpt lat="43.24068" lon="6.41282">
        <ele>117.89880371094</ele>
        <time>2011-10-02T08:17:37Z</time>
      </trkpt>
      <trkpt lat="43.24057" lon="6.41277">
        <ele>119.82141113281</ele>
        <time>2011-10-02T08:17:44Z</time>
      </trkpt>
      <trkpt lat="43.24048" lon="6.4128">
        <ele>122.22473144531</ele>
        <time>2011-10-02T08:17:49Z</time>
      </trkpt>
      <trkpt lat="43.24037" lon="6.41288">
        <ele>121.26354980469</ele>
        <time>2011-10-02T08:17:56Z</time>
      </trkpt>
      <trkpt lat="43.24024" lon="6.41292">
        <ele>117.41821289062</ele>
        <time>2011-10-02T08:18:02Z</time>
      </trkpt>
      <trkpt lat="43.2401" lon="6.41289">
        <ele>118.37939453125</ele>
        <time>2011-10-02T08:18:08Z</time>
      </trkpt>
      <trkpt lat="43.23995" lon="6.41283">
        <ele>121.26354980469</ele>
        <time>2011-10-02T08:18:15Z</time>
      </trkpt>
      <trkpt lat="43.23982" lon="6.41291">
        <ele>121.26354980469</ele>
        <time>2011-10-02T08:18:20Z</time>
      </trkpt>
      <trkpt lat="43.2397" lon="6.41312">
        <ele>118.37939453125</ele>
        <time>2011-10-02T08:18:25Z</time>
      </trkpt>
      <trkpt lat="43.23956" lon="6.41332">
        <ele>113.57299804688</ele>
        <time>2011-10-02T08:18:30Z</time>
      </trkpt>
      <trkpt lat="43.23949" lon="6.41338">
        <ele>113.57299804688</ele>
        <time>2011-10-02T08:18:32Z</time>
      </trkpt>
      <trkpt lat="43.23933" lon="6.41347">
        <ele>115.49560546875</ele>
        <time>2011-10-02T08:18:35Z</time>
      </trkpt>
      <trkpt lat="43.23914" lon="6.4136">
        <ele>113.57299804688</ele>
        <time>2011-10-02T08:18:38Z</time>
      </trkpt>
      <trkpt lat="43.23907" lon="6.41396">
        <ele>105.88244628906</ele>
        <time>2011-10-02T08:18:42Z</time>
      </trkpt>
      <trkpt lat="43.23892" lon="6.41441">
        <ele>98.19189453125</ele>
        <time>2011-10-02T08:18:47Z</time>
      </trkpt>
      <trkpt lat="43.23885" lon="6.41468">
        <ele>100.11450195312</ele>
        <time>2011-10-02T08:18:50Z</time>
      </trkpt>
      <trkpt lat="43.23891" lon="6.41508">
        <ele>96.749877929688</ele>
        <time>2011-10-02T08:18:54Z</time>
      </trkpt>
      <trkpt lat="43.2389" lon="6.41545">
        <ele>94.8271484375</ele>
        <time>2011-10-02T08:18:58Z</time>
      </trkpt>
      <trkpt lat="43.23889" lon="6.41561">
        <ele>95.307739257812</ele>
        <time>2011-10-02T08:19:00Z</time>
      </trkpt>
      <trkpt lat="43.23894" lon="6.41595">
        <ele>97.23046875</ele>
        <time>2011-10-02T08:19:06Z</time>
      </trkpt>
      <trkpt lat="43.23887" lon="6.41617">
        <ele>98.19189453125</ele>
        <time>2011-10-02T08:19:11Z</time>
      </trkpt>
      <trkpt lat="43.23881" lon="6.41645">
        <ele>101.55639648438</ele>
        <time>2011-10-02T08:19:17Z</time>
      </trkpt>
      <trkpt lat="43.23874" lon="6.41664">
        <ele>104.92102050781</ele>
        <time>2011-10-02T08:19:21Z</time>
      </trkpt>
      <trkpt lat="43.23864" lon="6.41699">
        <ele>102.51770019531</ele>
        <time>2011-10-02T08:19:27Z</time>
      </trkpt>
      <trkpt lat="43.23843" lon="6.41743">
        <ele>101.55639648438</ele>
        <time>2011-10-02T08:19:33Z</time>
      </trkpt>
      <trkpt lat="43.23834" lon="6.41765">
        <ele>100.59509277344</ele>
        <time>2011-10-02T08:19:36Z</time>
      </trkpt>
      <trkpt lat="43.23817" lon="6.41804">
        <ele>99.153076171875</ele>
        <time>2011-10-02T08:19:41Z</time>
      </trkpt>
      <trkpt lat="43.238" lon="6.41843">
        <ele>100.59509277344</ele>
        <time>2011-10-02T08:19:46Z</time>
      </trkpt>
      <trkpt lat="43.23774" lon="6.4186">
        <ele>95.307739257812</ele>
        <time>2011-10-02T08:19:50Z</time>
      </trkpt>
      <trkpt lat="43.23748" lon="6.41859">
        <ele>93.865844726562</ele>
        <time>2011-10-02T08:19:53Z</time>
      </trkpt>
      <trkpt lat="43.23722" lon="6.41845">
        <ele>96.269287109375</ele>
        <time>2011-10-02T08:19:58Z</time>
      </trkpt>
      <trkpt lat="43.23708" lon="6.41827">
        <ele>98.672485351562</ele>
        <time>2011-10-02T08:20:03Z</time>
      </trkpt>
      <trkpt lat="43.23693" lon="6.41809">
        <ele>104.92102050781</ele>
        <time>2011-10-02T08:20:09Z</time>
      </trkpt>
      <trkpt lat="43.23687" lon="6.41812">
        <ele>104.92102050781</ele>
        <time>2011-10-02T08:20:11Z</time>
      </trkpt>
      <trkpt lat="43.23673" lon="6.41831">
        <ele>98.19189453125</ele>
        <time>2011-10-02T08:20:17Z</time>
      </trkpt>
      <trkpt lat="43.23668" lon="6.4185">
        <ele>93.865844726562</ele>
        <time>2011-10-02T08:20:22Z</time>
      </trkpt>
      <trkpt lat="43.23664" lon="6.41878">
        <ele>93.385131835938</ele>
        <time>2011-10-02T08:20:27Z</time>
      </trkpt>
      <trkpt lat="43.23658" lon="6.41901">
        <ele>88.578735351562</ele>
        <time>2011-10-02T08:20:31Z</time>
      </trkpt>
      <trkpt lat="43.23651" lon="6.41917">
        <ele>84.7333984375</ele>
        <time>2011-10-02T08:20:34Z</time>
      </trkpt>
      <trkpt lat="43.23647" lon="6.41927">
        <ele>81.368774414062</ele>
        <time>2011-10-02T08:20:36Z</time>
      </trkpt>
      <trkpt lat="43.23643" lon="6.41954">
        <ele>81.368774414062</ele>
        <time>2011-10-02T08:20:40Z</time>
      </trkpt>
      <trkpt lat="43.23637" lon="6.42007">
        <ele>80.407470703125</ele>
        <time>2011-10-02T08:20:47Z</time>
      </trkpt>
      <trkpt lat="43.23636" lon="6.42014">
        <ele>79.446044921875</ele>
        <time>2011-10-02T08:20:48Z</time>
      </trkpt>
      <trkpt lat="43.23631" lon="6.42037">
        <ele>79.446044921875</ele>
        <time>2011-10-02T08:20:51Z</time>
      </trkpt>
      <trkpt lat="43.23615" lon="6.42066">
        <ele>78.484741210938</ele>
        <time>2011-10-02T08:20:56Z</time>
      </trkpt>
      <trkpt lat="43.23606" lon="6.42092">
        <ele>78.965454101562</ele>
        <time>2011-10-02T08:21:00Z</time>
      </trkpt>
      <trkpt lat="43.23597" lon="6.42146">
        <ele>78.965454101562</ele>
        <time>2011-10-02T08:21:07Z</time>
      </trkpt>
      <trkpt lat="43.23595" lon="6.42154">
        <ele>78.484741210938</ele>
        <time>2011-10-02T08:21:08Z</time>
      </trkpt>
      <trkpt lat="43.23591" lon="6.42182">
        <ele>77.5234375</ele>
        <time>2011-10-02T08:21:12Z</time>
      </trkpt>
      <trkpt lat="43.23594" lon="6.42237">
        <ele>83.291381835938</ele>
        <time>2011-10-02T08:21:19Z</time>
      </trkpt>
      <trkpt lat="43.23594" lon="6.42244">
        <ele>83.291381835938</ele>
        <time>2011-10-02T08:21:20Z</time>
      </trkpt>
      <trkpt lat="43.2359" lon="6.42266">
        <ele>86.17529296875</ele>
        <time>2011-10-02T08:21:23Z</time>
      </trkpt>
      <trkpt lat="43.23587" lon="6.42294">
        <ele>88.098022460938</ele>
        <time>2011-10-02T08:21:27Z</time>
      </trkpt>
      <trkpt lat="43.23581" lon="6.42325">
        <ele>90.98193359375</ele>
        <time>2011-10-02T08:21:31Z</time>
      </trkpt>
      <trkpt lat="43.23584" lon="6.42367">
        <ele>92.423950195312</ele>
        <time>2011-10-02T08:21:37Z</time>
      </trkpt>
      <trkpt lat="43.2359" lon="6.42393">
        <ele>88.578735351562</ele>
        <time>2011-10-02T08:21:41Z</time>
      </trkpt>
      <trkpt lat="43.23605" lon="6.42414">
        <ele>88.578735351562</ele>
        <time>2011-10-02T08:21:45Z</time>
      </trkpt>
      <trkpt lat="43.2361" lon="6.42419">
        <ele>89.059326171875</ele>
        <time>2011-10-02T08:21:46Z</time>
      </trkpt>
      <trkpt lat="43.23631" lon="6.42443">
        <ele>90.501342773438</ele>
        <time>2011-10-02T08:21:50Z</time>
      </trkpt>
      <trkpt lat="43.2364" lon="6.42457">
        <ele>90.98193359375</ele>
        <time>2011-10-02T08:21:52Z</time>
      </trkpt>
      <trkpt lat="43.23654" lon="6.42486">
        <ele>89.059326171875</ele>
        <time>2011-10-02T08:21:56Z</time>
      </trkpt>
      <trkpt lat="43.23682" lon="6.42538">
        <ele>88.098022460938</ele>
        <time>2011-10-02T08:22:03Z</time>
      </trkpt>
      <trkpt lat="43.23685" lon="6.42545">
        <ele>88.098022460938</ele>
        <time>2011-10-02T08:22:04Z</time>
      </trkpt>
      <trkpt lat="43.23692" lon="6.42578">
        <ele>87.136596679688</ele>
        <time>2011-10-02T08:22:09Z</time>
      </trkpt>
      <trkpt lat="43.23683" lon="6.42587">
        <ele>88.098022460938</ele>
        <time>2011-10-02T08:22:12Z</time>
      </trkpt>
      <trkpt lat="43.23676" lon="6.4259">
        <ele>89.059326171875</ele>
        <time>2011-10-02T08:22:14Z</time>
      </trkpt>
      <trkpt lat="43.23647" lon="6.426">
        <ele>90.98193359375</ele>
        <time>2011-10-02T08:22:21Z</time>
      </trkpt>
      <trkpt lat="43.23627" lon="6.42607">
        <ele>91.943237304688</ele>
        <time>2011-10-02T08:22:25Z</time>
      </trkpt>
      <trkpt lat="43.23603" lon="6.42614">
        <ele>92.423950195312</ele>
        <time>2011-10-02T08:22:30Z</time>
      </trkpt>
      <trkpt lat="43.23584" lon="6.42616">
        <ele>95.788452148438</ele>
        <time>2011-10-02T08:22:35Z</time>
      </trkpt>
      <trkpt lat="43.23579" lon="6.42615">
        <ele>98.19189453125</ele>
        <time>2011-10-02T08:22:37Z</time>
      </trkpt>
      <trkpt lat="43.23575" lon="6.42618">
        <ele>99.6337890625</ele>
        <time>2011-10-02T08:22:41Z</time>
      </trkpt>
      <trkpt lat="43.23572" lon="6.42615">
        <ele>98.19189453125</ele>
        <time>2011-10-02T08:22:55Z</time>
      </trkpt>
      <trkpt lat="43.23557" lon="6.42618">
        <ele>94.8271484375</ele>
        <time>2011-10-02T08:23:01Z</time>
      </trkpt>
      <trkpt lat="43.23538" lon="6.42623">
        <ele>93.385131835938</ele>
        <time>2011-10-02T08:23:06Z</time>
      </trkpt>
      <trkpt lat="43.2352" lon="6.4263">
        <ele>92.423950195312</ele>
        <time>2011-10-02T08:23:11Z</time>
      </trkpt>
      <trkpt lat="43.2349" lon="6.4265">
        <ele>90.020629882812</ele>
        <time>2011-10-02T08:23:18Z</time>
      </trkpt>
      <trkpt lat="43.23463" lon="6.42671">
        <ele>89.059326171875</ele>
        <time>2011-10-02T08:23:24Z</time>
      </trkpt>
      <trkpt lat="43.23433" lon="6.42698">
        <ele>87.6171875</ele>
        <time>2011-10-02T08:23:31Z</time>
      </trkpt>
      <trkpt lat="43.23429" lon="6.42702">
        <ele>87.6171875</ele>
        <time>2011-10-02T08:23:32Z</time>
      </trkpt>
      <trkpt lat="43.23416" lon="6.42711">
        <ele>87.6171875</ele>
        <time>2011-10-02T08:23:36Z</time>
      </trkpt>
      <trkpt lat="43.23387" lon="6.42714">
        <ele>89.059326171875</ele>
        <time>2011-10-02T08:23:44Z</time>
      </trkpt>
      <trkpt lat="43.23366" lon="6.4271">
        <ele>91.462524414062</ele>
        <time>2011-10-02T08:23:49Z</time>
      </trkpt>
      <trkpt lat="43.23361" lon="6.4271">
        <ele>91.462524414062</ele>
        <time>2011-10-02T08:23:50Z</time>
      </trkpt>
      <trkpt lat="43.23343" lon="6.42701">
        <ele>91.462524414062</ele>
        <time>2011-10-02T08:23:54Z</time>
      </trkpt>
      <trkpt lat="43.23311" lon="6.42669">
        <ele>92.904541015625</ele>
        <time>2011-10-02T08:24:02Z</time>
      </trkpt>
      <trkpt lat="43.23284" lon="6.42647">
        <ele>94.346557617188</ele>
        <time>2011-10-02T08:24:08Z</time>
      </trkpt>
      <trkpt lat="43.23254" lon="6.42618">
        <ele>95.788452148438</ele>
        <time>2011-10-02T08:24:15Z</time>
      </trkpt>
      <trkpt lat="43.23245" lon="6.4261">
        <ele>96.269287109375</ele>
        <time>2011-10-02T08:24:17Z</time>
      </trkpt>
      <trkpt lat="43.23227" lon="6.42604">
        <ele>96.749877929688</ele>
        <time>2011-10-02T08:24:21Z</time>
      </trkpt>
      <trkpt lat="43.23219" lon="6.42605">
        <ele>97.711181640625</ele>
        <time>2011-10-02T08:24:23Z</time>
      </trkpt>
      <trkpt lat="43.23204" lon="6.426">
        <ele>99.6337890625</ele>
        <time>2011-10-02T08:24:28Z</time>
      </trkpt>
      <trkpt lat="43.2319" lon="6.42581">
        <ele>102.037109375</ele>
        <time>2011-10-02T08:24:35Z</time>
      </trkpt>
      <trkpt lat="43.23176" lon="6.42562">
        <ele>101.55639648438</ele>
        <time>2011-10-02T08:24:40Z</time>
      </trkpt>
      <trkpt lat="43.23162" lon="6.42536">
        <ele>102.99829101562</ele>
        <time>2011-10-02T08:24:46Z</time>
      </trkpt>
      <trkpt lat="43.23161" lon="6.4253">
        <ele>102.51770019531</ele>
        <time>2011-10-02T08:24:47Z</time>
      </trkpt>
      <trkpt lat="43.23149" lon="6.42508">
        <ele>101.55639648438</ele>
        <time>2011-10-02T08:24:51Z</time>
      </trkpt>
      <trkpt lat="43.2314" lon="6.42495">
        <ele>100.11450195312</ele>
        <time>2011-10-02T08:24:53Z</time>
      </trkpt>
      <trkpt lat="43.23129" lon="6.42472">
        <ele>99.153076171875</ele>
        <time>2011-10-02T08:24:56Z</time>
      </trkpt>
      <trkpt lat="43.23109" lon="6.42449">
        <ele>96.749877929688</ele>
        <time>2011-10-02T08:25:01Z</time>
      </trkpt>
      <trkpt lat="43.23099" lon="6.42457">
        <ele>95.788452148438</ele>
        <time>2011-10-02T08:25:04Z</time>
      </trkpt>
      <trkpt lat="43.23096" lon="6.42469">
        <ele>95.307739257812</ele>
        <time>2011-10-02T08:25:07Z</time>
      </trkpt>
      <trkpt lat="43.23098" lon="6.42494">
        <ele>93.385131835938</ele>
        <time>2011-10-02T08:25:13Z</time>
      </trkpt>
      <trkpt lat="43.231" lon="6.42532">
        <ele>92.423950195312</ele>
        <time>2011-10-02T08:25:21Z</time>
      </trkpt>
      <trkpt lat="43.23103" lon="6.42565">
        <ele>91.943237304688</ele>
        <time>2011-10-02T08:25:28Z</time>
      </trkpt>
      <trkpt lat="43.23111" lon="6.42604">
        <ele>95.307739257812</ele>
        <time>2011-10-02T08:25:36Z</time>
      </trkpt>
      <trkpt lat="43.23117" lon="6.42633">
        <ele>95.788452148438</ele>
        <time>2011-10-02T08:25:43Z</time>
      </trkpt>
      <trkpt lat="43.23119" lon="6.42663">
        <ele>95.788452148438</ele>
        <time>2011-10-02T08:25:49Z</time>
      </trkpt>
      <trkpt lat="43.2312" lon="6.42683">
        <ele>93.865844726562</ele>
        <time>2011-10-02T08:25:52Z</time>
      </trkpt>
      <trkpt lat="43.23127" lon="6.42709">
        <ele>93.385131835938</ele>
        <time>2011-10-02T08:25:56Z</time>
      </trkpt>
      <trkpt lat="43.23139" lon="6.42713">
        <ele>94.8271484375</ele>
        <time>2011-10-02T08:25:59Z</time>
      </trkpt>
      <trkpt lat="43.23159" lon="6.42719">
        <ele>94.346557617188</ele>
        <time>2011-10-02T08:26:04Z</time>
      </trkpt>
      <trkpt lat="43.23175" lon="6.42745">
        <ele>91.462524414062</ele>
        <time>2011-10-02T08:26:09Z</time>
      </trkpt>
      <trkpt lat="43.23178" lon="6.4276">
        <ele>90.501342773438</ele>
        <time>2011-10-02T08:26:11Z</time>
      </trkpt>
      <trkpt lat="43.23178" lon="6.42797">
        <ele>89.059326171875</ele>
        <time>2011-10-02T08:26:16Z</time>
      </trkpt>
      <trkpt lat="43.23176" lon="6.42844">
        <ele>88.098022460938</ele>
        <time>2011-10-02T08:26:22Z</time>
      </trkpt>
      <trkpt lat="43.2317" lon="6.42886">
        <ele>87.136596679688</ele>
        <time>2011-10-02T08:26:28Z</time>
      </trkpt>
      <trkpt lat="43.2316" lon="6.42928">
        <ele>86.656005859375</ele>
        <time>2011-10-02T08:26:34Z</time>
      </trkpt>
      <trkpt lat="43.2315" lon="6.42971">
        <ele>86.656005859375</ele>
        <time>2011-10-02T08:26:40Z</time>
      </trkpt>
      <trkpt lat="43.23142" lon="6.43012">
        <ele>87.136596679688</ele>
        <time>2011-10-02T08:26:46Z</time>
      </trkpt>
      <trkpt lat="43.23132" lon="6.43048">
        <ele>86.656005859375</ele>
        <time>2011-10-02T08:26:52Z</time>
      </trkpt>
      <trkpt lat="43.2312" lon="6.43072">
        <ele>88.098022460938</ele>
        <time>2011-10-02T08:26:57Z</time>
      </trkpt>
      <trkpt lat="43.23095" lon="6.43085">
        <ele>91.462524414062</ele>
        <time>2011-10-02T08:27:05Z</time>
      </trkpt>
      <trkpt lat="43.23074" lon="6.43091">
        <ele>93.865844726562</ele>
        <time>2011-10-02T08:27:11Z</time>
      </trkpt>
      <trkpt lat="43.23062" lon="6.431">
        <ele>93.385131835938</ele>
        <time>2011-10-02T08:27:14Z</time>
      </trkpt>
      <trkpt lat="43.23061" lon="6.43123">
        <ele>91.943237304688</ele>
        <time>2011-10-02T08:27:18Z</time>
      </trkpt>
      <trkpt lat="43.23074" lon="6.43154">
        <ele>90.020629882812</ele>
        <time>2011-10-02T08:27:23Z</time>
      </trkpt>
      <trkpt lat="43.23076" lon="6.4319">
        <ele>89.539916992188</ele>
        <time>2011-10-02T08:27:28Z</time>
      </trkpt>
      <trkpt lat="43.23058" lon="6.43231">
        <ele>89.539916992188</ele>
        <time>2011-10-02T08:27:35Z</time>
      </trkpt>
      <trkpt lat="43.23046" lon="6.43243">
        <ele>88.578735351562</ele>
        <time>2011-10-02T08:27:38Z</time>
      </trkpt>
      <trkpt lat="43.23037" lon="6.43249">
        <ele>88.578735351562</ele>
        <time>2011-10-02T08:27:40Z</time>
      </trkpt>
      <trkpt lat="43.2302" lon="6.43264">
        <ele>87.6171875</ele>
        <time>2011-10-02T08:27:44Z</time>
      </trkpt>
      <trkpt lat="43.23011" lon="6.43288">
        <ele>88.098022460938</ele>
        <time>2011-10-02T08:27:48Z</time>
      </trkpt>
      <trkpt lat="43.23011" lon="6.43301">
        <ele>88.578735351562</ele>
        <time>2011-10-02T08:27:50Z</time>
      </trkpt>
      <trkpt lat="43.23005" lon="6.43325">
        <ele>88.098022460938</ele>
        <time>2011-10-02T08:27:54Z</time>
      </trkpt>
      <trkpt lat="43.22999" lon="6.43335">
        <ele>89.059326171875</ele>
        <time>2011-10-02T08:27:56Z</time>
      </trkpt>
      <trkpt lat="43.22997" lon="6.43366">
        <ele>88.098022460938</ele>
        <time>2011-10-02T08:28:01Z</time>
      </trkpt>
      <trkpt lat="43.22998" lon="6.43393">
        <ele>89.059326171875</ele>
        <time>2011-10-02T08:28:05Z</time>
      </trkpt>
      <trkpt lat="43.22997" lon="6.43414">
        <ele>88.578735351562</ele>
        <time>2011-10-02T08:28:08Z</time>
      </trkpt>
      <trkpt lat="43.2299" lon="6.43441">
        <ele>90.020629882812</ele>
        <time>2011-10-02T08:28:12Z</time>
      </trkpt>
      <trkpt lat="43.22984" lon="6.43452">
        <ele>90.501342773438</ele>
        <time>2011-10-02T08:28:14Z</time>
      </trkpt>
      <trkpt lat="43.22977" lon="6.4349">
        <ele>90.501342773438</ele>
        <time>2011-10-02T08:28:20Z</time>
      </trkpt>
      <trkpt lat="43.22974" lon="6.43529">
        <ele>92.423950195312</ele>
        <time>2011-10-02T08:28:26Z</time>
      </trkpt>
      <trkpt lat="43.22973" lon="6.43542">
        <ele>94.8271484375</ele>
        <time>2011-10-02T08:28:28Z</time>
      </trkpt>
      <trkpt lat="43.2298" lon="6.43574">
        <ele>95.788452148438</ele>
        <time>2011-10-02T08:28:33Z</time>
      </trkpt>
      <trkpt lat="43.22983" lon="6.43586">
        <ele>94.8271484375</ele>
        <time>2011-10-02T08:28:35Z</time>
      </trkpt>
      <trkpt lat="43.22979" lon="6.43623">
        <ele>93.865844726562</ele>
        <time>2011-10-02T08:28:41Z</time>
      </trkpt>
      <trkpt lat="43.22968" lon="6.43639">
        <ele>94.346557617188</ele>
        <time>2011-10-02T08:28:45Z</time>
      </trkpt>
      <trkpt lat="43.22961" lon="6.43646">
        <ele>93.865844726562</ele>
        <time>2011-10-02T08:28:47Z</time>
      </trkpt>
      <trkpt lat="43.22927" lon="6.4367">
        <ele>92.904541015625</ele>
        <time>2011-10-02T08:28:55Z</time>
      </trkpt>
      <trkpt lat="43.22912" lon="6.43676">
        <ele>92.423950195312</ele>
        <time>2011-10-02T08:28:58Z</time>
      </trkpt>
      <trkpt lat="43.22883" lon="6.43686">
        <ele>91.943237304688</ele>
        <time>2011-10-02T08:29:04Z</time>
      </trkpt>
      <trkpt lat="43.22861" lon="6.43686">
        <ele>92.423950195312</ele>
        <time>2011-10-02T08:29:08Z</time>
      </trkpt>
      <trkpt lat="43.2282" lon="6.43673">
        <ele>93.865844726562</ele>
        <time>2011-10-02T08:29:15Z</time>
      </trkpt>
      <trkpt lat="43.22795" lon="6.43658">
        <ele>98.19189453125</ele>
        <time>2011-10-02T08:29:21Z</time>
      </trkpt>
      <trkpt lat="43.22779" lon="6.43659">
        <ele>98.672485351562</ele>
        <time>2011-10-02T08:29:25Z</time>
      </trkpt>
      <trkpt lat="43.22772" lon="6.43671">
        <ele>95.788452148438</ele>
        <time>2011-10-02T08:29:28Z</time>
      </trkpt>
      <trkpt lat="43.22772" lon="6.43687">
        <ele>91.943237304688</ele>
        <time>2011-10-02T08:29:31Z</time>
      </trkpt>
      <trkpt lat="43.22773" lon="6.43699">
        <ele>90.98193359375</ele>
        <time>2011-10-02T08:29:33Z</time>
      </trkpt>
      <trkpt lat="43.22779" lon="6.43733">
        <ele>91.462524414062</ele>
        <time>2011-10-02T08:29:38Z</time>
      </trkpt>
      <trkpt lat="43.22773" lon="6.43766">
        <ele>90.98193359375</ele>
        <time>2011-10-02T08:29:43Z</time>
      </trkpt>
      <trkpt lat="43.22769" lon="6.43771">
        <ele>90.98193359375</ele>
        <time>2011-10-02T08:29:44Z</time>
      </trkpt>
      <trkpt lat="43.22762" lon="6.4378">
        <ele>90.501342773438</ele>
        <time>2011-10-02T08:29:46Z</time>
      </trkpt>
      <trkpt lat="43.22752" lon="6.43794">
        <ele>90.020629882812</ele>
        <time>2011-10-02T08:29:49Z</time>
      </trkpt>
      <trkpt lat="43.22744" lon="6.43835">
        <ele>89.539916992188</ele>
        <time>2011-10-02T08:29:55Z</time>
      </trkpt>
      <trkpt lat="43.22739" lon="6.4385">
        <ele>89.539916992188</ele>
        <time>2011-10-02T08:29:57Z</time>
      </trkpt>
      <trkpt lat="43.22711" lon="6.43897">
        <ele>89.059326171875</ele>
        <time>2011-10-02T08:30:05Z</time>
      </trkpt>
      <trkpt lat="43.22682" lon="6.43934">
        <ele>87.136596679688</ele>
        <time>2011-10-02T08:30:12Z</time>
      </trkpt>
      <trkpt lat="43.22678" lon="6.43938">
        <ele>87.136596679688</ele>
        <time>2011-10-02T08:30:13Z</time>
      </trkpt>
      <trkpt lat="43.22654" lon="6.43947">
        <ele>90.020629882812</ele>
        <time>2011-10-02T08:30:18Z</time>
      </trkpt>
      <trkpt lat="43.22638" lon="6.43945">
        <ele>92.904541015625</ele>
        <time>2011-10-02T08:30:21Z</time>
      </trkpt>
      <trkpt lat="43.2262" lon="6.43933">
        <ele>96.269287109375</ele>
        <time>2011-10-02T08:30:25Z</time>
      </trkpt>
      <trkpt lat="43.22598" lon="6.43926">
        <ele>99.153076171875</ele>
        <time>2011-10-02T08:30:29Z</time>
      </trkpt>
      <trkpt lat="43.22568" lon="6.43923">
        <ele>101.55639648438</ele>
        <time>2011-10-02T08:30:35Z</time>
      </trkpt>
      <trkpt lat="43.22539" lon="6.43915">
        <ele>101.55639648438</ele>
        <time>2011-10-02T08:30:40Z</time>
      </trkpt>
      <trkpt lat="43.22515" lon="6.43899">
        <ele>102.99829101562</ele>
        <time>2011-10-02T08:30:45Z</time>
      </trkpt>
      <trkpt lat="43.22495" lon="6.43885">
        <ele>103.47900390625</ele>
        <time>2011-10-02T08:30:50Z</time>
      </trkpt>
      <trkpt lat="43.22489" lon="6.43892">
        <ele>102.037109375</ele>
        <time>2011-10-02T08:30:53Z</time>
      </trkpt>
      <trkpt lat="43.2249" lon="6.43901">
        <ele>102.51770019531</ele>
        <time>2011-10-02T08:30:55Z</time>
      </trkpt>
      <trkpt lat="43.22505" lon="6.4393">
        <ele>99.153076171875</ele>
        <time>2011-10-02T08:31:01Z</time>
      </trkpt>
      <trkpt lat="43.22514" lon="6.43957">
        <ele>96.749877929688</ele>
        <time>2011-10-02T08:31:06Z</time>
      </trkpt>
      <trkpt lat="43.22516" lon="6.43967">
        <ele>97.23046875</ele>
        <time>2011-10-02T08:31:08Z</time>
      </trkpt>
      <trkpt lat="43.22514" lon="6.43981">
        <ele>91.462524414062</ele>
        <time>2011-10-02T08:31:15Z</time>
      </trkpt>
      <trkpt lat="43.22516" lon="6.43983">
        <ele>88.578735351562</ele>
        <time>2011-10-02T08:31:19Z</time>
      </trkpt>
      <trkpt lat="43.22517" lon="6.4398">
        <ele>90.020629882812</ele>
        <time>2011-10-02T08:31:25Z</time>
      </trkpt>
      <trkpt lat="43.22515" lon="6.43983">
        <ele>91.462524414062</ele>
        <time>2011-10-02T08:31:30Z</time>
      </trkpt>
      <trkpt lat="43.22514" lon="6.43989">
        <ele>90.501342773438</ele>
        <time>2011-10-02T08:31:35Z</time>
      </trkpt>
      <trkpt lat="43.22514" lon="6.43993">
        <ele>88.578735351562</ele>
        <time>2011-10-02T08:31:42Z</time>
      </trkpt>
      <trkpt lat="43.22512" lon="6.44008">
        <ele>88.098022460938</ele>
        <time>2011-10-02T08:31:47Z</time>
      </trkpt>
      <trkpt lat="43.22501" lon="6.44029">
        <ele>89.539916992188</ele>
        <time>2011-10-02T08:31:53Z</time>
      </trkpt>
      <trkpt lat="43.22506" lon="6.44045">
        <ele>93.385131835938</ele>
        <time>2011-10-02T08:31:58Z</time>
      </trkpt>
      <trkpt lat="43.22523" lon="6.4405">
        <ele>97.711181640625</ele>
        <time>2011-10-02T08:32:04Z</time>
      </trkpt>
      <trkpt lat="43.22535" lon="6.44064">
        <ele>101.07568359375</ele>
        <time>2011-10-02T08:32:09Z</time>
      </trkpt>
      <trkpt lat="43.22549" lon="6.44079">
        <ele>107.80505371094</ele>
        <time>2011-10-02T08:32:15Z</time>
      </trkpt>
      <trkpt lat="43.22561" lon="6.4409">
        <ele>109.24694824219</ele>
        <time>2011-10-02T08:32:20Z</time>
      </trkpt>
      <trkpt lat="43.22563" lon="6.44092">
        <ele>107.80505371094</ele>
        <time>2011-10-02T08:32:21Z</time>
      </trkpt>
      <trkpt lat="43.22582" lon="6.44114">
        <ele>104.92102050781</ele>
        <time>2011-10-02T08:32:28Z</time>
      </trkpt>
      <trkpt lat="43.22601" lon="6.44141">
        <ele>105.88244628906</ele>
        <time>2011-10-02T08:32:36Z</time>
      </trkpt>
      <trkpt lat="43.22614" lon="6.44165">
        <ele>106.84362792969</ele>
        <time>2011-10-02T08:32:43Z</time>
      </trkpt>
      <trkpt lat="43.22623" lon="6.44192">
        <ele>106.36303710938</ele>
        <time>2011-10-02T08:32:49Z</time>
      </trkpt>
      <trkpt lat="43.22643" lon="6.44221">
        <ele>106.84362792969</ele>
        <time>2011-10-02T08:32:56Z</time>
      </trkpt>
      <trkpt lat="43.22648" lon="6.4423">
        <ele>106.84362792969</ele>
        <time>2011-10-02T08:32:58Z</time>
      </trkpt>
      <trkpt lat="43.22658" lon="6.44255">
        <ele>106.36303710938</ele>
        <time>2011-10-02T08:33:03Z</time>
      </trkpt>
      <trkpt lat="43.22664" lon="6.44272">
        <ele>104.4404296875</ele>
        <time>2011-10-02T08:33:06Z</time>
      </trkpt>
      <trkpt lat="43.22669" lon="6.44303">
        <ele>101.55639648438</ele>
        <time>2011-10-02T08:33:10Z</time>
      </trkpt>
      <trkpt lat="43.22663" lon="6.44337">
        <ele>98.19189453125</ele>
        <time>2011-10-02T08:33:15Z</time>
      </trkpt>
      <trkpt lat="43.22646" lon="6.44357">
        <ele>97.23046875</ele>
        <time>2011-10-02T08:33:19Z</time>
      </trkpt>
      <trkpt lat="43.2263" lon="6.44383">
        <ele>95.307739257812</ele>
        <time>2011-10-02T08:33:23Z</time>
      </trkpt>
      <trkpt lat="43.22625" lon="6.444">
        <ele>94.346557617188</ele>
        <time>2011-10-02T08:33:25Z</time>
      </trkpt>
      <trkpt lat="43.2262" lon="6.44441">
        <ele>92.423950195312</ele>
        <time>2011-10-02T08:33:29Z</time>
      </trkpt>
      <trkpt lat="43.2261" lon="6.44483">
        <ele>89.539916992188</ele>
        <time>2011-10-02T08:33:33Z</time>
      </trkpt>
      <trkpt lat="43.226" lon="6.44538">
        <ele>88.098022460938</ele>
        <time>2011-10-02T08:33:38Z</time>
      </trkpt>
      <trkpt lat="43.22593" lon="6.44577">
        <ele>86.17529296875</ele>
        <time>2011-10-02T08:33:42Z</time>
      </trkpt>
      <trkpt lat="43.22578" lon="6.44598">
        <ele>85.213989257812</ele>
        <time>2011-10-02T08:33:45Z</time>
      </trkpt>
      <trkpt lat="43.22572" lon="6.44622">
        <ele>85.213989257812</ele>
        <time>2011-10-02T08:33:48Z</time>
      </trkpt>
      <trkpt lat="43.22573" lon="6.4463">
        <ele>85.213989257812</ele>
        <time>2011-10-02T08:33:49Z</time>
      </trkpt>
      <trkpt lat="43.22577" lon="6.44655">
        <ele>86.656005859375</ele>
        <time>2011-10-02T08:33:52Z</time>
      </trkpt>
      <trkpt lat="43.22593" lon="6.44694">
        <ele>90.020629882812</ele>
        <time>2011-10-02T08:33:58Z</time>
      </trkpt>
      <trkpt lat="43.22595" lon="6.44699">
        <ele>90.501342773438</ele>
        <time>2011-10-02T08:33:59Z</time>
      </trkpt>
      <trkpt lat="43.22599" lon="6.44715">
        <ele>90.501342773438</ele>
        <time>2011-10-02T08:34:02Z</time>
      </trkpt>
      <trkpt lat="43.22598" lon="6.44751">
        <ele>89.539916992188</ele>
        <time>2011-10-02T08:34:07Z</time>
      </trkpt>
      <trkpt lat="43.22585" lon="6.4477">
        <ele>88.578735351562</ele>
        <time>2011-10-02T08:34:10Z</time>
      </trkpt>
      <trkpt lat="43.22578" lon="6.44777">
        <ele>87.6171875</ele>
        <time>2011-10-02T08:34:12Z</time>
      </trkpt>
      <trkpt lat="43.22569" lon="6.44782">
        <ele>86.656005859375</ele>
        <time>2011-10-02T08:34:17Z</time>
      </trkpt>
      <trkpt lat="43.22563" lon="6.44787">
        <ele>87.6171875</ele>
        <time>2011-10-02T08:34:23Z</time>
      </trkpt>
      <trkpt lat="43.22562" lon="6.44788">
        <ele>87.6171875</ele>
        <time>2011-10-02T08:34:24Z</time>
      </trkpt>
      <trkpt lat="43.22564" lon="6.44801">
        <ele>87.136596679688</ele>
        <time>2011-10-02T08:34:29Z</time>
      </trkpt>
      <trkpt lat="43.22567" lon="6.44803">
        <ele>87.6171875</ele>
        <time>2011-10-02T08:34:30Z</time>
      </trkpt>
      <trkpt lat="43.22586" lon="6.44812">
        <ele>83.77197265625</ele>
        <time>2011-10-02T08:34:36Z</time>
      </trkpt>
      <trkpt lat="43.22596" lon="6.44821">
        <ele>79.446044921875</ele>
        <time>2011-10-02T08:34:41Z</time>
      </trkpt>
      <trkpt lat="43.22597" lon="6.44823">
        <ele>78.484741210938</ele>
        <time>2011-10-02T08:34:42Z</time>
      </trkpt>
      <trkpt lat="43.22601" lon="6.44828">
        <ele>77.042846679688</ele>
        <time>2011-10-02T08:34:48Z</time>
      </trkpt>
      <trkpt lat="43.22607" lon="6.44836">
        <ele>73.197631835938</ele>
        <time>2011-10-02T08:34:53Z</time>
      </trkpt>
      <trkpt lat="43.22618" lon="6.44851">
        <ele>68.87158203125</ele>
        <time>2011-10-02T08:34:57Z</time>
      </trkpt>
      <trkpt lat="43.2263" lon="6.44872">
        <ele>65.0263671875</ele>
        <time>2011-10-02T08:35:02Z</time>
      </trkpt>
      <trkpt lat="43.22639" lon="6.4489">
        <ele>60.700317382812</ele>
        <time>2011-10-02T08:35:06Z</time>
      </trkpt>
      <trkpt lat="43.22652" lon="6.44911">
        <ele>58.297119140625</ele>
        <time>2011-10-02T08:35:11Z</time>
      </trkpt>
      <trkpt lat="43.22661" lon="6.44924">
        <ele>58.297119140625</ele>
        <time>2011-10-02T08:35:14Z</time>
      </trkpt>
      <trkpt lat="43.22673" lon="6.4493">
        <ele>56.855102539062</ele>
        <time>2011-10-02T08:35:19Z</time>
      </trkpt>
      <trkpt lat="43.22685" lon="6.44935">
        <ele>54.932373046875</ele>
        <time>2011-10-02T08:35:24Z</time>
      </trkpt>
      <trkpt lat="43.22694" lon="6.44949">
        <ele>52.529174804688</ele>
        <time>2011-10-02T08:35:28Z</time>
      </trkpt>
      <trkpt lat="43.22694" lon="6.44959">
        <ele>51.087158203125</ele>
        <time>2011-10-02T08:35:31Z</time>
      </trkpt>
      <trkpt lat="43.22696" lon="6.44976">
        <ele>54.932373046875</ele>
        <time>2011-10-02T08:35:36Z</time>
      </trkpt>
      <trkpt lat="43.22697" lon="6.44985">
        <ele>53.97119140625</ele>
        <time>2011-10-02T08:35:38Z</time>
      </trkpt>
      <trkpt lat="43.22691" lon="6.45022">
        <ele>48.683959960938</ele>
        <time>2011-10-02T08:35:46Z</time>
      </trkpt>
      <trkpt lat="43.22687" lon="6.45049">
        <ele>47.241821289062</ele>
        <time>2011-10-02T08:35:50Z</time>
      </trkpt>
      <trkpt lat="43.22691" lon="6.45077">
        <ele>47.722534179688</ele>
        <time>2011-10-02T08:35:54Z</time>
      </trkpt>
      <trkpt lat="43.22707" lon="6.45102">
        <ele>53.009765625</ele>
        <time>2011-10-02T08:35:59Z</time>
      </trkpt>
      <trkpt lat="43.22712" lon="6.45105">
        <ele>53.490478515625</ele>
        <time>2011-10-02T08:36:00Z</time>
      </trkpt>
      <trkpt lat="43.22728" lon="6.45111">
        <ele>53.490478515625</ele>
        <time>2011-10-02T08:36:03Z</time>
      </trkpt>
      <trkpt lat="43.22755" lon="6.45119">
        <ele>51.087158203125</ele>
        <time>2011-10-02T08:36:08Z</time>
      </trkpt>
      <trkpt lat="43.22759" lon="6.45131">
        <ele>47.722534179688</ele>
        <time>2011-10-02T08:36:11Z</time>
      </trkpt>
      <trkpt lat="43.22759" lon="6.45138">
        <ele>45.799926757812</ele>
        <time>2011-10-02T08:36:13Z</time>
      </trkpt>
      <trkpt lat="43.22762" lon="6.45167">
        <ele>47.241821289062</ele>
        <time>2011-10-02T08:36:21Z</time>
      </trkpt>
      <trkpt lat="43.22762" lon="6.45191">
        <ele>45.799926757812</ele>
        <time>2011-10-02T08:36:25Z</time>
      </trkpt>
      <trkpt lat="43.22761" lon="6.45207">
        <ele>44.838623046875</ele>
        <time>2011-10-02T08:36:27Z</time>
      </trkpt>
      <trkpt lat="43.22754" lon="6.45255">
        <ele>43.877319335938</ele>
        <time>2011-10-02T08:36:32Z</time>
      </trkpt>
      <trkpt lat="43.22735" lon="6.45295">
        <ele>40.993408203125</ele>
        <time>2011-10-02T08:36:37Z</time>
      </trkpt>
      <trkpt lat="43.22729" lon="6.45299">
        <ele>40.512817382812</ele>
        <time>2011-10-02T08:36:38Z</time>
      </trkpt>
      <trkpt lat="43.22692" lon="6.45319">
        <ele>38.109375</ele>
        <time>2011-10-02T08:36:44Z</time>
      </trkpt>
      <trkpt lat="43.22687" lon="6.45321">
        <ele>37.628662109375</ele>
        <time>2011-10-02T08:36:45Z</time>
      </trkpt>
      <trkpt lat="43.22677" lon="6.45324">
        <ele>37.148071289062</ele>
        <time>2011-10-02T08:36:47Z</time>
      </trkpt>
      <trkpt lat="43.22663" lon="6.45326">
        <ele>36.66748046875</ele>
        <time>2011-10-02T08:36:50Z</time>
      </trkpt>
      <trkpt lat="43.2266" lon="6.45329">
        <ele>36.66748046875</ele>
        <time>2011-10-02T08:36:54Z</time>
      </trkpt>
      <trkpt lat="43.22661" lon="6.45335">
        <ele>34.744873046875</ele>
        <time>2011-10-02T08:37:00Z</time>
      </trkpt>
      <trkpt lat="43.22659" lon="6.45339">
        <ele>37.628662109375</ele>
        <time>2011-10-02T08:37:03Z</time>
      </trkpt>
      <trkpt lat="43.22657" lon="6.45346">
        <ele>39.070678710938</ele>
        <time>2011-10-02T08:37:09Z</time>
      </trkpt>
      <trkpt lat="43.22658" lon="6.45349">
        <ele>38.590087890625</ele>
        <time>2011-10-02T08:37:18Z</time>
      </trkpt>
      <trkpt lat="43.22656" lon="6.4535">
        <ele>37.628662109375</ele>
        <time>2011-10-02T08:37:22Z</time>
      </trkpt>
      <trkpt lat="43.22646" lon="6.4536">
        <ele>37.628662109375</ele>
        <time>2011-10-02T08:37:28Z</time>
      </trkpt>
      <trkpt lat="43.22633" lon="6.45379">
        <ele>39.070678710938</ele>
        <time>2011-10-02T08:37:34Z</time>
      </trkpt>
      <trkpt lat="43.22617" lon="6.45404">
        <ele>41.473999023438</ele>
        <time>2011-10-02T08:37:41Z</time>
      </trkpt>
      <trkpt lat="43.22594" lon="6.45424">
        <ele>41.473999023438</ele>
        <time>2011-10-02T08:37:48Z</time>
      </trkpt>
      <trkpt lat="43.22571" lon="6.45449">
        <ele>44.838623046875</ele>
        <time>2011-10-02T08:37:55Z</time>
      </trkpt>
      <trkpt lat="43.2256" lon="6.45469">
        <ele>43.877319335938</ele>
        <time>2011-10-02T08:37:59Z</time>
      </trkpt>
      <trkpt lat="43.22538" lon="6.45504">
        <ele>43.396606445312</ele>
        <time>2011-10-02T08:38:05Z</time>
      </trkpt>
      <trkpt lat="43.22512" lon="6.45551">
        <ele>42.916015625</ele>
        <time>2011-10-02T08:38:12Z</time>
      </trkpt>
      <trkpt lat="43.22491" lon="6.45591">
        <ele>42.916015625</ele>
        <time>2011-10-02T08:38:18Z</time>
      </trkpt>
      <trkpt lat="43.22468" lon="6.45629">
        <ele>42.435424804688</ele>
        <time>2011-10-02T08:38:24Z</time>
      </trkpt>
      <trkpt lat="43.22446" lon="6.45667">
        <ele>40.032104492188</ele>
        <time>2011-10-02T08:38:30Z</time>
      </trkpt>
      <trkpt lat="43.22427" lon="6.457">
        <ele>40.032104492188</ele>
        <time>2011-10-02T08:38:35Z</time>
      </trkpt>
      <trkpt lat="43.22412" lon="6.4573">
        <ele>39.55126953125</ele>
        <time>2011-10-02T08:38:40Z</time>
      </trkpt>
      <trkpt lat="43.22403" lon="6.4575">
        <ele>38.109375</ele>
        <time>2011-10-02T08:38:43Z</time>
      </trkpt>
      <trkpt lat="43.22396" lon="6.45769">
        <ele>35.7060546875</ele>
        <time>2011-10-02T08:38:46Z</time>
      </trkpt>
      <trkpt lat="43.22391" lon="6.45782">
        <ele>34.744873046875</ele>
        <time>2011-10-02T08:38:48Z</time>
      </trkpt>
      <trkpt lat="43.22382" lon="6.45803">
        <ele>33.783447265625</ele>
        <time>2011-10-02T08:38:52Z</time>
      </trkpt>
      <trkpt lat="43.22375" lon="6.4581">
        <ele>34.26416015625</ele>
        <time>2011-10-02T08:38:56Z</time>
      </trkpt>
      <trkpt lat="43.22372" lon="6.45819">
        <ele>34.26416015625</ele>
        <time>2011-10-02T08:38:59Z</time>
      </trkpt>
      <trkpt lat="43.22362" lon="6.4584">
        <ele>31.380126953125</ele>
        <time>2011-10-02T08:39:05Z</time>
      </trkpt>
      <trkpt lat="43.22359" lon="6.45844">
        <ele>31.380126953125</ele>
        <time>2011-10-02T08:39:06Z</time>
      </trkpt>
      <trkpt lat="43.2234" lon="6.45869">
        <ele>30.418823242188</ele>
        <time>2011-10-02T08:39:13Z</time>
      </trkpt>
      <trkpt lat="43.22336" lon="6.45882">
        <ele>30.418823242188</ele>
        <time>2011-10-02T08:39:17Z</time>
      </trkpt>
      <trkpt lat="43.22321" lon="6.45912">
        <ele>28.976928710938</ele>
        <time>2011-10-02T08:39:23Z</time>
      </trkpt>
      <trkpt lat="43.22301" lon="6.45947">
        <ele>28.496215820312</ele>
        <time>2011-10-02T08:39:30Z</time>
      </trkpt>
      <trkpt lat="43.22299" lon="6.45951">
        <ele>28.496215820312</ele>
        <time>2011-10-02T08:39:31Z</time>
      </trkpt>
      <trkpt lat="43.22286" lon="6.45972">
        <ele>28.976928710938</ele>
        <time>2011-10-02T08:39:36Z</time>
      </trkpt>
      <trkpt lat="43.22281" lon="6.45981">
        <ele>28.496215820312</ele>
        <time>2011-10-02T08:39:38Z</time>
      </trkpt>
      <trkpt lat="43.22277" lon="6.45992">
        <ele>28.015502929688</ele>
        <time>2011-10-02T08:39:40Z</time>
      </trkpt>
      <trkpt lat="43.22256" lon="6.46034">
        <ele>29.45751953125</ele>
        <time>2011-10-02T08:39:48Z</time>
      </trkpt>
      <trkpt lat="43.22247" lon="6.46048">
        <ele>30.418823242188</ele>
        <time>2011-10-02T08:39:51Z</time>
      </trkpt>
      <trkpt lat="43.22239" lon="6.46069">
        <ele>32.822265625</ele>
        <time>2011-10-02T08:39:55Z</time>
      </trkpt>
      <trkpt lat="43.22228" lon="6.46086">
        <ele>32.822265625</ele>
        <time>2011-10-02T08:39:59Z</time>
      </trkpt>
      <trkpt lat="43.22222" lon="6.46099">
        <ele>32.341552734375</ele>
        <time>2011-10-02T08:40:02Z</time>
      </trkpt>
      <trkpt lat="43.22223" lon="6.46117">
        <ele>32.341552734375</ele>
        <time>2011-10-02T08:40:06Z</time>
      </trkpt>
      <trkpt lat="43.22227" lon="6.46124">
        <ele>34.26416015625</ele>
        <time>2011-10-02T08:40:08Z</time>
      </trkpt>
      <trkpt lat="43.22252" lon="6.4615">
        <ele>38.590087890625</ele>
        <time>2011-10-02T08:40:18Z</time>
      </trkpt>
      <trkpt lat="43.22272" lon="6.46171">
        <ele>40.512817382812</ele>
        <time>2011-10-02T08:40:26Z</time>
      </trkpt>
      <trkpt lat="43.22295" lon="6.46192">
        <ele>38.109375</ele>
        <time>2011-10-02T08:40:35Z</time>
      </trkpt>
      <trkpt lat="43.22314" lon="6.46209">
        <ele>37.148071289062</ele>
        <time>2011-10-02T08:40:43Z</time>
      </trkpt>
      <trkpt lat="43.22335" lon="6.46228">
        <ele>38.590087890625</ele>
        <time>2011-10-02T08:40:51Z</time>
      </trkpt>
      <trkpt lat="43.22356" lon="6.46247">
        <ele>41.954711914062</ele>
        <time>2011-10-02T08:40:59Z</time>
      </trkpt>
      <trkpt lat="43.22373" lon="6.46257">
        <ele>42.916015625</ele>
        <time>2011-10-02T08:41:05Z</time>
      </trkpt>
      <trkpt lat="43.22375" lon="6.46265">
        <ele>43.877319335938</ele>
        <time>2011-10-02T08:41:09Z</time>
      </trkpt>
      <trkpt lat="43.22364" lon="6.46292">
        <ele>44.838623046875</ele>
        <time>2011-10-02T08:41:16Z</time>
      </trkpt>
      <trkpt lat="43.22349" lon="6.46323">
        <ele>44.838623046875</ele>
        <time>2011-10-02T08:41:23Z</time>
      </trkpt>
      <trkpt lat="43.22338" lon="6.46345">
        <ele>44.838623046875</ele>
        <time>2011-10-02T08:41:28Z</time>
      </trkpt>
      <trkpt lat="43.22321" lon="6.46362">
        <ele>44.838623046875</ele>
        <time>2011-10-02T08:41:33Z</time>
      </trkpt>
      <trkpt lat="43.22313" lon="6.46366">
        <ele>44.838623046875</ele>
        <time>2011-10-02T08:41:35Z</time>
      </trkpt>
      <trkpt lat="43.22303" lon="6.46378">
        <ele>46.76123046875</ele>
        <time>2011-10-02T08:41:38Z</time>
      </trkpt>
      <trkpt lat="43.22288" lon="6.46388">
        <ele>51.56787109375</ele>
        <time>2011-10-02T08:41:43Z</time>
      </trkpt>
      <trkpt lat="43.22282" lon="6.46387">
        <ele>52.529174804688</ele>
        <time>2011-10-02T08:41:45Z</time>
      </trkpt>
      <trkpt lat="43.22255" lon="6.46387">
        <ele>56.855102539062</ele>
        <time>2011-10-02T08:41:53Z</time>
      </trkpt>
      <trkpt lat="43.22242" lon="6.46398">
        <ele>59.258422851562</ele>
        <time>2011-10-02T08:41:58Z</time>
      </trkpt>
      <trkpt lat="43.22238" lon="6.46414">
        <ele>58.777709960938</ele>
        <time>2011-10-02T08:42:04Z</time>
      </trkpt>
      <trkpt lat="43.2224" lon="6.46427">
        <ele>59.739135742188</ele>
        <time>2011-10-02T08:42:09Z</time>
      </trkpt>
      <trkpt lat="43.22252" lon="6.46438">
        <ele>59.739135742188</ele>
        <time>2011-10-02T08:42:16Z</time>
      </trkpt>
      <trkpt lat="43.22255" lon="6.46451">
        <ele>60.2197265625</ele>
        <time>2011-10-02T08:42:21Z</time>
      </trkpt>
      <trkpt lat="43.22252" lon="6.46464">
        <ele>61.181030273438</ele>
        <time>2011-10-02T08:42:26Z</time>
      </trkpt>
      <trkpt lat="43.22249" lon="6.46479">
        <ele>62.622924804688</ele>
        <time>2011-10-02T08:42:32Z</time>
      </trkpt>
      <trkpt lat="43.22243" lon="6.46494">
        <ele>65.987670898438</ele>
        <time>2011-10-02T08:42:38Z</time>
      </trkpt>
      <trkpt lat="43.22238" lon="6.46509">
        <ele>72.716918945312</ele>
        <time>2011-10-02T08:42:45Z</time>
      </trkpt>
      <trkpt lat="43.22232" lon="6.46523">
        <ele>78.965454101562</ele>
        <time>2011-10-02T08:42:51Z</time>
      </trkpt>
      <trkpt lat="43.22228" lon="6.4654">
        <ele>79.926635742188</ele>
        <time>2011-10-02T08:42:58Z</time>
      </trkpt>
      <trkpt lat="43.22228" lon="6.46556">
        <ele>80.88818359375</ele>
        <time>2011-10-02T08:43:04Z</time>
      </trkpt>
      <trkpt lat="43.2223" lon="6.46566">
        <ele>79.446044921875</ele>
        <time>2011-10-02T08:43:09Z</time>
      </trkpt>
      <trkpt lat="43.22234" lon="6.46578">
        <ele>81.368774414062</ele>
        <time>2011-10-02T08:43:14Z</time>
      </trkpt>
      <trkpt lat="43.22239" lon="6.46589">
        <ele>82.330078125</ele>
        <time>2011-10-02T08:43:19Z</time>
      </trkpt>
      <trkpt lat="43.22244" lon="6.466">
        <ele>79.926635742188</ele>
        <time>2011-10-02T08:43:25Z</time>
      </trkpt>
      <trkpt lat="43.22246" lon="6.46604">
        <ele>79.446044921875</ele>
        <time>2011-10-02T08:43:27Z</time>
      </trkpt>
      <trkpt lat="43.22257" lon="6.46619">
        <ele>80.88818359375</ele>
        <time>2011-10-02T08:43:35Z</time>
      </trkpt>
      <trkpt lat="43.22266" lon="6.46625">
        <ele>82.810791015625</ele>
        <time>2011-10-02T08:43:41Z</time>
      </trkpt>
      <trkpt lat="43.22271" lon="6.46627">
        <ele>83.77197265625</ele>
        <time>2011-10-02T08:43:45Z</time>
      </trkpt>
      <trkpt lat="43.22282" lon="6.46631">
        <ele>82.330078125</ele>
        <time>2011-10-02T08:43:50Z</time>
      </trkpt>
      <trkpt lat="43.2229" lon="6.46633">
        <ele>82.810791015625</ele>
        <time>2011-10-02T08:43:55Z</time>
      </trkpt>
      <trkpt lat="43.22301" lon="6.46639">
        <ele>85.213989257812</ele>
        <time>2011-10-02T08:44:02Z</time>
      </trkpt>
      <trkpt lat="43.22312" lon="6.46648">
        <ele>82.810791015625</ele>
        <time>2011-10-02T08:44:08Z</time>
      </trkpt>
      <trkpt lat="43.22313" lon="6.46649">
        <ele>83.291381835938</ele>
        <time>2011-10-02T08:44:09Z</time>
      </trkpt>
      <trkpt lat="43.22322" lon="6.46661">
        <ele>84.252685546875</ele>
        <time>2011-10-02T08:44:16Z</time>
      </trkpt>
      <trkpt lat="43.22325" lon="6.46664">
        <ele>84.252685546875</ele>
        <time>2011-10-02T08:44:18Z</time>
      </trkpt>
      <trkpt lat="43.22332" lon="6.46678">
        <ele>90.020629882812</ele>
        <time>2011-10-02T08:44:25Z</time>
      </trkpt>
      <trkpt lat="43.22332" lon="6.46683">
        <ele>90.020629882812</ele>
        <time>2011-10-02T08:44:27Z</time>
      </trkpt>
      <trkpt lat="43.22331" lon="6.46705">
        <ele>91.462524414062</ele>
        <time>2011-10-02T08:44:36Z</time>
      </trkpt>
      <trkpt lat="43.22332" lon="6.4672">
        <ele>95.788452148438</ele>
        <time>2011-10-02T08:44:42Z</time>
      </trkpt>
      <trkpt lat="43.22332" lon="6.46739">
        <ele>98.19189453125</ele>
        <time>2011-10-02T08:44:49Z</time>
      </trkpt>
      <trkpt lat="43.22333" lon="6.46753">
        <ele>101.55639648438</ele>
        <time>2011-10-02T08:44:55Z</time>
      </trkpt>
      <trkpt lat="43.22334" lon="6.46758">
        <ele>102.037109375</ele>
        <time>2011-10-02T08:44:57Z</time>
      </trkpt>
      <trkpt lat="43.22332" lon="6.46767">
        <ele>106.84362792969</ele>
        <time>2011-10-02T08:45:01Z</time>
      </trkpt>
      <trkpt lat="43.22327" lon="6.46784">
        <ele>111.65026855469</ele>
        <time>2011-10-02T08:45:08Z</time>
      </trkpt>
      <trkpt lat="43.22324" lon="6.46807">
        <ele>113.09228515625</ele>
        <time>2011-10-02T08:45:16Z</time>
      </trkpt>
      <trkpt lat="43.22322" lon="6.46824">
        <ele>110.20825195312</ele>
        <time>2011-10-02T08:45:22Z</time>
      </trkpt>
      <trkpt lat="43.22324" lon="6.46847">
        <ele>110.20825195312</ele>
        <time>2011-10-02T08:45:30Z</time>
      </trkpt>
      <trkpt lat="43.22326" lon="6.46867">
        <ele>111.65026855469</ele>
        <time>2011-10-02T08:45:38Z</time>
      </trkpt>
      <trkpt lat="43.22329" lon="6.46886">
        <ele>113.09228515625</ele>
        <time>2011-10-02T08:45:45Z</time>
      </trkpt>
      <trkpt lat="43.22331" lon="6.469">
        <ele>115.97619628906</ele>
        <time>2011-10-02T08:45:51Z</time>
      </trkpt>
      <trkpt lat="43.22332" lon="6.46905">
        <ele>116.45678710938</ele>
        <time>2011-10-02T08:45:53Z</time>
      </trkpt>
      <trkpt lat="43.22338" lon="6.4692">
        <ele>120.30212402344</ele>
        <time>2011-10-02T08:46:01Z</time>
      </trkpt>
      <trkpt lat="43.22342" lon="6.46933">
        <ele>120.30212402344</ele>
        <time>2011-10-02T08:46:07Z</time>
      </trkpt>
      <trkpt lat="43.22343" lon="6.46949">
        <ele>121.744140625</ele>
        <time>2011-10-02T08:46:14Z</time>
      </trkpt>
      <trkpt lat="43.22343" lon="6.46957">
        <ele>122.70544433594</ele>
        <time>2011-10-02T08:46:18Z</time>
      </trkpt>
      <trkpt lat="43.22346" lon="6.46974">
        <ele>123.18615722656</ele>
        <time>2011-10-02T08:46:25Z</time>
      </trkpt>
      <trkpt lat="43.22348" lon="6.46988">
        <ele>124.62805175781</ele>
        <time>2011-10-02T08:46:31Z</time>
      </trkpt>
      <trkpt lat="43.2235" lon="6.47001">
        <ele>128.47338867188</ele>
        <time>2011-10-02T08:46:37Z</time>
      </trkpt>
      <trkpt lat="43.22357" lon="6.47015">
        <ele>133.76049804688</ele>
        <time>2011-10-02T08:46:44Z</time>
      </trkpt>
      <trkpt lat="43.22368" lon="6.47024">
        <ele>138.08654785156</ele>
        <time>2011-10-02T08:46:52Z</time>
      </trkpt>
      <trkpt lat="43.22379" lon="6.47034">
        <ele>138.08654785156</ele>
        <time>2011-10-02T08:46:58Z</time>
      </trkpt>
      <trkpt lat="43.22384" lon="6.47042">
        <ele>138.08654785156</ele>
        <time>2011-10-02T08:47:03Z</time>
      </trkpt>
      <trkpt lat="43.22389" lon="6.47052">
        <ele>140.00915527344</ele>
        <time>2011-10-02T08:47:09Z</time>
      </trkpt>
      <trkpt lat="43.22392" lon="6.47068">
        <ele>140.48986816406</ele>
        <time>2011-10-02T08:47:15Z</time>
      </trkpt>
      <trkpt lat="43.22392" lon="6.47082">
        <ele>140.97045898438</ele>
        <time>2011-10-02T08:47:20Z</time>
      </trkpt>
      <trkpt lat="43.22394" lon="6.471">
        <ele>138.08654785156</ele>
        <time>2011-10-02T08:47:26Z</time>
      </trkpt>
      <trkpt lat="43.22393" lon="6.47121">
        <ele>137.60583496094</ele>
        <time>2011-10-02T08:47:33Z</time>
      </trkpt>
      <trkpt lat="43.22392" lon="6.47137">
        <ele>140.97045898438</ele>
        <time>2011-10-02T08:47:39Z</time>
      </trkpt>
      <trkpt lat="43.22388" lon="6.47155">
        <ele>146.73840332031</ele>
        <time>2011-10-02T08:47:47Z</time>
      </trkpt>
      <trkpt lat="43.22387" lon="6.47167">
        <ele>145.77709960938</ele>
        <time>2011-10-02T08:47:52Z</time>
      </trkpt>
      <trkpt lat="43.22386" lon="6.47188">
        <ele>150.58361816406</ele>
        <time>2011-10-02T08:48:00Z</time>
      </trkpt>
      <trkpt lat="43.22387" lon="6.47206">
        <ele>152.02575683594</ele>
        <time>2011-10-02T08:48:08Z</time>
      </trkpt>
      <trkpt lat="43.22384" lon="6.47219">
        <ele>154.42895507812</ele>
        <time>2011-10-02T08:48:14Z</time>
      </trkpt>
      <trkpt lat="43.2238" lon="6.47231">
        <ele>160.19689941406</ele>
        <time>2011-10-02T08:48:20Z</time>
      </trkpt>
      <trkpt lat="43.22378" lon="6.47248">
        <ele>164.04211425781</ele>
        <time>2011-10-02T08:48:27Z</time>
      </trkpt>
      <trkpt lat="43.22379" lon="6.47262">
        <ele>167.40673828125</ele>
        <time>2011-10-02T08:48:33Z</time>
      </trkpt>
      <trkpt lat="43.22382" lon="6.47281">
        <ele>169.81005859375</ele>
        <time>2011-10-02T08:48:41Z</time>
      </trkpt>
      <trkpt lat="43.2239" lon="6.47297">
        <ele>171.25207519531</ele>
        <time>2011-10-02T08:48:49Z</time>
      </trkpt>
      <trkpt lat="43.22398" lon="6.4731">
        <ele>172.21325683594</ele>
        <time>2011-10-02T08:48:57Z</time>
      </trkpt>
      <trkpt lat="43.224" lon="6.47312">
        <ele>172.69396972656</ele>
        <time>2011-10-02T08:48:59Z</time>
      </trkpt>
      <trkpt lat="43.22406" lon="6.47323">
        <ele>173.6552734375</ele>
        <time>2011-10-02T08:49:06Z</time>
      </trkpt>
      <trkpt lat="43.2241" lon="6.47326">
        <ele>174.61657714844</ele>
        <time>2011-10-02T08:49:09Z</time>
      </trkpt>
      <trkpt lat="43.22416" lon="6.47332">
        <ele>175.57788085938</ele>
        <time>2011-10-02T08:49:14Z</time>
      </trkpt>
      <trkpt lat="43.22421" lon="6.47336">
        <ele>176.05859375</ele>
        <time>2011-10-02T08:49:18Z</time>
      </trkpt>
      <trkpt lat="43.2243" lon="6.47348">
        <ele>176.05859375</ele>
        <time>2011-10-02T08:49:26Z</time>
      </trkpt>
      <trkpt lat="43.22439" lon="6.47357">
        <ele>179.90380859375</ele>
        <time>2011-10-02T08:49:33Z</time>
      </trkpt>
      <trkpt lat="43.22445" lon="6.47369">
        <ele>182.78784179688</ele>
        <time>2011-10-02T08:49:40Z</time>
      </trkpt>
      <trkpt lat="43.22447" lon="6.47373">
        <ele>184.71057128906</ele>
        <time>2011-10-02T08:49:45Z</time>
      </trkpt>
      <trkpt lat="43.22453" lon="6.47379">
        <ele>188.07507324219</ele>
        <time>2011-10-02T08:49:50Z</time>
      </trkpt>
      <trkpt lat="43.22454" lon="6.47382">
        <ele>187.59436035156</ele>
        <time>2011-10-02T08:49:51Z</time>
      </trkpt>
      <trkpt lat="43.22459" lon="6.47405">
        <ele>186.15246582031</ele>
        <time>2011-10-02T08:49:58Z</time>
      </trkpt>
      <trkpt lat="43.22456" lon="6.47426">
        <ele>187.59436035156</ele>
        <time>2011-10-02T08:50:04Z</time>
      </trkpt>
      <trkpt lat="43.22459" lon="6.47455">
        <ele>186.63317871094</ele>
        <time>2011-10-02T08:50:13Z</time>
      </trkpt>
      <trkpt lat="43.22465" lon="6.47477">
        <ele>186.63317871094</ele>
        <time>2011-10-02T08:50:19Z</time>
      </trkpt>
      <trkpt lat="43.22472" lon="6.47506">
        <ele>187.59436035156</ele>
        <time>2011-10-02T08:50:26Z</time>
      </trkpt>
      <trkpt lat="43.22477" lon="6.47524">
        <ele>188.55578613281</ele>
        <time>2011-10-02T08:50:31Z</time>
      </trkpt>
      <trkpt lat="43.22483" lon="6.47552">
        <ele>190.958984375</ele>
        <time>2011-10-02T08:50:39Z</time>
      </trkpt>
      <trkpt lat="43.22492" lon="6.47576">
        <ele>191.92028808594</ele>
        <time>2011-10-02T08:50:47Z</time>
      </trkpt>
      <trkpt lat="43.22503" lon="6.47593">
        <ele>193.3623046875</ele>
        <time>2011-10-02T08:50:54Z</time>
      </trkpt>
      <trkpt lat="43.22509" lon="6.47609">
        <ele>193.84301757812</ele>
        <time>2011-10-02T08:51:00Z</time>
      </trkpt>
      <trkpt lat="43.22514" lon="6.47626">
        <ele>194.80432128906</ele>
        <time>2011-10-02T08:51:05Z</time>
      </trkpt>
      <trkpt lat="43.22518" lon="6.47649">
        <ele>195.765625</ele>
        <time>2011-10-02T08:51:13Z</time>
      </trkpt>
      <trkpt lat="43.22519" lon="6.47658">
        <ele>195.28491210938</ele>
        <time>2011-10-02T08:51:18Z</time>
      </trkpt>
      <trkpt lat="43.2252" lon="6.47658">
        <ele>197.20751953125</ele>
        <time>2011-10-02T08:51:27Z</time>
      </trkpt>
      <trkpt lat="43.22519" lon="6.47654">
        <ele>203.93688964844</ele>
        <time>2011-10-02T08:56:18Z</time>
      </trkpt>
      <trkpt lat="43.22517" lon="6.47655">
        <ele>199.61083984375</ele>
        <time>2011-10-02T08:56:33Z</time>
      </trkpt>
      <trkpt lat="43.22519" lon="6.47657">
        <ele>205.85949707031</ele>
        <time>2011-10-02T09:00:28Z</time>
      </trkpt>
      <trkpt lat="43.22521" lon="6.47661">
        <ele>207.30139160156</ele>
        <time>2011-10-02T09:00:53Z</time>
      </trkpt>
      <trkpt lat="43.22519" lon="6.47659">
        <ele>200.09167480469</ele>
        <time>2011-10-02T09:01:20Z</time>
      </trkpt>
      <trkpt lat="43.2252" lon="6.47663">
        <ele>199.13012695312</ele>
        <time>2011-10-02T09:01:25Z</time>
      </trkpt>
      <trkpt lat="43.2252" lon="6.47667">
        <ele>199.61083984375</ele>
        <time>2011-10-02T09:01:27Z</time>
      </trkpt>
      <trkpt lat="43.22515" lon="6.47675">
        <ele>201.05285644531</ele>
        <time>2011-10-02T09:01:33Z</time>
      </trkpt>
      <trkpt lat="43.2251" lon="6.4769">
        <ele>202.97546386719</ele>
        <time>2011-10-02T09:01:41Z</time>
      </trkpt>
      <trkpt lat="43.22506" lon="6.47703">
        <ele>203.45617675781</ele>
        <time>2011-10-02T09:01:46Z</time>
      </trkpt>
      <trkpt lat="43.22503" lon="6.47718">
        <ele>202.97546386719</ele>
        <time>2011-10-02T09:01:52Z</time>
      </trkpt>
      <trkpt lat="43.22501" lon="6.47731">
        <ele>202.97546386719</ele>
        <time>2011-10-02T09:01:58Z</time>
      </trkpt>
      <trkpt lat="43.22499" lon="6.47747">
        <ele>203.93688964844</ele>
        <time>2011-10-02T09:02:04Z</time>
      </trkpt>
      <trkpt lat="43.22498" lon="6.47762">
        <ele>205.37878417969</ele>
        <time>2011-10-02T09:02:10Z</time>
      </trkpt>
      <trkpt lat="43.22494" lon="6.47774">
        <ele>206.82067871094</ele>
        <time>2011-10-02T09:02:16Z</time>
      </trkpt>
      <trkpt lat="43.22492" lon="6.47787">
        <ele>208.74340820312</ele>
        <time>2011-10-02T09:02:22Z</time>
      </trkpt>
      <trkpt lat="43.2249" lon="6.47791">
        <ele>209.70483398438</ele>
        <time>2011-10-02T09:02:26Z</time>
      </trkpt>
      <trkpt lat="43.22486" lon="6.47805">
        <ele>211.62744140625</ele>
        <time>2011-10-02T09:02:32Z</time>
      </trkpt>
      <trkpt lat="43.22479" lon="6.47813">
        <ele>214.51123046875</ele>
        <time>2011-10-02T09:02:37Z</time>
      </trkpt>
      <trkpt lat="43.22477" lon="6.47815">
        <ele>214.99194335938</ele>
        <time>2011-10-02T09:02:38Z</time>
      </trkpt>
      <trkpt lat="43.22471" lon="6.47822">
        <ele>211.62744140625</ele>
        <time>2011-10-02T09:02:44Z</time>
      </trkpt>
      <trkpt lat="43.22475" lon="6.47826">
        <ele>198.1689453125</ele>
        <time>2011-10-02T09:03:07Z</time>
      </trkpt>
      <trkpt lat="43.22478" lon="6.47828">
        <ele>206.82067871094</ele>
        <time>2011-10-02T09:03:37Z</time>
      </trkpt>
      <trkpt lat="43.22472" lon="6.47824">
        <ele>214.99194335938</ele>
        <time>2011-10-02T09:03:50Z</time>
      </trkpt>
      <trkpt lat="43.22469" lon="6.47825">
        <ele>216.91467285156</ele>
        <time>2011-10-02T09:03:56Z</time>
      </trkpt>
      <trkpt lat="43.22468" lon="6.47826">
        <ele>217.8759765625</ele>
        <time>2011-10-02T09:03:57Z</time>
      </trkpt>
      <trkpt lat="43.22465" lon="6.47829">
        <ele>217.8759765625</ele>
        <time>2011-10-02T09:04:03Z</time>
      </trkpt>
      <trkpt lat="43.22462" lon="6.47836">
        <ele>218.35656738281</ele>
        <time>2011-10-02T09:04:10Z</time>
      </trkpt>
      <trkpt lat="43.22461" lon="6.47837">
        <ele>218.35656738281</ele>
        <time>2011-10-02T09:04:11Z</time>
      </trkpt>
      <trkpt lat="43.22449" lon="6.47841">
        <ele>222.20178222656</ele>
        <time>2011-10-02T09:04:18Z</time>
      </trkpt>
      <trkpt lat="43.22448" lon="6.47843">
        <ele>221.24060058594</ele>
        <time>2011-10-02T09:04:21Z</time>
      </trkpt>
      <trkpt lat="43.22442" lon="6.47846">
        <ele>221.24060058594</ele>
        <time>2011-10-02T09:04:28Z</time>
      </trkpt>
      <trkpt lat="43.22435" lon="6.47847">
        <ele>223.16320800781</ele>
        <time>2011-10-02T09:04:36Z</time>
      </trkpt>
      <trkpt lat="43.22433" lon="6.4785">
        <ele>227.48913574219</ele>
        <time>2011-10-02T09:04:43Z</time>
      </trkpt>
      <trkpt lat="43.2243" lon="6.47856">
        <ele>230.85375976562</ele>
        <time>2011-10-02T09:04:49Z</time>
      </trkpt>
      <trkpt lat="43.22426" lon="6.4786">
        <ele>232.29577636719</ele>
        <time>2011-10-02T09:04:55Z</time>
      </trkpt>
      <trkpt lat="43.22425" lon="6.47863">
        <ele>232.77648925781</ele>
        <time>2011-10-02T09:05:01Z</time>
      </trkpt>
      <trkpt lat="43.22421" lon="6.47866">
        <ele>232.29577636719</ele>
        <time>2011-10-02T09:05:09Z</time>
      </trkpt>
      <trkpt lat="43.22412" lon="6.4787">
        <ele>234.21838378906</ele>
        <time>2011-10-02T09:05:15Z</time>
      </trkpt>
      <trkpt lat="43.22409" lon="6.47873">
        <ele>230.373046875</ele>
        <time>2011-10-02T09:05:21Z</time>
      </trkpt>
      <trkpt lat="43.22404" lon="6.47875">
        <ele>229.41174316406</ele>
        <time>2011-10-02T09:05:26Z</time>
      </trkpt>
      <trkpt lat="43.22399" lon="6.47878">
        <ele>227.48913574219</ele>
        <time>2011-10-02T09:05:30Z</time>
      </trkpt>
      <trkpt lat="43.22393" lon="6.4788">
        <ele>226.04711914062</ele>
        <time>2011-10-02T09:05:39Z</time>
      </trkpt>
      <trkpt lat="43.22387" lon="6.47882">
        <ele>227.00854492188</ele>
        <time>2011-10-02T09:05:45Z</time>
      </trkpt>
      <trkpt lat="43.22375" lon="6.47884">
        <ele>228.93115234375</ele>
        <time>2011-10-02T09:05:50Z</time>
      </trkpt>
      <trkpt lat="43.22365" lon="6.47889">
        <ele>228.93115234375</ele>
        <time>2011-10-02T09:05:56Z</time>
      </trkpt>
      <trkpt lat="43.2236" lon="6.47891">
        <ele>228.93115234375</ele>
        <time>2011-10-02T09:05:59Z</time>
      </trkpt>
      <trkpt lat="43.22352" lon="6.47893">
        <ele>228.93115234375</ele>
        <time>2011-10-02T09:06:03Z</time>
      </trkpt>
      <trkpt lat="43.2234" lon="6.47897">
        <ele>232.77648925781</ele>
        <time>2011-10-02T09:06:09Z</time>
      </trkpt>
      <trkpt lat="43.22337" lon="6.479">
        <ele>234.69909667969</ele>
        <time>2011-10-02T09:06:11Z</time>
      </trkpt>
      <trkpt lat="43.22325" lon="6.47904">
        <ele>237.58288574219</ele>
        <time>2011-10-02T09:06:17Z</time>
      </trkpt>
      <trkpt lat="43.22314" lon="6.47911">
        <ele>238.54431152344</ele>
        <time>2011-10-02T09:06:23Z</time>
      </trkpt>
      <trkpt lat="43.22311" lon="6.47912">
        <ele>236.62170410156</ele>
        <time>2011-10-02T09:06:24Z</time>
      </trkpt>
      <trkpt lat="43.223" lon="6.4792">
        <ele>235.1796875</ele>
        <time>2011-10-02T09:06:29Z</time>
      </trkpt>
      <trkpt lat="43.22293" lon="6.47923">
        <ele>235.1796875</ele>
        <time>2011-10-02T09:06:34Z</time>
      </trkpt>
      <trkpt lat="43.22282" lon="6.47929">
        <ele>235.66027832031</ele>
        <time>2011-10-02T09:06:39Z</time>
      </trkpt>
      <trkpt lat="43.22275" lon="6.47934">
        <ele>234.21838378906</ele>
        <time>2011-10-02T09:06:43Z</time>
      </trkpt>
      <trkpt lat="43.22272" lon="6.47936">
        <ele>234.69909667969</ele>
        <time>2011-10-02T09:06:45Z</time>
      </trkpt>
      <trkpt lat="43.22258" lon="6.4794">
        <ele>234.69909667969</ele>
        <time>2011-10-02T09:06:50Z</time>
      </trkpt>
      <trkpt lat="43.22256" lon="6.4794">
        <ele>234.21838378906</ele>
        <time>2011-10-02T09:06:51Z</time>
      </trkpt>
      <trkpt lat="43.22249" lon="6.47945">
        <ele>234.21838378906</ele>
        <time>2011-10-02T09:06:56Z</time>
      </trkpt>
      <trkpt lat="43.22249" lon="6.47946">
        <ele>234.69909667969</ele>
        <time>2011-10-02T09:06:57Z</time>
      </trkpt>
      <trkpt lat="43.22248" lon="6.47948">
        <ele>234.69909667969</ele>
        <time>2011-10-02T09:06:59Z</time>
      </trkpt>
      <trkpt lat="43.22244" lon="6.47951">
        <ele>236.14099121094</ele>
        <time>2011-10-02T09:07:05Z</time>
      </trkpt>
      <trkpt lat="43.22241" lon="6.47956">
        <ele>236.14099121094</ele>
        <time>2011-10-02T09:07:10Z</time>
      </trkpt>
      <trkpt lat="43.22231" lon="6.4796">
        <ele>239.02490234375</ele>
        <time>2011-10-02T09:07:15Z</time>
      </trkpt>
      <trkpt lat="43.22219" lon="6.47964">
        <ele>237.10229492188</ele>
        <time>2011-10-02T09:07:20Z</time>
      </trkpt>
      <trkpt lat="43.2221" lon="6.47971">
        <ele>236.62170410156</ele>
        <time>2011-10-02T09:07:24Z</time>
      </trkpt>
      <trkpt lat="43.22194" lon="6.47982">
        <ele>234.21838378906</ele>
        <time>2011-10-02T09:07:28Z</time>
      </trkpt>
      <trkpt lat="43.22181" lon="6.47994">
        <ele>232.77648925781</ele>
        <time>2011-10-02T09:07:32Z</time>
      </trkpt>
      <trkpt lat="43.22178" lon="6.47996">
        <ele>233.73767089844</ele>
        <time>2011-10-02T09:07:33Z</time>
      </trkpt>
      <trkpt lat="43.22161" lon="6.48013">
        <ele>230.85375976562</ele>
        <time>2011-10-02T09:07:39Z</time>
      </trkpt>
      <trkpt lat="43.22159" lon="6.48017">
        <ele>230.85375976562</ele>
        <time>2011-10-02T09:07:41Z</time>
      </trkpt>
      <trkpt lat="43.22148" lon="6.48025">
        <ele>230.85375976562</ele>
        <time>2011-10-02T09:07:46Z</time>
      </trkpt>
      <trkpt lat="43.22137" lon="6.48031">
        <ele>233.73767089844</ele>
        <time>2011-10-02T09:07:50Z</time>
      </trkpt>
      <trkpt lat="43.22131" lon="6.48044">
        <ele>233.73767089844</ele>
        <time>2011-10-02T09:07:54Z</time>
      </trkpt>
      <trkpt lat="43.22124" lon="6.48054">
        <ele>233.25708007812</ele>
        <time>2011-10-02T09:07:58Z</time>
      </trkpt>
      <trkpt lat="43.2212" lon="6.48066">
        <ele>233.25708007812</ele>
        <time>2011-10-02T09:08:03Z</time>
      </trkpt>
      <trkpt lat="43.22118" lon="6.4807">
        <ele>236.14099121094</ele>
        <time>2011-10-02T09:08:05Z</time>
      </trkpt>
      <trkpt lat="43.22115" lon="6.48083">
        <ele>237.10229492188</ele>
        <time>2011-10-02T09:08:10Z</time>
      </trkpt>
      <trkpt lat="43.22115" lon="6.48086">
        <ele>237.10229492188</ele>
        <time>2011-10-02T09:08:11Z</time>
      </trkpt>
      <trkpt lat="43.2211" lon="6.481">
        <ele>237.10229492188</ele>
        <time>2011-10-02T09:08:15Z</time>
      </trkpt>
      <trkpt lat="43.2211" lon="6.48116">
        <ele>240.46704101562</ele>
        <time>2011-10-02T09:08:20Z</time>
      </trkpt>
      <trkpt lat="43.22108" lon="6.48119">
        <ele>241.90893554688</ele>
        <time>2011-10-02T09:08:26Z</time>
      </trkpt>
      <trkpt lat="43.22108" lon="6.48125">
        <ele>243.83154296875</ele>
        <time>2011-10-02T09:08:32Z</time>
      </trkpt>
      <trkpt lat="43.22109" lon="6.48128">
        <ele>247.19604492188</ele>
        <time>2011-10-02T09:08:39Z</time>
      </trkpt>
      <trkpt lat="43.2211" lon="6.48136">
        <ele>246.71545410156</ele>
        <time>2011-10-02T09:08:43Z</time>
      </trkpt>
      <trkpt lat="43.22112" lon="6.48145">
        <ele>249.11877441406</ele>
        <time>2011-10-02T09:08:49Z</time>
      </trkpt>
      <trkpt lat="43.22118" lon="6.48154">
        <ele>252.96398925781</ele>
        <time>2011-10-02T09:08:54Z</time>
      </trkpt>
      <trkpt lat="43.2212" lon="6.48165">
        <ele>255.36730957031</ele>
        <time>2011-10-02T09:08:59Z</time>
      </trkpt>
      <trkpt lat="43.22122" lon="6.48177">
        <ele>250.08020019531</ele>
        <time>2011-10-02T09:09:03Z</time>
      </trkpt>
      <trkpt lat="43.22123" lon="6.48188">
        <ele>252.00280761719</ele>
        <time>2011-10-02T09:09:09Z</time>
      </trkpt>
      <trkpt lat="43.22123" lon="6.4819">
        <ele>251.52209472656</ele>
        <time>2011-10-02T09:09:10Z</time>
      </trkpt>
      <trkpt lat="43.22123" lon="6.48195">
        <ele>253.44470214844</ele>
        <time>2011-10-02T09:09:12Z</time>
      </trkpt>
      <trkpt lat="43.22124" lon="6.48208">
        <ele>256.80932617188</ele>
        <time>2011-10-02T09:09:18Z</time>
      </trkpt>
      <trkpt lat="43.22124" lon="6.4821">
        <ele>257.77075195312</ele>
        <time>2011-10-02T09:09:23Z</time>
      </trkpt>
      <trkpt lat="43.22121" lon="6.4821">
        <ele>254.88659667969</ele>
        <time>2011-10-02T09:09:29Z</time>
      </trkpt>
      <trkpt lat="43.22124" lon="6.48207">
        <ele>252.00280761719</ele>
        <time>2011-10-02T09:09:34Z</time>
      </trkpt>
      <trkpt lat="43.2213" lon="6.48206">
        <ele>250.56079101562</ele>
        <time>2011-10-02T09:09:40Z</time>
      </trkpt>
      <trkpt lat="43.22137" lon="6.48211">
        <ele>253.44470214844</ele>
        <time>2011-10-02T09:09:46Z</time>
      </trkpt>
      <trkpt lat="43.22139" lon="6.48212">
        <ele>252.96398925781</ele>
        <time>2011-10-02T09:09:48Z</time>
      </trkpt>
      <trkpt lat="43.22149" lon="6.48219">
        <ele>256.80932617188</ele>
        <time>2011-10-02T09:09:56Z</time>
      </trkpt>
      <trkpt lat="43.22154" lon="6.48225">
        <ele>258.73193359375</ele>
        <time>2011-10-02T09:10:01Z</time>
      </trkpt>
      <trkpt lat="43.22157" lon="6.48236">
        <ele>259.693359375</ele>
        <time>2011-10-02T09:10:07Z</time>
      </trkpt>
      <trkpt lat="43.22155" lon="6.48247">
        <ele>257.77075195312</ele>
        <time>2011-10-02T09:10:12Z</time>
      </trkpt>
      <trkpt lat="43.22155" lon="6.48253">
        <ele>259.693359375</ele>
        <time>2011-10-02T09:10:15Z</time>
      </trkpt>
      <trkpt lat="43.22155" lon="6.48258">
        <ele>263.05786132812</ele>
        <time>2011-10-02T09:10:18Z</time>
      </trkpt>
      <trkpt lat="43.22162" lon="6.48268">
        <ele>266.90319824219</ele>
        <time>2011-10-02T09:10:25Z</time>
      </trkpt>
      <trkpt lat="43.22164" lon="6.48276">
        <ele>269.30651855469</ele>
        <time>2011-10-02T09:10:29Z</time>
      </trkpt>
      <trkpt lat="43.22171" lon="6.48286">
        <ele>272.1904296875</ele>
        <time>2011-10-02T09:10:36Z</time>
      </trkpt>
      <trkpt lat="43.22178" lon="6.48306">
        <ele>268.34509277344</ele>
        <time>2011-10-02T09:10:43Z</time>
      </trkpt>
      <trkpt lat="43.22182" lon="6.48306">
        <ele>269.787109375</ele>
        <time>2011-10-02T09:10:47Z</time>
      </trkpt>
      <trkpt lat="43.22194" lon="6.48292">
        <ele>271.22912597656</ele>
        <time>2011-10-02T09:10:54Z</time>
      </trkpt>
      <trkpt lat="43.22205" lon="6.48288">
        <ele>273.15185546875</ele>
        <time>2011-10-02T09:11:00Z</time>
      </trkpt>
      <trkpt lat="43.22212" lon="6.48278">
        <ele>272.1904296875</ele>
        <time>2011-10-02T09:11:06Z</time>
      </trkpt>
      <trkpt lat="43.22213" lon="6.48265">
        <ele>272.1904296875</ele>
        <time>2011-10-02T09:11:11Z</time>
      </trkpt>
      <trkpt lat="43.22214" lon="6.48252">
        <ele>271.22912597656</ele>
        <time>2011-10-02T09:11:15Z</time>
      </trkpt>
      <trkpt lat="43.22219" lon="6.48246">
        <ele>271.22912597656</ele>
        <time>2011-10-02T09:11:19Z</time>
      </trkpt>
      <trkpt lat="43.22223" lon="6.48244">
        <ele>271.70971679688</ele>
        <time>2011-10-02T09:11:21Z</time>
      </trkpt>
      <trkpt lat="43.22234" lon="6.48242">
        <ele>275.07446289062</ele>
        <time>2011-10-02T09:11:28Z</time>
      </trkpt>
      <trkpt lat="43.22244" lon="6.4823">
        <ele>273.63244628906</ele>
        <time>2011-10-02T09:11:34Z</time>
      </trkpt>
      <trkpt lat="43.22252" lon="6.48211">
        <ele>271.22912597656</ele>
        <time>2011-10-02T09:11:40Z</time>
      </trkpt>
      <trkpt lat="43.22267" lon="6.48193">
        <ele>269.30651855469</ele>
        <time>2011-10-02T09:11:47Z</time>
      </trkpt>
      <trkpt lat="43.22279" lon="6.48176">
        <ele>268.34509277344</ele>
        <time>2011-10-02T09:11:52Z</time>
      </trkpt>
      <trkpt lat="43.22298" lon="6.48148">
        <ele>266.42248535156</ele>
        <time>2011-10-02T09:12:00Z</time>
      </trkpt>
      <trkpt lat="43.22301" lon="6.48146">
        <ele>266.90319824219</ele>
        <time>2011-10-02T09:12:01Z</time>
      </trkpt>
      <trkpt lat="43.22319" lon="6.48144">
        <ele>268.82580566406</ele>
        <time>2011-10-02T09:12:07Z</time>
      </trkpt>
      <trkpt lat="43.2233" lon="6.48138">
        <ele>269.787109375</ele>
        <time>2011-10-02T09:12:11Z</time>
      </trkpt>
      <trkpt lat="43.22338" lon="6.48146">
        <ele>271.70971679688</ele>
        <time>2011-10-02T09:12:15Z</time>
      </trkpt>
      <trkpt lat="43.22343" lon="6.48174">
        <ele>270.26770019531</ele>
        <time>2011-10-02T09:12:21Z</time>
      </trkpt>
      <trkpt lat="43.22348" lon="6.48194">
        <ele>269.30651855469</ele>
        <time>2011-10-02T09:12:25Z</time>
      </trkpt>
      <trkpt lat="43.22359" lon="6.48199">
        <ele>271.22912597656</ele>
        <time>2011-10-02T09:12:30Z</time>
      </trkpt>
      <trkpt lat="43.22361" lon="6.48197">
        <ele>271.70971679688</ele>
        <time>2011-10-02T09:12:31Z</time>
      </trkpt>
      <trkpt lat="43.22377" lon="6.4818">
        <ele>268.82580566406</ele>
        <time>2011-10-02T09:12:37Z</time>
      </trkpt>
      <trkpt lat="43.22392" lon="6.48168">
        <ele>266.42248535156</ele>
        <time>2011-10-02T09:12:42Z</time>
      </trkpt>
      <trkpt lat="43.22408" lon="6.48159">
        <ele>268.34509277344</ele>
        <time>2011-10-02T09:12:47Z</time>
      </trkpt>
      <trkpt lat="43.22419" lon="6.48146">
        <ele>270.26770019531</ele>
        <time>2011-10-02T09:12:52Z</time>
      </trkpt>
      <trkpt lat="43.22427" lon="6.48134">
        <ele>271.22912597656</ele>
        <time>2011-10-02T09:12:57Z</time>
      </trkpt>
      <trkpt lat="43.22441" lon="6.48125">
        <ele>269.787109375</ele>
        <time>2011-10-02T09:13:03Z</time>
      </trkpt>
      <trkpt lat="43.22457" lon="6.4813">
        <ele>270.26770019531</ele>
        <time>2011-10-02T09:13:07Z</time>
      </trkpt>
      <trkpt lat="43.22475" lon="6.48135">
        <ele>269.787109375</ele>
        <time>2011-10-02T09:13:11Z</time>
      </trkpt>
      <trkpt lat="43.2249" lon="6.48137">
        <ele>269.30651855469</ele>
        <time>2011-10-02T09:13:15Z</time>
      </trkpt>
      <trkpt lat="43.22491" lon="6.4814">
        <ele>268.82580566406</ele>
        <time>2011-10-02T09:13:16Z</time>
      </trkpt>
      <trkpt lat="43.22502" lon="6.48163">
        <ele>268.82580566406</ele>
        <time>2011-10-02T09:13:22Z</time>
      </trkpt>
      <trkpt lat="43.22509" lon="6.48183">
        <ele>269.30651855469</ele>
        <time>2011-10-02T09:13:27Z</time>
      </trkpt>
      <trkpt lat="43.2251" lon="6.4821">
        <ele>268.34509277344</ele>
        <time>2011-10-02T09:13:31Z</time>
      </trkpt>
      <trkpt lat="43.22506" lon="6.48243">
        <ele>267.38391113281</ele>
        <time>2011-10-02T09:13:36Z</time>
      </trkpt>
      <trkpt lat="43.22501" lon="6.4826">
        <ele>266.42248535156</ele>
        <time>2011-10-02T09:13:39Z</time>
      </trkpt>
      <trkpt lat="43.22501" lon="6.4828">
        <ele>263.53857421875</ele>
        <time>2011-10-02T09:13:43Z</time>
      </trkpt>
      <trkpt lat="43.22503" lon="6.48297">
        <ele>262.09655761719</ele>
        <time>2011-10-02T09:13:46Z</time>
      </trkpt>
      <trkpt lat="43.22506" lon="6.48322">
        <ele>260.17395019531</ele>
        <time>2011-10-02T09:13:51Z</time>
      </trkpt>
      <trkpt lat="43.22509" lon="6.48344">
        <ele>260.65454101562</ele>
        <time>2011-10-02T09:13:55Z</time>
      </trkpt>
      <trkpt lat="43.22512" lon="6.48362">
        <ele>259.693359375</ele>
        <time>2011-10-02T09:13:59Z</time>
      </trkpt>
      <trkpt lat="43.22514" lon="6.48373">
        <ele>257.2900390625</ele>
        <time>2011-10-02T09:14:02Z</time>
      </trkpt>
      <trkpt lat="43.22511" lon="6.48399">
        <ele>255.84802246094</ele>
        <time>2011-10-02T09:14:07Z</time>
      </trkpt>
      <trkpt lat="43.22512" lon="6.48422">
        <ele>253.92541503906</ele>
        <time>2011-10-02T09:14:12Z</time>
      </trkpt>
      <trkpt lat="43.22513" lon="6.48439">
        <ele>253.92541503906</ele>
        <time>2011-10-02T09:14:17Z</time>
      </trkpt>
      <trkpt lat="43.22507" lon="6.48464">
        <ele>252.96398925781</ele>
        <time>2011-10-02T09:14:23Z</time>
      </trkpt>
      <trkpt lat="43.22502" lon="6.48481">
        <ele>251.52209472656</ele>
        <time>2011-10-02T09:14:28Z</time>
      </trkpt>
      <trkpt lat="43.22496" lon="6.48504">
        <ele>247.19604492188</ele>
        <time>2011-10-02T09:14:34Z</time>
      </trkpt>
      <trkpt lat="43.22486" lon="6.48525">
        <ele>245.75415039062</ele>
        <time>2011-10-02T09:14:39Z</time>
      </trkpt>
      <trkpt lat="43.22478" lon="6.48541">
        <ele>244.79284667969</ele>
        <time>2011-10-02T09:14:43Z</time>
      </trkpt>
      <trkpt lat="43.22481" lon="6.48553">
        <ele>241.90893554688</ele>
        <time>2011-10-02T09:14:48Z</time>
      </trkpt>
      <trkpt lat="43.22483" lon="6.48558">
        <ele>241.90893554688</ele>
        <time>2011-10-02T09:14:50Z</time>
      </trkpt>
      <trkpt lat="43.22483" lon="6.48566">
        <ele>242.3896484375</ele>
        <time>2011-10-02T09:14:54Z</time>
      </trkpt>
      <trkpt lat="43.22478" lon="6.48569">
        <ele>240.94763183594</ele>
        <time>2011-10-02T09:14:59Z</time>
      </trkpt>
      <trkpt lat="43.22474" lon="6.48569">
        <ele>241.42822265625</ele>
        <time>2011-10-02T09:15:03Z</time>
      </trkpt>
      <trkpt lat="43.22472" lon="6.48571">
        <ele>242.87023925781</ele>
        <time>2011-10-02T09:15:05Z</time>
      </trkpt>
      <trkpt lat="43.22467" lon="6.48571">
        <ele>244.31225585938</ele>
        <time>2011-10-02T09:15:12Z</time>
      </trkpt>
      <trkpt lat="43.22459" lon="6.4857">
        <ele>246.23486328125</ele>
        <time>2011-10-02T09:15:18Z</time>
      </trkpt>
      <trkpt lat="43.22457" lon="6.4857">
        <ele>247.6767578125</ele>
        <time>2011-10-02T09:15:20Z</time>
      </trkpt>
      <trkpt lat="43.22453" lon="6.48571">
        <ele>248.63818359375</ele>
        <time>2011-10-02T09:15:24Z</time>
      </trkpt>
      <trkpt lat="43.22448" lon="6.48569">
        <ele>248.15759277344</ele>
        <time>2011-10-02T09:15:32Z</time>
      </trkpt>
      <trkpt lat="43.22449" lon="6.48569">
        <ele>245.2734375</ele>
        <time>2011-10-02T09:15:50Z</time>
      </trkpt>
      <trkpt lat="43.22449" lon="6.48568">
        <ele>244.31225585938</ele>
        <time>2011-10-02T09:16:06Z</time>
      </trkpt>
      <trkpt lat="43.22446" lon="6.48566">
        <ele>237.58288574219</ele>
        <time>2011-10-02T09:17:00Z</time>
      </trkpt>
      <trkpt lat="43.22445" lon="6.48565">
        <ele>247.19604492188</ele>
        <time>2011-10-02T09:17:25Z</time>
      </trkpt>
      <trkpt lat="43.22445" lon="6.48565">
        <ele>252.00280761719</ele>
        <time>2011-10-02T09:17:41Z</time>
      </trkpt>
      <trkpt lat="43.22441" lon="6.48567">
        <ele>251.04138183594</ele>
        <time>2011-10-02T09:17:45Z</time>
      </trkpt>
      <trkpt lat="43.22435" lon="6.48569">
        <ele>249.59948730469</ele>
        <time>2011-10-02T09:17:49Z</time>
      </trkpt>
      <trkpt lat="43.2243" lon="6.48571">
        <ele>249.59948730469</ele>
        <time>2011-10-02T09:17:52Z</time>
      </trkpt>
      <trkpt lat="43.22425" lon="6.48573">
        <ele>248.63818359375</ele>
        <time>2011-10-02T09:17:56Z</time>
      </trkpt>
      <trkpt lat="43.22414" lon="6.48574">
        <ele>248.63818359375</ele>
        <time>2011-10-02T09:18:02Z</time>
      </trkpt>
      <trkpt lat="43.22404" lon="6.48574">
        <ele>250.08020019531</ele>
        <time>2011-10-02T09:18:07Z</time>
      </trkpt>
      <trkpt lat="43.22402" lon="6.48574">
        <ele>250.56079101562</ele>
        <time>2011-10-02T09:18:08Z</time>
      </trkpt>
      <trkpt lat="43.22383" lon="6.48569">
        <ele>251.04138183594</ele>
        <time>2011-10-02T09:18:15Z</time>
      </trkpt>
      <trkpt lat="43.2237" lon="6.48565">
        <ele>249.59948730469</ele>
        <time>2011-10-02T09:18:20Z</time>
      </trkpt>
      <trkpt lat="43.22364" lon="6.48562">
        <ele>251.04138183594</ele>
        <time>2011-10-02T09:18:23Z</time>
      </trkpt>
      <trkpt lat="43.22355" lon="6.48558">
        <ele>251.52209472656</ele>
        <time>2011-10-02T09:18:27Z</time>
      </trkpt>
      <trkpt lat="43.22347" lon="6.48557">
        <ele>253.44470214844</ele>
        <time>2011-10-02T09:18:31Z</time>
      </trkpt>
      <trkpt lat="43.22324" lon="6.48544">
        <ele>253.44470214844</ele>
        <time>2011-10-02T09:18:38Z</time>
      </trkpt>
      <trkpt lat="43.22308" lon="6.48539">
        <ele>254.40600585938</ele>
        <time>2011-10-02T09:18:42Z</time>
      </trkpt>
      <trkpt lat="43.22294" lon="6.4854">
        <ele>254.40600585938</ele>
        <time>2011-10-02T09:18:46Z</time>
      </trkpt>
      <trkpt lat="43.22292" lon="6.48541">
        <ele>252.00280761719</ele>
        <time>2011-10-02T09:18:48Z</time>
      </trkpt>
      <trkpt lat="43.2229" lon="6.48544">
        <ele>251.04138183594</ele>
        <time>2011-10-02T09:18:50Z</time>
      </trkpt>
      <trkpt lat="43.22283" lon="6.48541">
        <ele>252.00280761719</ele>
        <time>2011-10-02T09:18:55Z</time>
      </trkpt>
      <trkpt lat="43.22277" lon="6.48529">
        <ele>254.88659667969</ele>
        <time>2011-10-02T09:19:00Z</time>
      </trkpt>
      <trkpt lat="43.22274" lon="6.48525">
        <ele>256.80932617188</ele>
        <time>2011-10-02T09:19:02Z</time>
      </trkpt>
      <trkpt lat="43.2226" lon="6.48514">
        <ele>263.05786132812</ele>
        <time>2011-10-02T09:19:09Z</time>
      </trkpt>
      <trkpt lat="43.22251" lon="6.48503">
        <ele>263.05786132812</ele>
        <time>2011-10-02T09:19:15Z</time>
      </trkpt>
      <trkpt lat="43.22248" lon="6.48499">
        <ele>262.5771484375</ele>
        <time>2011-10-02T09:19:17Z</time>
      </trkpt>
      <trkpt lat="43.22239" lon="6.48486">
        <ele>259.21264648438</ele>
        <time>2011-10-02T09:19:22Z</time>
      </trkpt>
      <trkpt lat="43.22236" lon="6.48482">
        <ele>257.77075195312</ele>
        <time>2011-10-02T09:19:24Z</time>
      </trkpt>
      <trkpt lat="43.22235" lon="6.48468">
        <ele>260.17395019531</ele>
        <time>2011-10-02T09:19:29Z</time>
      </trkpt>
      <trkpt lat="43.22232" lon="6.48467">
        <ele>257.77075195312</ele>
        <time>2011-10-02T09:19:33Z</time>
      </trkpt>
      <trkpt lat="43.22228" lon="6.48464">
        <ele>259.21264648438</ele>
        <time>2011-10-02T09:19:39Z</time>
      </trkpt>
      <trkpt lat="43.22225" lon="6.48466">
        <ele>259.693359375</ele>
        <time>2011-10-02T09:19:42Z</time>
      </trkpt>
      <trkpt lat="43.22218" lon="6.48465">
        <ele>259.21264648438</ele>
        <time>2011-10-02T09:19:46Z</time>
      </trkpt>
      <trkpt lat="43.22211" lon="6.48467">
        <ele>259.21264648438</ele>
        <time>2011-10-02T09:19:50Z</time>
      </trkpt>
      <trkpt lat="43.22205" lon="6.48473">
        <ele>260.65454101562</ele>
        <time>2011-10-02T09:19:56Z</time>
      </trkpt>
      <trkpt lat="43.22197" lon="6.48482">
        <ele>262.5771484375</ele>
        <time>2011-10-02T09:20:01Z</time>
      </trkpt>
      <trkpt lat="43.22188" lon="6.48492">
        <ele>264.01928710938</ele>
        <time>2011-10-02T09:20:07Z</time>
      </trkpt>
      <trkpt lat="43.22184" lon="6.4851">
        <ele>264.01928710938</ele>
        <time>2011-10-02T09:20:13Z</time>
      </trkpt>
      <trkpt lat="43.22183" lon="6.48516">
        <ele>263.53857421875</ele>
        <time>2011-10-02T09:20:15Z</time>
      </trkpt>
      <trkpt lat="43.22178" lon="6.48525">
        <ele>264.01928710938</ele>
        <time>2011-10-02T09:20:19Z</time>
      </trkpt>
      <trkpt lat="43.2217" lon="6.48531">
        <ele>263.53857421875</ele>
        <time>2011-10-02T09:20:23Z</time>
      </trkpt>
      <trkpt lat="43.22159" lon="6.48536">
        <ele>263.05786132812</ele>
        <time>2011-10-02T09:20:28Z</time>
      </trkpt>
      <trkpt lat="43.22147" lon="6.48545">
        <ele>262.09655761719</ele>
        <time>2011-10-02T09:20:32Z</time>
      </trkpt>
      <trkpt lat="43.2214" lon="6.48551">
        <ele>260.17395019531</ele>
        <time>2011-10-02T09:20:35Z</time>
      </trkpt>
      <trkpt lat="43.22128" lon="6.4856">
        <ele>259.21264648438</ele>
        <time>2011-10-02T09:20:39Z</time>
      </trkpt>
      <trkpt lat="43.22123" lon="6.48558">
        <ele>259.21264648438</ele>
        <time>2011-10-02T09:20:43Z</time>
      </trkpt>
      <trkpt lat="43.22113" lon="6.48564">
        <ele>256.32873535156</ele>
        <time>2011-10-02T09:20:47Z</time>
      </trkpt>
      <trkpt lat="43.22106" lon="6.48566">
        <ele>255.36730957031</ele>
        <time>2011-10-02T09:20:50Z</time>
      </trkpt>
      <trkpt lat="43.22101" lon="6.48566">
        <ele>254.88659667969</ele>
        <time>2011-10-02T09:20:55Z</time>
      </trkpt>
      <trkpt lat="43.22098" lon="6.4857">
        <ele>255.36730957031</ele>
        <time>2011-10-02T09:20:59Z</time>
      </trkpt>
      <trkpt lat="43.22098" lon="6.48571">
        <ele>253.92541503906</ele>
        <time>2011-10-02T09:21:07Z</time>
      </trkpt>
      <trkpt lat="43.22094" lon="6.48576">
        <ele>251.52209472656</ele>
        <time>2011-10-02T09:21:11Z</time>
      </trkpt>
      <trkpt lat="43.2209" lon="6.48582">
        <ele>250.56079101562</ele>
        <time>2011-10-02T09:21:13Z</time>
      </trkpt>
      <trkpt lat="43.22091" lon="6.486">
        <ele>248.63818359375</ele>
        <time>2011-10-02T09:21:18Z</time>
      </trkpt>
      <trkpt lat="43.22095" lon="6.4861">
        <ele>249.59948730469</ele>
        <time>2011-10-02T09:21:22Z</time>
      </trkpt>
      <trkpt lat="43.22097" lon="6.48613">
        <ele>250.56079101562</ele>
        <time>2011-10-02T09:21:23Z</time>
      </trkpt>
      <trkpt lat="43.221" lon="6.48616">
        <ele>251.52209472656</ele>
        <time>2011-10-02T09:21:25Z</time>
      </trkpt>
      <trkpt lat="43.22109" lon="6.48623">
        <ele>252.96398925781</ele>
        <time>2011-10-02T09:21:31Z</time>
      </trkpt>
      <trkpt lat="43.22113" lon="6.48628">
        <ele>252.96398925781</ele>
        <time>2011-10-02T09:21:33Z</time>
      </trkpt>
      <trkpt lat="43.22119" lon="6.48633">
        <ele>253.92541503906</ele>
        <time>2011-10-02T09:21:36Z</time>
      </trkpt>
      <trkpt lat="43.22126" lon="6.4865">
        <ele>255.36730957031</ele>
        <time>2011-10-02T09:21:42Z</time>
      </trkpt>
      <trkpt lat="43.22129" lon="6.48658">
        <ele>255.84802246094</ele>
        <time>2011-10-02T09:21:44Z</time>
      </trkpt>
      <trkpt lat="43.22142" lon="6.48668">
        <ele>255.36730957031</ele>
        <time>2011-10-02T09:21:48Z</time>
      </trkpt>
      <trkpt lat="43.22155" lon="6.4868">
        <ele>254.88659667969</ele>
        <time>2011-10-02T09:21:52Z</time>
      </trkpt>
      <trkpt lat="43.22176" lon="6.48673">
        <ele>255.36730957031</ele>
        <time>2011-10-02T09:21:59Z</time>
      </trkpt>
      <trkpt lat="43.22191" lon="6.48672">
        <ele>255.36730957031</ele>
        <time>2011-10-02T09:22:04Z</time>
      </trkpt>
      <trkpt lat="43.22203" lon="6.48666">
        <ele>255.84802246094</ele>
        <time>2011-10-02T09:22:08Z</time>
      </trkpt>
      <trkpt lat="43.2222" lon="6.48667">
        <ele>256.32873535156</ele>
        <time>2011-10-02T09:22:12Z</time>
      </trkpt>
      <trkpt lat="43.22236" lon="6.48665">
        <ele>255.84802246094</ele>
        <time>2011-10-02T09:22:16Z</time>
      </trkpt>
      <trkpt lat="43.22239" lon="6.48665">
        <ele>255.84802246094</ele>
        <time>2011-10-02T09:22:17Z</time>
      </trkpt>
      <trkpt lat="43.22244" lon="6.4868">
        <ele>257.2900390625</ele>
        <time>2011-10-02T09:22:22Z</time>
      </trkpt>
      <trkpt lat="43.22243" lon="6.48698">
        <ele>259.21264648438</ele>
        <time>2011-10-02T09:22:27Z</time>
      </trkpt>
      <trkpt lat="43.22244" lon="6.48702">
        <ele>259.21264648438</ele>
        <time>2011-10-02T09:22:28Z</time>
      </trkpt>
      <trkpt lat="43.22243" lon="6.48726">
        <ele>259.21264648438</ele>
        <time>2011-10-02T09:22:33Z</time>
      </trkpt>
      <trkpt lat="43.22243" lon="6.48752">
        <ele>261.13525390625</ele>
        <time>2011-10-02T09:22:39Z</time>
      </trkpt>
      <trkpt lat="43.22248" lon="6.48782">
        <ele>261.13525390625</ele>
        <time>2011-10-02T09:22:45Z</time>
      </trkpt>
      <trkpt lat="43.22253" lon="6.488">
        <ele>261.13525390625</ele>
        <time>2011-10-02T09:22:48Z</time>
      </trkpt>
      <trkpt lat="43.22248" lon="6.4882">
        <ele>259.21264648438</ele>
        <time>2011-10-02T09:22:53Z</time>
      </trkpt>
      <trkpt lat="43.2224" lon="6.48835">
        <ele>257.2900390625</ele>
        <time>2011-10-02T09:22:57Z</time>
      </trkpt>
      <trkpt lat="43.22234" lon="6.48858">
        <ele>257.77075195312</ele>
        <time>2011-10-02T09:23:01Z</time>
      </trkpt>
      <trkpt lat="43.22222" lon="6.48887">
        <ele>259.693359375</ele>
        <time>2011-10-02T09:23:06Z</time>
      </trkpt>
      <trkpt lat="43.22212" lon="6.48899">
        <ele>261.13525390625</ele>
        <time>2011-10-02T09:23:09Z</time>
      </trkpt>
      <trkpt lat="43.22206" lon="6.48914">
        <ele>263.05786132812</ele>
        <time>2011-10-02T09:23:13Z</time>
      </trkpt>
      <trkpt lat="43.22192" lon="6.48941">
        <ele>261.13525390625</ele>
        <time>2011-10-02T09:23:19Z</time>
      </trkpt>
      <trkpt lat="43.22183" lon="6.48957">
        <ele>261.13525390625</ele>
        <time>2011-10-02T09:23:23Z</time>
      </trkpt>
      <trkpt lat="43.22174" lon="6.4898">
        <ele>260.65454101562</ele>
        <time>2011-10-02T09:23:29Z</time>
      </trkpt>
      <trkpt lat="43.22171" lon="6.48996">
        <ele>262.5771484375</ele>
        <time>2011-10-02T09:23:34Z</time>
      </trkpt>
      <trkpt lat="43.22166" lon="6.49014">
        <ele>263.53857421875</ele>
        <time>2011-10-02T09:23:39Z</time>
      </trkpt>
      <trkpt lat="43.2216" lon="6.49027">
        <ele>263.05786132812</ele>
        <time>2011-10-02T09:23:44Z</time>
      </trkpt>
      <trkpt lat="43.22157" lon="6.49039">
        <ele>263.53857421875</ele>
        <time>2011-10-02T09:23:48Z</time>
      </trkpt>
      <trkpt lat="43.22156" lon="6.49043">
        <ele>263.53857421875</ele>
        <time>2011-10-02T09:23:49Z</time>
      </trkpt>
      <trkpt lat="43.22155" lon="6.49059">
        <ele>263.53857421875</ele>
        <time>2011-10-02T09:23:54Z</time>
      </trkpt>
      <trkpt lat="43.22156" lon="6.4907">
        <ele>264.01928710938</ele>
        <time>2011-10-02T09:23:58Z</time>
      </trkpt>
      <trkpt lat="43.22155" lon="6.49082">
        <ele>264.49987792969</ele>
        <time>2011-10-02T09:24:02Z</time>
      </trkpt>
      <trkpt lat="43.22153" lon="6.49094">
        <ele>264.98059082031</ele>
        <time>2011-10-02T09:24:06Z</time>
      </trkpt>
      <trkpt lat="43.22152" lon="6.49111">
        <ele>263.53857421875</ele>
        <time>2011-10-02T09:24:13Z</time>
      </trkpt>
      <trkpt lat="43.22151" lon="6.49113">
        <ele>263.53857421875</ele>
        <time>2011-10-02T09:24:14Z</time>
      </trkpt>
      <trkpt lat="43.22147" lon="6.4913">
        <ele>263.05786132812</ele>
        <time>2011-10-02T09:24:19Z</time>
      </trkpt>
      <trkpt lat="43.22146" lon="6.49137">
        <ele>263.53857421875</ele>
        <time>2011-10-02T09:24:21Z</time>
      </trkpt>
      <trkpt lat="43.22147" lon="6.49157">
        <ele>264.98059082031</ele>
        <time>2011-10-02T09:24:26Z</time>
      </trkpt>
      <trkpt lat="43.22145" lon="6.49174">
        <ele>264.98059082031</ele>
        <time>2011-10-02T09:24:30Z</time>
      </trkpt>
      <trkpt lat="43.22142" lon="6.49193">
        <ele>266.42248535156</ele>
        <time>2011-10-02T09:24:34Z</time>
      </trkpt>
      <trkpt lat="43.2214" lon="6.49204">
        <ele>266.90319824219</ele>
        <time>2011-10-02T09:24:37Z</time>
      </trkpt>
      <trkpt lat="43.22144" lon="6.49211">
        <ele>266.90319824219</ele>
        <time>2011-10-02T09:24:41Z</time>
      </trkpt>
      <trkpt lat="43.22146" lon="6.4921">
        <ele>267.38391113281</ele>
        <time>2011-10-02T09:24:42Z</time>
      </trkpt>
      <trkpt lat="43.22155" lon="6.4921">
        <ele>266.90319824219</ele>
        <time>2011-10-02T09:24:48Z</time>
      </trkpt>
      <trkpt lat="43.22165" lon="6.49212">
        <ele>264.49987792969</ele>
        <time>2011-10-02T09:24:52Z</time>
      </trkpt>
      <trkpt lat="43.2217" lon="6.49215">
        <ele>261.61596679688</ele>
        <time>2011-10-02T09:24:54Z</time>
      </trkpt>
      <trkpt lat="43.22178" lon="6.49211">
        <ele>259.21264648438</ele>
        <time>2011-10-02T09:24:59Z</time>
      </trkpt>
      <trkpt lat="43.22182" lon="6.49207">
        <ele>257.77075195312</ele>
        <time>2011-10-02T09:25:02Z</time>
      </trkpt>
      <trkpt lat="43.22184" lon="6.49204">
        <ele>258.25134277344</ele>
        <time>2011-10-02T09:25:04Z</time>
      </trkpt>
      <trkpt lat="43.22184" lon="6.49202">
        <ele>258.73193359375</ele>
        <time>2011-10-02T09:25:06Z</time>
      </trkpt>
      <trkpt lat="43.22186" lon="6.49188">
        <ele>259.693359375</ele>
        <time>2011-10-02T09:25:11Z</time>
      </trkpt>
      <trkpt lat="43.22195" lon="6.49177">
        <ele>260.65454101562</ele>
        <time>2011-10-02T09:25:17Z</time>
      </trkpt>
      <trkpt lat="43.22199" lon="6.49171">
        <ele>261.61596679688</ele>
        <time>2011-10-02T09:25:20Z</time>
      </trkpt>
      <trkpt lat="43.22202" lon="6.49159">
        <ele>261.13525390625</ele>
        <time>2011-10-02T09:25:24Z</time>
      </trkpt>
      <trkpt lat="43.222" lon="6.49148">
        <ele>260.65454101562</ele>
        <time>2011-10-02T09:25:29Z</time>
      </trkpt>
      <trkpt lat="43.22205" lon="6.49142">
        <ele>260.65454101562</ele>
        <time>2011-10-02T09:25:34Z</time>
      </trkpt>
      <trkpt lat="43.22208" lon="6.49135">
        <ele>259.693359375</ele>
        <time>2011-10-02T09:25:38Z</time>
      </trkpt>
      <trkpt lat="43.22217" lon="6.49125">
        <ele>260.17395019531</ele>
        <time>2011-10-02T09:25:43Z</time>
      </trkpt>
      <trkpt lat="43.22219" lon="6.49119">
        <ele>261.13525390625</ele>
        <time>2011-10-02T09:25:47Z</time>
      </trkpt>
      <trkpt lat="43.2222" lon="6.49117">
        <ele>262.5771484375</ele>
        <time>2011-10-02T09:25:49Z</time>
      </trkpt>
      <trkpt lat="43.22224" lon="6.49113">
        <ele>262.09655761719</ele>
        <time>2011-10-02T09:25:52Z</time>
      </trkpt>
      <trkpt lat="43.22226" lon="6.49107">
        <ele>261.61596679688</ele>
        <time>2011-10-02T09:25:55Z</time>
      </trkpt>
      <trkpt lat="43.22231" lon="6.49092">
        <ele>263.05786132812</ele>
        <time>2011-10-02T09:26:00Z</time>
      </trkpt>
      <trkpt lat="43.22233" lon="6.49081">
        <ele>262.5771484375</ele>
        <time>2011-10-02T09:26:03Z</time>
      </trkpt>
      <trkpt lat="43.22239" lon="6.4907">
        <ele>260.17395019531</ele>
        <time>2011-10-02T09:26:07Z</time>
      </trkpt>
      <trkpt lat="43.22242" lon="6.49056">
        <ele>262.09655761719</ele>
        <time>2011-10-02T09:26:13Z</time>
      </trkpt>
      <trkpt lat="43.22246" lon="6.49047">
        <ele>263.05786132812</ele>
        <time>2011-10-02T09:26:18Z</time>
      </trkpt>
      <trkpt lat="43.2225" lon="6.4905">
        <ele>261.61596679688</ele>
        <time>2011-10-02T09:26:22Z</time>
      </trkpt>
      <trkpt lat="43.22258" lon="6.49052">
        <ele>262.09655761719</ele>
        <time>2011-10-02T09:26:27Z</time>
      </trkpt>
      <trkpt lat="43.22265" lon="6.49048">
        <ele>262.09655761719</ele>
        <time>2011-10-02T09:26:31Z</time>
      </trkpt>
      <trkpt lat="43.22281" lon="6.49043">
        <ele>261.61596679688</ele>
        <time>2011-10-02T09:26:37Z</time>
      </trkpt>
      <trkpt lat="43.22287" lon="6.49032">
        <ele>262.5771484375</ele>
        <time>2011-10-02T09:26:41Z</time>
      </trkpt>
      <trkpt lat="43.22281" lon="6.49025">
        <ele>263.53857421875</ele>
        <time>2011-10-02T09:26:45Z</time>
      </trkpt>
      <trkpt lat="43.2228" lon="6.49014">
        <ele>264.49987792969</ele>
        <time>2011-10-02T09:26:49Z</time>
      </trkpt>
      <trkpt lat="43.22282" lon="6.4901">
        <ele>264.98059082031</ele>
        <time>2011-10-02T09:26:51Z</time>
      </trkpt>
      <trkpt lat="43.22283" lon="6.48995">
        <ele>264.98059082031</ele>
        <time>2011-10-02T09:26:56Z</time>
      </trkpt>
      <trkpt lat="43.22282" lon="6.48977">
        <ele>261.61596679688</ele>
        <time>2011-10-02T09:27:00Z</time>
      </trkpt>
      <trkpt lat="43.22281" lon="6.48971">
        <ele>260.17395019531</ele>
        <time>2011-10-02T09:27:02Z</time>
      </trkpt>
      <trkpt lat="43.22281" lon="6.48963">
        <ele>260.17395019531</ele>
        <time>2011-10-02T09:27:05Z</time>
      </trkpt>
      <trkpt lat="43.22285" lon="6.48957">
        <ele>254.88659667969</ele>
        <time>2011-10-02T09:27:10Z</time>
      </trkpt>
      <trkpt lat="43.22286" lon="6.48958">
        <ele>254.40600585938</ele>
        <time>2011-10-02T09:27:11Z</time>
      </trkpt>
      <trkpt lat="43.22292" lon="6.4896">
        <ele>254.40600585938</ele>
        <time>2011-10-02T09:27:14Z</time>
      </trkpt>
      <trkpt lat="43.22307" lon="6.48967">
        <ele>255.36730957031</ele>
        <time>2011-10-02T09:27:19Z</time>
      </trkpt>
      <trkpt lat="43.22316" lon="6.48971">
        <ele>254.40600585938</ele>
        <time>2011-10-02T09:27:22Z</time>
      </trkpt>
      <trkpt lat="43.22329" lon="6.48962">
        <ele>252.00280761719</ele>
        <time>2011-10-02T09:27:27Z</time>
      </trkpt>
      <trkpt lat="43.22331" lon="6.48961">
        <ele>251.52209472656</ele>
        <time>2011-10-02T09:27:28Z</time>
      </trkpt>
      <trkpt lat="43.22342" lon="6.48956">
        <ele>249.11877441406</ele>
        <time>2011-10-02T09:27:34Z</time>
      </trkpt>
      <trkpt lat="43.22346" lon="6.48954">
        <ele>248.63818359375</ele>
        <time>2011-10-02T09:27:37Z</time>
      </trkpt>
      <trkpt lat="43.22348" lon="6.4895">
        <ele>245.2734375</ele>
        <time>2011-10-02T09:27:40Z</time>
      </trkpt>
      <trkpt lat="43.22353" lon="6.48942">
        <ele>241.42822265625</ele>
        <time>2011-10-02T09:27:44Z</time>
      </trkpt>
      <trkpt lat="43.22364" lon="6.48934">
        <ele>239.02490234375</ele>
        <time>2011-10-02T09:27:51Z</time>
      </trkpt>
      <trkpt lat="43.22368" lon="6.48932">
        <ele>238.54431152344</ele>
        <time>2011-10-02T09:27:53Z</time>
      </trkpt>
      <trkpt lat="43.22373" lon="6.48934">
        <ele>236.14099121094</ele>
        <time>2011-10-02T09:27:56Z</time>
      </trkpt>
      <trkpt lat="43.22388" lon="6.48934">
        <ele>235.1796875</ele>
        <time>2011-10-02T09:28:01Z</time>
      </trkpt>
      <trkpt lat="43.22399" lon="6.48933">
        <ele>232.77648925781</ele>
        <time>2011-10-02T09:28:05Z</time>
      </trkpt>
      <trkpt lat="43.22401" lon="6.48932">
        <ele>232.29577636719</ele>
        <time>2011-10-02T09:28:06Z</time>
      </trkpt>
      <trkpt lat="43.22407" lon="6.48929">
        <ele>227.48913574219</ele>
        <time>2011-10-02T09:28:11Z</time>
      </trkpt>
      <trkpt lat="43.22416" lon="6.48927">
        <ele>224.12451171875</ele>
        <time>2011-10-02T09:28:14Z</time>
      </trkpt>
      <trkpt lat="43.22422" lon="6.48922">
        <ele>223.64379882812</ele>
        <time>2011-10-02T09:28:19Z</time>
      </trkpt>
      <trkpt lat="43.22423" lon="6.48923">
        <ele>223.16320800781</ele>
        <time>2011-10-02T09:28:20Z</time>
      </trkpt>
      <trkpt lat="43.22427" lon="6.48926">
        <ele>220.75988769531</ele>
        <time>2011-10-02T09:28:28Z</time>
      </trkpt>
      <trkpt lat="43.22428" lon="6.48926">
        <ele>220.75988769531</ele>
        <time>2011-10-02T09:28:29Z</time>
      </trkpt>
      <trkpt lat="43.22447" lon="6.4893">
        <ele>218.35656738281</ele>
        <time>2011-10-02T09:28:35Z</time>
      </trkpt>
      <trkpt lat="43.2246" lon="6.48928">
        <ele>215.47265625</ele>
        <time>2011-10-02T09:28:40Z</time>
      </trkpt>
      <trkpt lat="43.22462" lon="6.48926">
        <ele>215.47265625</ele>
        <time>2011-10-02T09:28:41Z</time>
      </trkpt>
      <trkpt lat="43.22473" lon="6.48918">
        <ele>212.10803222656</ele>
        <time>2011-10-02T09:28:47Z</time>
      </trkpt>
      <trkpt lat="43.22482" lon="6.48913">
        <ele>209.70483398438</ele>
        <time>2011-10-02T09:28:51Z</time>
      </trkpt>
      <trkpt lat="43.22489" lon="6.48913">
        <ele>206.82067871094</ele>
        <time>2011-10-02T09:28:55Z</time>
      </trkpt>
      <trkpt lat="43.22491" lon="6.48921">
        <ele>203.93688964844</ele>
        <time>2011-10-02T09:28:59Z</time>
      </trkpt>
      <trkpt lat="43.22492" lon="6.4894">
        <ele>201.05285644531</ele>
        <time>2011-10-02T09:29:04Z</time>
      </trkpt>
      <trkpt lat="43.22492" lon="6.48955">
        <ele>202.49487304688</ele>
        <time>2011-10-02T09:29:08Z</time>
      </trkpt>
      <trkpt lat="43.22492" lon="6.48959">
        <ele>203.45617675781</ele>
        <time>2011-10-02T09:29:09Z</time>
      </trkpt>
      <trkpt lat="43.22493" lon="6.4897">
        <ele>204.41748046875</ele>
        <time>2011-10-02T09:29:14Z</time>
      </trkpt>
      <trkpt lat="43.22498" lon="6.48981">
        <ele>204.41748046875</ele>
        <time>2011-10-02T09:29:19Z</time>
      </trkpt>
      <trkpt lat="43.22505" lon="6.48988">
        <ele>205.85949707031</ele>
        <time>2011-10-02T09:29:23Z</time>
      </trkpt>
      <trkpt lat="43.22506" lon="6.48994">
        <ele>204.89807128906</ele>
        <time>2011-10-02T09:29:25Z</time>
      </trkpt>
      <trkpt lat="43.22505" lon="6.49004">
        <ele>204.41748046875</ele>
        <time>2011-10-02T09:29:30Z</time>
      </trkpt>
      <trkpt lat="43.22507" lon="6.49016">
        <ele>204.89807128906</ele>
        <time>2011-10-02T09:29:33Z</time>
      </trkpt>
      <trkpt lat="43.22511" lon="6.49021">
        <ele>206.34008789062</ele>
        <time>2011-10-02T09:29:40Z</time>
      </trkpt>
      <trkpt lat="43.22509" lon="6.49025">
        <ele>205.85949707031</ele>
        <time>2011-10-02T09:29:47Z</time>
      </trkpt>
      <trkpt lat="43.22512" lon="6.49025">
        <ele>205.85949707031</ele>
        <time>2011-10-02T09:29:54Z</time>
      </trkpt>
      <trkpt lat="43.22512" lon="6.49026">
        <ele>203.93688964844</ele>
        <time>2011-10-02T09:30:02Z</time>
      </trkpt>
      <trkpt lat="43.22512" lon="6.49027">
        <ele>202.97546386719</ele>
        <time>2011-10-02T09:30:05Z</time>
      </trkpt>
      <trkpt lat="43.22508" lon="6.49037">
        <ele>202.01428222656</ele>
        <time>2011-10-02T09:30:10Z</time>
      </trkpt>
      <trkpt lat="43.22505" lon="6.49045">
        <ele>200.572265625</ele>
        <time>2011-10-02T09:30:14Z</time>
      </trkpt>
      <trkpt lat="43.22504" lon="6.49055">
        <ele>199.61083984375</ele>
        <time>2011-10-02T09:30:19Z</time>
      </trkpt>
      <trkpt lat="43.22503" lon="6.49061">
        <ele>199.13012695312</ele>
        <time>2011-10-02T09:30:21Z</time>
      </trkpt>
      <trkpt lat="43.22506" lon="6.49069">
        <ele>192.88171386719</ele>
        <time>2011-10-02T09:30:26Z</time>
      </trkpt>
      <trkpt lat="43.2251" lon="6.4907">
        <ele>190.958984375</ele>
        <time>2011-10-02T09:30:29Z</time>
      </trkpt>
      <trkpt lat="43.22511" lon="6.49074">
        <ele>189.99768066406</ele>
        <time>2011-10-02T09:30:31Z</time>
      </trkpt>
      <trkpt lat="43.2252" lon="6.49076">
        <ele>188.07507324219</ele>
        <time>2011-10-02T09:30:37Z</time>
      </trkpt>
      <trkpt lat="43.22522" lon="6.49077">
        <ele>187.59436035156</ele>
        <time>2011-10-02T09:30:41Z</time>
      </trkpt>
      <trkpt lat="43.22526" lon="6.49077">
        <ele>185.19116210938</ele>
        <time>2011-10-02T09:30:46Z</time>
      </trkpt>
      <trkpt lat="43.22527" lon="6.4908">
        <ele>184.22985839844</ele>
        <time>2011-10-02T09:30:52Z</time>
      </trkpt>
      <trkpt lat="43.22529" lon="6.49086">
        <ele>183.7490234375</ele>
        <time>2011-10-02T09:30:56Z</time>
      </trkpt>
      <trkpt lat="43.22533" lon="6.49088">
        <ele>182.78784179688</ele>
        <time>2011-10-02T09:31:05Z</time>
      </trkpt>
      <trkpt lat="43.22535" lon="6.49094">
        <ele>179.42321777344</ele>
        <time>2011-10-02T09:31:11Z</time>
      </trkpt>
      <trkpt lat="43.2254" lon="6.49094">
        <ele>177.02001953125</ele>
        <time>2011-10-02T09:31:17Z</time>
      </trkpt>
      <trkpt lat="43.22541" lon="6.49097">
        <ele>176.05859375</ele>
        <time>2011-10-02T09:31:22Z</time>
      </trkpt>
      <trkpt lat="43.22543" lon="6.49101">
        <ele>176.05859375</ele>
        <time>2011-10-02T09:31:28Z</time>
      </trkpt>
      <trkpt lat="43.22546" lon="6.49121">
        <ele>174.13586425781</ele>
        <time>2011-10-02T09:31:34Z</time>
      </trkpt>
      <trkpt lat="43.22545" lon="6.49127">
        <ele>173.6552734375</ele>
        <time>2011-10-02T09:31:36Z</time>
      </trkpt>
      <trkpt lat="43.22544" lon="6.49136">
        <ele>173.6552734375</ele>
        <time>2011-10-02T09:31:41Z</time>
      </trkpt>
      <trkpt lat="43.22543" lon="6.49139">
        <ele>173.17468261719</ele>
        <time>2011-10-02T09:31:43Z</time>
      </trkpt>
      <trkpt lat="43.2254" lon="6.49147">
        <ele>172.21325683594</ele>
        <time>2011-10-02T09:31:50Z</time>
      </trkpt>
      <trkpt lat="43.2254" lon="6.49152">
        <ele>171.25207519531</ele>
        <time>2011-10-02T09:31:57Z</time>
      </trkpt>
      <trkpt lat="43.2254" lon="6.49153">
        <ele>170.77136230469</ele>
        <time>2011-10-02T09:31:58Z</time>
      </trkpt>
      <trkpt lat="43.22541" lon="6.49156">
        <ele>169.32946777344</ele>
        <time>2011-10-02T09:32:03Z</time>
      </trkpt>
      <trkpt lat="43.22543" lon="6.49158">
        <ele>167.40673828125</ele>
        <time>2011-10-02T09:32:08Z</time>
      </trkpt>
      <trkpt lat="43.22543" lon="6.4916">
        <ele>166.92602539062</ele>
        <time>2011-10-02T09:32:14Z</time>
      </trkpt>
      <trkpt lat="43.22543" lon="6.49161">
        <ele>166.4453125</ele>
        <time>2011-10-02T09:32:17Z</time>
      </trkpt>
      <trkpt lat="43.2255" lon="6.49172">
        <ele>161.63891601562</ele>
        <time>2011-10-02T09:32:22Z</time>
      </trkpt>
      <trkpt lat="43.22551" lon="6.49177">
        <ele>159.71618652344</ele>
        <time>2011-10-02T09:32:24Z</time>
      </trkpt>
      <trkpt lat="43.22552" lon="6.49181">
        <ele>157.79357910156</ele>
        <time>2011-10-02T09:32:29Z</time>
      </trkpt>
      <trkpt lat="43.22554" lon="6.49185">
        <ele>156.83215332031</ele>
        <time>2011-10-02T09:32:35Z</time>
      </trkpt>
      <trkpt lat="43.22558" lon="6.49188">
        <ele>155.87097167969</ele>
        <time>2011-10-02T09:32:41Z</time>
      </trkpt>
      <trkpt lat="43.22564" lon="6.49187">
        <ele>152.50634765625</ele>
        <time>2011-10-02T09:32:48Z</time>
      </trkpt>
      <trkpt lat="43.22568" lon="6.49194">
        <ele>150.10302734375</ele>
        <time>2011-10-02T09:32:55Z</time>
      </trkpt>
      <trkpt lat="43.22569" lon="6.49196">
        <ele>150.10302734375</ele>
        <time>2011-10-02T09:32:56Z</time>
      </trkpt>
      <trkpt lat="43.22575" lon="6.49207">
        <ele>146.73840332031</ele>
        <time>2011-10-02T09:33:04Z</time>
      </trkpt>
      <trkpt lat="43.22577" lon="6.49216">
        <ele>144.33520507812</ele>
        <time>2011-10-02T09:33:10Z</time>
      </trkpt>
      <trkpt lat="43.22583" lon="6.49222">
        <ele>141.93176269531</ele>
        <time>2011-10-02T09:33:16Z</time>
      </trkpt>
      <trkpt lat="43.22587" lon="6.49224">
        <ele>140.48986816406</ele>
        <time>2011-10-02T09:33:20Z</time>
      </trkpt>
      <trkpt lat="43.22588" lon="6.49234">
        <ele>138.56726074219</ele>
        <time>2011-10-02T09:33:27Z</time>
      </trkpt>
      <trkpt lat="43.22588" lon="6.49235">
        <ele>138.56726074219</ele>
        <time>2011-10-02T09:33:28Z</time>
      </trkpt>
      <trkpt lat="43.22588" lon="6.49242">
        <ele>137.60583496094</ele>
        <time>2011-10-02T09:33:34Z</time>
      </trkpt>
      <trkpt lat="43.22591" lon="6.49249">
        <ele>137.12524414062</ele>
        <time>2011-10-02T09:33:39Z</time>
      </trkpt>
      <trkpt lat="43.22592" lon="6.49254">
        <ele>138.08654785156</ele>
        <time>2011-10-02T09:33:43Z</time>
      </trkpt>
      <trkpt lat="43.22596" lon="6.49256">
        <ele>135.68310546875</ele>
        <time>2011-10-02T09:33:47Z</time>
      </trkpt>
      <trkpt lat="43.22601" lon="6.49254">
        <ele>131.35729980469</ele>
        <time>2011-10-02T09:33:54Z</time>
      </trkpt>
      <trkpt lat="43.22604" lon="6.49256">
        <ele>131.35729980469</ele>
        <time>2011-10-02T09:33:58Z</time>
      </trkpt>
      <trkpt lat="43.22607" lon="6.49261">
        <ele>130.87670898438</ele>
        <time>2011-10-02T09:34:04Z</time>
      </trkpt>
      <trkpt lat="43.22611" lon="6.49267">
        <ele>132.31860351562</ele>
        <time>2011-10-02T09:34:11Z</time>
      </trkpt>
      <trkpt lat="43.22617" lon="6.4927">
        <ele>132.79931640625</ele>
        <time>2011-10-02T09:34:17Z</time>
      </trkpt>
      <trkpt lat="43.22622" lon="6.49275">
        <ele>133.27990722656</ele>
        <time>2011-10-02T09:34:22Z</time>
      </trkpt>
      <trkpt lat="43.22624" lon="6.49278">
        <ele>132.79931640625</ele>
        <time>2011-10-02T09:34:28Z</time>
      </trkpt>
      <trkpt lat="43.22625" lon="6.49282">
        <ele>136.16394042969</ele>
        <time>2011-10-02T09:34:33Z</time>
      </trkpt>
      <trkpt lat="43.22631" lon="6.49285">
        <ele>140.48986816406</ele>
        <time>2011-10-02T09:34:41Z</time>
      </trkpt>
      <trkpt lat="43.22634" lon="6.49288">
        <ele>140.00915527344</ele>
        <time>2011-10-02T09:34:47Z</time>
      </trkpt>
      <trkpt lat="43.2264" lon="6.49291">
        <ele>141.45104980469</ele>
        <time>2011-10-02T09:34:53Z</time>
      </trkpt>
      <trkpt lat="43.22646" lon="6.49297">
        <ele>140.00915527344</ele>
        <time>2011-10-02T09:34:59Z</time>
      </trkpt>
      <trkpt lat="43.22651" lon="6.49299">
        <ele>136.64465332031</ele>
        <time>2011-10-02T09:35:06Z</time>
      </trkpt>
      <trkpt lat="43.22657" lon="6.49304">
        <ele>142.41247558594</ele>
        <time>2011-10-02T09:35:13Z</time>
      </trkpt>
      <trkpt lat="43.2266" lon="6.49306">
        <ele>145.29638671875</ele>
        <time>2011-10-02T09:35:17Z</time>
      </trkpt>
      <trkpt lat="43.22667" lon="6.49312">
        <ele>149.1416015625</ele>
        <time>2011-10-02T09:35:25Z</time>
      </trkpt>
      <trkpt lat="43.22672" lon="6.49317">
        <ele>149.62231445312</ele>
        <time>2011-10-02T09:35:32Z</time>
      </trkpt>
      <trkpt lat="43.22676" lon="6.49321">
        <ele>152.02575683594</ele>
        <time>2011-10-02T09:35:39Z</time>
      </trkpt>
      <trkpt lat="43.2268" lon="6.49325">
        <ele>152.98693847656</ele>
        <time>2011-10-02T09:35:45Z</time>
      </trkpt>
      <trkpt lat="43.2268" lon="6.49326">
        <ele>151.544921875</ele>
        <time>2011-10-02T09:35:52Z</time>
      </trkpt>
      <trkpt lat="43.22683" lon="6.49328">
        <ele>152.98693847656</ele>
        <time>2011-10-02T09:36:06Z</time>
      </trkpt>
      <trkpt lat="43.22686" lon="6.49328">
        <ele>152.98693847656</ele>
        <time>2011-10-02T09:36:22Z</time>
      </trkpt>
      <trkpt lat="43.22688" lon="6.49329">
        <ele>152.02575683594</ele>
        <time>2011-10-02T09:36:42Z</time>
      </trkpt>
      <trkpt lat="43.22687" lon="6.49329">
        <ele>153.46765136719</ele>
        <time>2011-10-02T09:36:56Z</time>
      </trkpt>
      <trkpt lat="43.22685" lon="6.4933">
        <ele>144.33520507812</ele>
        <time>2011-10-02T09:37:26Z</time>
      </trkpt>
      <trkpt lat="43.22683" lon="6.49325">
        <ele>154.42895507812</ele>
        <time>2011-10-02T09:39:35Z</time>
      </trkpt>
      <trkpt lat="43.22682" lon="6.49332">
        <ele>151.544921875</ele>
        <time>2011-10-02T09:39:47Z</time>
      </trkpt>
      <trkpt lat="43.22682" lon="6.4934">
        <ele>151.06420898438</ele>
        <time>2011-10-02T09:39:51Z</time>
      </trkpt>
      <trkpt lat="43.22682" lon="6.4935">
        <ele>152.98693847656</ele>
        <time>2011-10-02T09:39:56Z</time>
      </trkpt>
      <trkpt lat="43.22678" lon="6.49357">
        <ele>156.83215332031</ele>
        <time>2011-10-02T09:40:00Z</time>
      </trkpt>
      <trkpt lat="43.22676" lon="6.49372">
        <ele>160.19689941406</ele>
        <time>2011-10-02T09:40:07Z</time>
      </trkpt>
      <trkpt lat="43.22673" lon="6.49382">
        <ele>161.63891601562</ele>
        <time>2011-10-02T09:40:13Z</time>
      </trkpt>
      <trkpt lat="43.22673" lon="6.49386">
        <ele>162.11950683594</ele>
        <time>2011-10-02T09:40:15Z</time>
      </trkpt>
      <trkpt lat="43.22672" lon="6.49393">
        <ele>163.08081054688</ele>
        <time>2011-10-02T09:40:19Z</time>
      </trkpt>
      <trkpt lat="43.22673" lon="6.49402">
        <ele>163.08081054688</ele>
        <time>2011-10-02T09:40:24Z</time>
      </trkpt>
      <trkpt lat="43.22673" lon="6.49407">
        <ele>163.5615234375</ele>
        <time>2011-10-02T09:40:26Z</time>
      </trkpt>
      <trkpt lat="43.22673" lon="6.49429">
        <ele>162.11950683594</ele>
        <time>2011-10-02T09:40:35Z</time>
      </trkpt>
      <trkpt lat="43.22678" lon="6.49453">
        <ele>160.67749023438</ele>
        <time>2011-10-02T09:40:42Z</time>
      </trkpt>
      <trkpt lat="43.22685" lon="6.49475">
        <ele>158.75476074219</ele>
        <time>2011-10-02T09:40:47Z</time>
      </trkpt>
      <trkpt lat="43.22682" lon="6.49487">
        <ele>156.83215332031</ele>
        <time>2011-10-02T09:40:50Z</time>
      </trkpt>
      <trkpt lat="43.22684" lon="6.49514">
        <ele>153.46765136719</ele>
        <time>2011-10-02T09:40:56Z</time>
      </trkpt>
      <trkpt lat="43.22685" lon="6.49536">
        <ele>149.62231445312</ele>
        <time>2011-10-02T09:41:01Z</time>
      </trkpt>
      <trkpt lat="43.22697" lon="6.49562">
        <ele>145.29638671875</ele>
        <time>2011-10-02T09:41:07Z</time>
      </trkpt>
      <trkpt lat="43.22705" lon="6.49579">
        <ele>142.89306640625</ele>
        <time>2011-10-02T09:41:11Z</time>
      </trkpt>
      <trkpt lat="43.22713" lon="6.496">
        <ele>140.97045898438</ele>
        <time>2011-10-02T09:41:15Z</time>
      </trkpt>
      <trkpt lat="43.22721" lon="6.49613">
        <ele>139.52844238281</ele>
        <time>2011-10-02T09:41:18Z</time>
      </trkpt>
      <trkpt lat="43.22734" lon="6.49636">
        <ele>136.64465332031</ele>
        <time>2011-10-02T09:41:23Z</time>
      </trkpt>
      <trkpt lat="43.22745" lon="6.49671">
        <ele>134.2412109375</ele>
        <time>2011-10-02T09:41:29Z</time>
      </trkpt>
      <trkpt lat="43.22752" lon="6.49696">
        <ele>133.76049804688</ele>
        <time>2011-10-02T09:41:33Z</time>
      </trkpt>
      <trkpt lat="43.22766" lon="6.49718">
        <ele>132.31860351562</ele>
        <time>2011-10-02T09:41:38Z</time>
      </trkpt>
      <trkpt lat="43.22769" lon="6.49722">
        <ele>132.31860351562</ele>
        <time>2011-10-02T09:41:39Z</time>
      </trkpt>
      <trkpt lat="43.22781" lon="6.49729">
        <ele>130.87670898438</ele>
        <time>2011-10-02T09:41:42Z</time>
      </trkpt>
      <trkpt lat="43.22797" lon="6.49743">
        <ele>127.51196289062</ele>
        <time>2011-10-02T09:41:47Z</time>
      </trkpt>
      <trkpt lat="43.228" lon="6.49748">
        <ele>126.06994628906</ele>
        <time>2011-10-02T09:41:48Z</time>
      </trkpt>
      <trkpt lat="43.22814" lon="6.49769">
        <ele>123.66674804688</ele>
        <time>2011-10-02T09:41:52Z</time>
      </trkpt>
      <trkpt lat="43.22827" lon="6.4978">
        <ele>121.744140625</ele>
        <time>2011-10-02T09:41:55Z</time>
      </trkpt>
      <trkpt lat="43.22845" lon="6.49792">
        <ele>121.26354980469</ele>
        <time>2011-10-02T09:41:59Z</time>
      </trkpt>
      <trkpt lat="43.2286" lon="6.49793">
        <ele>122.22473144531</ele>
        <time>2011-10-02T09:42:03Z</time>
      </trkpt>
      <trkpt lat="43.22866" lon="6.49792">
        <ele>123.18615722656</ele>
        <time>2011-10-02T09:42:05Z</time>
      </trkpt>
      <trkpt lat="43.22884" lon="6.49782">
        <ele>125.10876464844</ele>
        <time>2011-10-02T09:42:12Z</time>
      </trkpt>
      <trkpt lat="43.22896" lon="6.49785">
        <ele>126.55065917969</ele>
        <time>2011-10-02T09:42:17Z</time>
      </trkpt>
      <trkpt lat="43.22905" lon="6.49786">
        <ele>127.03137207031</ele>
        <time>2011-10-02T09:42:21Z</time>
      </trkpt>
      <trkpt lat="43.22911" lon="6.49788">
        <ele>127.51196289062</ele>
        <time>2011-10-02T09:42:23Z</time>
      </trkpt>
      <trkpt lat="43.22937" lon="6.49792">
        <ele>125.58935546875</ele>
        <time>2011-10-02T09:42:29Z</time>
      </trkpt>
      <trkpt lat="43.22943" lon="6.49808">
        <ele>125.10876464844</ele>
        <time>2011-10-02T09:42:33Z</time>
      </trkpt>
      <trkpt lat="43.22947" lon="6.49826">
        <ele>125.10876464844</ele>
        <time>2011-10-02T09:42:38Z</time>
      </trkpt>
      <trkpt lat="43.22947" lon="6.49829">
        <ele>125.10876464844</ele>
        <time>2011-10-02T09:42:39Z</time>
      </trkpt>
      <trkpt lat="43.22946" lon="6.4984">
        <ele>125.58935546875</ele>
        <time>2011-10-02T09:42:43Z</time>
      </trkpt>
      <trkpt lat="43.22953" lon="6.49855">
        <ele>129.91528320312</ele>
        <time>2011-10-02T09:42:49Z</time>
      </trkpt>
      <trkpt lat="43.22955" lon="6.49867">
        <ele>136.16394042969</ele>
        <time>2011-10-02T09:42:55Z</time>
      </trkpt>
      <trkpt lat="43.22963" lon="6.49865">
        <ele>135.68310546875</ele>
        <time>2011-10-02T09:42:59Z</time>
      </trkpt>
      <trkpt lat="43.22966" lon="6.49872">
        <ele>135.20251464844</ele>
        <time>2011-10-02T09:43:03Z</time>
      </trkpt>
      <trkpt lat="43.22967" lon="6.49884">
        <ele>133.76049804688</ele>
        <time>2011-10-02T09:43:08Z</time>
      </trkpt>
      <trkpt lat="43.22976" lon="6.49894">
        <ele>131.837890625</ele>
        <time>2011-10-02T09:43:12Z</time>
      </trkpt>
      <trkpt lat="43.22989" lon="6.49899">
        <ele>132.79931640625</ele>
        <time>2011-10-02T09:43:16Z</time>
      </trkpt>
      <trkpt lat="43.22998" lon="6.49906">
        <ele>134.2412109375</ele>
        <time>2011-10-02T09:43:21Z</time>
      </trkpt>
      <trkpt lat="43.23001" lon="6.49908">
        <ele>133.76049804688</ele>
        <time>2011-10-02T09:43:23Z</time>
      </trkpt>
      <trkpt lat="43.23013" lon="6.49909">
        <ele>134.2412109375</ele>
        <time>2011-10-02T09:43:29Z</time>
      </trkpt>
      <trkpt lat="43.23018" lon="6.49901">
        <ele>135.20251464844</ele>
        <time>2011-10-02T09:43:34Z</time>
      </trkpt>
      <trkpt lat="43.23018" lon="6.49898">
        <ele>135.68310546875</ele>
        <time>2011-10-02T09:43:35Z</time>
      </trkpt>
      <trkpt lat="43.23019" lon="6.49885">
        <ele>135.20251464844</ele>
        <time>2011-10-02T09:43:39Z</time>
      </trkpt>
      <trkpt lat="43.23027" lon="6.4987">
        <ele>130.39599609375</ele>
        <time>2011-10-02T09:43:44Z</time>
      </trkpt>
      <trkpt lat="43.23029" lon="6.49852">
        <ele>125.10876464844</ele>
        <time>2011-10-02T09:43:50Z</time>
      </trkpt>
      <trkpt lat="43.23032" lon="6.49849">
        <ele>123.18615722656</ele>
        <time>2011-10-02T09:43:51Z</time>
      </trkpt>
      <trkpt lat="43.23039" lon="6.4984">
        <ele>120.30212402344</ele>
        <time>2011-10-02T09:43:54Z</time>
      </trkpt>
      <trkpt lat="43.2305" lon="6.49833">
        <ele>119.3408203125</ele>
        <time>2011-10-02T09:43:59Z</time>
      </trkpt>
      <trkpt lat="43.23055" lon="6.49819">
        <ele>118.37939453125</ele>
        <time>2011-10-02T09:44:04Z</time>
      </trkpt>
      <trkpt lat="43.23069" lon="6.49809">
        <ele>119.3408203125</ele>
        <time>2011-10-02T09:44:10Z</time>
      </trkpt>
      <trkpt lat="43.23071" lon="6.49808">
        <ele>119.82141113281</ele>
        <time>2011-10-02T09:44:11Z</time>
      </trkpt>
      <trkpt lat="43.23083" lon="6.4981">
        <ele>119.3408203125</ele>
        <time>2011-10-02T09:44:16Z</time>
      </trkpt>
      <trkpt lat="43.23089" lon="6.49804">
        <ele>119.82141113281</ele>
        <time>2011-10-02T09:44:19Z</time>
      </trkpt>
      <trkpt lat="43.23093" lon="6.49797">
        <ele>117.41821289062</ele>
        <time>2011-10-02T09:44:23Z</time>
      </trkpt>
      <trkpt lat="43.23104" lon="6.49787">
        <ele>115.01489257812</ele>
        <time>2011-10-02T09:44:29Z</time>
      </trkpt>
      <trkpt lat="43.2312" lon="6.49784">
        <ele>117.41821289062</ele>
        <time>2011-10-02T09:44:35Z</time>
      </trkpt>
      <trkpt lat="43.2313" lon="6.49779">
        <ele>118.86010742188</ele>
        <time>2011-10-02T09:44:39Z</time>
      </trkpt>
      <trkpt lat="43.23137" lon="6.49776">
        <ele>118.37939453125</ele>
        <time>2011-10-02T09:44:41Z</time>
      </trkpt>
      <trkpt lat="43.23155" lon="6.49773">
        <ele>120.78283691406</ele>
        <time>2011-10-02T09:44:47Z</time>
      </trkpt>
      <trkpt lat="43.23158" lon="6.49773">
        <ele>120.78283691406</ele>
        <time>2011-10-02T09:44:48Z</time>
      </trkpt>
      <trkpt lat="43.23173" lon="6.49768">
        <ele>120.30212402344</ele>
        <time>2011-10-02T09:44:54Z</time>
      </trkpt>
      <trkpt lat="43.23183" lon="6.49761">
        <ele>118.37939453125</ele>
        <time>2011-10-02T09:44:58Z</time>
      </trkpt>
      <trkpt lat="43.23193" lon="6.49756">
        <ele>117.89880371094</ele>
        <time>2011-10-02T09:45:02Z</time>
      </trkpt>
      <trkpt lat="43.23204" lon="6.4976">
        <ele>116.9375</ele>
        <time>2011-10-02T09:45:07Z</time>
      </trkpt>
      <trkpt lat="43.23214" lon="6.49768">
        <ele>118.37939453125</ele>
        <time>2011-10-02T09:45:12Z</time>
      </trkpt>
      <trkpt lat="43.23218" lon="6.49772">
        <ele>117.41821289062</ele>
        <time>2011-10-02T09:45:15Z</time>
      </trkpt>
      <trkpt lat="43.23223" lon="6.49773">
        <ele>117.41821289062</ele>
        <time>2011-10-02T09:45:17Z</time>
      </trkpt>
      <trkpt lat="43.23228" lon="6.49785">
        <ele>118.37939453125</ele>
        <time>2011-10-02T09:45:22Z</time>
      </trkpt>
      <trkpt lat="43.23228" lon="6.49787">
        <ele>118.37939453125</ele>
        <time>2011-10-02T09:45:23Z</time>
      </trkpt>
      <trkpt lat="43.23234" lon="6.49802">
        <ele>117.89880371094</ele>
        <time>2011-10-02T09:45:29Z</time>
      </trkpt>
      <trkpt lat="43.23235" lon="6.49804">
        <ele>116.9375</ele>
        <time>2011-10-02T09:45:30Z</time>
      </trkpt>
      <trkpt lat="43.23246" lon="6.49811">
        <ele>119.3408203125</ele>
        <time>2011-10-02T09:45:35Z</time>
      </trkpt>
      <trkpt lat="43.23249" lon="6.49811">
        <ele>120.30212402344</ele>
        <time>2011-10-02T09:45:36Z</time>
      </trkpt>
      <trkpt lat="43.2326" lon="6.49808">
        <ele>122.22473144531</ele>
        <time>2011-10-02T09:45:39Z</time>
      </trkpt>
      <trkpt lat="43.23281" lon="6.49825">
        <ele>115.49560546875</ele>
        <time>2011-10-02T09:45:45Z</time>
      </trkpt>
      <trkpt lat="43.2329" lon="6.49824">
        <ele>116.9375</ele>
        <time>2011-10-02T09:45:48Z</time>
      </trkpt>
      <trkpt lat="43.23293" lon="6.49819">
        <ele>117.41821289062</ele>
        <time>2011-10-02T09:45:49Z</time>
      </trkpt>
      <trkpt lat="43.23297" lon="6.49806">
        <ele>117.89880371094</ele>
        <time>2011-10-02T09:45:51Z</time>
      </trkpt>
      <trkpt lat="43.23297" lon="6.49788">
        <ele>121.744140625</ele>
        <time>2011-10-02T09:45:55Z</time>
      </trkpt>
      <trkpt lat="43.23296" lon="6.49777">
        <ele>121.26354980469</ele>
        <time>2011-10-02T09:45:59Z</time>
      </trkpt>
      <trkpt lat="43.23299" lon="6.49774">
        <ele>117.89880371094</ele>
        <time>2011-10-02T09:46:02Z</time>
      </trkpt>
      <trkpt lat="43.23307" lon="6.49789">
        <ele>111.16955566406</ele>
        <time>2011-10-02T09:46:07Z</time>
      </trkpt>
      <trkpt lat="43.23314" lon="6.4981">
        <ele>103.95971679688</ele>
        <time>2011-10-02T09:46:11Z</time>
      </trkpt>
      <trkpt lat="43.23315" lon="6.49814">
        <ele>103.47900390625</ele>
        <time>2011-10-02T09:46:12Z</time>
      </trkpt>
      <trkpt lat="43.23331" lon="6.49823">
        <ele>104.4404296875</ele>
        <time>2011-10-02T09:46:16Z</time>
      </trkpt>
      <trkpt lat="43.23344" lon="6.49826">
        <ele>103.47900390625</ele>
        <time>2011-10-02T09:46:19Z</time>
      </trkpt>
      <trkpt lat="43.23351" lon="6.49829">
        <ele>103.95971679688</ele>
        <time>2011-10-02T09:46:21Z</time>
      </trkpt>
      <trkpt lat="43.23373" lon="6.49834">
        <ele>104.92102050781</ele>
        <time>2011-10-02T09:46:27Z</time>
      </trkpt>
      <trkpt lat="43.23377" lon="6.49834">
        <ele>105.88244628906</ele>
        <time>2011-10-02T09:46:28Z</time>
      </trkpt>
      <trkpt lat="43.23388" lon="6.4983">
        <ele>106.84362792969</ele>
        <time>2011-10-02T09:46:31Z</time>
      </trkpt>
      <trkpt lat="43.23398" lon="6.49832">
        <ele>106.84362792969</ele>
        <time>2011-10-02T09:46:35Z</time>
      </trkpt>
      <trkpt lat="43.23404" lon="6.49829">
        <ele>107.80505371094</ele>
        <time>2011-10-02T09:46:37Z</time>
      </trkpt>
      <trkpt lat="43.23423" lon="6.49818">
        <ele>108.28564453125</ele>
        <time>2011-10-02T09:46:45Z</time>
      </trkpt>
      <trkpt lat="43.23434" lon="6.49814">
        <ele>108.76623535156</ele>
        <time>2011-10-02T09:46:50Z</time>
      </trkpt>
      <trkpt lat="43.23448" lon="6.49813">
        <ele>109.72766113281</ele>
        <time>2011-10-02T09:46:54Z</time>
      </trkpt>
      <trkpt lat="43.23455" lon="6.49813">
        <ele>110.68884277344</ele>
        <time>2011-10-02T09:46:56Z</time>
      </trkpt>
      <trkpt lat="43.23477" lon="6.49809">
        <ele>111.16955566406</ele>
        <time>2011-10-02T09:47:02Z</time>
      </trkpt>
      <trkpt lat="43.23481" lon="6.49809">
        <ele>111.65026855469</ele>
        <time>2011-10-02T09:47:03Z</time>
      </trkpt>
      <trkpt lat="43.2349" lon="6.49812">
        <ele>110.68884277344</ele>
        <time>2011-10-02T09:47:06Z</time>
      </trkpt>
      <trkpt lat="43.23503" lon="6.49821">
        <ele>108.28564453125</ele>
        <time>2011-10-02T09:47:11Z</time>
      </trkpt>
      <trkpt lat="43.23509" lon="6.49829">
        <ele>107.32434082031</ele>
        <time>2011-10-02T09:47:14Z</time>
      </trkpt>
      <trkpt lat="43.23509" lon="6.49833">
        <ele>106.84362792969</ele>
        <time>2011-10-02T09:47:15Z</time>
      </trkpt>
      <trkpt lat="43.23512" lon="6.49867">
        <ele>106.36303710938</ele>
        <time>2011-10-02T09:47:23Z</time>
      </trkpt>
      <trkpt lat="43.2351" lon="6.49879">
        <ele>111.16955566406</ele>
        <time>2011-10-02T09:47:27Z</time>
      </trkpt>
      <trkpt lat="43.23513" lon="6.49903">
        <ele>108.76623535156</ele>
        <time>2011-10-02T09:47:34Z</time>
      </trkpt>
      <trkpt lat="43.23515" lon="6.4992">
        <ele>104.4404296875</ele>
        <time>2011-10-02T09:47:39Z</time>
      </trkpt>
      <trkpt lat="43.23515" lon="6.49941">
        <ele>102.037109375</ele>
        <time>2011-10-02T09:47:45Z</time>
      </trkpt>
      <trkpt lat="43.23521" lon="6.4996">
        <ele>100.11450195312</ele>
        <time>2011-10-02T09:47:51Z</time>
      </trkpt>
      <trkpt lat="43.23525" lon="6.49979">
        <ele>99.6337890625</ele>
        <time>2011-10-02T09:47:56Z</time>
      </trkpt>
      <trkpt lat="43.23523" lon="6.49992">
        <ele>100.11450195312</ele>
        <time>2011-10-02T09:48:00Z</time>
      </trkpt>
      <trkpt lat="43.23522" lon="6.50004">
        <ele>100.11450195312</ele>
        <time>2011-10-02T09:48:03Z</time>
      </trkpt>
      <trkpt lat="43.23526" lon="6.50034">
        <ele>102.99829101562</ele>
        <time>2011-10-02T09:48:12Z</time>
      </trkpt>
      <trkpt lat="43.23537" lon="6.50056">
        <ele>108.76623535156</ele>
        <time>2011-10-02T09:48:18Z</time>
      </trkpt>
      <trkpt lat="43.23544" lon="6.50074">
        <ele>108.76623535156</ele>
        <time>2011-10-02T09:48:24Z</time>
      </trkpt>
      <trkpt lat="43.2354" lon="6.50087">
        <ele>107.32434082031</ele>
        <time>2011-10-02T09:48:29Z</time>
      </trkpt>
      <trkpt lat="43.23536" lon="6.50096">
        <ele>107.32434082031</ele>
        <time>2011-10-02T09:48:34Z</time>
      </trkpt>
      <trkpt lat="43.23536" lon="6.50098">
        <ele>106.84362792969</ele>
        <time>2011-10-02T09:48:35Z</time>
      </trkpt>
      <trkpt lat="43.23538" lon="6.50114">
        <ele>116.45678710938</ele>
        <time>2011-10-02T09:48:42Z</time>
      </trkpt>
      <trkpt lat="43.23537" lon="6.50135">
        <ele>122.70544433594</ele>
        <time>2011-10-02T09:48:50Z</time>
      </trkpt>
      <trkpt lat="43.23536" lon="6.50148">
        <ele>128.9541015625</ele>
        <time>2011-10-02T09:48:55Z</time>
      </trkpt>
      <trkpt lat="43.23529" lon="6.50166">
        <ele>129.43469238281</ele>
        <time>2011-10-02T09:49:02Z</time>
      </trkpt>
      <trkpt lat="43.23524" lon="6.50183">
        <ele>127.51196289062</ele>
        <time>2011-10-02T09:49:08Z</time>
      </trkpt>
      <trkpt lat="43.23521" lon="6.5019">
        <ele>127.51196289062</ele>
        <time>2011-10-02T09:49:11Z</time>
      </trkpt>
      <trkpt lat="43.23521" lon="6.50202">
        <ele>130.87670898438</ele>
        <time>2011-10-02T09:49:16Z</time>
      </trkpt>
      <trkpt lat="43.23521" lon="6.50212">
        <ele>135.20251464844</ele>
        <time>2011-10-02T09:49:20Z</time>
      </trkpt>
      <trkpt lat="43.23514" lon="6.50223">
        <ele>133.76049804688</ele>
        <time>2011-10-02T09:49:26Z</time>
      </trkpt>
      <trkpt lat="43.23504" lon="6.50235">
        <ele>132.79931640625</ele>
        <time>2011-10-02T09:49:34Z</time>
      </trkpt>
      <trkpt lat="43.23505" lon="6.50237">
        <ele>130.87670898438</ele>
        <time>2011-10-02T09:49:39Z</time>
      </trkpt>
      <trkpt lat="43.23512" lon="6.50243">
        <ele>129.91528320312</ele>
        <time>2011-10-02T09:50:48Z</time>
      </trkpt>
      <trkpt lat="43.23512" lon="6.50243">
        <ele>129.91528320312</ele>
        <time>2011-10-02T09:51:11Z</time>
      </trkpt>
      <trkpt lat="43.23512" lon="6.50244">
        <ele>135.68310546875</ele>
        <time>2011-10-02T09:52:42Z</time>
      </trkpt>
      <trkpt lat="43.23516" lon="6.50258">
        <ele>134.2412109375</ele>
        <time>2011-10-02T09:52:49Z</time>
      </trkpt>
      <trkpt lat="43.23517" lon="6.5026">
        <ele>133.76049804688</ele>
        <time>2011-10-02T09:52:50Z</time>
      </trkpt>
      <trkpt lat="43.23519" lon="6.50271">
        <ele>132.31860351562</ele>
        <time>2011-10-02T09:52:56Z</time>
      </trkpt>
      <trkpt lat="43.23521" lon="6.50282">
        <ele>131.837890625</ele>
        <time>2011-10-02T09:53:02Z</time>
      </trkpt>
      <trkpt lat="43.23525" lon="6.5029">
        <ele>134.2412109375</ele>
        <time>2011-10-02T09:53:07Z</time>
      </trkpt>
      <trkpt lat="43.23528" lon="6.50301">
        <ele>136.64465332031</ele>
        <time>2011-10-02T09:53:14Z</time>
      </trkpt>
      <trkpt lat="43.23531" lon="6.50313">
        <ele>139.0478515625</ele>
        <time>2011-10-02T09:53:20Z</time>
      </trkpt>
      <trkpt lat="43.23531" lon="6.50325">
        <ele>140.97045898438</ele>
        <time>2011-10-02T09:53:26Z</time>
      </trkpt>
      <trkpt lat="43.23532" lon="6.50342">
        <ele>143.85437011719</ele>
        <time>2011-10-02T09:53:34Z</time>
      </trkpt>
      <trkpt lat="43.23532" lon="6.50356">
        <ele>143.85437011719</ele>
        <time>2011-10-02T09:53:40Z</time>
      </trkpt>
      <trkpt lat="43.23534" lon="6.50368">
        <ele>143.37365722656</ele>
        <time>2011-10-02T09:53:45Z</time>
      </trkpt>
      <trkpt lat="43.23539" lon="6.50381">
        <ele>144.33520507812</ele>
        <time>2011-10-02T09:53:52Z</time>
      </trkpt>
      <trkpt lat="43.2354" lon="6.50383">
        <ele>144.33520507812</ele>
        <time>2011-10-02T09:53:56Z</time>
      </trkpt>
      <trkpt lat="43.23542" lon="6.50385">
        <ele>143.37365722656</ele>
        <time>2011-10-02T09:54:05Z</time>
      </trkpt>
      <trkpt lat="43.23549" lon="6.504">
        <ele>143.37365722656</ele>
        <time>2011-10-02T09:54:12Z</time>
      </trkpt>
      <trkpt lat="43.23557" lon="6.5041">
        <ele>145.77709960938</ele>
        <time>2011-10-02T09:54:19Z</time>
      </trkpt>
      <trkpt lat="43.23567" lon="6.50415">
        <ele>148.66101074219</ele>
        <time>2011-10-02T09:54:27Z</time>
      </trkpt>
      <trkpt lat="43.23574" lon="6.50419">
        <ele>149.62231445312</ele>
        <time>2011-10-02T09:54:32Z</time>
      </trkpt>
      <trkpt lat="43.23585" lon="6.50424">
        <ele>151.544921875</ele>
        <time>2011-10-02T09:54:40Z</time>
      </trkpt>
      <trkpt lat="43.23596" lon="6.50429">
        <ele>150.10302734375</ele>
        <time>2011-10-02T09:54:46Z</time>
      </trkpt>
      <trkpt lat="43.23605" lon="6.50437">
        <ele>150.58361816406</ele>
        <time>2011-10-02T09:54:52Z</time>
      </trkpt>
      <trkpt lat="43.23613" lon="6.50444">
        <ele>151.06420898438</ele>
        <time>2011-10-02T09:54:57Z</time>
      </trkpt>
      <trkpt lat="43.23616" lon="6.50447">
        <ele>150.10302734375</ele>
        <time>2011-10-02T09:54:59Z</time>
      </trkpt>
      <trkpt lat="43.2362" lon="6.50455">
        <ele>147.69970703125</ele>
        <time>2011-10-02T09:55:03Z</time>
      </trkpt>
      <trkpt lat="43.23627" lon="6.50465">
        <ele>144.81579589844</ele>
        <time>2011-10-02T09:55:08Z</time>
      </trkpt>
      <trkpt lat="43.23632" lon="6.50471">
        <ele>142.89306640625</ele>
        <time>2011-10-02T09:55:12Z</time>
      </trkpt>
      <trkpt lat="43.23635" lon="6.50475">
        <ele>139.52844238281</ele>
        <time>2011-10-02T09:55:28Z</time>
      </trkpt>
      <trkpt lat="43.23638" lon="6.5048">
        <ele>140.97045898438</ele>
        <time>2011-10-02T09:55:34Z</time>
      </trkpt>
      <trkpt lat="43.23642" lon="6.50486">
        <ele>141.93176269531</ele>
        <time>2011-10-02T09:55:37Z</time>
      </trkpt>
      <trkpt lat="43.23653" lon="6.50495">
        <ele>142.89306640625</ele>
        <time>2011-10-02T09:55:43Z</time>
      </trkpt>
      <trkpt lat="43.2366" lon="6.50499">
        <ele>143.85437011719</ele>
        <time>2011-10-02T09:55:46Z</time>
      </trkpt>
      <trkpt lat="43.23665" lon="6.50501">
        <ele>143.85437011719</ele>
        <time>2011-10-02T09:55:49Z</time>
      </trkpt>
      <trkpt lat="43.23669" lon="6.50502">
        <ele>145.77709960938</ele>
        <time>2011-10-02T09:55:55Z</time>
      </trkpt>
      <trkpt lat="43.23672" lon="6.50502">
        <ele>146.73840332031</ele>
        <time>2011-10-02T09:56:02Z</time>
      </trkpt>
      <trkpt lat="43.23675" lon="6.50502">
        <ele>146.2578125</ele>
        <time>2011-10-02T09:56:08Z</time>
      </trkpt>
      <trkpt lat="43.23679" lon="6.50503">
        <ele>146.73840332031</ele>
        <time>2011-10-02T09:56:14Z</time>
      </trkpt>
      <trkpt lat="43.23682" lon="6.50504">
        <ele>147.69970703125</ele>
        <time>2011-10-02T09:56:20Z</time>
      </trkpt>
      <trkpt lat="43.23684" lon="6.50506">
        <ele>148.18041992188</ele>
        <time>2011-10-02T09:56:24Z</time>
      </trkpt>
      <trkpt lat="43.23686" lon="6.50512">
        <ele>150.10302734375</ele>
        <time>2011-10-02T09:56:29Z</time>
      </trkpt>
      <trkpt lat="43.23686" lon="6.50513">
        <ele>150.10302734375</ele>
        <time>2011-10-02T09:56:30Z</time>
      </trkpt>
      <trkpt lat="43.23697" lon="6.5052">
        <ele>152.02575683594</ele>
        <time>2011-10-02T09:56:36Z</time>
      </trkpt>
      <trkpt lat="43.23708" lon="6.50529">
        <ele>152.02575683594</ele>
        <time>2011-10-02T09:56:43Z</time>
      </trkpt>
      <trkpt lat="43.23715" lon="6.50538">
        <ele>151.544921875</ele>
        <time>2011-10-02T09:56:47Z</time>
      </trkpt>
      <trkpt lat="43.23718" lon="6.50541">
        <ele>151.06420898438</ele>
        <time>2011-10-02T09:56:49Z</time>
      </trkpt>
      <trkpt lat="43.23721" lon="6.50557">
        <ele>146.2578125</ele>
        <time>2011-10-02T09:56:56Z</time>
      </trkpt>
      <trkpt lat="43.23724" lon="6.50573">
        <ele>142.89306640625</ele>
        <time>2011-10-02T09:57:01Z</time>
      </trkpt>
      <trkpt lat="43.23724" lon="6.50575">
        <ele>142.89306640625</ele>
        <time>2011-10-02T09:57:02Z</time>
      </trkpt>
      <trkpt lat="43.23729" lon="6.50582">
        <ele>141.45104980469</ele>
        <time>2011-10-02T09:57:06Z</time>
      </trkpt>
      <trkpt lat="43.23737" lon="6.50592">
        <ele>141.93176269531</ele>
        <time>2011-10-02T09:57:13Z</time>
      </trkpt>
      <trkpt lat="43.23739" lon="6.50594">
        <ele>145.29638671875</ele>
        <time>2011-10-02T09:57:19Z</time>
      </trkpt>
      <trkpt lat="43.23745" lon="6.50597">
        <ele>146.2578125</ele>
        <time>2011-10-02T09:57:27Z</time>
      </trkpt>
      <trkpt lat="43.23747" lon="6.50603">
        <ele>147.21899414062</ele>
        <time>2011-10-02T09:57:34Z</time>
      </trkpt>
      <trkpt lat="43.23746" lon="6.50606">
        <ele>149.1416015625</ele>
        <time>2011-10-02T09:57:40Z</time>
      </trkpt>
      <trkpt lat="43.23746" lon="6.50609">
        <ele>148.66101074219</ele>
        <time>2011-10-02T09:57:42Z</time>
      </trkpt>
      <trkpt lat="43.23748" lon="6.50623">
        <ele>149.1416015625</ele>
        <time>2011-10-02T09:57:48Z</time>
      </trkpt>
      <trkpt lat="43.23751" lon="6.50623">
        <ele>148.18041992188</ele>
        <time>2011-10-02T09:57:53Z</time>
      </trkpt>
      <trkpt lat="43.23756" lon="6.50623">
        <ele>148.18041992188</ele>
        <time>2011-10-02T09:58:01Z</time>
      </trkpt>
      <trkpt lat="43.2376" lon="6.50623">
        <ele>151.544921875</ele>
        <time>2011-10-02T09:58:09Z</time>
      </trkpt>
      <trkpt lat="43.23764" lon="6.50621">
        <ele>154.42895507812</ele>
        <time>2011-10-02T09:58:17Z</time>
      </trkpt>
      <trkpt lat="43.23766" lon="6.50618">
        <ele>153.94836425781</ele>
        <time>2011-10-02T09:58:21Z</time>
      </trkpt>
      <trkpt lat="43.23772" lon="6.50602">
        <ele>154.42895507812</ele>
        <time>2011-10-02T09:58:28Z</time>
      </trkpt>
      <trkpt lat="43.2378" lon="6.50587">
        <ele>157.31286621094</ele>
        <time>2011-10-02T09:58:35Z</time>
      </trkpt>
      <trkpt lat="43.23787" lon="6.50589">
        <ele>157.31286621094</ele>
        <time>2011-10-02T09:58:40Z</time>
      </trkpt>
      <trkpt lat="43.23791" lon="6.50587">
        <ele>157.31286621094</ele>
        <time>2011-10-02T09:58:42Z</time>
      </trkpt>
      <trkpt lat="43.23802" lon="6.50573">
        <ele>157.79357910156</ele>
        <time>2011-10-02T09:58:49Z</time>
      </trkpt>
      <trkpt lat="43.23817" lon="6.5057">
        <ele>155.87097167969</ele>
        <time>2011-10-02T09:58:54Z</time>
      </trkpt>
      <trkpt lat="43.23825" lon="6.50577">
        <ele>156.83215332031</ele>
        <time>2011-10-02T09:58:58Z</time>
      </trkpt>
      <trkpt lat="43.2384" lon="6.50574">
        <ele>156.3515625</ele>
        <time>2011-10-02T09:59:04Z</time>
      </trkpt>
      <trkpt lat="43.23841" lon="6.50573">
        <ele>156.3515625</ele>
        <time>2011-10-02T09:59:05Z</time>
      </trkpt>
      <trkpt lat="43.23853" lon="6.50575">
        <ele>153.94836425781</ele>
        <time>2011-10-02T09:59:10Z</time>
      </trkpt>
      <trkpt lat="43.23857" lon="6.5058">
        <ele>152.50634765625</ele>
        <time>2011-10-02T09:59:13Z</time>
      </trkpt>
      <trkpt lat="43.23865" lon="6.50588">
        <ele>153.94836425781</ele>
        <time>2011-10-02T09:59:18Z</time>
      </trkpt>
      <trkpt lat="43.23873" lon="6.50589">
        <ele>154.90954589844</ele>
        <time>2011-10-02T09:59:22Z</time>
      </trkpt>
      <trkpt lat="43.23881" lon="6.50592">
        <ele>155.39025878906</ele>
        <time>2011-10-02T09:59:27Z</time>
      </trkpt>
      <trkpt lat="43.23888" lon="6.50596">
        <ele>155.39025878906</ele>
        <time>2011-10-02T09:59:31Z</time>
      </trkpt>
      <trkpt lat="43.23899" lon="6.50597">
        <ele>154.42895507812</ele>
        <time>2011-10-02T09:59:38Z</time>
      </trkpt>
      <trkpt lat="43.23905" lon="6.50595">
        <ele>154.90954589844</ele>
        <time>2011-10-02T09:59:41Z</time>
      </trkpt>
      <trkpt lat="43.23919" lon="6.50598">
        <ele>153.94836425781</ele>
        <time>2011-10-02T09:59:46Z</time>
      </trkpt>
      <trkpt lat="43.23928" lon="6.50602">
        <ele>154.90954589844</ele>
        <time>2011-10-02T09:59:51Z</time>
      </trkpt>
      <trkpt lat="43.23937" lon="6.50601">
        <ele>155.39025878906</ele>
        <time>2011-10-02T09:59:55Z</time>
      </trkpt>
      <trkpt lat="43.23945" lon="6.50604">
        <ele>151.544921875</ele>
        <time>2011-10-02T10:00:01Z</time>
      </trkpt>
      <trkpt lat="43.23947" lon="6.50605">
        <ele>150.58361816406</ele>
        <time>2011-10-02T10:00:02Z</time>
      </trkpt>
      <trkpt lat="43.23956" lon="6.50615">
        <ele>146.73840332031</ele>
        <time>2011-10-02T10:00:08Z</time>
      </trkpt>
      <trkpt lat="43.23957" lon="6.50618">
        <ele>145.77709960938</ele>
        <time>2011-10-02T10:00:09Z</time>
      </trkpt>
      <trkpt lat="43.23964" lon="6.50627">
        <ele>140.97045898438</ele>
        <time>2011-10-02T10:00:14Z</time>
      </trkpt>
      <trkpt lat="43.2397" lon="6.50626">
        <ele>138.08654785156</ele>
        <time>2011-10-02T10:00:17Z</time>
      </trkpt>
      <trkpt lat="43.23978" lon="6.50636">
        <ele>130.87670898438</ele>
        <time>2011-10-02T10:00:22Z</time>
      </trkpt>
      <trkpt lat="43.23985" lon="6.50654">
        <ele>124.14733886719</ele>
        <time>2011-10-02T10:00:27Z</time>
      </trkpt>
      <trkpt lat="43.23983" lon="6.50669">
        <ele>120.30212402344</ele>
        <time>2011-10-02T10:00:32Z</time>
      </trkpt>
      <trkpt lat="43.23986" lon="6.50672">
        <ele>123.66674804688</ele>
        <time>2011-10-02T10:00:34Z</time>
      </trkpt>
      <trkpt lat="43.23987" lon="6.50686">
        <ele>121.744140625</ele>
        <time>2011-10-02T10:00:40Z</time>
      </trkpt>
      <trkpt lat="43.23989" lon="6.507">
        <ele>119.3408203125</ele>
        <time>2011-10-02T10:00:45Z</time>
      </trkpt>
      <trkpt lat="43.23993" lon="6.50717">
        <ele>116.45678710938</ele>
        <time>2011-10-02T10:00:50Z</time>
      </trkpt>
      <trkpt lat="43.24001" lon="6.50734">
        <ele>115.01489257812</ele>
        <time>2011-10-02T10:00:55Z</time>
      </trkpt>
      <trkpt lat="43.24003" lon="6.5074">
        <ele>114.5341796875</ele>
        <time>2011-10-02T10:00:58Z</time>
      </trkpt>
      <trkpt lat="43.24011" lon="6.50754">
        <ele>112.13098144531</ele>
        <time>2011-10-02T10:01:03Z</time>
      </trkpt>
      <trkpt lat="43.24014" lon="6.5077">
        <ele>114.05358886719</ele>
        <time>2011-10-02T10:01:08Z</time>
      </trkpt>
      <trkpt lat="43.24017" lon="6.50777">
        <ele>115.01489257812</ele>
        <time>2011-10-02T10:01:10Z</time>
      </trkpt>
      <trkpt lat="43.24019" lon="6.50802">
        <ele>115.49560546875</ele>
        <time>2011-10-02T10:01:17Z</time>
      </trkpt>
      <trkpt lat="43.24024" lon="6.50825">
        <ele>113.09228515625</ele>
        <time>2011-10-02T10:01:23Z</time>
      </trkpt>
      <trkpt lat="43.2403" lon="6.50845">
        <ele>108.76623535156</ele>
        <time>2011-10-02T10:01:27Z</time>
      </trkpt>
      <trkpt lat="43.24042" lon="6.50869">
        <ele>105.88244628906</ele>
        <time>2011-10-02T10:01:33Z</time>
      </trkpt>
      <trkpt lat="43.24049" lon="6.50881">
        <ele>105.40173339844</ele>
        <time>2011-10-02T10:01:37Z</time>
      </trkpt>
      <trkpt lat="43.24057" lon="6.50897">
        <ele>105.40173339844</ele>
        <time>2011-10-02T10:01:41Z</time>
      </trkpt>
      <trkpt lat="43.24062" lon="6.50906">
        <ele>105.88244628906</ele>
        <time>2011-10-02T10:01:43Z</time>
      </trkpt>
      <trkpt lat="43.24074" lon="6.50923">
        <ele>107.32434082031</ele>
        <time>2011-10-02T10:01:48Z</time>
      </trkpt>
      <trkpt lat="43.24081" lon="6.50943">
        <ele>107.32434082031</ele>
        <time>2011-10-02T10:01:53Z</time>
      </trkpt>
      <trkpt lat="43.24086" lon="6.50965">
        <ele>103.95971679688</ele>
        <time>2011-10-02T10:01:58Z</time>
      </trkpt>
      <trkpt lat="43.24089" lon="6.5099">
        <ele>103.47900390625</ele>
        <time>2011-10-02T10:02:02Z</time>
      </trkpt>
      <trkpt lat="43.24092" lon="6.51005">
        <ele>102.037109375</ele>
        <time>2011-10-02T10:02:04Z</time>
      </trkpt>
      <trkpt lat="43.24093" lon="6.51043">
        <ele>103.47900390625</ele>
        <time>2011-10-02T10:02:09Z</time>
      </trkpt>
      <trkpt lat="43.24088" lon="6.51074">
        <ele>103.47900390625</ele>
        <time>2011-10-02T10:02:14Z</time>
      </trkpt>
      <trkpt lat="43.24082" lon="6.5109">
        <ele>103.95971679688</ele>
        <time>2011-10-02T10:02:17Z</time>
      </trkpt>
      <trkpt lat="43.24077" lon="6.51108">
        <ele>103.95971679688</ele>
        <time>2011-10-02T10:02:20Z</time>
      </trkpt>
      <trkpt lat="43.24069" lon="6.5114">
        <ele>111.16955566406</ele>
        <time>2011-10-02T10:02:25Z</time>
      </trkpt>
      <trkpt lat="43.24067" lon="6.51146">
        <ele>110.20825195312</ele>
        <time>2011-10-02T10:02:26Z</time>
      </trkpt>
      <trkpt lat="43.24064" lon="6.5116">
        <ele>113.09228515625</ele>
        <time>2011-10-02T10:02:29Z</time>
      </trkpt>
      <trkpt lat="43.24061" lon="6.51177">
        <ele>113.57299804688</ele>
        <time>2011-10-02T10:02:32Z</time>
      </trkpt>
      <trkpt lat="43.24061" lon="6.51211">
        <ele>111.16955566406</ele>
        <time>2011-10-02T10:02:37Z</time>
      </trkpt>
      <trkpt lat="43.24067" lon="6.5123">
        <ele>110.68884277344</ele>
        <time>2011-10-02T10:02:40Z</time>
      </trkpt>
      <trkpt lat="43.24072" lon="6.5125">
        <ele>110.20825195312</ele>
        <time>2011-10-02T10:02:43Z</time>
      </trkpt>
      <trkpt lat="43.24084" lon="6.51302">
        <ele>105.88244628906</ele>
        <time>2011-10-02T10:02:49Z</time>
      </trkpt>
      <trkpt lat="43.24088" lon="6.51319">
        <ele>105.88244628906</ele>
        <time>2011-10-02T10:02:51Z</time>
      </trkpt>
      <trkpt lat="43.24098" lon="6.51349">
        <ele>104.92102050781</ele>
        <time>2011-10-02T10:02:55Z</time>
      </trkpt>
      <trkpt lat="43.24105" lon="6.51359">
        <ele>103.95971679688</ele>
        <time>2011-10-02T10:02:59Z</time>
      </trkpt>
      <trkpt lat="43.24105" lon="6.51359">
        <ele>104.92102050781</ele>
        <time>2011-10-02T10:03:07Z</time>
      </trkpt>
      <trkpt lat="43.24105" lon="6.51359">
        <ele>105.88244628906</ele>
        <time>2011-10-02T10:03:20Z</time>
      </trkpt>
      <trkpt lat="43.24108" lon="6.5136">
        <ele>106.84362792969</ele>
        <time>2011-10-02T10:03:41Z</time>
      </trkpt>
      <trkpt lat="43.24104" lon="6.51355">
        <ele>107.80505371094</ele>
        <time>2011-10-02T10:07:47Z</time>
      </trkpt>
      <trkpt lat="43.24101" lon="6.51349">
        <ele>107.80505371094</ele>
        <time>2011-10-02T10:07:51Z</time>
      </trkpt>
      <trkpt lat="43.24094" lon="6.51336">
        <ele>108.76623535156</ele>
        <time>2011-10-02T10:07:58Z</time>
      </trkpt>
      <trkpt lat="43.24091" lon="6.51329">
        <ele>108.76623535156</ele>
        <time>2011-10-02T10:08:02Z</time>
      </trkpt>
      <trkpt lat="43.24089" lon="6.5132">
        <ele>108.76623535156</ele>
        <time>2011-10-02T10:08:08Z</time>
      </trkpt>
      <trkpt lat="43.24088" lon="6.51313">
        <ele>107.80505371094</ele>
        <time>2011-10-02T10:08:13Z</time>
      </trkpt>
      <trkpt lat="43.24088" lon="6.5131">
        <ele>108.28564453125</ele>
        <time>2011-10-02T10:08:15Z</time>
      </trkpt>
      <trkpt lat="43.24086" lon="6.51308">
        <ele>110.20825195312</ele>
        <time>2011-10-02T10:08:24Z</time>
      </trkpt>
      <trkpt lat="43.24086" lon="6.51311">
        <ele>110.20825195312</ele>
        <time>2011-10-02T10:08:26Z</time>
      </trkpt>
      <trkpt lat="43.24092" lon="6.51333">
        <ele>111.16955566406</ele>
        <time>2011-10-02T10:08:32Z</time>
      </trkpt>
      <trkpt lat="43.241" lon="6.51353">
        <ele>107.80505371094</ele>
        <time>2011-10-02T10:08:38Z</time>
      </trkpt>
      <trkpt lat="43.24111" lon="6.51363">
        <ele>107.80505371094</ele>
        <time>2011-10-02T10:08:43Z</time>
      </trkpt>
      <trkpt lat="43.24124" lon="6.51368">
        <ele>108.28564453125</ele>
        <time>2011-10-02T10:08:48Z</time>
      </trkpt>
      <trkpt lat="43.24138" lon="6.51372">
        <ele>108.76623535156</ele>
        <time>2011-10-02T10:08:54Z</time>
      </trkpt>
      <trkpt lat="43.24149" lon="6.51382">
        <ele>107.32434082031</ele>
        <time>2011-10-02T10:09:00Z</time>
      </trkpt>
      <trkpt lat="43.24161" lon="6.51399">
        <ele>107.32434082031</ele>
        <time>2011-10-02T10:09:04Z</time>
      </trkpt>
      <trkpt lat="43.24178" lon="6.51407">
        <ele>105.88244628906</ele>
        <time>2011-10-02T10:09:07Z</time>
      </trkpt>
      <trkpt lat="43.2421" lon="6.51414">
        <ele>104.4404296875</ele>
        <time>2011-10-02T10:09:12Z</time>
      </trkpt>
      <trkpt lat="43.24223" lon="6.51418">
        <ele>103.95971679688</ele>
        <time>2011-10-02T10:09:14Z</time>
      </trkpt>
      <trkpt lat="43.24242" lon="6.51417">
        <ele>102.037109375</ele>
        <time>2011-10-02T10:09:17Z</time>
      </trkpt>
      <trkpt lat="43.2429" lon="6.51422">
        <ele>94.346557617188</ele>
        <time>2011-10-02T10:09:22Z</time>
      </trkpt>
      <trkpt lat="43.24338" lon="6.51426">
        <ele>91.462524414062</ele>
        <time>2011-10-02T10:09:27Z</time>
      </trkpt>
      <trkpt lat="43.24355" lon="6.51429">
        <ele>91.462524414062</ele>
        <time>2011-10-02T10:09:29Z</time>
      </trkpt>
      <trkpt lat="43.24387" lon="6.51427">
        <ele>92.423950195312</ele>
        <time>2011-10-02T10:09:33Z</time>
      </trkpt>
      <trkpt lat="43.24417" lon="6.51428">
        <ele>90.98193359375</ele>
        <time>2011-10-02T10:09:37Z</time>
      </trkpt>
      <trkpt lat="43.24463" lon="6.51434">
        <ele>91.462524414062</ele>
        <time>2011-10-02T10:09:43Z</time>
      </trkpt>
      <trkpt lat="43.24489" lon="6.51441">
        <ele>90.020629882812</ele>
        <time>2011-10-02T10:09:47Z</time>
      </trkpt>
      <trkpt lat="43.24524" lon="6.51458">
        <ele>87.136596679688</ele>
        <time>2011-10-02T10:09:52Z</time>
      </trkpt>
      <trkpt lat="43.24548" lon="6.51476">
        <ele>80.88818359375</ele>
        <time>2011-10-02T10:09:56Z</time>
      </trkpt>
      <trkpt lat="43.24586" lon="6.51515">
        <ele>78.484741210938</ele>
        <time>2011-10-02T10:10:04Z</time>
      </trkpt>
      <trkpt lat="43.24619" lon="6.51543">
        <ele>79.446044921875</ele>
        <time>2011-10-02T10:10:11Z</time>
      </trkpt>
      <trkpt lat="43.24648" lon="6.51556">
        <ele>79.446044921875</ele>
        <time>2011-10-02T10:10:17Z</time>
      </trkpt>
      <trkpt lat="43.24691" lon="6.51572">
        <ele>78.484741210938</ele>
        <time>2011-10-02T10:10:26Z</time>
      </trkpt>
      <trkpt lat="43.24719" lon="6.51593">
        <ele>78.965454101562</ele>
        <time>2011-10-02T10:10:33Z</time>
      </trkpt>
      <trkpt lat="43.24751" lon="6.51613">
        <ele>78.004028320312</ele>
        <time>2011-10-02T10:10:39Z</time>
      </trkpt>
      <trkpt lat="43.24803" lon="6.51642">
        <ele>77.5234375</ele>
        <time>2011-10-02T10:10:48Z</time>
      </trkpt>
      <trkpt lat="43.24834" lon="6.51671">
        <ele>77.042846679688</ele>
        <time>2011-10-02T10:10:54Z</time>
      </trkpt>
      <trkpt lat="43.2487" lon="6.51714">
        <ele>76.081420898438</ele>
        <time>2011-10-02T10:11:02Z</time>
      </trkpt>
      <trkpt lat="43.24894" lon="6.51748">
        <ele>70.794189453125</ele>
        <time>2011-10-02T10:11:07Z</time>
      </trkpt>
      <trkpt lat="43.24907" lon="6.51761">
        <ele>68.87158203125</ele>
        <time>2011-10-02T10:11:09Z</time>
      </trkpt>
      <trkpt lat="43.24936" lon="6.51784">
        <ele>65.507080078125</ele>
        <time>2011-10-02T10:11:14Z</time>
      </trkpt>
      <trkpt lat="43.24964" lon="6.51787">
        <ele>62.622924804688</ele>
        <time>2011-10-02T10:11:19Z</time>
      </trkpt>
      <trkpt lat="43.24985" lon="6.51781">
        <ele>60.2197265625</ele>
        <time>2011-10-02T10:11:22Z</time>
      </trkpt>
      <trkpt lat="43.25019" lon="6.51786">
        <ele>54.932373046875</ele>
        <time>2011-10-02T10:11:26Z</time>
      </trkpt>
      <trkpt lat="43.25074" lon="6.51815">
        <ele>50.1259765625</ele>
        <time>2011-10-02T10:11:32Z</time>
      </trkpt>
      <trkpt lat="43.25123" lon="6.51859">
        <ele>46.76123046875</ele>
        <time>2011-10-02T10:11:38Z</time>
      </trkpt>
      <trkpt lat="43.25167" lon="6.51898">
        <ele>45.319213867188</ele>
        <time>2011-10-02T10:11:44Z</time>
      </trkpt>
      <trkpt lat="43.25185" lon="6.51914">
        <ele>44.838623046875</ele>
        <time>2011-10-02T10:11:47Z</time>
      </trkpt>
      <trkpt lat="43.25196" lon="6.5194">
        <ele>42.916015625</ele>
        <time>2011-10-02T10:11:52Z</time>
      </trkpt>
      <trkpt lat="43.25187" lon="6.51959">
        <ele>43.396606445312</ele>
        <time>2011-10-02T10:11:56Z</time>
      </trkpt>
      <trkpt lat="43.2518" lon="6.51975">
        <ele>42.916015625</ele>
        <time>2011-10-02T10:11:59Z</time>
      </trkpt>
      <trkpt lat="43.25163" lon="6.52015">
        <ele>39.55126953125</ele>
        <time>2011-10-02T10:12:05Z</time>
      </trkpt>
      <trkpt lat="43.25151" lon="6.52048">
        <ele>36.66748046875</ele>
        <time>2011-10-02T10:12:10Z</time>
      </trkpt>
      <trkpt lat="43.25146" lon="6.52061">
        <ele>35.225463867188</ele>
        <time>2011-10-02T10:12:13Z</time>
      </trkpt>
      <trkpt lat="43.2513" lon="6.52097">
        <ele>32.341552734375</ele>
        <time>2011-10-02T10:12:19Z</time>
      </trkpt>
      <trkpt lat="43.25113" lon="6.52131">
        <ele>30.418823242188</ele>
        <time>2011-10-02T10:12:24Z</time>
      </trkpt>
      <trkpt lat="43.25098" lon="6.5218">
        <ele>29.45751953125</ele>
        <time>2011-10-02T10:12:30Z</time>
      </trkpt>
      <trkpt lat="43.25076" lon="6.52236">
        <ele>28.496215820312</ele>
        <time>2011-10-02T10:12:37Z</time>
      </trkpt>
      <trkpt lat="43.25045" lon="6.52305">
        <ele>28.496215820312</ele>
        <time>2011-10-02T10:12:46Z</time>
      </trkpt>
      <trkpt lat="43.25035" lon="6.52325">
        <ele>28.015502929688</ele>
        <time>2011-10-02T10:12:49Z</time>
      </trkpt>
      <trkpt lat="43.25014" lon="6.52344">
        <ele>26.092895507812</ele>
        <time>2011-10-02T10:12:53Z</time>
      </trkpt>
      <trkpt lat="43.25011" lon="6.52359">
        <ele>25.131713867188</ele>
        <time>2011-10-02T10:12:55Z</time>
      </trkpt>
      <trkpt lat="43.25011" lon="6.52368">
        <ele>25.131713867188</ele>
        <time>2011-10-02T10:12:56Z</time>
      </trkpt>
      <trkpt lat="43.25018" lon="6.52425">
        <ele>24.170288085938</ele>
        <time>2011-10-02T10:13:02Z</time>
      </trkpt>
      <trkpt lat="43.25033" lon="6.525">
        <ele>21.766967773438</ele>
        <time>2011-10-02T10:13:10Z</time>
      </trkpt>
      <trkpt lat="43.25044" lon="6.52569">
        <ele>18.40234375</ele>
        <time>2011-10-02T10:13:17Z</time>
      </trkpt>
      <trkpt lat="43.25051" lon="6.52607">
        <ele>16.479736328125</ele>
        <time>2011-10-02T10:13:21Z</time>
      </trkpt>
      <trkpt lat="43.25047" lon="6.52644">
        <ele>15.518432617188</ele>
        <time>2011-10-02T10:13:25Z</time>
      </trkpt>
      <trkpt lat="43.2504" lon="6.52659">
        <ele>15.518432617188</ele>
        <time>2011-10-02T10:13:27Z</time>
      </trkpt>
      <trkpt lat="43.25026" lon="6.52687">
        <ele>16.479736328125</ele>
        <time>2011-10-02T10:13:31Z</time>
      </trkpt>
      <trkpt lat="43.25019" lon="6.52724">
        <ele>15.9990234375</ele>
        <time>2011-10-02T10:13:36Z</time>
      </trkpt>
      <trkpt lat="43.25029" lon="6.52731">
        <ele>15.518432617188</ele>
        <time>2011-10-02T10:13:38Z</time>
      </trkpt>
      <trkpt lat="43.25033" lon="6.52735">
        <ele>15.037719726562</ele>
        <time>2011-10-02T10:13:39Z</time>
      </trkpt>
      <trkpt lat="43.25047" lon="6.52749">
        <ele>14.076416015625</ele>
        <time>2011-10-02T10:13:42Z</time>
      </trkpt>
      <trkpt lat="43.2506" lon="6.52762">
        <ele>14.076416015625</ele>
        <time>2011-10-02T10:13:45Z</time>
      </trkpt>
      <trkpt lat="43.2508" lon="6.5278">
        <ele>14.076416015625</ele>
        <time>2011-10-02T10:13:49Z</time>
      </trkpt>
      <trkpt lat="43.25109" lon="6.52813">
        <ele>14.076416015625</ele>
        <time>2011-10-02T10:13:56Z</time>
      </trkpt>
      <trkpt lat="43.25117" lon="6.52828">
        <ele>13.115112304688</ele>
        <time>2011-10-02T10:13:59Z</time>
      </trkpt>
      <trkpt lat="43.25124" lon="6.52861">
        <ele>11.673217773438</ele>
        <time>2011-10-02T10:14:06Z</time>
      </trkpt>
    </trkseg>
  </trk>
</gpx>